<?xml version="1.0" encoding="UTF-8" standalone="no" ?>
<gpx xmlns="http://www.topografix.com/GPX/1/1" xmlns:xsi="http://www.w3.org/2001/XMLSchema-instance" xsi:schemaLocation="http://www.topografix.com/GPX/1/1 http://www.topografix.com/GPX/1/1/gpx.xsd" version="1.1" creator="VisuGPX - https://www.visugpx.com">
  <metadata>
    <name>Petites Roches</name>
    <desc><![CDATA[Proposition de trace, non encore validée]]></desc>
  </metadata>
  <trk>
    <name><![CDATA[2016-12-26-PetitesRoches]]></name>
    <trkseg>
      <trkpt lat="45.30171" lon="5.8735">
        <ele>1044.7</ele>
        <time>2016-05-22T11:54:11Z</time>
      </trkpt>
      <trkpt lat="45.3018" lon="5.87345">
        <ele>1046.5</ele>
        <time>2016-05-22T11:54:19Z</time>
      </trkpt>
      <trkpt lat="45.3019" lon="5.87348">
        <ele>1048.3</ele>
        <time>2016-05-22T11:54:26Z</time>
      </trkpt>
      <trkpt lat="45.30199" lon="5.87353">
        <ele>1049.8</ele>
        <time>2016-05-22T11:54:33Z</time>
      </trkpt>
      <trkpt lat="45.30206" lon="5.87361">
        <ele>1050.7</ele>
        <time>2016-05-22T11:54:39Z</time>
      </trkpt>
      <trkpt lat="45.30214" lon="5.8737">
        <ele>1051.5</ele>
        <time>2016-05-22T11:54:46Z</time>
      </trkpt>
      <trkpt lat="45.30222" lon="5.87377">
        <ele>1052.4</ele>
        <time>2016-05-22T11:54:52Z</time>
      </trkpt>
      <trkpt lat="45.3023" lon="5.87385">
        <ele>1053</ele>
        <time>2016-05-22T11:54:58Z</time>
      </trkpt>
      <trkpt lat="45.30238" lon="5.87392">
        <ele>1053.8</ele>
        <time>2016-05-22T11:55:04Z</time>
      </trkpt>
      <trkpt lat="45.30248" lon="5.87398">
        <ele>1054.6</ele>
        <time>2016-05-22T11:55:10Z</time>
      </trkpt>
      <trkpt lat="45.30258" lon="5.87404">
        <ele>1056</ele>
        <time>2016-05-22T11:55:16Z</time>
      </trkpt>
      <trkpt lat="45.30266" lon="5.8741">
        <ele>1057.2</ele>
        <time>2016-05-22T11:55:21Z</time>
      </trkpt>
      <trkpt lat="45.30275" lon="5.87415">
        <ele>1058.7</ele>
        <time>2016-05-22T11:55:26Z</time>
      </trkpt>
      <trkpt lat="45.30284" lon="5.87421">
        <ele>1060.2</ele>
        <time>2016-05-22T11:55:31Z</time>
      </trkpt>
      <trkpt lat="45.30293" lon="5.87428">
        <ele>1061.6</ele>
        <time>2016-05-22T11:55:36Z</time>
      </trkpt>
      <trkpt lat="45.30302" lon="5.87434">
        <ele>1063.1</ele>
        <time>2016-05-22T11:55:41Z</time>
      </trkpt>
      <trkpt lat="45.30311" lon="5.87442">
        <ele>1064.2</ele>
        <time>2016-05-22T11:55:46Z</time>
      </trkpt>
      <trkpt lat="45.30318" lon="5.87452">
        <ele>1065.1</ele>
        <time>2016-05-22T11:55:51Z</time>
      </trkpt>
      <trkpt lat="45.30325" lon="5.87462">
        <ele>1065.7</ele>
        <time>2016-05-22T11:55:56Z</time>
      </trkpt>
      <trkpt lat="45.30333" lon="5.87472">
        <ele>1066.3</ele>
        <time>2016-05-22T11:56:01Z</time>
      </trkpt>
      <trkpt lat="45.30341" lon="5.87483">
        <ele>1067.9</ele>
        <time>2016-05-22T11:56:06Z</time>
      </trkpt>
      <trkpt lat="45.30348" lon="5.87494">
        <ele>1069</ele>
        <time>2016-05-22T11:56:11Z</time>
      </trkpt>
      <trkpt lat="45.30354" lon="5.87505">
        <ele>1069.9</ele>
        <time>2016-05-22T11:56:17Z</time>
      </trkpt>
      <trkpt lat="45.30361" lon="5.87514">
        <ele>1071.1</ele>
        <time>2016-05-22T11:56:22Z</time>
      </trkpt>
      <trkpt lat="45.30367" lon="5.87527">
        <ele>1071.5</ele>
        <time>2016-05-22T11:56:27Z</time>
      </trkpt>
      <trkpt lat="45.30372" lon="5.8754">
        <ele>1071.5</ele>
        <time>2016-05-22T11:56:32Z</time>
      </trkpt>
      <trkpt lat="45.30378" lon="5.87553">
        <ele>1071.6</ele>
        <time>2016-05-22T11:56:37Z</time>
      </trkpt>
      <trkpt lat="45.30384" lon="5.87563">
        <ele>1072</ele>
        <time>2016-05-22T11:56:41Z</time>
      </trkpt>
      <trkpt lat="45.30395" lon="5.87562">
        <ele>1074.7</ele>
        <time>2016-05-22T11:56:46Z</time>
      </trkpt>
      <trkpt lat="45.30399" lon="5.87548">
        <ele>1077.5</ele>
        <time>2016-05-22T11:56:51Z</time>
      </trkpt>
      <trkpt lat="45.30396" lon="5.87533">
        <ele>1078.6</ele>
        <time>2016-05-22T11:56:56Z</time>
      </trkpt>
      <trkpt lat="45.30393" lon="5.87518">
        <ele>1079.8</ele>
        <time>2016-05-22T11:57:01Z</time>
      </trkpt>
      <trkpt lat="45.30392" lon="5.87504">
        <ele>1081.3</ele>
        <time>2016-05-22T11:57:06Z</time>
      </trkpt>
      <trkpt lat="45.30392" lon="5.87489">
        <ele>1083.2</ele>
        <time>2016-05-22T11:57:11Z</time>
      </trkpt>
      <trkpt lat="45.30392" lon="5.87473">
        <ele>1085.3</ele>
        <time>2016-05-22T11:57:16Z</time>
      </trkpt>
      <trkpt lat="45.30393" lon="5.87459">
        <ele>1087.5</ele>
        <time>2016-05-22T11:57:21Z</time>
      </trkpt>
      <trkpt lat="45.30394" lon="5.87443">
        <ele>1089.9</ele>
        <time>2016-05-22T11:57:26Z</time>
      </trkpt>
      <trkpt lat="45.30395" lon="5.87428">
        <ele>1092.4</ele>
        <time>2016-05-22T11:57:31Z</time>
      </trkpt>
      <trkpt lat="45.30396" lon="5.87414">
        <ele>1094.6</ele>
        <time>2016-05-22T11:57:36Z</time>
      </trkpt>
      <trkpt lat="45.30395" lon="5.87398">
        <ele>1095.8</ele>
        <time>2016-05-22T11:57:41Z</time>
      </trkpt>
      <trkpt lat="45.30392" lon="5.87383">
        <ele>1096.1</ele>
        <time>2016-05-22T11:57:46Z</time>
      </trkpt>
      <trkpt lat="45.30389" lon="5.87368">
        <ele>1096.3</ele>
        <time>2016-05-22T11:57:51Z</time>
      </trkpt>
      <trkpt lat="45.30385" lon="5.87355">
        <ele>1096.3</ele>
        <time>2016-05-22T11:57:56Z</time>
      </trkpt>
      <trkpt lat="45.30381" lon="5.87341">
        <ele>1096.4</ele>
        <time>2016-05-22T11:58:01Z</time>
      </trkpt>
      <trkpt lat="45.30378" lon="5.87328">
        <ele>1097.1</ele>
        <time>2016-05-22T11:58:06Z</time>
      </trkpt>
      <trkpt lat="45.30374" lon="5.87314">
        <ele>1097.8</ele>
        <time>2016-05-22T11:58:11Z</time>
      </trkpt>
      <trkpt lat="45.30369" lon="5.87299">
        <ele>1098.3</ele>
        <time>2016-05-22T11:58:16Z</time>
      </trkpt>
      <trkpt lat="45.30365" lon="5.87286">
        <ele>1098.8</ele>
        <time>2016-05-22T11:58:21Z</time>
      </trkpt>
      <trkpt lat="45.30362" lon="5.87272">
        <ele>1099.4</ele>
        <time>2016-05-22T11:58:26Z</time>
      </trkpt>
      <trkpt lat="45.30357" lon="5.87258">
        <ele>1099.7</ele>
        <time>2016-05-22T11:58:31Z</time>
      </trkpt>
      <trkpt lat="45.30353" lon="5.87244">
        <ele>1100.1</ele>
        <time>2016-05-22T11:58:36Z</time>
      </trkpt>
      <trkpt lat="45.3035" lon="5.87229">
        <ele>1100.7</ele>
        <time>2016-05-22T11:58:41Z</time>
      </trkpt>
      <trkpt lat="45.30345" lon="5.87218">
        <ele>1100.7</ele>
        <time>2016-05-22T11:58:46Z</time>
      </trkpt>
      <trkpt lat="45.30341" lon="5.87204">
        <ele>1100.5</ele>
        <time>2016-05-22T11:58:51Z</time>
      </trkpt>
      <trkpt lat="45.30341" lon="5.8719">
        <ele>1102.3</ele>
        <time>2016-05-22T11:58:56Z</time>
      </trkpt>
      <trkpt lat="45.3035" lon="5.87196">
        <ele>1104.9</ele>
        <time>2016-05-22T11:59:04Z</time>
      </trkpt>
      <trkpt lat="45.30355" lon="5.87207">
        <ele>1105.3</ele>
        <time>2016-05-22T11:59:09Z</time>
      </trkpt>
      <trkpt lat="45.30361" lon="5.87219">
        <ele>1105.8</ele>
        <time>2016-05-22T11:59:14Z</time>
      </trkpt>
      <trkpt lat="45.30367" lon="5.87229">
        <ele>1106.8</ele>
        <time>2016-05-22T11:59:19Z</time>
      </trkpt>
      <trkpt lat="45.30375" lon="5.87239">
        <ele>1107.9</ele>
        <time>2016-05-22T11:59:24Z</time>
      </trkpt>
      <trkpt lat="45.30382" lon="5.87251">
        <ele>1108.6</ele>
        <time>2016-05-22T11:59:29Z</time>
      </trkpt>
      <trkpt lat="45.30388" lon="5.87261">
        <ele>1109.2</ele>
        <time>2016-05-22T11:59:33Z</time>
      </trkpt>
      <trkpt lat="45.30395" lon="5.87272">
        <ele>1110</ele>
        <time>2016-05-22T11:59:38Z</time>
      </trkpt>
      <trkpt lat="45.30402" lon="5.87284">
        <ele>1110.6</ele>
        <time>2016-05-22T11:59:43Z</time>
      </trkpt>
      <trkpt lat="45.30409" lon="5.87296">
        <ele>1111</ele>
        <time>2016-05-22T11:59:48Z</time>
      </trkpt>
      <trkpt lat="45.30415" lon="5.87307">
        <ele>1111.4</ele>
        <time>2016-05-22T11:59:53Z</time>
      </trkpt>
      <trkpt lat="45.30421" lon="5.87319">
        <ele>1111.6</ele>
        <time>2016-05-22T11:59:58Z</time>
      </trkpt>
      <trkpt lat="45.30428" lon="5.87331">
        <ele>1111.8</ele>
        <time>2016-05-22T12:00:03Z</time>
      </trkpt>
      <trkpt lat="45.30435" lon="5.87344">
        <ele>1112.5</ele>
        <time>2016-05-22T12:00:08Z</time>
      </trkpt>
      <trkpt lat="45.30441" lon="5.87357">
        <ele>1113</ele>
        <time>2016-05-22T12:00:13Z</time>
      </trkpt>
      <trkpt lat="45.30446" lon="5.87368">
        <ele>1113.2</ele>
        <time>2016-05-22T12:00:17Z</time>
      </trkpt>
      <trkpt lat="45.30451" lon="5.8738">
        <ele>1113.2</ele>
        <time>2016-05-22T12:00:22Z</time>
      </trkpt>
      <trkpt lat="45.30455" lon="5.87394">
        <ele>1112.9</ele>
        <time>2016-05-22T12:00:27Z</time>
      </trkpt>
      <trkpt lat="45.3046" lon="5.87407">
        <ele>1112.6</ele>
        <time>2016-05-22T12:00:31Z</time>
      </trkpt>
      <trkpt lat="45.30464" lon="5.87418">
        <ele>1112</ele>
        <time>2016-05-22T12:00:35Z</time>
      </trkpt>
      <trkpt lat="45.30469" lon="5.87432">
        <ele>1110.7</ele>
        <time>2016-05-22T12:00:40Z</time>
      </trkpt>
      <trkpt lat="45.30473" lon="5.87444">
        <ele>1109.5</ele>
        <time>2016-05-22T12:00:44Z</time>
      </trkpt>
      <trkpt lat="45.30479" lon="5.87455">
        <ele>1108.9</ele>
        <time>2016-05-22T12:00:48Z</time>
      </trkpt>
      <trkpt lat="45.30486" lon="5.87467">
        <ele>1108.1</ele>
        <time>2016-05-22T12:00:53Z</time>
      </trkpt>
      <trkpt lat="45.30492" lon="5.87479">
        <ele>1107.2</ele>
        <time>2016-05-22T12:00:58Z</time>
      </trkpt>
      <trkpt lat="45.305" lon="5.8749">
        <ele>1106.9</ele>
        <time>2016-05-22T12:01:03Z</time>
      </trkpt>
      <trkpt lat="45.30507" lon="5.87499">
        <ele>1105.5</ele>
        <time>2016-05-22T12:01:07Z</time>
      </trkpt>
      <trkpt lat="45.30515" lon="5.87507">
        <ele>1104.4</ele>
        <time>2016-05-22T12:01:11Z</time>
      </trkpt>
      <trkpt lat="45.30523" lon="5.87514">
        <ele>1103.5</ele>
        <time>2016-05-22T12:01:15Z</time>
      </trkpt>
      <trkpt lat="45.30532" lon="5.87522">
        <ele>1102.3</ele>
        <time>2016-05-22T12:01:20Z</time>
      </trkpt>
      <trkpt lat="45.3054" lon="5.87528">
        <ele>1101.6</ele>
        <time>2016-05-22T12:01:24Z</time>
      </trkpt>
      <trkpt lat="45.30549" lon="5.87533">
        <ele>1101.1</ele>
        <time>2016-05-22T12:01:28Z</time>
      </trkpt>
      <trkpt lat="45.30558" lon="5.87532">
        <ele>1101.6</ele>
        <time>2016-05-22T12:01:32Z</time>
      </trkpt>
      <trkpt lat="45.30567" lon="5.87527">
        <ele>1103</ele>
        <time>2016-05-22T12:01:37Z</time>
      </trkpt>
      <trkpt lat="45.30575" lon="5.8752">
        <ele>1104.5</ele>
        <time>2016-05-22T12:01:41Z</time>
      </trkpt>
      <trkpt lat="45.30583" lon="5.8751">
        <ele>1106.4</ele>
        <time>2016-05-22T12:01:46Z</time>
      </trkpt>
      <trkpt lat="45.3059" lon="5.87498">
        <ele>1109.5</ele>
        <time>2016-05-22T12:01:51Z</time>
      </trkpt>
      <trkpt lat="45.30596" lon="5.87488">
        <ele>1112.6</ele>
        <time>2016-05-22T12:01:55Z</time>
      </trkpt>
      <trkpt lat="45.30604" lon="5.87477">
        <ele>1116.3</ele>
        <time>2016-05-22T12:02:00Z</time>
      </trkpt>
      <trkpt lat="45.30612" lon="5.87467">
        <ele>1119.6</ele>
        <time>2016-05-22T12:02:05Z</time>
      </trkpt>
      <trkpt lat="45.30622" lon="5.87463">
        <ele>1121.9</ele>
        <time>2016-05-22T12:02:10Z</time>
      </trkpt>
      <trkpt lat="45.30632" lon="5.87461">
        <ele>1123.7</ele>
        <time>2016-05-22T12:02:15Z</time>
      </trkpt>
      <trkpt lat="45.30642" lon="5.8746">
        <ele>1125.2</ele>
        <time>2016-05-22T12:02:20Z</time>
      </trkpt>
      <trkpt lat="45.30651" lon="5.8746">
        <ele>1126.5</ele>
        <time>2016-05-22T12:02:24Z</time>
      </trkpt>
      <trkpt lat="45.30661" lon="5.8746">
        <ele>1127.9</ele>
        <time>2016-05-22T12:02:29Z</time>
      </trkpt>
      <trkpt lat="45.30671" lon="5.8746">
        <ele>1129.4</ele>
        <time>2016-05-22T12:02:35Z</time>
      </trkpt>
      <trkpt lat="45.30682" lon="5.87461">
        <ele>1131.3</ele>
        <time>2016-05-22T12:02:40Z</time>
      </trkpt>
      <trkpt lat="45.30691" lon="5.8746">
        <ele>1133</ele>
        <time>2016-05-22T12:02:45Z</time>
      </trkpt>
      <trkpt lat="45.30701" lon="5.87462">
        <ele>1134.5</ele>
        <time>2016-05-22T12:02:52Z</time>
      </trkpt>
      <trkpt lat="45.30711" lon="5.87463">
        <ele>1136.2</ele>
        <time>2016-05-22T12:02:57Z</time>
      </trkpt>
      <trkpt lat="45.30721" lon="5.87465">
        <ele>1137.7</ele>
        <time>2016-05-22T12:03:02Z</time>
      </trkpt>
      <trkpt lat="45.30732" lon="5.87468">
        <ele>1139.3</ele>
        <time>2016-05-22T12:03:08Z</time>
      </trkpt>
      <trkpt lat="45.30742" lon="5.87473">
        <ele>1140.4</ele>
        <time>2016-05-22T12:03:13Z</time>
      </trkpt>
      <trkpt lat="45.30751" lon="5.87478">
        <ele>1141.3</ele>
        <time>2016-05-22T12:03:18Z</time>
      </trkpt>
      <trkpt lat="45.3076" lon="5.87484">
        <ele>1141.7</ele>
        <time>2016-05-22T12:03:23Z</time>
      </trkpt>
      <trkpt lat="45.30768" lon="5.87492">
        <ele>1141.5</ele>
        <time>2016-05-22T12:03:28Z</time>
      </trkpt>
      <trkpt lat="45.30775" lon="5.87501">
        <ele>1140.9</ele>
        <time>2016-05-22T12:03:33Z</time>
      </trkpt>
      <trkpt lat="45.30783" lon="5.87511">
        <ele>1140.3</ele>
        <time>2016-05-22T12:03:38Z</time>
      </trkpt>
      <trkpt lat="45.3079" lon="5.8752">
        <ele>1139.8</ele>
        <time>2016-05-22T12:03:43Z</time>
      </trkpt>
      <trkpt lat="45.30798" lon="5.87529">
        <ele>1139.4</ele>
        <time>2016-05-22T12:03:48Z</time>
      </trkpt>
      <trkpt lat="45.30805" lon="5.87537">
        <ele>1139</ele>
        <time>2016-05-22T12:03:53Z</time>
      </trkpt>
      <trkpt lat="45.30813" lon="5.87546">
        <ele>1138.8</ele>
        <time>2016-05-22T12:03:58Z</time>
      </trkpt>
      <trkpt lat="45.30821" lon="5.87555">
        <ele>1138.6</ele>
        <time>2016-05-22T12:04:03Z</time>
      </trkpt>
      <trkpt lat="45.3083" lon="5.87563">
        <ele>1138.5</ele>
        <time>2016-05-22T12:04:08Z</time>
      </trkpt>
      <trkpt lat="45.30839" lon="5.87571">
        <ele>1139.3</ele>
        <time>2016-05-22T12:04:13Z</time>
      </trkpt>
      <trkpt lat="45.30849" lon="5.87576">
        <ele>1140.9</ele>
        <time>2016-05-22T12:04:18Z</time>
      </trkpt>
      <trkpt lat="45.3086" lon="5.87578">
        <ele>1143.2</ele>
        <time>2016-05-22T12:04:24Z</time>
      </trkpt>
      <trkpt lat="45.30869" lon="5.87575">
        <ele>1145.9</ele>
        <time>2016-05-22T12:04:29Z</time>
      </trkpt>
      <trkpt lat="45.30878" lon="5.87567">
        <ele>1149.5</ele>
        <time>2016-05-22T12:04:34Z</time>
      </trkpt>
      <trkpt lat="45.30885" lon="5.87557">
        <ele>1153.2</ele>
        <time>2016-05-22T12:04:39Z</time>
      </trkpt>
      <trkpt lat="45.30895" lon="5.87552">
        <ele>1156.6</ele>
        <time>2016-05-22T12:04:45Z</time>
      </trkpt>
      <trkpt lat="45.30904" lon="5.87555">
        <ele>1158.4</ele>
        <time>2016-05-22T12:04:51Z</time>
      </trkpt>
      <trkpt lat="45.30912" lon="5.87561">
        <ele>1159.1</ele>
        <time>2016-05-22T12:04:57Z</time>
      </trkpt>
      <trkpt lat="45.30921" lon="5.87568">
        <ele>1160</ele>
        <time>2016-05-22T12:05:03Z</time>
      </trkpt>
      <trkpt lat="45.3093" lon="5.87576">
        <ele>1160.8</ele>
        <time>2016-05-22T12:05:09Z</time>
      </trkpt>
      <trkpt lat="45.30938" lon="5.87584">
        <ele>1161.2</ele>
        <time>2016-05-22T12:05:15Z</time>
      </trkpt>
      <trkpt lat="45.30947" lon="5.87591">
        <ele>1162.4</ele>
        <time>2016-05-22T12:05:21Z</time>
      </trkpt>
      <trkpt lat="45.3096" lon="5.87599">
        <ele>1163.9</ele>
        <time>2016-05-22T12:05:21Z</time>
      </trkpt>
      <trkpt lat="45.30957" lon="5.87582">
        <ele>1166.4</ele>
        <time>2016-05-22T11:54:11Z</time>
      </trkpt>
      <trkpt lat="45.30958" lon="5.8758">
        <ele>1167</ele>
        <time>2016-05-22T11:54:12Z</time>
      </trkpt>
      <trkpt lat="45.30957" lon="5.87577">
        <ele>1167.4</ele>
        <time>2016-05-22T11:54:13Z</time>
      </trkpt>
      <trkpt lat="45.30957" lon="5.87574">
        <ele>1167.8</ele>
        <time>2016-05-22T11:54:14Z</time>
      </trkpt>
      <trkpt lat="45.30956" lon="5.8757">
        <ele>1168.1</ele>
        <time>2016-05-22T11:54:15Z</time>
      </trkpt>
      <trkpt lat="45.30955" lon="5.87568">
        <ele>1168.3</ele>
        <time>2016-05-22T11:54:16Z</time>
      </trkpt>
      <trkpt lat="45.30953" lon="5.87565">
        <ele>1168.5</ele>
        <time>2016-05-22T11:54:17Z</time>
      </trkpt>
      <trkpt lat="45.30952" lon="5.87563">
        <ele>1168.5</ele>
        <time>2016-05-22T11:54:18Z</time>
      </trkpt>
      <trkpt lat="45.3095" lon="5.8756">
        <ele>1168.5</ele>
        <time>2016-05-22T11:54:19Z</time>
      </trkpt>
      <trkpt lat="45.30948" lon="5.87558">
        <ele>1168.4</ele>
        <time>2016-05-22T11:54:20Z</time>
      </trkpt>
      <trkpt lat="45.30946" lon="5.87556">
        <ele>1168.3</ele>
        <time>2016-05-22T11:54:21Z</time>
      </trkpt>
      <trkpt lat="45.30944" lon="5.87554">
        <ele>1168.2</ele>
        <time>2016-05-22T11:54:22Z</time>
      </trkpt>
      <trkpt lat="45.30942" lon="5.87552">
        <ele>1168.1</ele>
        <time>2016-05-22T11:54:23Z</time>
      </trkpt>
      <trkpt lat="45.30939" lon="5.8755">
        <ele>1167.7</ele>
        <time>2016-05-22T11:54:24Z</time>
      </trkpt>
      <trkpt lat="45.30937" lon="5.87549">
        <ele>1167.5</ele>
        <time>2016-05-22T11:54:25Z</time>
      </trkpt>
      <trkpt lat="45.30936" lon="5.87546">
        <ele>1167.8</ele>
        <time>2016-05-22T11:54:26Z</time>
      </trkpt>
      <trkpt lat="45.30936" lon="5.87543">
        <ele>1168.2</ele>
        <time>2016-05-22T11:54:27Z</time>
      </trkpt>
      <trkpt lat="45.30936" lon="5.8754">
        <ele>1168.7</ele>
        <time>2016-05-22T11:54:28Z</time>
      </trkpt>
      <trkpt lat="45.30936" lon="5.87538">
        <ele>1169.1</ele>
        <time>2016-05-22T11:54:29Z</time>
      </trkpt>
      <trkpt lat="45.30935" lon="5.87536">
        <ele>1169.4</ele>
        <time>2016-05-22T11:54:30Z</time>
      </trkpt>
      <trkpt lat="45.30935" lon="5.87533">
        <ele>1169.8</ele>
        <time>2016-05-22T11:54:31Z</time>
      </trkpt>
      <trkpt lat="45.30934" lon="5.87529">
        <ele>1170.3</ele>
        <time>2016-05-22T11:54:32Z</time>
      </trkpt>
      <trkpt lat="45.30932" lon="5.87525">
        <ele>1170.8</ele>
        <time>2016-05-22T11:54:33Z</time>
      </trkpt>
      <trkpt lat="45.30931" lon="5.87522">
        <ele>1171.1</ele>
        <time>2016-05-22T11:54:34Z</time>
      </trkpt>
      <trkpt lat="45.30931" lon="5.87519">
        <ele>1171.5</ele>
        <time>2016-05-22T11:54:35Z</time>
      </trkpt>
      <trkpt lat="45.30929" lon="5.87516">
        <ele>1171.7</ele>
        <time>2016-05-22T11:54:36Z</time>
      </trkpt>
      <trkpt lat="45.30928" lon="5.87514">
        <ele>1171.8</ele>
        <time>2016-05-22T11:54:37Z</time>
      </trkpt>
      <trkpt lat="45.30927" lon="5.87511">
        <ele>1172.1</ele>
        <time>2016-05-22T11:54:38Z</time>
      </trkpt>
      <trkpt lat="45.30926" lon="5.87509">
        <ele>1172.3</ele>
        <time>2016-05-22T11:54:39Z</time>
      </trkpt>
      <trkpt lat="45.30926" lon="5.87508">
        <ele>1172.6</ele>
        <time>2016-05-22T11:54:40Z</time>
      </trkpt>
      <trkpt lat="45.30925" lon="5.87506">
        <ele>1172.7</ele>
        <time>2016-05-22T11:54:41Z</time>
      </trkpt>
      <trkpt lat="45.30925" lon="5.87504">
        <ele>1172.9</ele>
        <time>2016-05-22T11:54:42Z</time>
      </trkpt>
      <trkpt lat="45.30924" lon="5.87502">
        <ele>1173.3</ele>
        <time>2016-05-22T11:54:43Z</time>
      </trkpt>
      <trkpt lat="45.30924" lon="5.875">
        <ele>1173.7</ele>
        <time>2016-05-22T11:54:44Z</time>
      </trkpt>
      <trkpt lat="45.30923" lon="5.87497">
        <ele>1174.1</ele>
        <time>2016-05-22T11:54:45Z</time>
      </trkpt>
      <trkpt lat="45.30923" lon="5.87495">
        <ele>1174.5</ele>
        <time>2016-05-22T11:54:46Z</time>
      </trkpt>
      <trkpt lat="45.30921" lon="5.87494">
        <ele>1174.6</ele>
        <time>2016-05-22T11:54:47Z</time>
      </trkpt>
      <trkpt lat="45.3092" lon="5.87492">
        <ele>1174.9</ele>
        <time>2016-05-22T11:54:48Z</time>
      </trkpt>
      <trkpt lat="45.3092" lon="5.8749">
        <ele>1175.2</ele>
        <time>2016-05-22T11:54:49Z</time>
      </trkpt>
      <trkpt lat="45.30919" lon="5.87488">
        <ele>1175.6</ele>
        <time>2016-05-22T11:54:50Z</time>
      </trkpt>
      <trkpt lat="45.30919" lon="5.87486">
        <ele>1176.1</ele>
        <time>2016-05-22T11:54:51Z</time>
      </trkpt>
      <trkpt lat="45.30918" lon="5.87484">
        <ele>1176.4</ele>
        <time>2016-05-22T11:54:52Z</time>
      </trkpt>
      <trkpt lat="45.30918" lon="5.87482">
        <ele>1176.6</ele>
        <time>2016-05-22T11:54:53Z</time>
      </trkpt>
      <trkpt lat="45.30917" lon="5.8748">
        <ele>1176.9</ele>
        <time>2016-05-22T11:54:54Z</time>
      </trkpt>
      <trkpt lat="45.30916" lon="5.87478">
        <ele>1177.4</ele>
        <time>2016-05-22T11:54:55Z</time>
      </trkpt>
      <trkpt lat="45.30916" lon="5.87476">
        <ele>1177.6</ele>
        <time>2016-05-22T11:54:56Z</time>
      </trkpt>
      <trkpt lat="45.30914" lon="5.87474">
        <ele>1177.7</ele>
        <time>2016-05-22T11:54:57Z</time>
      </trkpt>
      <trkpt lat="45.30913" lon="5.87472">
        <ele>1177.9</ele>
        <time>2016-05-22T11:54:58Z</time>
      </trkpt>
      <trkpt lat="45.30912" lon="5.8747">
        <ele>1178.1</ele>
        <time>2016-05-22T11:54:59Z</time>
      </trkpt>
      <trkpt lat="45.30911" lon="5.87468">
        <ele>1178.3</ele>
        <time>2016-05-22T11:55:00Z</time>
      </trkpt>
      <trkpt lat="45.3091" lon="5.87467">
        <ele>1178.3</ele>
        <time>2016-05-22T11:55:01Z</time>
      </trkpt>
      <trkpt lat="45.30909" lon="5.87464">
        <ele>1178.5</ele>
        <time>2016-05-22T11:55:02Z</time>
      </trkpt>
      <trkpt lat="45.30908" lon="5.87462">
        <ele>1178.6</ele>
        <time>2016-05-22T11:55:03Z</time>
      </trkpt>
      <trkpt lat="45.30907" lon="5.8746">
        <ele>1178.8</ele>
        <time>2016-05-22T11:55:04Z</time>
      </trkpt>
      <trkpt lat="45.30906" lon="5.87459">
        <ele>1179</ele>
        <time>2016-05-22T11:55:05Z</time>
      </trkpt>
      <trkpt lat="45.30905" lon="5.87458">
        <ele>1178.8</ele>
        <time>2016-05-22T11:55:06Z</time>
      </trkpt>
      <trkpt lat="45.30904" lon="5.87456">
        <ele>1178.9</ele>
        <time>2016-05-22T11:55:07Z</time>
      </trkpt>
      <trkpt lat="45.30903" lon="5.87454">
        <ele>1179</ele>
        <time>2016-05-22T11:55:08Z</time>
      </trkpt>
      <trkpt lat="45.30901" lon="5.87453">
        <ele>1179</ele>
        <time>2016-05-22T11:55:09Z</time>
      </trkpt>
      <trkpt lat="45.309" lon="5.87451">
        <ele>1179</ele>
        <time>2016-05-22T11:55:10Z</time>
      </trkpt>
      <trkpt lat="45.30899" lon="5.87449">
        <ele>1179.1</ele>
        <time>2016-05-22T11:55:11Z</time>
      </trkpt>
      <trkpt lat="45.30897" lon="5.87447">
        <ele>1179.2</ele>
        <time>2016-05-22T11:55:12Z</time>
      </trkpt>
      <trkpt lat="45.30896" lon="5.87445">
        <ele>1179.3</ele>
        <time>2016-05-22T11:55:13Z</time>
      </trkpt>
      <trkpt lat="45.30895" lon="5.87443">
        <ele>1179.4</ele>
        <time>2016-05-22T11:55:14Z</time>
      </trkpt>
      <trkpt lat="45.30894" lon="5.87441">
        <ele>1179.4</ele>
        <time>2016-05-22T11:55:15Z</time>
      </trkpt>
      <trkpt lat="45.30892" lon="5.87439">
        <ele>1179.5</ele>
        <time>2016-05-22T11:55:16Z</time>
      </trkpt>
      <trkpt lat="45.30891" lon="5.87438">
        <ele>1179.4</ele>
        <time>2016-05-22T11:55:17Z</time>
      </trkpt>
      <trkpt lat="45.3089" lon="5.87436">
        <ele>1179.5</ele>
        <time>2016-05-22T11:55:18Z</time>
      </trkpt>
      <trkpt lat="45.30889" lon="5.87435">
        <ele>1179.4</ele>
        <time>2016-05-22T11:55:19Z</time>
      </trkpt>
      <trkpt lat="45.30888" lon="5.87434">
        <ele>1179.4</ele>
        <time>2016-05-22T11:55:20Z</time>
      </trkpt>
      <trkpt lat="45.30886" lon="5.87433">
        <ele>1179.2</ele>
        <time>2016-05-22T11:55:21Z</time>
      </trkpt>
      <trkpt lat="45.30885" lon="5.87432">
        <ele>1179.2</ele>
        <time>2016-05-22T11:55:22Z</time>
      </trkpt>
      <trkpt lat="45.30885" lon="5.8743">
        <ele>1179.5</ele>
        <time>2016-05-22T11:55:23Z</time>
      </trkpt>
      <trkpt lat="45.30884" lon="5.87428">
        <ele>1179.6</ele>
        <time>2016-05-22T11:55:24Z</time>
      </trkpt>
      <trkpt lat="45.30883" lon="5.87426">
        <ele>1179.6</ele>
        <time>2016-05-22T11:55:25Z</time>
      </trkpt>
      <trkpt lat="45.30882" lon="5.87425">
        <ele>1179.8</ele>
        <time>2016-05-22T11:55:26Z</time>
      </trkpt>
      <trkpt lat="45.30881" lon="5.87423">
        <ele>1179.9</ele>
        <time>2016-05-22T11:55:27Z</time>
      </trkpt>
      <trkpt lat="45.3088" lon="5.87422">
        <ele>1179.8</ele>
        <time>2016-05-22T11:55:28Z</time>
      </trkpt>
      <trkpt lat="45.30878" lon="5.8742">
        <ele>1180</ele>
        <time>2016-05-22T11:55:29Z</time>
      </trkpt>
      <trkpt lat="45.30877" lon="5.87417">
        <ele>1180.2</ele>
        <time>2016-05-22T11:55:30Z</time>
      </trkpt>
      <trkpt lat="45.30877" lon="5.87416">
        <ele>1180.5</ele>
        <time>2016-05-22T11:55:31Z</time>
      </trkpt>
      <trkpt lat="45.30876" lon="5.87414">
        <ele>1180.7</ele>
        <time>2016-05-22T11:55:32Z</time>
      </trkpt>
      <trkpt lat="45.30875" lon="5.87412">
        <ele>1181</ele>
        <time>2016-05-22T11:55:33Z</time>
      </trkpt>
      <trkpt lat="45.30875" lon="5.8741">
        <ele>1181.2</ele>
        <time>2016-05-22T11:55:34Z</time>
      </trkpt>
      <trkpt lat="45.30874" lon="5.87409">
        <ele>1181.4</ele>
        <time>2016-05-22T11:55:35Z</time>
      </trkpt>
      <trkpt lat="45.30873" lon="5.87407">
        <ele>1181.5</ele>
        <time>2016-05-22T11:55:36Z</time>
      </trkpt>
      <trkpt lat="45.30872" lon="5.87406">
        <ele>1181.6</ele>
        <time>2016-05-22T11:55:37Z</time>
      </trkpt>
      <trkpt lat="45.30871" lon="5.87404">
        <ele>1181.6</ele>
        <time>2016-05-22T11:55:38Z</time>
      </trkpt>
      <trkpt lat="45.3087" lon="5.87402">
        <ele>1181.7</ele>
        <time>2016-05-22T11:55:39Z</time>
      </trkpt>
      <trkpt lat="45.30868" lon="5.874">
        <ele>1181.8</ele>
        <time>2016-05-22T11:55:40Z</time>
      </trkpt>
      <trkpt lat="45.30867" lon="5.87399">
        <ele>1181.9</ele>
        <time>2016-05-22T11:55:41Z</time>
      </trkpt>
      <trkpt lat="45.30866" lon="5.87397">
        <ele>1182</ele>
        <time>2016-05-22T11:55:42Z</time>
      </trkpt>
      <trkpt lat="45.30865" lon="5.87395">
        <ele>1182.1</ele>
        <time>2016-05-22T11:55:43Z</time>
      </trkpt>
      <trkpt lat="45.30864" lon="5.87394">
        <ele>1182.3</ele>
        <time>2016-05-22T11:55:44Z</time>
      </trkpt>
      <trkpt lat="45.30863" lon="5.87392">
        <ele>1182.4</ele>
        <time>2016-05-22T11:55:45Z</time>
      </trkpt>
      <trkpt lat="45.30861" lon="5.87391">
        <ele>1182.3</ele>
        <time>2016-05-22T11:55:46Z</time>
      </trkpt>
      <trkpt lat="45.3086" lon="5.87389">
        <ele>1182.3</ele>
        <time>2016-05-22T11:55:47Z</time>
      </trkpt>
      <trkpt lat="45.3086" lon="5.87388">
        <ele>1182.3</ele>
        <time>2016-05-22T11:55:48Z</time>
      </trkpt>
      <trkpt lat="45.30859" lon="5.87387">
        <ele>1182.5</ele>
        <time>2016-05-22T11:55:49Z</time>
      </trkpt>
      <trkpt lat="45.30858" lon="5.87385">
        <ele>1182.5</ele>
        <time>2016-05-22T11:55:50Z</time>
      </trkpt>
      <trkpt lat="45.30857" lon="5.87384">
        <ele>1182.6</ele>
        <time>2016-05-22T11:55:51Z</time>
      </trkpt>
      <trkpt lat="45.30856" lon="5.87382">
        <ele>1182.6</ele>
        <time>2016-05-22T11:55:52Z</time>
      </trkpt>
      <trkpt lat="45.30854" lon="5.87381">
        <ele>1182.5</ele>
        <time>2016-05-22T11:55:53Z</time>
      </trkpt>
      <trkpt lat="45.30853" lon="5.87379">
        <ele>1182.5</ele>
        <time>2016-05-22T11:55:54Z</time>
      </trkpt>
      <trkpt lat="45.30852" lon="5.87378">
        <ele>1182.5</ele>
        <time>2016-05-22T11:55:55Z</time>
      </trkpt>
      <trkpt lat="45.30851" lon="5.87377">
        <ele>1182.5</ele>
        <time>2016-05-22T11:55:56Z</time>
      </trkpt>
      <trkpt lat="45.3085" lon="5.87375">
        <ele>1182.6</ele>
        <time>2016-05-22T11:55:57Z</time>
      </trkpt>
      <trkpt lat="45.30849" lon="5.87374">
        <ele>1182.5</ele>
        <time>2016-05-22T11:55:58Z</time>
      </trkpt>
      <trkpt lat="45.30848" lon="5.87372">
        <ele>1182.7</ele>
        <time>2016-05-22T11:55:59Z</time>
      </trkpt>
      <trkpt lat="45.30847" lon="5.87371">
        <ele>1182.8</ele>
        <time>2016-05-22T11:56:00Z</time>
      </trkpt>
      <trkpt lat="45.30846" lon="5.87369">
        <ele>1182.9</ele>
        <time>2016-05-22T11:56:01Z</time>
      </trkpt>
      <trkpt lat="45.30844" lon="5.87367">
        <ele>1182.9</ele>
        <time>2016-05-22T11:56:02Z</time>
      </trkpt>
      <trkpt lat="45.30843" lon="5.87366">
        <ele>1183</ele>
        <time>2016-05-22T11:56:03Z</time>
      </trkpt>
      <trkpt lat="45.30842" lon="5.87364">
        <ele>1182.9</ele>
        <time>2016-05-22T11:56:04Z</time>
      </trkpt>
      <trkpt lat="45.30841" lon="5.87363">
        <ele>1183</ele>
        <time>2016-05-22T11:56:05Z</time>
      </trkpt>
      <trkpt lat="45.3084" lon="5.87362">
        <ele>1183</ele>
        <time>2016-05-22T11:56:06Z</time>
      </trkpt>
      <trkpt lat="45.30839" lon="5.87361">
        <ele>1183.1</ele>
        <time>2016-05-22T11:56:07Z</time>
      </trkpt>
      <trkpt lat="45.30838" lon="5.8736">
        <ele>1183.1</ele>
        <time>2016-05-22T11:56:08Z</time>
      </trkpt>
      <trkpt lat="45.30838" lon="5.87358">
        <ele>1183.1</ele>
        <time>2016-05-22T11:56:09Z</time>
      </trkpt>
      <trkpt lat="45.30836" lon="5.87357">
        <ele>1183.1</ele>
        <time>2016-05-22T11:56:10Z</time>
      </trkpt>
      <trkpt lat="45.30835" lon="5.87356">
        <ele>1183.1</ele>
        <time>2016-05-22T11:56:11Z</time>
      </trkpt>
      <trkpt lat="45.30834" lon="5.87354">
        <ele>1183.2</ele>
        <time>2016-05-22T11:56:12Z</time>
      </trkpt>
      <trkpt lat="45.30833" lon="5.87353">
        <ele>1183.3</ele>
        <time>2016-05-22T11:56:13Z</time>
      </trkpt>
      <trkpt lat="45.30832" lon="5.87351">
        <ele>1183.4</ele>
        <time>2016-05-22T11:56:14Z</time>
      </trkpt>
      <trkpt lat="45.30831" lon="5.8735">
        <ele>1183.6</ele>
        <time>2016-05-22T11:56:15Z</time>
      </trkpt>
      <trkpt lat="45.3083" lon="5.87348">
        <ele>1183.7</ele>
        <time>2016-05-22T11:56:16Z</time>
      </trkpt>
      <trkpt lat="45.30828" lon="5.87347">
        <ele>1183.8</ele>
        <time>2016-05-22T11:56:17Z</time>
      </trkpt>
      <trkpt lat="45.30827" lon="5.87345">
        <ele>1183.9</ele>
        <time>2016-05-22T11:56:18Z</time>
      </trkpt>
      <trkpt lat="45.30825" lon="5.87343">
        <ele>1184</ele>
        <time>2016-05-22T11:56:19Z</time>
      </trkpt>
      <trkpt lat="45.30824" lon="5.87342">
        <ele>1184.1</ele>
        <time>2016-05-22T11:56:20Z</time>
      </trkpt>
      <trkpt lat="45.30823" lon="5.87341">
        <ele>1184.3</ele>
        <time>2016-05-22T11:56:21Z</time>
      </trkpt>
      <trkpt lat="45.30822" lon="5.8734">
        <ele>1184.4</ele>
        <time>2016-05-22T11:56:22Z</time>
      </trkpt>
      <trkpt lat="45.30821" lon="5.87338">
        <ele>1184.5</ele>
        <time>2016-05-22T11:56:23Z</time>
      </trkpt>
      <trkpt lat="45.30819" lon="5.87337">
        <ele>1184.6</ele>
        <time>2016-05-22T11:56:24Z</time>
      </trkpt>
      <trkpt lat="45.30818" lon="5.87336">
        <ele>1184.6</ele>
        <time>2016-05-22T11:56:25Z</time>
      </trkpt>
      <trkpt lat="45.30817" lon="5.87334">
        <ele>1184.9</ele>
        <time>2016-05-22T11:56:26Z</time>
      </trkpt>
      <trkpt lat="45.30817" lon="5.87333">
        <ele>1185.2</ele>
        <time>2016-05-22T11:56:27Z</time>
      </trkpt>
      <trkpt lat="45.30816" lon="5.87331">
        <ele>1185.8</ele>
        <time>2016-05-22T11:56:28Z</time>
      </trkpt>
      <trkpt lat="45.30814" lon="5.87328">
        <ele>1186.3</ele>
        <time>2016-05-22T11:56:29Z</time>
      </trkpt>
      <trkpt lat="45.30813" lon="5.87327">
        <ele>1186.7</ele>
        <time>2016-05-22T11:56:30Z</time>
      </trkpt>
      <trkpt lat="45.30812" lon="5.87325">
        <ele>1187</ele>
        <time>2016-05-22T11:56:31Z</time>
      </trkpt>
      <trkpt lat="45.30811" lon="5.87324">
        <ele>1187.3</ele>
        <time>2016-05-22T11:56:32Z</time>
      </trkpt>
      <trkpt lat="45.30809" lon="5.87323">
        <ele>1187.5</ele>
        <time>2016-05-22T11:56:33Z</time>
      </trkpt>
      <trkpt lat="45.30808" lon="5.87321">
        <ele>1187.6</ele>
        <time>2016-05-22T11:56:34Z</time>
      </trkpt>
      <trkpt lat="45.30807" lon="5.8732">
        <ele>1187.8</ele>
        <time>2016-05-22T11:56:35Z</time>
      </trkpt>
      <trkpt lat="45.30806" lon="5.87319">
        <ele>1187.9</ele>
        <time>2016-05-22T11:56:36Z</time>
      </trkpt>
      <trkpt lat="45.30805" lon="5.87318">
        <ele>1188.2</ele>
        <time>2016-05-22T11:56:37Z</time>
      </trkpt>
      <trkpt lat="45.30804" lon="5.87317">
        <ele>1188.3</ele>
        <time>2016-05-22T11:56:38Z</time>
      </trkpt>
      <trkpt lat="45.30803" lon="5.87316">
        <ele>1188.3</ele>
        <time>2016-05-22T11:56:39Z</time>
      </trkpt>
      <trkpt lat="45.30801" lon="5.87315">
        <ele>1188.4</ele>
        <time>2016-05-22T11:56:40Z</time>
      </trkpt>
      <trkpt lat="45.308" lon="5.87314">
        <ele>1188.6</ele>
        <time>2016-05-22T11:56:41Z</time>
      </trkpt>
      <trkpt lat="45.30799" lon="5.87313">
        <ele>1188.9</ele>
        <time>2016-05-22T11:56:42Z</time>
      </trkpt>
      <trkpt lat="45.30798" lon="5.87312">
        <ele>1189.2</ele>
        <time>2016-05-22T11:56:43Z</time>
      </trkpt>
      <trkpt lat="45.30796" lon="5.8731">
        <ele>1189.2</ele>
        <time>2016-05-22T11:56:44Z</time>
      </trkpt>
      <trkpt lat="45.30795" lon="5.87309">
        <ele>1189.3</ele>
        <time>2016-05-22T11:56:45Z</time>
      </trkpt>
      <trkpt lat="45.30793" lon="5.87308">
        <ele>1189.5</ele>
        <time>2016-05-22T11:56:46Z</time>
      </trkpt>
      <trkpt lat="45.30792" lon="5.87306">
        <ele>1189.8</ele>
        <time>2016-05-22T11:56:47Z</time>
      </trkpt>
      <trkpt lat="45.30791" lon="5.87304">
        <ele>1190.4</ele>
        <time>2016-05-22T11:56:48Z</time>
      </trkpt>
      <trkpt lat="45.30789" lon="5.87301">
        <ele>1191.1</ele>
        <time>2016-05-22T11:56:49Z</time>
      </trkpt>
      <trkpt lat="45.30787" lon="5.87299">
        <ele>1191.5</ele>
        <time>2016-05-22T11:56:50Z</time>
      </trkpt>
      <trkpt lat="45.30786" lon="5.87296">
        <ele>1192.1</ele>
        <time>2016-05-22T11:56:51Z</time>
      </trkpt>
      <trkpt lat="45.30784" lon="5.87295">
        <ele>1192.5</ele>
        <time>2016-05-22T11:56:52Z</time>
      </trkpt>
      <trkpt lat="45.30783" lon="5.87293">
        <ele>1192.9</ele>
        <time>2016-05-22T11:56:53Z</time>
      </trkpt>
      <trkpt lat="45.30782" lon="5.87291">
        <ele>1193.3</ele>
        <time>2016-05-22T11:56:54Z</time>
      </trkpt>
      <trkpt lat="45.30781" lon="5.87289">
        <ele>1193.8</ele>
        <time>2016-05-22T11:56:55Z</time>
      </trkpt>
      <trkpt lat="45.30779" lon="5.87287">
        <ele>1194.1</ele>
        <time>2016-05-22T11:56:56Z</time>
      </trkpt>
      <trkpt lat="45.30778" lon="5.87286">
        <ele>1194.3</ele>
        <time>2016-05-22T11:56:57Z</time>
      </trkpt>
      <trkpt lat="45.30776" lon="5.87284">
        <ele>1194.5</ele>
        <time>2016-05-22T11:56:58Z</time>
      </trkpt>
      <trkpt lat="45.30775" lon="5.87283">
        <ele>1194.7</ele>
        <time>2016-05-22T11:56:59Z</time>
      </trkpt>
      <trkpt lat="45.30774" lon="5.87282">
        <ele>1194.9</ele>
        <time>2016-05-22T11:57:00Z</time>
      </trkpt>
      <trkpt lat="45.30772" lon="5.8728">
        <ele>1195.2</ele>
        <time>2016-05-22T11:57:01Z</time>
      </trkpt>
      <trkpt lat="45.30771" lon="5.87279">
        <ele>1195.2</ele>
        <time>2016-05-22T11:57:02Z</time>
      </trkpt>
      <trkpt lat="45.3077" lon="5.87278">
        <ele>1195.4</ele>
        <time>2016-05-22T11:57:03Z</time>
      </trkpt>
      <trkpt lat="45.30769" lon="5.87277">
        <ele>1195.8</ele>
        <time>2016-05-22T11:57:04Z</time>
      </trkpt>
      <trkpt lat="45.30769" lon="5.87275">
        <ele>1196.1</ele>
        <time>2016-05-22T11:57:05Z</time>
      </trkpt>
      <trkpt lat="45.30768" lon="5.87274">
        <ele>1196.4</ele>
        <time>2016-05-22T11:57:06Z</time>
      </trkpt>
      <trkpt lat="45.30767" lon="5.87273">
        <ele>1196.7</ele>
        <time>2016-05-22T11:57:07Z</time>
      </trkpt>
      <trkpt lat="45.30766" lon="5.87271">
        <ele>1197</ele>
        <time>2016-05-22T11:57:08Z</time>
      </trkpt>
      <trkpt lat="45.30765" lon="5.8727">
        <ele>1197.3</ele>
        <time>2016-05-22T11:57:09Z</time>
      </trkpt>
      <trkpt lat="45.30764" lon="5.87269">
        <ele>1197.4</ele>
        <time>2016-05-22T11:57:10Z</time>
      </trkpt>
      <trkpt lat="45.30764" lon="5.87268">
        <ele>1197.6</ele>
        <time>2016-05-22T11:57:11Z</time>
      </trkpt>
      <trkpt lat="45.30763" lon="5.87267">
        <ele>1197.8</ele>
        <time>2016-05-22T11:57:12Z</time>
      </trkpt>
      <trkpt lat="45.30762" lon="5.87266">
        <ele>1198.1</ele>
        <time>2016-05-22T11:57:13Z</time>
      </trkpt>
      <trkpt lat="45.30761" lon="5.87264">
        <ele>1198.4</ele>
        <time>2016-05-22T11:57:14Z</time>
      </trkpt>
      <trkpt lat="45.3076" lon="5.87263">
        <ele>1198.8</ele>
        <time>2016-05-22T11:57:15Z</time>
      </trkpt>
      <trkpt lat="45.30759" lon="5.87262">
        <ele>1199</ele>
        <time>2016-05-22T11:57:16Z</time>
      </trkpt>
      <trkpt lat="45.30758" lon="5.87261">
        <ele>1199.1</ele>
        <time>2016-05-22T11:57:17Z</time>
      </trkpt>
      <trkpt lat="45.30757" lon="5.8726">
        <ele>1199.3</ele>
        <time>2016-05-22T11:57:18Z</time>
      </trkpt>
      <trkpt lat="45.30756" lon="5.87259">
        <ele>1199.5</ele>
        <time>2016-05-22T11:57:19Z</time>
      </trkpt>
      <trkpt lat="45.30755" lon="5.87257">
        <ele>1199.7</ele>
        <time>2016-05-22T11:57:20Z</time>
      </trkpt>
      <trkpt lat="45.30754" lon="5.87255">
        <ele>1200.1</ele>
        <time>2016-05-22T11:57:21Z</time>
      </trkpt>
      <trkpt lat="45.30753" lon="5.87254">
        <ele>1200.6</ele>
        <time>2016-05-22T11:57:22Z</time>
      </trkpt>
      <trkpt lat="45.30752" lon="5.87252">
        <ele>1201.1</ele>
        <time>2016-05-22T11:57:23Z</time>
      </trkpt>
      <trkpt lat="45.30752" lon="5.8725">
        <ele>1201.4</ele>
        <time>2016-05-22T11:57:24Z</time>
      </trkpt>
      <trkpt lat="45.30751" lon="5.87249">
        <ele>1201.5</ele>
        <time>2016-05-22T11:57:25Z</time>
      </trkpt>
      <trkpt lat="45.3075" lon="5.87248">
        <ele>1202</ele>
        <time>2016-05-22T11:57:26Z</time>
      </trkpt>
      <trkpt lat="45.3075" lon="5.87246">
        <ele>1202.3</ele>
        <time>2016-05-22T11:57:27Z</time>
      </trkpt>
      <trkpt lat="45.30749" lon="5.87245">
        <ele>1202.7</ele>
        <time>2016-05-22T11:57:28Z</time>
      </trkpt>
      <trkpt lat="45.30749" lon="5.87244">
        <ele>1203</ele>
        <time>2016-05-22T11:57:29Z</time>
      </trkpt>
      <trkpt lat="45.30748" lon="5.87243">
        <ele>1203.3</ele>
        <time>2016-05-22T11:57:30Z</time>
      </trkpt>
      <trkpt lat="45.30748" lon="5.87241">
        <ele>1203.7</ele>
        <time>2016-05-22T11:57:31Z</time>
      </trkpt>
      <trkpt lat="45.30747" lon="5.8724">
        <ele>1203.9</ele>
        <time>2016-05-22T11:57:32Z</time>
      </trkpt>
      <trkpt lat="45.30747" lon="5.8724">
        <ele>1203.9</ele>
        <time>2016-05-22T11:57:33Z</time>
      </trkpt>
      <trkpt lat="45.30746" lon="5.87238">
        <ele>1204.3</ele>
        <time>2016-05-22T11:57:34Z</time>
      </trkpt>
      <trkpt lat="45.30746" lon="5.87237">
        <ele>1204.6</ele>
        <time>2016-05-22T11:57:35Z</time>
      </trkpt>
      <trkpt lat="45.30746" lon="5.87236">
        <ele>1205.1</ele>
        <time>2016-05-22T11:57:36Z</time>
      </trkpt>
      <trkpt lat="45.30745" lon="5.87234">
        <ele>1205.5</ele>
        <time>2016-05-22T11:57:37Z</time>
      </trkpt>
      <trkpt lat="45.30745" lon="5.87233">
        <ele>1205.8</ele>
        <time>2016-05-22T11:57:38Z</time>
      </trkpt>
      <trkpt lat="45.30744" lon="5.87232">
        <ele>1205.9</ele>
        <time>2016-05-22T11:57:39Z</time>
      </trkpt>
      <trkpt lat="45.30743" lon="5.87231">
        <ele>1206.3</ele>
        <time>2016-05-22T11:57:40Z</time>
      </trkpt>
      <trkpt lat="45.30743" lon="5.87229">
        <ele>1206.7</ele>
        <time>2016-05-22T11:57:41Z</time>
      </trkpt>
      <trkpt lat="45.30742" lon="5.87228">
        <ele>1207.1</ele>
        <time>2016-05-22T11:57:42Z</time>
      </trkpt>
      <trkpt lat="45.30742" lon="5.87226">
        <ele>1207.7</ele>
        <time>2016-05-22T11:57:43Z</time>
      </trkpt>
      <trkpt lat="45.30742" lon="5.87224">
        <ele>1208.2</ele>
        <time>2016-05-22T11:57:44Z</time>
      </trkpt>
      <trkpt lat="45.30743" lon="5.87223">
        <ele>1208.8</ele>
        <time>2016-05-22T11:57:45Z</time>
      </trkpt>
      <trkpt lat="45.30743" lon="5.87221">
        <ele>1209.3</ele>
        <time>2016-05-22T11:57:46Z</time>
      </trkpt>
      <trkpt lat="45.30743" lon="5.87219">
        <ele>1209.9</ele>
        <time>2016-05-22T11:57:47Z</time>
      </trkpt>
      <trkpt lat="45.30742" lon="5.87217">
        <ele>1210.5</ele>
        <time>2016-05-22T11:57:48Z</time>
      </trkpt>
      <trkpt lat="45.30742" lon="5.87215">
        <ele>1211.1</ele>
        <time>2016-05-22T11:57:49Z</time>
      </trkpt>
      <trkpt lat="45.30742" lon="5.87214">
        <ele>1211.6</ele>
        <time>2016-05-22T11:57:50Z</time>
      </trkpt>
      <trkpt lat="45.30742" lon="5.87212">
        <ele>1212.1</ele>
        <time>2016-05-22T11:57:51Z</time>
      </trkpt>
      <trkpt lat="45.30742" lon="5.8721">
        <ele>1212.7</ele>
        <time>2016-05-22T11:57:52Z</time>
      </trkpt>
      <trkpt lat="45.30741" lon="5.87209">
        <ele>1213.2</ele>
        <time>2016-05-22T11:57:53Z</time>
      </trkpt>
      <trkpt lat="45.30741" lon="5.87207">
        <ele>1213.6</ele>
        <time>2016-05-22T11:57:54Z</time>
      </trkpt>
      <trkpt lat="45.30741" lon="5.87206">
        <ele>1213.9</ele>
        <time>2016-05-22T11:57:55Z</time>
      </trkpt>
      <trkpt lat="45.3074" lon="5.87205">
        <ele>1214.2</ele>
        <time>2016-05-22T11:57:56Z</time>
      </trkpt>
      <trkpt lat="45.30739" lon="5.87203">
        <ele>1214.5</ele>
        <time>2016-05-22T11:57:57Z</time>
      </trkpt>
      <trkpt lat="45.30737" lon="5.87202">
        <ele>1214.5</ele>
        <time>2016-05-22T11:57:58Z</time>
      </trkpt>
      <trkpt lat="45.30735" lon="5.87201">
        <ele>1214.4</ele>
        <time>2016-05-22T11:57:59Z</time>
      </trkpt>
      <trkpt lat="45.30733" lon="5.872">
        <ele>1214.5</ele>
        <time>2016-05-22T11:58:00Z</time>
      </trkpt>
      <trkpt lat="45.30732" lon="5.87198">
        <ele>1214.8</ele>
        <time>2016-05-22T11:58:01Z</time>
      </trkpt>
      <trkpt lat="45.30731" lon="5.87196">
        <ele>1215</ele>
        <time>2016-05-22T11:58:02Z</time>
      </trkpt>
      <trkpt lat="45.3073" lon="5.87194">
        <ele>1215.4</ele>
        <time>2016-05-22T11:58:03Z</time>
      </trkpt>
      <trkpt lat="45.30729" lon="5.87193">
        <ele>1215.7</ele>
        <time>2016-05-22T11:58:04Z</time>
      </trkpt>
      <trkpt lat="45.30728" lon="5.87192">
        <ele>1216</ele>
        <time>2016-05-22T11:58:05Z</time>
      </trkpt>
      <trkpt lat="45.30728" lon="5.8719">
        <ele>1216.5</ele>
        <time>2016-05-22T11:58:06Z</time>
      </trkpt>
      <trkpt lat="45.30728" lon="5.87189">
        <ele>1216.9</ele>
        <time>2016-05-22T11:58:07Z</time>
      </trkpt>
      <trkpt lat="45.30727" lon="5.87187">
        <ele>1217.2</ele>
        <time>2016-05-22T11:58:08Z</time>
      </trkpt>
      <trkpt lat="45.30727" lon="5.87186">
        <ele>1217.5</ele>
        <time>2016-05-22T11:58:09Z</time>
      </trkpt>
      <trkpt lat="45.30726" lon="5.87185">
        <ele>1217.6</ele>
        <time>2016-05-22T11:58:10Z</time>
      </trkpt>
      <trkpt lat="45.30725" lon="5.87184">
        <ele>1217.7</ele>
        <time>2016-05-22T11:58:11Z</time>
      </trkpt>
      <trkpt lat="45.30724" lon="5.87183">
        <ele>1217.8</ele>
        <time>2016-05-22T11:58:12Z</time>
      </trkpt>
      <trkpt lat="45.30724" lon="5.87182">
        <ele>1218.3</ele>
        <time>2016-05-22T11:58:13Z</time>
      </trkpt>
      <trkpt lat="45.30724" lon="5.8718">
        <ele>1218.7</ele>
        <time>2016-05-22T11:58:14Z</time>
      </trkpt>
      <trkpt lat="45.30724" lon="5.8718">
        <ele>1218.9</ele>
        <time>2016-05-22T11:58:15Z</time>
      </trkpt>
      <trkpt lat="45.30723" lon="5.87179">
        <ele>1219</ele>
        <time>2016-05-22T11:58:16Z</time>
      </trkpt>
      <trkpt lat="45.30722" lon="5.87177">
        <ele>1219.3</ele>
        <time>2016-05-22T11:58:17Z</time>
      </trkpt>
      <trkpt lat="45.30721" lon="5.87176">
        <ele>1219.6</ele>
        <time>2016-05-22T11:58:18Z</time>
      </trkpt>
      <trkpt lat="45.30721" lon="5.87175">
        <ele>1219.9</ele>
        <time>2016-05-22T11:58:19Z</time>
      </trkpt>
      <trkpt lat="45.3072" lon="5.87173">
        <ele>1220.4</ele>
        <time>2016-05-22T11:58:20Z</time>
      </trkpt>
      <trkpt lat="45.3072" lon="5.87172">
        <ele>1220.8</ele>
        <time>2016-05-22T11:58:21Z</time>
      </trkpt>
      <trkpt lat="45.3072" lon="5.87171">
        <ele>1221</ele>
        <time>2016-05-22T11:58:22Z</time>
      </trkpt>
      <trkpt lat="45.30719" lon="5.8717">
        <ele>1221.1</ele>
        <time>2016-05-22T11:58:23Z</time>
      </trkpt>
      <trkpt lat="45.30719" lon="5.87169">
        <ele>1221.1</ele>
        <time>2016-05-22T11:58:24Z</time>
      </trkpt>
      <trkpt lat="45.30718" lon="5.87169">
        <ele>1221</ele>
        <time>2016-05-22T11:58:25Z</time>
      </trkpt>
      <trkpt lat="45.30717" lon="5.87168">
        <ele>1221.2</ele>
        <time>2016-05-22T11:58:26Z</time>
      </trkpt>
      <trkpt lat="45.30717" lon="5.87167">
        <ele>1221.5</ele>
        <time>2016-05-22T11:58:27Z</time>
      </trkpt>
      <trkpt lat="45.30716" lon="5.87166">
        <ele>1221.8</ele>
        <time>2016-05-22T11:58:28Z</time>
      </trkpt>
      <trkpt lat="45.30716" lon="5.87164">
        <ele>1222.2</ele>
        <time>2016-05-22T11:58:29Z</time>
      </trkpt>
      <trkpt lat="45.30716" lon="5.87162">
        <ele>1222.7</ele>
        <time>2016-05-22T11:58:30Z</time>
      </trkpt>
      <trkpt lat="45.30716" lon="5.87161">
        <ele>1223.1</ele>
        <time>2016-05-22T11:58:31Z</time>
      </trkpt>
      <trkpt lat="45.30715" lon="5.87159">
        <ele>1223.4</ele>
        <time>2016-05-22T11:58:32Z</time>
      </trkpt>
      <trkpt lat="45.30715" lon="5.87158">
        <ele>1223.7</ele>
        <time>2016-05-22T11:58:33Z</time>
      </trkpt>
      <trkpt lat="45.30715" lon="5.87157">
        <ele>1223.9</ele>
        <time>2016-05-22T11:58:34Z</time>
      </trkpt>
      <trkpt lat="45.30715" lon="5.87156">
        <ele>1224.3</ele>
        <time>2016-05-22T11:58:35Z</time>
      </trkpt>
      <trkpt lat="45.30714" lon="5.87154">
        <ele>1224.7</ele>
        <time>2016-05-22T11:58:36Z</time>
      </trkpt>
      <trkpt lat="45.30714" lon="5.87153">
        <ele>1225</ele>
        <time>2016-05-22T11:58:37Z</time>
      </trkpt>
      <trkpt lat="45.30713" lon="5.87151">
        <ele>1225.4</ele>
        <time>2016-05-22T11:58:38Z</time>
      </trkpt>
      <trkpt lat="45.30713" lon="5.87149">
        <ele>1225.9</ele>
        <time>2016-05-22T11:58:39Z</time>
      </trkpt>
      <trkpt lat="45.30713" lon="5.87147">
        <ele>1226.3</ele>
        <time>2016-05-22T11:58:40Z</time>
      </trkpt>
      <trkpt lat="45.30712" lon="5.87146">
        <ele>1226.4</ele>
        <time>2016-05-22T11:58:41Z</time>
      </trkpt>
      <trkpt lat="45.30712" lon="5.87145">
        <ele>1226.6</ele>
        <time>2016-05-22T11:58:42Z</time>
      </trkpt>
      <trkpt lat="45.30711" lon="5.87145">
        <ele>1226.7</ele>
        <time>2016-05-22T11:58:43Z</time>
      </trkpt>
      <trkpt lat="45.3071" lon="5.87143">
        <ele>1226.8</ele>
        <time>2016-05-22T11:58:44Z</time>
      </trkpt>
      <trkpt lat="45.3071" lon="5.87143">
        <ele>1227</ele>
        <time>2016-05-22T11:58:45Z</time>
      </trkpt>
      <trkpt lat="45.30709" lon="5.87141">
        <ele>1227</ele>
        <time>2016-05-22T11:58:46Z</time>
      </trkpt>
      <trkpt lat="45.30708" lon="5.8714">
        <ele>1227.3</ele>
        <time>2016-05-22T11:58:47Z</time>
      </trkpt>
      <trkpt lat="45.30707" lon="5.87138">
        <ele>1227.6</ele>
        <time>2016-05-22T11:58:48Z</time>
      </trkpt>
      <trkpt lat="45.30707" lon="5.87137">
        <ele>1227.8</ele>
        <time>2016-05-22T11:58:49Z</time>
      </trkpt>
      <trkpt lat="45.30706" lon="5.87135">
        <ele>1228.1</ele>
        <time>2016-05-22T11:58:50Z</time>
      </trkpt>
      <trkpt lat="45.30705" lon="5.87134">
        <ele>1228.5</ele>
        <time>2016-05-22T11:58:51Z</time>
      </trkpt>
      <trkpt lat="45.30705" lon="5.87132">
        <ele>1228.8</ele>
        <time>2016-05-22T11:58:52Z</time>
      </trkpt>
      <trkpt lat="45.30704" lon="5.8713">
        <ele>1229.1</ele>
        <time>2016-05-22T11:58:53Z</time>
      </trkpt>
      <trkpt lat="45.30704" lon="5.87129">
        <ele>1229.4</ele>
        <time>2016-05-22T11:58:54Z</time>
      </trkpt>
      <trkpt lat="45.30703" lon="5.87128">
        <ele>1229.6</ele>
        <time>2016-05-22T11:58:55Z</time>
      </trkpt>
      <trkpt lat="45.30703" lon="5.87126">
        <ele>1229.9</ele>
        <time>2016-05-22T11:58:56Z</time>
      </trkpt>
      <trkpt lat="45.30702" lon="5.87125">
        <ele>1230.1</ele>
        <time>2016-05-22T11:58:57Z</time>
      </trkpt>
      <trkpt lat="45.30702" lon="5.87124">
        <ele>1230.5</ele>
        <time>2016-05-22T11:58:58Z</time>
      </trkpt>
      <trkpt lat="45.30701" lon="5.87122">
        <ele>1230.8</ele>
        <time>2016-05-22T11:58:59Z</time>
      </trkpt>
      <trkpt lat="45.30701" lon="5.8712">
        <ele>1231</ele>
        <time>2016-05-22T11:59:00Z</time>
      </trkpt>
      <trkpt lat="45.307" lon="5.87119">
        <ele>1231.2</ele>
        <time>2016-05-22T11:59:01Z</time>
      </trkpt>
      <trkpt lat="45.30698" lon="5.87117">
        <ele>1231.2</ele>
        <time>2016-05-22T11:59:02Z</time>
      </trkpt>
      <trkpt lat="45.30698" lon="5.87115">
        <ele>1231.7</ele>
        <time>2016-05-22T11:59:03Z</time>
      </trkpt>
      <trkpt lat="45.30698" lon="5.87113">
        <ele>1232.2</ele>
        <time>2016-05-22T11:59:04Z</time>
      </trkpt>
      <trkpt lat="45.30697" lon="5.87111">
        <ele>1232.7</ele>
        <time>2016-05-22T11:59:05Z</time>
      </trkpt>
      <trkpt lat="45.30692" lon="5.87095">
        <ele>1235.8</ele>
        <time>2016-05-22T12:00:01Z</time>
      </trkpt>
      <trkpt lat="45.30692" lon="5.87093">
        <ele>1236.3</ele>
        <time>2016-05-22T12:00:02Z</time>
      </trkpt>
      <trkpt lat="45.30691" lon="5.87092">
        <ele>1236.5</ele>
        <time>2016-05-22T12:00:03Z</time>
      </trkpt>
      <trkpt lat="45.3069" lon="5.8709">
        <ele>1236.7</ele>
        <time>2016-05-22T12:00:04Z</time>
      </trkpt>
      <trkpt lat="45.30689" lon="5.87088">
        <ele>1236.9</ele>
        <time>2016-05-22T12:00:05Z</time>
      </trkpt>
      <trkpt lat="45.30688" lon="5.87087">
        <ele>1237.1</ele>
        <time>2016-05-22T12:00:06Z</time>
      </trkpt>
      <trkpt lat="45.30687" lon="5.87085">
        <ele>1237.2</ele>
        <time>2016-05-22T12:00:07Z</time>
      </trkpt>
      <trkpt lat="45.30687" lon="5.87084">
        <ele>1237.5</ele>
        <time>2016-05-22T12:00:08Z</time>
      </trkpt>
      <trkpt lat="45.30686" lon="5.87083">
        <ele>1237.7</ele>
        <time>2016-05-22T12:00:09Z</time>
      </trkpt>
      <trkpt lat="45.30685" lon="5.87081">
        <ele>1238.1</ele>
        <time>2016-05-22T12:00:10Z</time>
      </trkpt>
      <trkpt lat="45.30685" lon="5.87079">
        <ele>1238.7</ele>
        <time>2016-05-22T12:00:11Z</time>
      </trkpt>
      <trkpt lat="45.30685" lon="5.87076">
        <ele>1239.5</ele>
        <time>2016-05-22T12:00:12Z</time>
      </trkpt>
      <trkpt lat="45.30685" lon="5.87073">
        <ele>1240.3</ele>
        <time>2016-05-22T12:00:13Z</time>
      </trkpt>
      <trkpt lat="45.30685" lon="5.87071">
        <ele>1241</ele>
        <time>2016-05-22T12:00:14Z</time>
      </trkpt>
      <trkpt lat="45.30685" lon="5.87069">
        <ele>1241.7</ele>
        <time>2016-05-22T12:00:15Z</time>
      </trkpt>
      <trkpt lat="45.30685" lon="5.87067">
        <ele>1242.2</ele>
        <time>2016-05-22T12:00:16Z</time>
      </trkpt>
      <trkpt lat="45.30686" lon="5.87066">
        <ele>1242.9</ele>
        <time>2016-05-22T12:00:17Z</time>
      </trkpt>
      <trkpt lat="45.30686" lon="5.87064">
        <ele>1243.6</ele>
        <time>2016-05-22T12:00:18Z</time>
      </trkpt>
      <trkpt lat="45.30687" lon="5.87062">
        <ele>1244.4</ele>
        <time>2016-05-22T12:00:19Z</time>
      </trkpt>
      <trkpt lat="45.30688" lon="5.8706">
        <ele>1244.9</ele>
        <time>2016-05-22T12:00:20Z</time>
      </trkpt>
      <trkpt lat="45.30688" lon="5.8706">
        <ele>1245.1</ele>
        <time>2016-05-22T12:00:21Z</time>
      </trkpt>
      <trkpt lat="45.30689" lon="5.8706">
        <ele>1245.3</ele>
        <time>2016-05-22T12:00:22Z</time>
      </trkpt>
      <trkpt lat="45.30689" lon="5.8706">
        <ele>1245.4</ele>
        <time>2016-05-22T12:00:23Z</time>
      </trkpt>
      <trkpt lat="45.3069" lon="5.8706">
        <ele>1245.6</ele>
        <time>2016-05-22T12:00:24Z</time>
      </trkpt>
      <trkpt lat="45.30691" lon="5.87061">
        <ele>1245.6</ele>
        <time>2016-05-22T12:00:25Z</time>
      </trkpt>
      <trkpt lat="45.30691" lon="5.87062">
        <ele>1245.4</ele>
        <time>2016-05-22T12:00:26Z</time>
      </trkpt>
      <trkpt lat="45.30692" lon="5.87063">
        <ele>1245.3</ele>
        <time>2016-05-22T12:00:27Z</time>
      </trkpt>
      <trkpt lat="45.30693" lon="5.87064">
        <ele>1245.2</ele>
        <time>2016-05-22T12:00:28Z</time>
      </trkpt>
      <trkpt lat="45.30694" lon="5.87065">
        <ele>1245.2</ele>
        <time>2016-05-22T12:00:29Z</time>
      </trkpt>
      <trkpt lat="45.30695" lon="5.87066">
        <ele>1245.1</ele>
        <time>2016-05-22T12:00:30Z</time>
      </trkpt>
      <trkpt lat="45.30696" lon="5.87068">
        <ele>1244.9</ele>
        <time>2016-05-22T12:00:31Z</time>
      </trkpt>
      <trkpt lat="45.30697" lon="5.87068">
        <ele>1245.1</ele>
        <time>2016-05-22T12:00:32Z</time>
      </trkpt>
      <trkpt lat="45.30698" lon="5.87069">
        <ele>1245.1</ele>
        <time>2016-05-22T12:00:33Z</time>
      </trkpt>
      <trkpt lat="45.30699" lon="5.8707">
        <ele>1245.1</ele>
        <time>2016-05-22T12:00:34Z</time>
      </trkpt>
      <trkpt lat="45.30701" lon="5.87072">
        <ele>1245.1</ele>
        <time>2016-05-22T12:00:35Z</time>
      </trkpt>
      <trkpt lat="45.30702" lon="5.87073">
        <ele>1245</ele>
        <time>2016-05-22T12:00:36Z</time>
      </trkpt>
      <trkpt lat="45.30703" lon="5.87075">
        <ele>1244.9</ele>
        <time>2016-05-22T12:00:37Z</time>
      </trkpt>
      <trkpt lat="45.30704" lon="5.87076">
        <ele>1244.7</ele>
        <time>2016-05-22T12:00:38Z</time>
      </trkpt>
      <trkpt lat="45.30705" lon="5.87077">
        <ele>1244.5</ele>
        <time>2016-05-22T12:00:39Z</time>
      </trkpt>
      <trkpt lat="45.30706" lon="5.87078">
        <ele>1244.6</ele>
        <time>2016-05-22T12:00:40Z</time>
      </trkpt>
      <trkpt lat="45.30707" lon="5.87079">
        <ele>1244.5</ele>
        <time>2016-05-22T12:00:41Z</time>
      </trkpt>
      <trkpt lat="45.30708" lon="5.8708">
        <ele>1244.8</ele>
        <time>2016-05-22T12:00:42Z</time>
      </trkpt>
      <trkpt lat="45.30709" lon="5.87081">
        <ele>1244.7</ele>
        <time>2016-05-22T12:00:43Z</time>
      </trkpt>
      <trkpt lat="45.3071" lon="5.87082">
        <ele>1244.6</ele>
        <time>2016-05-22T12:00:44Z</time>
      </trkpt>
      <trkpt lat="45.30711" lon="5.87083">
        <ele>1244.6</ele>
        <time>2016-05-22T12:00:45Z</time>
      </trkpt>
      <trkpt lat="45.30712" lon="5.87084">
        <ele>1244.7</ele>
        <time>2016-05-22T12:00:46Z</time>
      </trkpt>
      <trkpt lat="45.30714" lon="5.87085">
        <ele>1244.7</ele>
        <time>2016-05-22T12:00:47Z</time>
      </trkpt>
      <trkpt lat="45.30715" lon="5.87086">
        <ele>1244.7</ele>
        <time>2016-05-22T12:00:48Z</time>
      </trkpt>
      <trkpt lat="45.30716" lon="5.87086">
        <ele>1244.8</ele>
        <time>2016-05-22T12:00:49Z</time>
      </trkpt>
      <trkpt lat="45.30717" lon="5.87087">
        <ele>1244.9</ele>
        <time>2016-05-22T12:00:50Z</time>
      </trkpt>
      <trkpt lat="45.30718" lon="5.87088">
        <ele>1244.8</ele>
        <time>2016-05-22T12:00:51Z</time>
      </trkpt>
      <trkpt lat="45.30719" lon="5.87089">
        <ele>1244.8</ele>
        <time>2016-05-22T12:00:52Z</time>
      </trkpt>
      <trkpt lat="45.3072" lon="5.8709">
        <ele>1245</ele>
        <time>2016-05-22T12:00:53Z</time>
      </trkpt>
      <trkpt lat="45.30721" lon="5.8709">
        <ele>1245</ele>
        <time>2016-05-22T12:00:54Z</time>
      </trkpt>
      <trkpt lat="45.30722" lon="5.87091">
        <ele>1245.2</ele>
        <time>2016-05-22T12:00:55Z</time>
      </trkpt>
      <trkpt lat="45.30723" lon="5.87091">
        <ele>1245.4</ele>
        <time>2016-05-22T12:00:56Z</time>
      </trkpt>
      <trkpt lat="45.30724" lon="5.87091">
        <ele>1245.7</ele>
        <time>2016-05-22T12:00:57Z</time>
      </trkpt>
      <trkpt lat="45.30725" lon="5.87091">
        <ele>1246</ele>
        <time>2016-05-22T12:00:58Z</time>
      </trkpt>
      <trkpt lat="45.30726" lon="5.87092">
        <ele>1246.1</ele>
        <time>2016-05-22T12:00:59Z</time>
      </trkpt>
      <trkpt lat="45.30727" lon="5.87092">
        <ele>1246.2</ele>
        <time>2016-05-22T12:01:00Z</time>
      </trkpt>
      <trkpt lat="45.30728" lon="5.87092">
        <ele>1246.7</ele>
        <time>2016-05-22T12:01:01Z</time>
      </trkpt>
      <trkpt lat="45.30729" lon="5.87092">
        <ele>1247</ele>
        <time>2016-05-22T12:01:02Z</time>
      </trkpt>
      <trkpt lat="45.3073" lon="5.87092">
        <ele>1247.2</ele>
        <time>2016-05-22T12:01:03Z</time>
      </trkpt>
      <trkpt lat="45.30731" lon="5.87092">
        <ele>1247.4</ele>
        <time>2016-05-22T12:01:04Z</time>
      </trkpt>
      <trkpt lat="45.30732" lon="5.87093">
        <ele>1247.3</ele>
        <time>2016-05-22T12:01:05Z</time>
      </trkpt>
      <trkpt lat="45.30732" lon="5.87093">
        <ele>1247.4</ele>
        <time>2016-05-22T12:01:06Z</time>
      </trkpt>
      <trkpt lat="45.30733" lon="5.87093">
        <ele>1247.4</ele>
        <time>2016-05-22T12:01:07Z</time>
      </trkpt>
      <trkpt lat="45.30733" lon="5.87094">
        <ele>1247.4</ele>
        <time>2016-05-22T12:01:08Z</time>
      </trkpt>
      <trkpt lat="45.30734" lon="5.87094">
        <ele>1247.6</ele>
        <time>2016-05-22T12:01:09Z</time>
      </trkpt>
      <trkpt lat="45.30735" lon="5.87094">
        <ele>1247.8</ele>
        <time>2016-05-22T12:01:10Z</time>
      </trkpt>
      <trkpt lat="45.30736" lon="5.87093">
        <ele>1248.4</ele>
        <time>2016-05-22T12:01:11Z</time>
      </trkpt>
      <trkpt lat="45.30738" lon="5.87093">
        <ele>1248.9</ele>
        <time>2016-05-22T12:01:12Z</time>
      </trkpt>
      <trkpt lat="45.3074" lon="5.87092">
        <ele>1249.5</ele>
        <time>2016-05-22T12:01:13Z</time>
      </trkpt>
      <trkpt lat="45.30741" lon="5.87092">
        <ele>1250</ele>
        <time>2016-05-22T12:01:14Z</time>
      </trkpt>
      <trkpt lat="45.30743" lon="5.87092">
        <ele>1250.4</ele>
        <time>2016-05-22T12:01:15Z</time>
      </trkpt>
      <trkpt lat="45.30744" lon="5.87092">
        <ele>1250.8</ele>
        <time>2016-05-22T12:01:16Z</time>
      </trkpt>
      <trkpt lat="45.30745" lon="5.87092">
        <ele>1251.2</ele>
        <time>2016-05-22T12:01:17Z</time>
      </trkpt>
      <trkpt lat="45.30746" lon="5.87092">
        <ele>1251.6</ele>
        <time>2016-05-22T12:01:18Z</time>
      </trkpt>
      <trkpt lat="45.30748" lon="5.87092">
        <ele>1252</ele>
        <time>2016-05-22T12:01:19Z</time>
      </trkpt>
      <trkpt lat="45.3075" lon="5.87091">
        <ele>1252.7</ele>
        <time>2016-05-22T12:01:20Z</time>
      </trkpt>
      <trkpt lat="45.30751" lon="5.8709">
        <ele>1253.3</ele>
        <time>2016-05-22T12:01:21Z</time>
      </trkpt>
      <trkpt lat="45.30753" lon="5.87089">
        <ele>1253.8</ele>
        <time>2016-05-22T12:01:22Z</time>
      </trkpt>
      <trkpt lat="45.30754" lon="5.87089">
        <ele>1254.3</ele>
        <time>2016-05-22T12:01:23Z</time>
      </trkpt>
      <trkpt lat="45.30756" lon="5.87088">
        <ele>1254.6</ele>
        <time>2016-05-22T12:01:24Z</time>
      </trkpt>
      <trkpt lat="45.30757" lon="5.87088">
        <ele>1255</ele>
        <time>2016-05-22T12:01:25Z</time>
      </trkpt>
      <trkpt lat="45.30758" lon="5.87087">
        <ele>1255.5</ele>
        <time>2016-05-22T12:01:26Z</time>
      </trkpt>
      <trkpt lat="45.3076" lon="5.87087">
        <ele>1256</ele>
        <time>2016-05-22T12:01:27Z</time>
      </trkpt>
      <trkpt lat="45.30763" lon="5.87087">
        <ele>1256.5</ele>
        <time>2016-05-22T12:01:28Z</time>
      </trkpt>
      <trkpt lat="45.30765" lon="5.87087">
        <ele>1256.8</ele>
        <time>2016-05-22T12:01:29Z</time>
      </trkpt>
      <trkpt lat="45.30768" lon="5.87089">
        <ele>1256.9</ele>
        <time>2016-05-22T12:01:30Z</time>
      </trkpt>
      <trkpt lat="45.3077" lon="5.87091">
        <ele>1256.6</ele>
        <time>2016-05-22T12:01:31Z</time>
      </trkpt>
      <trkpt lat="45.30772" lon="5.87094">
        <ele>1256.2</ele>
        <time>2016-05-22T12:01:32Z</time>
      </trkpt>
      <trkpt lat="45.30774" lon="5.87096">
        <ele>1256</ele>
        <time>2016-05-22T12:01:33Z</time>
      </trkpt>
      <trkpt lat="45.30775" lon="5.87098">
        <ele>1255.7</ele>
        <time>2016-05-22T12:01:34Z</time>
      </trkpt>
      <trkpt lat="45.30776" lon="5.87099">
        <ele>1255.4</ele>
        <time>2016-05-22T12:01:35Z</time>
      </trkpt>
      <trkpt lat="45.30777" lon="5.87101">
        <ele>1255.1</ele>
        <time>2016-05-22T12:01:36Z</time>
      </trkpt>
      <trkpt lat="45.30778" lon="5.87104">
        <ele>1254.3</ele>
        <time>2016-05-22T12:01:37Z</time>
      </trkpt>
      <trkpt lat="45.30779" lon="5.87106">
        <ele>1254.1</ele>
        <time>2016-05-22T12:01:38Z</time>
      </trkpt>
      <trkpt lat="45.30781" lon="5.87107">
        <ele>1254</ele>
        <time>2016-05-22T12:01:39Z</time>
      </trkpt>
      <trkpt lat="45.30782" lon="5.87108">
        <ele>1253.8</ele>
        <time>2016-05-22T12:01:40Z</time>
      </trkpt>
      <trkpt lat="45.30783" lon="5.8711">
        <ele>1253.8</ele>
        <time>2016-05-22T12:01:41Z</time>
      </trkpt>
      <trkpt lat="45.30785" lon="5.87111">
        <ele>1253.7</ele>
        <time>2016-05-22T12:01:42Z</time>
      </trkpt>
      <trkpt lat="45.30786" lon="5.87111">
        <ele>1253.8</ele>
        <time>2016-05-22T12:01:43Z</time>
      </trkpt>
      <trkpt lat="45.30787" lon="5.87111">
        <ele>1254</ele>
        <time>2016-05-22T12:01:44Z</time>
      </trkpt>
      <trkpt lat="45.30788" lon="5.87112">
        <ele>1253.9</ele>
        <time>2016-05-22T12:01:45Z</time>
      </trkpt>
      <trkpt lat="45.30789" lon="5.87113">
        <ele>1254</ele>
        <time>2016-05-22T12:01:46Z</time>
      </trkpt>
      <trkpt lat="45.30791" lon="5.87113">
        <ele>1254.3</ele>
        <time>2016-05-22T12:01:47Z</time>
      </trkpt>
      <trkpt lat="45.30793" lon="5.87112">
        <ele>1255</ele>
        <time>2016-05-22T12:01:48Z</time>
      </trkpt>
      <trkpt lat="45.30794" lon="5.87112">
        <ele>1255.1</ele>
        <time>2016-05-22T12:01:49Z</time>
      </trkpt>
      <trkpt lat="45.30795" lon="5.87112">
        <ele>1255.6</ele>
        <time>2016-05-22T12:01:50Z</time>
      </trkpt>
      <trkpt lat="45.30796" lon="5.87114">
        <ele>1254.9</ele>
        <time>2016-05-22T12:01:51Z</time>
      </trkpt>
      <trkpt lat="45.30797" lon="5.87114">
        <ele>1255.1</ele>
        <time>2016-05-22T12:01:52Z</time>
      </trkpt>
      <trkpt lat="45.30798" lon="5.87114">
        <ele>1255.2</ele>
        <time>2016-05-22T12:01:53Z</time>
      </trkpt>
      <trkpt lat="45.30799" lon="5.87114">
        <ele>1255.5</ele>
        <time>2016-05-22T12:01:54Z</time>
      </trkpt>
      <trkpt lat="45.308" lon="5.87114">
        <ele>1255.7</ele>
        <time>2016-05-22T12:01:55Z</time>
      </trkpt>
      <trkpt lat="45.30801" lon="5.87114">
        <ele>1256</ele>
        <time>2016-05-22T12:01:56Z</time>
      </trkpt>
      <trkpt lat="45.30802" lon="5.87114">
        <ele>1256.4</ele>
        <time>2016-05-22T12:01:57Z</time>
      </trkpt>
      <trkpt lat="45.30803" lon="5.87115">
        <ele>1256.3</ele>
        <time>2016-05-22T12:01:58Z</time>
      </trkpt>
      <trkpt lat="45.30804" lon="5.87114">
        <ele>1256.7</ele>
        <time>2016-05-22T12:01:59Z</time>
      </trkpt>
      <trkpt lat="45.30806" lon="5.87114">
        <ele>1257.1</ele>
        <time>2016-05-22T12:02:00Z</time>
      </trkpt>
      <trkpt lat="45.30807" lon="5.87113">
        <ele>1257.5</ele>
        <time>2016-05-22T12:02:01Z</time>
      </trkpt>
      <trkpt lat="45.30809" lon="5.87113">
        <ele>1258</ele>
        <time>2016-05-22T12:02:02Z</time>
      </trkpt>
      <trkpt lat="45.3081" lon="5.87112">
        <ele>1258.4</ele>
        <time>2016-05-22T12:02:03Z</time>
      </trkpt>
      <trkpt lat="45.30811" lon="5.87112">
        <ele>1258.6</ele>
        <time>2016-05-22T12:02:04Z</time>
      </trkpt>
      <trkpt lat="45.30812" lon="5.87112">
        <ele>1259</ele>
        <time>2016-05-22T12:02:05Z</time>
      </trkpt>
      <trkpt lat="45.30814" lon="5.87111">
        <ele>1259.4</ele>
        <time>2016-05-22T12:02:06Z</time>
      </trkpt>
      <trkpt lat="45.30815" lon="5.87111">
        <ele>1259.8</ele>
        <time>2016-05-22T12:02:07Z</time>
      </trkpt>
      <trkpt lat="45.30816" lon="5.87112">
        <ele>1259.6</ele>
        <time>2016-05-22T12:02:08Z</time>
      </trkpt>
      <trkpt lat="45.30817" lon="5.87112">
        <ele>1259.7</ele>
        <time>2016-05-22T12:02:09Z</time>
      </trkpt>
      <trkpt lat="45.30817" lon="5.87113">
        <ele>1259.7</ele>
        <time>2016-05-22T12:02:10Z</time>
      </trkpt>
      <trkpt lat="45.30818" lon="5.87113">
        <ele>1259.7</ele>
        <time>2016-05-22T12:02:11Z</time>
      </trkpt>
      <trkpt lat="45.30819" lon="5.87113">
        <ele>1260.1</ele>
        <time>2016-05-22T12:02:12Z</time>
      </trkpt>
      <trkpt lat="45.30821" lon="5.87113">
        <ele>1260.4</ele>
        <time>2016-05-22T12:02:13Z</time>
      </trkpt>
      <trkpt lat="45.30823" lon="5.87113">
        <ele>1260.7</ele>
        <time>2016-05-22T12:02:14Z</time>
      </trkpt>
      <trkpt lat="45.30825" lon="5.87113">
        <ele>1261.2</ele>
        <time>2016-05-22T12:02:15Z</time>
      </trkpt>
      <trkpt lat="45.30827" lon="5.87114">
        <ele>1261.4</ele>
        <time>2016-05-22T12:02:16Z</time>
      </trkpt>
      <trkpt lat="45.30828" lon="5.87114">
        <ele>1261.6</ele>
        <time>2016-05-22T12:02:17Z</time>
      </trkpt>
      <trkpt lat="45.30829" lon="5.87114">
        <ele>1261.9</ele>
        <time>2016-05-22T12:02:18Z</time>
      </trkpt>
      <trkpt lat="45.3083" lon="5.87113">
        <ele>1262.3</ele>
        <time>2016-05-22T12:02:19Z</time>
      </trkpt>
      <trkpt lat="45.30831" lon="5.87113">
        <ele>1262.6</ele>
        <time>2016-05-22T12:02:20Z</time>
      </trkpt>
      <trkpt lat="45.30833" lon="5.87111">
        <ele>1263.4</ele>
        <time>2016-05-22T12:02:21Z</time>
      </trkpt>
      <trkpt lat="45.30834" lon="5.8711">
        <ele>1263.9</ele>
        <time>2016-05-22T12:02:22Z</time>
      </trkpt>
      <trkpt lat="45.30834" lon="5.87109">
        <ele>1264.3</ele>
        <time>2016-05-22T12:02:23Z</time>
      </trkpt>
      <trkpt lat="45.30835" lon="5.87108">
        <ele>1264.7</ele>
        <time>2016-05-22T12:02:24Z</time>
      </trkpt>
      <trkpt lat="45.30834" lon="5.87106">
        <ele>1265</ele>
        <time>2016-05-22T12:02:25Z</time>
      </trkpt>
      <trkpt lat="45.30833" lon="5.87104">
        <ele>1265.2</ele>
        <time>2016-05-22T12:02:26Z</time>
      </trkpt>
      <trkpt lat="45.30832" lon="5.87103">
        <ele>1265.5</ele>
        <time>2016-05-22T12:02:27Z</time>
      </trkpt>
      <trkpt lat="45.30831" lon="5.87101">
        <ele>1265.6</ele>
        <time>2016-05-22T12:02:28Z</time>
      </trkpt>
      <trkpt lat="45.3083" lon="5.871">
        <ele>1265.8</ele>
        <time>2016-05-22T12:02:29Z</time>
      </trkpt>
      <trkpt lat="45.3083" lon="5.87099">
        <ele>1266.1</ele>
        <time>2016-05-22T12:02:30Z</time>
      </trkpt>
      <trkpt lat="45.30829" lon="5.87098">
        <ele>1266.4</ele>
        <time>2016-05-22T12:02:31Z</time>
      </trkpt>
      <trkpt lat="45.30829" lon="5.87097">
        <ele>1266.4</ele>
        <time>2016-05-22T12:02:32Z</time>
      </trkpt>
      <trkpt lat="45.30828" lon="5.87096">
        <ele>1266.4</ele>
        <time>2016-05-22T12:02:33Z</time>
      </trkpt>
      <trkpt lat="45.30827" lon="5.87095">
        <ele>1266.5</ele>
        <time>2016-05-22T12:02:34Z</time>
      </trkpt>
      <trkpt lat="45.30826" lon="5.87095">
        <ele>1266.5</ele>
        <time>2016-05-22T12:02:35Z</time>
      </trkpt>
      <trkpt lat="45.30825" lon="5.87094">
        <ele>1266.6</ele>
        <time>2016-05-22T12:02:36Z</time>
      </trkpt>
      <trkpt lat="45.30824" lon="5.87093">
        <ele>1266.6</ele>
        <time>2016-05-22T12:02:37Z</time>
      </trkpt>
      <trkpt lat="45.30823" lon="5.87092">
        <ele>1266.7</ele>
        <time>2016-05-22T12:02:38Z</time>
      </trkpt>
      <trkpt lat="45.30823" lon="5.87092">
        <ele>1266.7</ele>
        <time>2016-05-22T12:02:39Z</time>
      </trkpt>
      <trkpt lat="45.30822" lon="5.87091">
        <ele>1266.9</ele>
        <time>2016-05-22T12:02:40Z</time>
      </trkpt>
      <trkpt lat="45.30821" lon="5.8709">
        <ele>1266.9</ele>
        <time>2016-05-22T12:02:41Z</time>
      </trkpt>
      <trkpt lat="45.3082" lon="5.87089">
        <ele>1267.2</ele>
        <time>2016-05-22T12:02:42Z</time>
      </trkpt>
      <trkpt lat="45.3082" lon="5.87087">
        <ele>1267.5</ele>
        <time>2016-05-22T12:02:43Z</time>
      </trkpt>
      <trkpt lat="45.30819" lon="5.87086">
        <ele>1267.8</ele>
        <time>2016-05-22T12:02:44Z</time>
      </trkpt>
      <trkpt lat="45.30819" lon="5.87084">
        <ele>1268.2</ele>
        <time>2016-05-22T12:02:45Z</time>
      </trkpt>
      <trkpt lat="45.30819" lon="5.87083">
        <ele>1268.6</ele>
        <time>2016-05-22T12:02:46Z</time>
      </trkpt>
      <trkpt lat="45.30819" lon="5.87081">
        <ele>1269.1</ele>
        <time>2016-05-22T12:02:47Z</time>
      </trkpt>
      <trkpt lat="45.30819" lon="5.87079">
        <ele>1269.6</ele>
        <time>2016-05-22T12:02:48Z</time>
      </trkpt>
      <trkpt lat="45.30819" lon="5.87078">
        <ele>1270.1</ele>
        <time>2016-05-22T12:02:49Z</time>
      </trkpt>
      <trkpt lat="45.3082" lon="5.87076">
        <ele>1270.6</ele>
        <time>2016-05-22T12:02:50Z</time>
      </trkpt>
      <trkpt lat="45.3082" lon="5.87075">
        <ele>1271.2</ele>
        <time>2016-05-22T12:02:51Z</time>
      </trkpt>
      <trkpt lat="45.3082" lon="5.87074">
        <ele>1271.5</ele>
        <time>2016-05-22T12:02:52Z</time>
      </trkpt>
      <trkpt lat="45.30821" lon="5.87073">
        <ele>1271.9</ele>
        <time>2016-05-22T12:02:53Z</time>
      </trkpt>
      <trkpt lat="45.30821" lon="5.87072">
        <ele>1272.2</ele>
        <time>2016-05-22T12:02:54Z</time>
      </trkpt>
      <trkpt lat="45.30822" lon="5.87072">
        <ele>1272.5</ele>
        <time>2016-05-22T12:02:55Z</time>
      </trkpt>
      <trkpt lat="45.30823" lon="5.87072">
        <ele>1272.6</ele>
        <time>2016-05-22T12:02:56Z</time>
      </trkpt>
      <trkpt lat="45.30824" lon="5.87072">
        <ele>1272.7</ele>
        <time>2016-05-22T12:02:57Z</time>
      </trkpt>
      <trkpt lat="45.30825" lon="5.87072">
        <ele>1272.8</ele>
        <time>2016-05-22T12:02:58Z</time>
      </trkpt>
      <trkpt lat="45.30826" lon="5.87073">
        <ele>1272.9</ele>
        <time>2016-05-22T12:02:59Z</time>
      </trkpt>
      <trkpt lat="45.30827" lon="5.87073">
        <ele>1273</ele>
        <time>2016-05-22T12:03:00Z</time>
      </trkpt>
      <trkpt lat="45.30827" lon="5.87073">
        <ele>1273</ele>
        <time>2016-05-22T12:03:01Z</time>
      </trkpt>
      <trkpt lat="45.30828" lon="5.87074">
        <ele>1273.1</ele>
        <time>2016-05-22T12:03:02Z</time>
      </trkpt>
      <trkpt lat="45.3083" lon="5.87074">
        <ele>1273.2</ele>
        <time>2016-05-22T12:03:03Z</time>
      </trkpt>
      <trkpt lat="45.30831" lon="5.87075">
        <ele>1273.3</ele>
        <time>2016-05-22T12:03:04Z</time>
      </trkpt>
      <trkpt lat="45.30833" lon="5.87074">
        <ele>1273.7</ele>
        <time>2016-05-22T12:03:05Z</time>
      </trkpt>
      <trkpt lat="45.30834" lon="5.87074">
        <ele>1274.2</ele>
        <time>2016-05-22T12:03:06Z</time>
      </trkpt>
      <trkpt lat="45.30836" lon="5.87073">
        <ele>1274.7</ele>
        <time>2016-05-22T12:03:07Z</time>
      </trkpt>
      <trkpt lat="45.30837" lon="5.87073">
        <ele>1274.9</ele>
        <time>2016-05-22T12:03:08Z</time>
      </trkpt>
      <trkpt lat="45.30838" lon="5.87073">
        <ele>1275.2</ele>
        <time>2016-05-22T12:03:09Z</time>
      </trkpt>
      <trkpt lat="45.30839" lon="5.87072">
        <ele>1275.6</ele>
        <time>2016-05-22T12:03:10Z</time>
      </trkpt>
      <trkpt lat="45.3084" lon="5.87072">
        <ele>1275.9</ele>
        <time>2016-05-22T12:03:11Z</time>
      </trkpt>
      <trkpt lat="45.30841" lon="5.87071">
        <ele>1276.4</ele>
        <time>2016-05-22T12:03:12Z</time>
      </trkpt>
      <trkpt lat="45.30842" lon="5.87069">
        <ele>1277</ele>
        <time>2016-05-22T12:03:13Z</time>
      </trkpt>
      <trkpt lat="45.30843" lon="5.87069">
        <ele>1277.2</ele>
        <time>2016-05-22T12:03:14Z</time>
      </trkpt>
      <trkpt lat="45.30844" lon="5.87069">
        <ele>1277.6</ele>
        <time>2016-05-22T12:03:15Z</time>
      </trkpt>
      <trkpt lat="45.30844" lon="5.87068">
        <ele>1277.9</ele>
        <time>2016-05-22T12:03:16Z</time>
      </trkpt>
      <trkpt lat="45.30844" lon="5.87067">
        <ele>1278.2</ele>
        <time>2016-05-22T12:03:17Z</time>
      </trkpt>
      <trkpt lat="45.30845" lon="5.87066">
        <ele>1278.5</ele>
        <time>2016-05-22T12:03:18Z</time>
      </trkpt>
      <trkpt lat="45.30845" lon="5.87066">
        <ele>1278.8</ele>
        <time>2016-05-22T12:03:19Z</time>
      </trkpt>
      <trkpt lat="45.30846" lon="5.87066">
        <ele>1278.8</ele>
        <time>2016-05-22T12:03:20Z</time>
      </trkpt>
      <trkpt lat="45.30847" lon="5.87065">
        <ele>1279.2</ele>
        <time>2016-05-22T12:03:21Z</time>
      </trkpt>
      <trkpt lat="45.30847" lon="5.87065">
        <ele>1279.5</ele>
        <time>2016-05-22T12:03:22Z</time>
      </trkpt>
      <trkpt lat="45.30848" lon="5.87064">
        <ele>1279.8</ele>
        <time>2016-05-22T12:03:23Z</time>
      </trkpt>
      <trkpt lat="45.30849" lon="5.87063">
        <ele>1280.2</ele>
        <time>2016-05-22T12:03:24Z</time>
      </trkpt>
      <trkpt lat="45.3085" lon="5.87063">
        <ele>1280.6</ele>
        <time>2016-05-22T12:03:25Z</time>
      </trkpt>
      <trkpt lat="45.30851" lon="5.87062">
        <ele>1281</ele>
        <time>2016-05-22T12:03:26Z</time>
      </trkpt>
      <trkpt lat="45.30852" lon="5.87061">
        <ele>1281.4</ele>
        <time>2016-05-22T12:03:27Z</time>
      </trkpt>
      <trkpt lat="45.30853" lon="5.87061">
        <ele>1281.6</ele>
        <time>2016-05-22T12:03:28Z</time>
      </trkpt>
      <trkpt lat="45.30854" lon="5.8706">
        <ele>1281.9</ele>
        <time>2016-05-22T12:03:29Z</time>
      </trkpt>
      <trkpt lat="45.30854" lon="5.8706">
        <ele>1282.3</ele>
        <time>2016-05-22T12:03:30Z</time>
      </trkpt>
      <trkpt lat="45.30855" lon="5.87059">
        <ele>1282.6</ele>
        <time>2016-05-22T12:03:31Z</time>
      </trkpt>
      <trkpt lat="45.30856" lon="5.87059">
        <ele>1282.7</ele>
        <time>2016-05-22T12:03:32Z</time>
      </trkpt>
      <trkpt lat="45.30857" lon="5.87059">
        <ele>1282.9</ele>
        <time>2016-05-22T12:03:33Z</time>
      </trkpt>
      <trkpt lat="45.30858" lon="5.8706">
        <ele>1282.8</ele>
        <time>2016-05-22T12:03:34Z</time>
      </trkpt>
      <trkpt lat="45.30859" lon="5.8706">
        <ele>1283</ele>
        <time>2016-05-22T12:03:35Z</time>
      </trkpt>
      <trkpt lat="45.3086" lon="5.8706">
        <ele>1283.4</ele>
        <time>2016-05-22T12:03:36Z</time>
      </trkpt>
      <trkpt lat="45.30861" lon="5.8706">
        <ele>1283.6</ele>
        <time>2016-05-22T12:03:37Z</time>
      </trkpt>
      <trkpt lat="45.30862" lon="5.87059">
        <ele>1283.9</ele>
        <time>2016-05-22T12:03:38Z</time>
      </trkpt>
      <trkpt lat="45.30864" lon="5.87059">
        <ele>1284.2</ele>
        <time>2016-05-22T12:03:39Z</time>
      </trkpt>
      <trkpt lat="45.30865" lon="5.87059">
        <ele>1284.4</ele>
        <time>2016-05-22T12:03:40Z</time>
      </trkpt>
      <trkpt lat="45.30866" lon="5.87059">
        <ele>1284.8</ele>
        <time>2016-05-22T12:03:41Z</time>
      </trkpt>
      <trkpt lat="45.30868" lon="5.87059">
        <ele>1285.2</ele>
        <time>2016-05-22T12:03:42Z</time>
      </trkpt>
      <trkpt lat="45.30869" lon="5.87059">
        <ele>1285.4</ele>
        <time>2016-05-22T12:03:43Z</time>
      </trkpt>
      <trkpt lat="45.30871" lon="5.87059">
        <ele>1285.5</ele>
        <time>2016-05-22T12:03:44Z</time>
      </trkpt>
      <trkpt lat="45.30872" lon="5.8706">
        <ele>1285.6</ele>
        <time>2016-05-22T12:03:45Z</time>
      </trkpt>
      <trkpt lat="45.30873" lon="5.87061">
        <ele>1285.7</ele>
        <time>2016-05-22T12:03:46Z</time>
      </trkpt>
      <trkpt lat="45.30875" lon="5.87061">
        <ele>1285.7</ele>
        <time>2016-05-22T12:03:47Z</time>
      </trkpt>
      <trkpt lat="45.30875" lon="5.87061">
        <ele>1285.8</ele>
        <time>2016-05-22T12:03:48Z</time>
      </trkpt>
      <trkpt lat="45.30877" lon="5.87061">
        <ele>1286.3</ele>
        <time>2016-05-22T12:03:49Z</time>
      </trkpt>
      <trkpt lat="45.30878" lon="5.8706">
        <ele>1286.8</ele>
        <time>2016-05-22T12:03:50Z</time>
      </trkpt>
      <trkpt lat="45.30878" lon="5.87058">
        <ele>1287.2</ele>
        <time>2016-05-22T12:03:51Z</time>
      </trkpt>
      <trkpt lat="45.30878" lon="5.87057">
        <ele>1287.6</ele>
        <time>2016-05-22T12:03:52Z</time>
      </trkpt>
      <trkpt lat="45.30878" lon="5.87056">
        <ele>1288</ele>
        <time>2016-05-22T12:03:53Z</time>
      </trkpt>
      <trkpt lat="45.30878" lon="5.87055">
        <ele>1288.3</ele>
        <time>2016-05-22T12:03:54Z</time>
      </trkpt>
      <trkpt lat="45.30876" lon="5.87054">
        <ele>1288.3</ele>
        <time>2016-05-22T12:03:55Z</time>
      </trkpt>
      <trkpt lat="45.30875" lon="5.87053">
        <ele>1288.3</ele>
        <time>2016-05-22T12:03:56Z</time>
      </trkpt>
      <trkpt lat="45.30874" lon="5.87052">
        <ele>1288.4</ele>
        <time>2016-05-22T12:03:57Z</time>
      </trkpt>
      <trkpt lat="45.30873" lon="5.87051">
        <ele>1288.5</ele>
        <time>2016-05-22T12:03:58Z</time>
      </trkpt>
      <trkpt lat="45.30872" lon="5.8705">
        <ele>1288.5</ele>
        <time>2016-05-22T12:03:59Z</time>
      </trkpt>
      <trkpt lat="45.30871" lon="5.87049">
        <ele>1288.6</ele>
        <time>2016-05-22T12:04:00Z</time>
      </trkpt>
      <trkpt lat="45.3087" lon="5.87048">
        <ele>1288.8</ele>
        <time>2016-05-22T12:04:01Z</time>
      </trkpt>
      <trkpt lat="45.3087" lon="5.87047">
        <ele>1288.9</ele>
        <time>2016-05-22T12:04:02Z</time>
      </trkpt>
      <trkpt lat="45.30869" lon="5.87047">
        <ele>1288.9</ele>
        <time>2016-05-22T12:04:03Z</time>
      </trkpt>
      <trkpt lat="45.30868" lon="5.87046">
        <ele>1289</ele>
        <time>2016-05-22T12:04:04Z</time>
      </trkpt>
      <trkpt lat="45.30868" lon="5.87046">
        <ele>1289.1</ele>
        <time>2016-05-22T12:04:05Z</time>
      </trkpt>
      <trkpt lat="45.30867" lon="5.87045">
        <ele>1289.3</ele>
        <time>2016-05-22T12:04:06Z</time>
      </trkpt>
      <trkpt lat="45.30866" lon="5.87044">
        <ele>1289.4</ele>
        <time>2016-05-22T12:04:07Z</time>
      </trkpt>
      <trkpt lat="45.30866" lon="5.87043">
        <ele>1289.6</ele>
        <time>2016-05-22T12:04:08Z</time>
      </trkpt>
      <trkpt lat="45.30865" lon="5.87041">
        <ele>1289.8</ele>
        <time>2016-05-22T12:04:09Z</time>
      </trkpt>
      <trkpt lat="45.30864" lon="5.8704">
        <ele>1290.1</ele>
        <time>2016-05-22T12:04:10Z</time>
      </trkpt>
      <trkpt lat="45.30863" lon="5.87038">
        <ele>1290.4</ele>
        <time>2016-05-22T12:04:11Z</time>
      </trkpt>
      <trkpt lat="45.30862" lon="5.87037">
        <ele>1290.5</ele>
        <time>2016-05-22T12:04:12Z</time>
      </trkpt>
      <trkpt lat="45.30861" lon="5.87036">
        <ele>1290.7</ele>
        <time>2016-05-22T12:04:13Z</time>
      </trkpt>
      <trkpt lat="45.30861" lon="5.87035">
        <ele>1291</ele>
        <time>2016-05-22T12:04:14Z</time>
      </trkpt>
      <trkpt lat="45.3086" lon="5.87033">
        <ele>1291.2</ele>
        <time>2016-05-22T12:04:15Z</time>
      </trkpt>
      <trkpt lat="45.3086" lon="5.87032">
        <ele>1291.5</ele>
        <time>2016-05-22T12:04:16Z</time>
      </trkpt>
      <trkpt lat="45.30859" lon="5.87031">
        <ele>1291.8</ele>
        <time>2016-05-22T12:04:17Z</time>
      </trkpt>
      <trkpt lat="45.30858" lon="5.8703">
        <ele>1291.9</ele>
        <time>2016-05-22T12:04:18Z</time>
      </trkpt>
      <trkpt lat="45.30857" lon="5.87028">
        <ele>1292.2</ele>
        <time>2016-05-22T12:04:19Z</time>
      </trkpt>
      <trkpt lat="45.30857" lon="5.87026">
        <ele>1292.7</ele>
        <time>2016-05-22T12:04:20Z</time>
      </trkpt>
      <trkpt lat="45.30856" lon="5.87025">
        <ele>1293.1</ele>
        <time>2016-05-22T12:04:21Z</time>
      </trkpt>
      <trkpt lat="45.30856" lon="5.87023">
        <ele>1293.6</ele>
        <time>2016-05-22T12:04:22Z</time>
      </trkpt>
      <trkpt lat="45.30855" lon="5.87022">
        <ele>1293.9</ele>
        <time>2016-05-22T12:04:23Z</time>
      </trkpt>
      <trkpt lat="45.30855" lon="5.87021">
        <ele>1294</ele>
        <time>2016-05-22T12:04:24Z</time>
      </trkpt>
      <trkpt lat="45.30854" lon="5.8702">
        <ele>1294.3</ele>
        <time>2016-05-22T12:04:25Z</time>
      </trkpt>
      <trkpt lat="45.30854" lon="5.87018">
        <ele>1294.6</ele>
        <time>2016-05-22T12:04:26Z</time>
      </trkpt>
      <trkpt lat="45.30853" lon="5.87017">
        <ele>1294.7</ele>
        <time>2016-05-22T12:04:27Z</time>
      </trkpt>
      <trkpt lat="45.30852" lon="5.87016">
        <ele>1294.9</ele>
        <time>2016-05-22T12:04:28Z</time>
      </trkpt>
      <trkpt lat="45.30851" lon="5.87015">
        <ele>1295.1</ele>
        <time>2016-05-22T12:04:29Z</time>
      </trkpt>
      <trkpt lat="45.30851" lon="5.87014">
        <ele>1295.3</ele>
        <time>2016-05-22T12:04:30Z</time>
      </trkpt>
      <trkpt lat="45.3085" lon="5.87013">
        <ele>1295.4</ele>
        <time>2016-05-22T12:04:31Z</time>
      </trkpt>
      <trkpt lat="45.30849" lon="5.87012">
        <ele>1295.4</ele>
        <time>2016-05-22T12:04:32Z</time>
      </trkpt>
      <trkpt lat="45.30848" lon="5.87011">
        <ele>1295.6</ele>
        <time>2016-05-22T12:04:33Z</time>
      </trkpt>
      <trkpt lat="45.30847" lon="5.8701">
        <ele>1295.7</ele>
        <time>2016-05-22T12:04:34Z</time>
      </trkpt>
      <trkpt lat="45.30846" lon="5.87009">
        <ele>1296</ele>
        <time>2016-05-22T12:04:35Z</time>
      </trkpt>
      <trkpt lat="45.30845" lon="5.87008">
        <ele>1296.1</ele>
        <time>2016-05-22T12:04:36Z</time>
      </trkpt>
      <trkpt lat="45.30844" lon="5.87006">
        <ele>1296.3</ele>
        <time>2016-05-22T12:04:37Z</time>
      </trkpt>
      <trkpt lat="45.30843" lon="5.87006">
        <ele>1296.2</ele>
        <time>2016-05-22T12:04:38Z</time>
      </trkpt>
      <trkpt lat="45.30842" lon="5.87005">
        <ele>1296.1</ele>
        <time>2016-05-22T12:04:39Z</time>
      </trkpt>
      <trkpt lat="45.3084" lon="5.87005">
        <ele>1296.1</ele>
        <time>2016-05-22T12:04:40Z</time>
      </trkpt>
      <trkpt lat="45.3084" lon="5.87003">
        <ele>1296.5</ele>
        <time>2016-05-22T12:04:41Z</time>
      </trkpt>
      <trkpt lat="45.30839" lon="5.87002">
        <ele>1296.8</ele>
        <time>2016-05-22T12:04:42Z</time>
      </trkpt>
      <trkpt lat="45.30838" lon="5.87">
        <ele>1297</ele>
        <time>2016-05-22T12:04:43Z</time>
      </trkpt>
      <trkpt lat="45.30838" lon="5.87">
        <ele>1297.2</ele>
        <time>2016-05-22T12:04:44Z</time>
      </trkpt>
      <trkpt lat="45.30837" lon="5.86999">
        <ele>1297.4</ele>
        <time>2016-05-22T12:04:45Z</time>
      </trkpt>
      <trkpt lat="45.30836" lon="5.86998">
        <ele>1297.5</ele>
        <time>2016-05-22T12:04:46Z</time>
      </trkpt>
      <trkpt lat="45.30836" lon="5.86996">
        <ele>1297.9</ele>
        <time>2016-05-22T12:04:47Z</time>
      </trkpt>
      <trkpt lat="45.30835" lon="5.86995">
        <ele>1298.4</ele>
        <time>2016-05-22T12:04:48Z</time>
      </trkpt>
      <trkpt lat="45.30835" lon="5.86993">
        <ele>1298.8</ele>
        <time>2016-05-22T12:04:49Z</time>
      </trkpt>
      <trkpt lat="45.30835" lon="5.86992">
        <ele>1299.3</ele>
        <time>2016-05-22T12:04:50Z</time>
      </trkpt>
      <trkpt lat="45.30835" lon="5.86991">
        <ele>1299.6</ele>
        <time>2016-05-22T12:04:51Z</time>
      </trkpt>
      <trkpt lat="45.30835" lon="5.8699">
        <ele>1299.9</ele>
        <time>2016-05-22T12:04:52Z</time>
      </trkpt>
      <trkpt lat="45.30835" lon="5.86989">
        <ele>1300.5</ele>
        <time>2016-05-22T12:04:53Z</time>
      </trkpt>
      <trkpt lat="45.30836" lon="5.86988">
        <ele>1300.9</ele>
        <time>2016-05-22T12:04:54Z</time>
      </trkpt>
      <trkpt lat="45.30837" lon="5.86987">
        <ele>1301.4</ele>
        <time>2016-05-22T12:04:55Z</time>
      </trkpt>
      <trkpt lat="45.30837" lon="5.86986">
        <ele>1301.8</ele>
        <time>2016-05-22T12:04:56Z</time>
      </trkpt>
      <trkpt lat="45.30838" lon="5.86986">
        <ele>1302.2</ele>
        <time>2016-05-22T12:04:57Z</time>
      </trkpt>
      <trkpt lat="45.3084" lon="5.86985">
        <ele>1302.6</ele>
        <time>2016-05-22T12:04:58Z</time>
      </trkpt>
      <trkpt lat="45.30841" lon="5.86986">
        <ele>1302.7</ele>
        <time>2016-05-22T12:04:59Z</time>
      </trkpt>
      <trkpt lat="45.30842" lon="5.86987">
        <ele>1302.6</ele>
        <time>2016-05-22T12:05:00Z</time>
      </trkpt>
      <trkpt lat="45.30843" lon="5.86988">
        <ele>1302.4</ele>
        <time>2016-05-22T12:05:01Z</time>
      </trkpt>
      <trkpt lat="45.30844" lon="5.86988">
        <ele>1302.4</ele>
        <time>2016-05-22T12:05:02Z</time>
      </trkpt>
      <trkpt lat="45.30846" lon="5.86989">
        <ele>1302.5</ele>
        <time>2016-05-22T12:05:03Z</time>
      </trkpt>
      <trkpt lat="45.30847" lon="5.8699">
        <ele>1302.5</ele>
        <time>2016-05-22T12:05:04Z</time>
      </trkpt>
      <trkpt lat="45.30848" lon="5.86991">
        <ele>1302.2</ele>
        <time>2016-05-22T12:05:05Z</time>
      </trkpt>
      <trkpt lat="45.30849" lon="5.86992">
        <ele>1302.1</ele>
        <time>2016-05-22T12:05:06Z</time>
      </trkpt>
      <trkpt lat="45.3085" lon="5.86991">
        <ele>1302.5</ele>
        <time>2016-05-22T12:05:07Z</time>
      </trkpt>
      <trkpt lat="45.30852" lon="5.86991">
        <ele>1303</ele>
        <time>2016-05-22T12:05:08Z</time>
      </trkpt>
      <trkpt lat="45.30853" lon="5.8699">
        <ele>1303.5</ele>
        <time>2016-05-22T12:05:09Z</time>
      </trkpt>
      <trkpt lat="45.30855" lon="5.8699">
        <ele>1303.8</ele>
        <time>2016-05-22T12:05:10Z</time>
      </trkpt>
      <trkpt lat="45.30856" lon="5.8699">
        <ele>1304.1</ele>
        <time>2016-05-22T12:05:11Z</time>
      </trkpt>
      <trkpt lat="45.30857" lon="5.8699">
        <ele>1304.2</ele>
        <time>2016-05-22T12:05:12Z</time>
      </trkpt>
      <trkpt lat="45.30858" lon="5.86991">
        <ele>1304.2</ele>
        <time>2016-05-22T12:05:13Z</time>
      </trkpt>
      <trkpt lat="45.30858" lon="5.86991">
        <ele>1304.2</ele>
        <time>2016-05-22T12:05:14Z</time>
      </trkpt>
      <trkpt lat="45.3086" lon="5.86991">
        <ele>1304.6</ele>
        <time>2016-05-22T12:05:15Z</time>
      </trkpt>
      <trkpt lat="45.3086" lon="5.86991">
        <ele>1304.7</ele>
        <time>2016-05-22T12:05:16Z</time>
      </trkpt>
      <trkpt lat="45.30861" lon="5.86991">
        <ele>1304.9</ele>
        <time>2016-05-22T12:05:17Z</time>
      </trkpt>
      <trkpt lat="45.30862" lon="5.86991">
        <ele>1305.2</ele>
        <time>2016-05-22T12:05:18Z</time>
      </trkpt>
      <trkpt lat="45.30863" lon="5.8699">
        <ele>1305.4</ele>
        <time>2016-05-22T12:05:19Z</time>
      </trkpt>
      <trkpt lat="45.30864" lon="5.8699">
        <ele>1305.8</ele>
        <time>2016-05-22T12:05:20Z</time>
      </trkpt>
      <trkpt lat="45.30865" lon="5.86989">
        <ele>1306.2</ele>
        <time>2016-05-22T12:05:21Z</time>
      </trkpt>
      <trkpt lat="45.30866" lon="5.86989">
        <ele>1306.5</ele>
        <time>2016-05-22T12:05:22Z</time>
      </trkpt>
      <trkpt lat="45.30867" lon="5.86989">
        <ele>1306.7</ele>
        <time>2016-05-22T12:05:23Z</time>
      </trkpt>
      <trkpt lat="45.30868" lon="5.86989">
        <ele>1306.9</ele>
        <time>2016-05-22T12:05:24Z</time>
      </trkpt>
      <trkpt lat="45.30869" lon="5.86989">
        <ele>1307.2</ele>
        <time>2016-05-22T12:05:25Z</time>
      </trkpt>
      <trkpt lat="45.3087" lon="5.86988">
        <ele>1307.7</ele>
        <time>2016-05-22T12:05:26Z</time>
      </trkpt>
      <trkpt lat="45.30871" lon="5.86988">
        <ele>1307.9</ele>
        <time>2016-05-22T12:05:27Z</time>
      </trkpt>
      <trkpt lat="45.30873" lon="5.86988">
        <ele>1308.3</ele>
        <time>2016-05-22T12:05:28Z</time>
      </trkpt>
      <trkpt lat="45.30874" lon="5.86988">
        <ele>1308.4</ele>
        <time>2016-05-22T12:05:29Z</time>
      </trkpt>
      <trkpt lat="45.30876" lon="5.86988">
        <ele>1308.6</ele>
        <time>2016-05-22T12:05:30Z</time>
      </trkpt>
      <trkpt lat="45.30877" lon="5.86988">
        <ele>1308.9</ele>
        <time>2016-05-22T12:05:31Z</time>
      </trkpt>
      <trkpt lat="45.30878" lon="5.86989">
        <ele>1309.1</ele>
        <time>2016-05-22T12:05:32Z</time>
      </trkpt>
      <trkpt lat="45.30879" lon="5.86988">
        <ele>1309.5</ele>
        <time>2016-05-22T12:05:33Z</time>
      </trkpt>
      <trkpt lat="45.3088" lon="5.86988">
        <ele>1309.6</ele>
        <time>2016-05-22T12:05:34Z</time>
      </trkpt>
      <trkpt lat="45.3088" lon="5.86988">
        <ele>1309.8</ele>
        <time>2016-05-22T12:05:35Z</time>
      </trkpt>
      <trkpt lat="45.30881" lon="5.86988">
        <ele>1309.9</ele>
        <time>2016-05-22T12:05:36Z</time>
      </trkpt>
      <trkpt lat="45.30882" lon="5.86988">
        <ele>1310</ele>
        <time>2016-05-22T12:05:37Z</time>
      </trkpt>
      <trkpt lat="45.30883" lon="5.86988">
        <ele>1310.2</ele>
        <time>2016-05-22T12:05:38Z</time>
      </trkpt>
      <trkpt lat="45.30884" lon="5.86989">
        <ele>1310.3</ele>
        <time>2016-05-22T12:05:39Z</time>
      </trkpt>
      <trkpt lat="45.30886" lon="5.86988">
        <ele>1310.8</ele>
        <time>2016-05-22T12:05:40Z</time>
      </trkpt>
      <trkpt lat="45.30887" lon="5.86988">
        <ele>1310.9</ele>
        <time>2016-05-22T12:05:41Z</time>
      </trkpt>
      <trkpt lat="45.30888" lon="5.86988">
        <ele>1311.1</ele>
        <time>2016-05-22T12:05:42Z</time>
      </trkpt>
      <trkpt lat="45.30889" lon="5.86988">
        <ele>1311.6</ele>
        <time>2016-05-22T12:05:43Z</time>
      </trkpt>
      <trkpt lat="45.3089" lon="5.86987">
        <ele>1312</ele>
        <time>2016-05-22T12:05:44Z</time>
      </trkpt>
      <trkpt lat="45.30891" lon="5.86987">
        <ele>1312.3</ele>
        <time>2016-05-22T12:05:45Z</time>
      </trkpt>
      <trkpt lat="45.30893" lon="5.86987">
        <ele>1312.6</ele>
        <time>2016-05-22T12:05:46Z</time>
      </trkpt>
      <trkpt lat="45.30894" lon="5.86987">
        <ele>1312.7</ele>
        <time>2016-05-22T12:05:47Z</time>
      </trkpt>
      <trkpt lat="45.30895" lon="5.86987">
        <ele>1313.1</ele>
        <time>2016-05-22T12:05:48Z</time>
      </trkpt>
      <trkpt lat="45.30896" lon="5.86987">
        <ele>1313.2</ele>
        <time>2016-05-22T12:05:49Z</time>
      </trkpt>
      <trkpt lat="45.30897" lon="5.86988">
        <ele>1313.3</ele>
        <time>2016-05-22T12:05:50Z</time>
      </trkpt>
      <trkpt lat="45.30898" lon="5.86988">
        <ele>1313.3</ele>
        <time>2016-05-22T12:05:51Z</time>
      </trkpt>
      <trkpt lat="45.30899" lon="5.86989">
        <ele>1313.2</ele>
        <time>2016-05-22T12:05:52Z</time>
      </trkpt>
      <trkpt lat="45.309" lon="5.86989">
        <ele>1313.1</ele>
        <time>2016-05-22T12:05:53Z</time>
      </trkpt>
      <trkpt lat="45.30901" lon="5.86991">
        <ele>1312.8</ele>
        <time>2016-05-22T12:05:54Z</time>
      </trkpt>
      <trkpt lat="45.30902" lon="5.86992">
        <ele>1312.6</ele>
        <time>2016-05-22T12:05:55Z</time>
      </trkpt>
      <trkpt lat="45.30903" lon="5.86992">
        <ele>1312.7</ele>
        <time>2016-05-22T12:05:56Z</time>
      </trkpt>
      <trkpt lat="45.30904" lon="5.86993">
        <ele>1312.6</ele>
        <time>2016-05-22T12:05:57Z</time>
      </trkpt>
      <trkpt lat="45.30906" lon="5.86994">
        <ele>1312.5</ele>
        <time>2016-05-22T12:05:58Z</time>
      </trkpt>
      <trkpt lat="45.30907" lon="5.86994">
        <ele>1312.6</ele>
        <time>2016-05-22T12:05:59Z</time>
      </trkpt>
      <trkpt lat="45.30909" lon="5.86994">
        <ele>1313</ele>
        <time>2016-05-22T12:06:00Z</time>
      </trkpt>
      <trkpt lat="45.3091" lon="5.86994">
        <ele>1313.4</ele>
        <time>2016-05-22T12:06:01Z</time>
      </trkpt>
      <trkpt lat="45.30912" lon="5.86994">
        <ele>1313.4</ele>
        <time>2016-05-22T12:06:02Z</time>
      </trkpt>
      <trkpt lat="45.30913" lon="5.86995">
        <ele>1313.6</ele>
        <time>2016-05-22T12:06:03Z</time>
      </trkpt>
      <trkpt lat="45.30915" lon="5.86996">
        <ele>1313.4</ele>
        <time>2016-05-22T12:06:04Z</time>
      </trkpt>
      <trkpt lat="45.30916" lon="5.86996">
        <ele>1313.5</ele>
        <time>2016-05-22T12:06:05Z</time>
      </trkpt>
      <trkpt lat="45.30917" lon="5.86997">
        <ele>1313.7</ele>
        <time>2016-05-22T12:06:06Z</time>
      </trkpt>
      <trkpt lat="45.30919" lon="5.86997">
        <ele>1314</ele>
        <time>2016-05-22T12:06:07Z</time>
      </trkpt>
      <trkpt lat="45.30921" lon="5.86997">
        <ele>1314.3</ele>
        <time>2016-05-22T12:06:08Z</time>
      </trkpt>
      <trkpt lat="45.30922" lon="5.86997">
        <ele>1314.5</ele>
        <time>2016-05-22T12:06:09Z</time>
      </trkpt>
      <trkpt lat="45.30923" lon="5.86998">
        <ele>1314.6</ele>
        <time>2016-05-22T12:06:10Z</time>
      </trkpt>
      <trkpt lat="45.30924" lon="5.86998">
        <ele>1314.7</ele>
        <time>2016-05-22T12:06:11Z</time>
      </trkpt>
      <trkpt lat="45.30925" lon="5.86998">
        <ele>1314.8</ele>
        <time>2016-05-22T12:06:12Z</time>
      </trkpt>
      <trkpt lat="45.30925" lon="5.86998">
        <ele>1315</ele>
        <time>2016-05-22T12:06:13Z</time>
      </trkpt>
      <trkpt lat="45.30926" lon="5.86998">
        <ele>1315.1</ele>
        <time>2016-05-22T12:06:14Z</time>
      </trkpt>
      <trkpt lat="45.30927" lon="5.87">
        <ele>1314.7</ele>
        <time>2016-05-22T12:06:15Z</time>
      </trkpt>
      <trkpt lat="45.30927" lon="5.87">
        <ele>1314.4</ele>
        <time>2016-05-22T12:06:16Z</time>
      </trkpt>
      <trkpt lat="45.30927" lon="5.87001">
        <ele>1314.2</ele>
        <time>2016-05-22T12:06:17Z</time>
      </trkpt>
      <trkpt lat="45.30928" lon="5.87001">
        <ele>1314.3</ele>
        <time>2016-05-22T12:06:18Z</time>
      </trkpt>
      <trkpt lat="45.30928" lon="5.87002">
        <ele>1314.3</ele>
        <time>2016-05-22T12:06:19Z</time>
      </trkpt>
      <trkpt lat="45.30929" lon="5.87003">
        <ele>1314.2</ele>
        <time>2016-05-22T12:06:20Z</time>
      </trkpt>
      <trkpt lat="45.3093" lon="5.87003">
        <ele>1314.3</ele>
        <time>2016-05-22T12:06:21Z</time>
      </trkpt>
      <trkpt lat="45.30931" lon="5.87003">
        <ele>1314.3</ele>
        <time>2016-05-22T12:06:22Z</time>
      </trkpt>
      <trkpt lat="45.30936" lon="5.87015">
        <ele>1311.8</ele>
        <time>2016-05-22T12:08:07Z</time>
      </trkpt>
      <trkpt lat="45.30938" lon="5.87017">
        <ele>1311.6</ele>
        <time>2016-05-22T12:08:08Z</time>
      </trkpt>
      <trkpt lat="45.30941" lon="5.87018">
        <ele>1311.8</ele>
        <time>2016-05-22T12:08:09Z</time>
      </trkpt>
      <trkpt lat="45.30945" lon="5.8702">
        <ele>1312</ele>
        <time>2016-05-22T12:08:10Z</time>
      </trkpt>
      <trkpt lat="45.30948" lon="5.8702">
        <ele>1312.5</ele>
        <time>2016-05-22T12:08:11Z</time>
      </trkpt>
      <trkpt lat="45.30951" lon="5.87021">
        <ele>1313</ele>
        <time>2016-05-22T12:08:12Z</time>
      </trkpt>
      <trkpt lat="45.30953" lon="5.87022">
        <ele>1313.2</ele>
        <time>2016-05-22T12:08:13Z</time>
      </trkpt>
      <trkpt lat="45.30955" lon="5.87023">
        <ele>1313.3</ele>
        <time>2016-05-22T12:08:14Z</time>
      </trkpt>
      <trkpt lat="45.30957" lon="5.87024">
        <ele>1313.3</ele>
        <time>2016-05-22T12:08:15Z</time>
      </trkpt>
      <trkpt lat="45.30959" lon="5.87025">
        <ele>1313.2</ele>
        <time>2016-05-22T12:08:16Z</time>
      </trkpt>
      <trkpt lat="45.30961" lon="5.87027">
        <ele>1313.1</ele>
        <time>2016-05-22T12:08:17Z</time>
      </trkpt>
      <trkpt lat="45.30963" lon="5.87028">
        <ele>1313</ele>
        <time>2016-05-22T12:08:18Z</time>
      </trkpt>
      <trkpt lat="45.30965" lon="5.8703">
        <ele>1312.9</ele>
        <time>2016-05-22T12:08:19Z</time>
      </trkpt>
      <trkpt lat="45.30968" lon="5.87031">
        <ele>1313</ele>
        <time>2016-05-22T12:08:20Z</time>
      </trkpt>
      <trkpt lat="45.30971" lon="5.87031">
        <ele>1313.4</ele>
        <time>2016-05-22T12:08:21Z</time>
      </trkpt>
      <trkpt lat="45.30973" lon="5.87032">
        <ele>1313.6</ele>
        <time>2016-05-22T12:08:22Z</time>
      </trkpt>
      <trkpt lat="45.30975" lon="5.87033">
        <ele>1313.7</ele>
        <time>2016-05-22T12:08:23Z</time>
      </trkpt>
      <trkpt lat="45.30977" lon="5.87034">
        <ele>1313.8</ele>
        <time>2016-05-22T12:08:24Z</time>
      </trkpt>
      <trkpt lat="45.30979" lon="5.87035">
        <ele>1313.9</ele>
        <time>2016-05-22T12:08:25Z</time>
      </trkpt>
      <trkpt lat="45.30982" lon="5.87036">
        <ele>1314</ele>
        <time>2016-05-22T12:08:26Z</time>
      </trkpt>
      <trkpt lat="45.30984" lon="5.87037">
        <ele>1313.8</ele>
        <time>2016-05-22T12:08:27Z</time>
      </trkpt>
      <trkpt lat="45.30987" lon="5.87038">
        <ele>1314.1</ele>
        <time>2016-05-22T12:08:28Z</time>
      </trkpt>
      <trkpt lat="45.30991" lon="5.87039">
        <ele>1314.6</ele>
        <time>2016-05-22T12:08:29Z</time>
      </trkpt>
      <trkpt lat="45.30995" lon="5.8704">
        <ele>1315</ele>
        <time>2016-05-22T12:08:30Z</time>
      </trkpt>
      <trkpt lat="45.30998" lon="5.87041">
        <ele>1315</ele>
        <time>2016-05-22T12:08:31Z</time>
      </trkpt>
      <trkpt lat="45.31002" lon="5.87043">
        <ele>1315.1</ele>
        <time>2016-05-22T12:08:32Z</time>
      </trkpt>
      <trkpt lat="45.31005" lon="5.87045">
        <ele>1315.3</ele>
        <time>2016-05-22T12:08:33Z</time>
      </trkpt>
      <trkpt lat="45.31008" lon="5.87047">
        <ele>1315.6</ele>
        <time>2016-05-22T12:08:34Z</time>
      </trkpt>
      <trkpt lat="45.31012" lon="5.87048">
        <ele>1316.1</ele>
        <time>2016-05-22T12:08:35Z</time>
      </trkpt>
      <trkpt lat="45.31014" lon="5.87049">
        <ele>1316.5</ele>
        <time>2016-05-22T12:08:36Z</time>
      </trkpt>
      <trkpt lat="45.31016" lon="5.87051">
        <ele>1316.5</ele>
        <time>2016-05-22T12:08:37Z</time>
      </trkpt>
      <trkpt lat="45.31018" lon="5.87053">
        <ele>1316.2</ele>
        <time>2016-05-22T12:08:38Z</time>
      </trkpt>
      <trkpt lat="45.31021" lon="5.87054">
        <ele>1316.3</ele>
        <time>2016-05-22T12:08:39Z</time>
      </trkpt>
      <trkpt lat="45.31023" lon="5.87056">
        <ele>1316.3</ele>
        <time>2016-05-22T12:08:40Z</time>
      </trkpt>
      <trkpt lat="45.31025" lon="5.87058">
        <ele>1316</ele>
        <time>2016-05-22T12:08:41Z</time>
      </trkpt>
      <trkpt lat="45.31027" lon="5.87059">
        <ele>1316.6</ele>
        <time>2016-05-22T12:08:42Z</time>
      </trkpt>
      <trkpt lat="45.31031" lon="5.87059">
        <ele>1317.5</ele>
        <time>2016-05-22T12:08:43Z</time>
      </trkpt>
      <trkpt lat="45.31034" lon="5.87059">
        <ele>1318.4</ele>
        <time>2016-05-22T12:08:44Z</time>
      </trkpt>
      <trkpt lat="45.31037" lon="5.87059">
        <ele>1319.2</ele>
        <time>2016-05-22T12:08:45Z</time>
      </trkpt>
      <trkpt lat="45.3104" lon="5.87059">
        <ele>1320</ele>
        <time>2016-05-22T12:08:46Z</time>
      </trkpt>
      <trkpt lat="45.31042" lon="5.87061">
        <ele>1320.1</ele>
        <time>2016-05-22T12:08:47Z</time>
      </trkpt>
      <trkpt lat="45.31046" lon="5.87062">
        <ele>1320.9</ele>
        <time>2016-05-22T12:08:48Z</time>
      </trkpt>
      <trkpt lat="45.3105" lon="5.87064">
        <ele>1321</ele>
        <time>2016-05-22T12:08:49Z</time>
      </trkpt>
      <trkpt lat="45.31054" lon="5.87066">
        <ele>1321.4</ele>
        <time>2016-05-22T12:08:50Z</time>
      </trkpt>
      <trkpt lat="45.31058" lon="5.87068">
        <ele>1321.7</ele>
        <time>2016-05-22T12:08:51Z</time>
      </trkpt>
      <trkpt lat="45.31061" lon="5.8707">
        <ele>1322</ele>
        <time>2016-05-22T12:08:52Z</time>
      </trkpt>
      <trkpt lat="45.31064" lon="5.87072">
        <ele>1322</ele>
        <time>2016-05-22T12:08:53Z</time>
      </trkpt>
      <trkpt lat="45.31067" lon="5.87074">
        <ele>1322.3</ele>
        <time>2016-05-22T12:08:54Z</time>
      </trkpt>
      <trkpt lat="45.31071" lon="5.87075">
        <ele>1322.7</ele>
        <time>2016-05-22T12:08:55Z</time>
      </trkpt>
      <trkpt lat="45.31075" lon="5.87077">
        <ele>1323.2</ele>
        <time>2016-05-22T12:08:56Z</time>
      </trkpt>
      <trkpt lat="45.31079" lon="5.8708">
        <ele>1323.3</ele>
        <time>2016-05-22T12:08:57Z</time>
      </trkpt>
      <trkpt lat="45.31082" lon="5.87081">
        <ele>1323.6</ele>
        <time>2016-05-22T12:08:58Z</time>
      </trkpt>
      <trkpt lat="45.31086" lon="5.87084">
        <ele>1323.4</ele>
        <time>2016-05-22T12:08:59Z</time>
      </trkpt>
      <trkpt lat="45.3109" lon="5.87086">
        <ele>1323.6</ele>
        <time>2016-05-22T12:09:00Z</time>
      </trkpt>
      <trkpt lat="45.31095" lon="5.87089">
        <ele>1323.8</ele>
        <time>2016-05-22T12:09:01Z</time>
      </trkpt>
      <trkpt lat="45.311" lon="5.87092">
        <ele>1323.9</ele>
        <time>2016-05-22T12:09:02Z</time>
      </trkpt>
      <trkpt lat="45.31105" lon="5.87096">
        <ele>1323.6</ele>
        <time>2016-05-22T12:09:03Z</time>
      </trkpt>
      <trkpt lat="45.31109" lon="5.871">
        <ele>1323.2</ele>
        <time>2016-05-22T12:09:04Z</time>
      </trkpt>
      <trkpt lat="45.31114" lon="5.87103">
        <ele>1323.4</ele>
        <time>2016-05-22T12:09:05Z</time>
      </trkpt>
      <trkpt lat="45.31118" lon="5.87104">
        <ele>1323.8</ele>
        <time>2016-05-22T12:09:06Z</time>
      </trkpt>
      <trkpt lat="45.31122" lon="5.87108">
        <ele>1323.5</ele>
        <time>2016-05-22T12:09:07Z</time>
      </trkpt>
      <trkpt lat="45.31126" lon="5.8711">
        <ele>1323.3</ele>
        <time>2016-05-22T12:09:08Z</time>
      </trkpt>
      <trkpt lat="45.3113" lon="5.87113">
        <ele>1323.4</ele>
        <time>2016-05-22T12:09:09Z</time>
      </trkpt>
      <trkpt lat="45.31135" lon="5.87117">
        <ele>1323.4</ele>
        <time>2016-05-22T12:09:10Z</time>
      </trkpt>
      <trkpt lat="45.31141" lon="5.87121">
        <ele>1323</ele>
        <time>2016-05-22T12:09:11Z</time>
      </trkpt>
      <trkpt lat="45.31148" lon="5.87124">
        <ele>1323.6</ele>
        <time>2016-05-22T12:09:12Z</time>
      </trkpt>
      <trkpt lat="45.31153" lon="5.87128">
        <ele>1323.7</ele>
        <time>2016-05-22T12:09:13Z</time>
      </trkpt>
      <trkpt lat="45.31157" lon="5.87133">
        <ele>1322.8</ele>
        <time>2016-05-22T12:09:14Z</time>
      </trkpt>
      <trkpt lat="45.31162" lon="5.87136">
        <ele>1322.8</ele>
        <time>2016-05-22T12:09:15Z</time>
      </trkpt>
      <trkpt lat="45.31165" lon="5.87144">
        <ele>1321</ele>
        <time>2016-05-22T12:09:16Z</time>
      </trkpt>
      <trkpt lat="45.31168" lon="5.87148">
        <ele>1320.5</ele>
        <time>2016-05-22T12:09:17Z</time>
      </trkpt>
      <trkpt lat="45.31172" lon="5.87153">
        <ele>1319.7</ele>
        <time>2016-05-22T12:09:18Z</time>
      </trkpt>
      <trkpt lat="45.31176" lon="5.87156">
        <ele>1319.5</ele>
        <time>2016-05-22T12:09:19Z</time>
      </trkpt>
      <trkpt lat="45.31179" lon="5.87159">
        <ele>1319.2</ele>
        <time>2016-05-22T12:09:20Z</time>
      </trkpt>
      <trkpt lat="45.31183" lon="5.87163">
        <ele>1318.9</ele>
        <time>2016-05-22T12:09:21Z</time>
      </trkpt>
      <trkpt lat="45.31186" lon="5.87168">
        <ele>1318</ele>
        <time>2016-05-22T12:09:22Z</time>
      </trkpt>
      <trkpt lat="45.31189" lon="5.87171">
        <ele>1317.9</ele>
        <time>2016-05-22T12:09:23Z</time>
      </trkpt>
      <trkpt lat="45.31193" lon="5.87175">
        <ele>1317.7</ele>
        <time>2016-05-22T12:09:24Z</time>
      </trkpt>
      <trkpt lat="45.31196" lon="5.87178">
        <ele>1317.8</ele>
        <time>2016-05-22T12:09:25Z</time>
      </trkpt>
      <trkpt lat="45.312" lon="5.87181">
        <ele>1317.8</ele>
        <time>2016-05-22T12:09:26Z</time>
      </trkpt>
      <trkpt lat="45.31204" lon="5.87183">
        <ele>1318.2</ele>
        <time>2016-05-22T12:09:27Z</time>
      </trkpt>
      <trkpt lat="45.31208" lon="5.87186">
        <ele>1318.2</ele>
        <time>2016-05-22T12:09:28Z</time>
      </trkpt>
      <trkpt lat="45.31212" lon="5.8719">
        <ele>1318.1</ele>
        <time>2016-05-22T12:09:29Z</time>
      </trkpt>
      <trkpt lat="45.31216" lon="5.87194">
        <ele>1318.1</ele>
        <time>2016-05-22T12:09:30Z</time>
      </trkpt>
      <trkpt lat="45.3122" lon="5.87197">
        <ele>1318</ele>
        <time>2016-05-22T12:09:31Z</time>
      </trkpt>
      <trkpt lat="45.31224" lon="5.872">
        <ele>1318</ele>
        <time>2016-05-22T12:09:32Z</time>
      </trkpt>
      <trkpt lat="45.31227" lon="5.87203">
        <ele>1318</ele>
        <time>2016-05-22T12:09:33Z</time>
      </trkpt>
      <trkpt lat="45.3123" lon="5.87205">
        <ele>1318</ele>
        <time>2016-05-22T12:09:34Z</time>
      </trkpt>
      <trkpt lat="45.31233" lon="5.87208">
        <ele>1317.9</ele>
        <time>2016-05-22T12:09:35Z</time>
      </trkpt>
      <trkpt lat="45.31236" lon="5.8721">
        <ele>1317.9</ele>
        <time>2016-05-22T12:09:36Z</time>
      </trkpt>
      <trkpt lat="45.31239" lon="5.87213">
        <ele>1317.7</ele>
        <time>2016-05-22T12:09:37Z</time>
      </trkpt>
      <trkpt lat="45.31242" lon="5.87216">
        <ele>1317.7</ele>
        <time>2016-05-22T12:09:38Z</time>
      </trkpt>
      <trkpt lat="45.31246" lon="5.87219">
        <ele>1317.6</ele>
        <time>2016-05-22T12:09:39Z</time>
      </trkpt>
      <trkpt lat="45.3125" lon="5.87221">
        <ele>1317.6</ele>
        <time>2016-05-22T12:09:40Z</time>
      </trkpt>
      <trkpt lat="45.31254" lon="5.87224">
        <ele>1317</ele>
        <time>2016-05-22T12:09:41Z</time>
      </trkpt>
      <trkpt lat="45.31257" lon="5.87226">
        <ele>1316.3</ele>
        <time>2016-05-22T12:09:42Z</time>
      </trkpt>
      <trkpt lat="45.31261" lon="5.87228">
        <ele>1316</ele>
        <time>2016-05-22T12:09:43Z</time>
      </trkpt>
      <trkpt lat="45.31264" lon="5.8723">
        <ele>1315.3</ele>
        <time>2016-05-22T12:09:44Z</time>
      </trkpt>
      <trkpt lat="45.31267" lon="5.87233">
        <ele>1314.6</ele>
        <time>2016-05-22T12:09:45Z</time>
      </trkpt>
      <trkpt lat="45.31271" lon="5.87235">
        <ele>1313.8</ele>
        <time>2016-05-22T12:09:46Z</time>
      </trkpt>
      <trkpt lat="45.31275" lon="5.87238">
        <ele>1313.1</ele>
        <time>2016-05-22T12:09:47Z</time>
      </trkpt>
      <trkpt lat="45.3128" lon="5.87241">
        <ele>1311.9</ele>
        <time>2016-05-22T12:09:48Z</time>
      </trkpt>
      <trkpt lat="45.31284" lon="5.87244">
        <ele>1311.2</ele>
        <time>2016-05-22T12:09:49Z</time>
      </trkpt>
      <trkpt lat="45.31286" lon="5.87246">
        <ele>1310.4</ele>
        <time>2016-05-22T12:09:50Z</time>
      </trkpt>
      <trkpt lat="45.31289" lon="5.87248">
        <ele>1309.8</ele>
        <time>2016-05-22T12:09:51Z</time>
      </trkpt>
      <trkpt lat="45.31292" lon="5.87252">
        <ele>1308.5</ele>
        <time>2016-05-22T12:09:52Z</time>
      </trkpt>
      <trkpt lat="45.31296" lon="5.87254">
        <ele>1307.8</ele>
        <time>2016-05-22T12:09:53Z</time>
      </trkpt>
      <trkpt lat="45.313" lon="5.87257">
        <ele>1307.1</ele>
        <time>2016-05-22T12:09:54Z</time>
      </trkpt>
      <trkpt lat="45.31302" lon="5.87261">
        <ele>1305.7</ele>
        <time>2016-05-22T12:09:55Z</time>
      </trkpt>
      <trkpt lat="45.31305" lon="5.87265">
        <ele>1304.4</ele>
        <time>2016-05-22T12:09:56Z</time>
      </trkpt>
      <trkpt lat="45.31305" lon="5.87268">
        <ele>1303.5</ele>
        <time>2016-05-22T12:09:57Z</time>
      </trkpt>
      <trkpt lat="45.31307" lon="5.87271">
        <ele>1302.5</ele>
        <time>2016-05-22T12:09:58Z</time>
      </trkpt>
      <trkpt lat="45.31308" lon="5.87274">
        <ele>1301.5</ele>
        <time>2016-05-22T12:09:59Z</time>
      </trkpt>
      <trkpt lat="45.31309" lon="5.87277">
        <ele>1300.6</ele>
        <time>2016-05-22T12:10:00Z</time>
      </trkpt>
      <trkpt lat="45.3131" lon="5.8728">
        <ele>1299.6</ele>
        <time>2016-05-22T12:10:01Z</time>
      </trkpt>
      <trkpt lat="45.31312" lon="5.87283">
        <ele>1298.6</ele>
        <time>2016-05-22T12:10:02Z</time>
      </trkpt>
      <trkpt lat="45.31313" lon="5.87288">
        <ele>1296.9</ele>
        <time>2016-05-22T12:10:03Z</time>
      </trkpt>
      <trkpt lat="45.31315" lon="5.87292">
        <ele>1295.6</ele>
        <time>2016-05-22T12:10:04Z</time>
      </trkpt>
      <trkpt lat="45.31317" lon="5.87296">
        <ele>1294.1</ele>
        <time>2016-05-22T12:10:05Z</time>
      </trkpt>
      <trkpt lat="45.31318" lon="5.87299">
        <ele>1293.1</ele>
        <time>2016-05-22T12:10:06Z</time>
      </trkpt>
      <trkpt lat="45.31319" lon="5.87302">
        <ele>1291.9</ele>
        <time>2016-05-22T12:10:07Z</time>
      </trkpt>
      <trkpt lat="45.3132" lon="5.87305">
        <ele>1290.9</ele>
        <time>2016-05-22T12:10:08Z</time>
      </trkpt>
      <trkpt lat="45.31321" lon="5.87308">
        <ele>1289.8</ele>
        <time>2016-05-22T12:10:09Z</time>
      </trkpt>
      <trkpt lat="45.31322" lon="5.87312">
        <ele>1288.6</ele>
        <time>2016-05-22T12:10:10Z</time>
      </trkpt>
      <trkpt lat="45.31322" lon="5.87314">
        <ele>1287.9</ele>
        <time>2016-05-22T12:10:11Z</time>
      </trkpt>
      <trkpt lat="45.31323" lon="5.87317">
        <ele>1287</ele>
        <time>2016-05-22T12:10:12Z</time>
      </trkpt>
      <trkpt lat="45.31323" lon="5.87318">
        <ele>1286.8</ele>
        <time>2016-05-22T12:10:13Z</time>
      </trkpt>
      <trkpt lat="45.31323" lon="5.87319">
        <ele>1286.3</ele>
        <time>2016-05-22T12:10:14Z</time>
      </trkpt>
      <trkpt lat="45.31323" lon="5.8732">
        <ele>1285.9</ele>
        <time>2016-05-22T12:10:15Z</time>
      </trkpt>
      <trkpt lat="45.31323" lon="5.87325">
        <ele>1284.3</ele>
        <time>2016-05-22T12:10:16Z</time>
      </trkpt>
      <trkpt lat="45.31323" lon="5.87328">
        <ele>1283.2</ele>
        <time>2016-05-22T12:10:17Z</time>
      </trkpt>
      <trkpt lat="45.31323" lon="5.87331">
        <ele>1282.5</ele>
        <time>2016-05-22T12:10:18Z</time>
      </trkpt>
      <trkpt lat="45.31323" lon="5.87332">
        <ele>1281.9</ele>
        <time>2016-05-22T12:10:19Z</time>
      </trkpt>
      <trkpt lat="45.31324" lon="5.87334">
        <ele>1281.5</ele>
        <time>2016-05-22T12:10:20Z</time>
      </trkpt>
      <trkpt lat="45.31324" lon="5.87334">
        <ele>1281.4</ele>
        <time>2016-05-22T12:10:21Z</time>
      </trkpt>
      <trkpt lat="45.31324" lon="5.87334">
        <ele>1281.3</ele>
        <time>2016-05-22T12:10:22Z</time>
      </trkpt>
      <trkpt lat="45.31324" lon="5.87334">
        <ele>1281.3</ele>
        <time>2016-05-22T12:10:23Z</time>
      </trkpt>
      <trkpt lat="45.31323" lon="5.87335">
        <ele>1281.2</ele>
        <time>2016-05-22T12:10:24Z</time>
      </trkpt>
      <trkpt lat="45.31323" lon="5.87335">
        <ele>1281.1</ele>
        <time>2016-05-22T12:10:25Z</time>
      </trkpt>
      <trkpt lat="45.31324" lon="5.87336">
        <ele>1280.9</ele>
        <time>2016-05-22T12:10:26Z</time>
      </trkpt>
      <trkpt lat="45.31324" lon="5.87336">
        <ele>1280.7</ele>
        <time>2016-05-22T12:10:27Z</time>
      </trkpt>
      <trkpt lat="45.31324" lon="5.87337">
        <ele>1280.4</ele>
        <time>2016-05-22T12:10:28Z</time>
      </trkpt>
      <trkpt lat="45.31324" lon="5.87338">
        <ele>1280.2</ele>
        <time>2016-05-22T12:10:29Z</time>
      </trkpt>
      <trkpt lat="45.31324" lon="5.8734">
        <ele>1279.7</ele>
        <time>2016-05-22T12:10:30Z</time>
      </trkpt>
      <trkpt lat="45.31325" lon="5.87342">
        <ele>1279.1</ele>
        <time>2016-05-22T12:10:31Z</time>
      </trkpt>
      <trkpt lat="45.31325" lon="5.87345">
        <ele>1278.1</ele>
        <time>2016-05-22T12:10:32Z</time>
      </trkpt>
      <trkpt lat="45.31327" lon="5.87348">
        <ele>1277.1</ele>
        <time>2016-05-22T12:10:33Z</time>
      </trkpt>
      <trkpt lat="45.31326" lon="5.87352">
        <ele>1276.2</ele>
        <time>2016-05-22T12:10:34Z</time>
      </trkpt>
      <trkpt lat="45.31326" lon="5.87353">
        <ele>1275.9</ele>
        <time>2016-05-22T12:10:35Z</time>
      </trkpt>
      <trkpt lat="45.31325" lon="5.87353">
        <ele>1275.8</ele>
        <time>2016-05-22T12:10:36Z</time>
      </trkpt>
      <trkpt lat="45.31325" lon="5.87354">
        <ele>1275.7</ele>
        <time>2016-05-22T12:10:37Z</time>
      </trkpt>
      <trkpt lat="45.31324" lon="5.87354">
        <ele>1275.8</ele>
        <time>2016-05-22T12:10:38Z</time>
      </trkpt>
      <trkpt lat="45.31323" lon="5.87355">
        <ele>1275.8</ele>
        <time>2016-05-22T12:10:39Z</time>
      </trkpt>
      <trkpt lat="45.31322" lon="5.87356">
        <ele>1275.6</ele>
        <time>2016-05-22T12:10:40Z</time>
      </trkpt>
      <trkpt lat="45.31321" lon="5.87358">
        <ele>1275.2</ele>
        <time>2016-05-22T12:10:41Z</time>
      </trkpt>
      <trkpt lat="45.3132" lon="5.87361">
        <ele>1274.7</ele>
        <time>2016-05-22T12:10:42Z</time>
      </trkpt>
      <trkpt lat="45.31319" lon="5.87364">
        <ele>1274.1</ele>
        <time>2016-05-22T12:10:43Z</time>
      </trkpt>
      <trkpt lat="45.31318" lon="5.87367">
        <ele>1273.7</ele>
        <time>2016-05-22T12:10:44Z</time>
      </trkpt>
      <trkpt lat="45.31317" lon="5.8737">
        <ele>1273.2</ele>
        <time>2016-05-22T12:10:45Z</time>
      </trkpt>
      <trkpt lat="45.31316" lon="5.87372">
        <ele>1272.8</ele>
        <time>2016-05-22T12:10:46Z</time>
      </trkpt>
      <trkpt lat="45.31315" lon="5.87374">
        <ele>1272.5</ele>
        <time>2016-05-22T12:10:47Z</time>
      </trkpt>
      <trkpt lat="45.31314" lon="5.87376">
        <ele>1272.2</ele>
        <time>2016-05-22T12:10:48Z</time>
      </trkpt>
      <trkpt lat="45.31314" lon="5.87378">
        <ele>1271.7</ele>
        <time>2016-05-22T12:10:49Z</time>
      </trkpt>
      <trkpt lat="45.31314" lon="5.8738">
        <ele>1271.1</ele>
        <time>2016-05-22T12:10:50Z</time>
      </trkpt>
      <trkpt lat="45.31313" lon="5.87382">
        <ele>1270.7</ele>
        <time>2016-05-22T12:10:51Z</time>
      </trkpt>
      <trkpt lat="45.31313" lon="5.87384">
        <ele>1270.3</ele>
        <time>2016-05-22T12:10:52Z</time>
      </trkpt>
      <trkpt lat="45.31312" lon="5.87387">
        <ele>1269.8</ele>
        <time>2016-05-22T12:10:53Z</time>
      </trkpt>
      <trkpt lat="45.31312" lon="5.87389">
        <ele>1269.5</ele>
        <time>2016-05-22T12:10:54Z</time>
      </trkpt>
      <trkpt lat="45.31311" lon="5.87391">
        <ele>1269.3</ele>
        <time>2016-05-22T12:10:55Z</time>
      </trkpt>
      <trkpt lat="45.3131" lon="5.87393">
        <ele>1268.9</ele>
        <time>2016-05-22T12:10:56Z</time>
      </trkpt>
      <trkpt lat="45.3131" lon="5.87394">
        <ele>1268.5</ele>
        <time>2016-05-22T12:10:57Z</time>
      </trkpt>
      <trkpt lat="45.31311" lon="5.87396">
        <ele>1267.9</ele>
        <time>2016-05-22T12:10:58Z</time>
      </trkpt>
      <trkpt lat="45.31312" lon="5.87399">
        <ele>1267</ele>
        <time>2016-05-22T12:10:59Z</time>
      </trkpt>
      <trkpt lat="45.31312" lon="5.87401">
        <ele>1266.3</ele>
        <time>2016-05-22T12:11:00Z</time>
      </trkpt>
      <trkpt lat="45.31313" lon="5.87403">
        <ele>1265.7</ele>
        <time>2016-05-22T12:11:01Z</time>
      </trkpt>
      <trkpt lat="45.31314" lon="5.87404">
        <ele>1265.1</ele>
        <time>2016-05-22T12:11:02Z</time>
      </trkpt>
      <trkpt lat="45.31315" lon="5.87405">
        <ele>1264.4</ele>
        <time>2016-05-22T12:11:03Z</time>
      </trkpt>
      <trkpt lat="45.31316" lon="5.87408">
        <ele>1263.5</ele>
        <time>2016-05-22T12:11:04Z</time>
      </trkpt>
      <trkpt lat="45.31317" lon="5.87411">
        <ele>1262.4</ele>
        <time>2016-05-22T12:11:05Z</time>
      </trkpt>
      <trkpt lat="45.31318" lon="5.87414">
        <ele>1261.6</ele>
        <time>2016-05-22T12:11:06Z</time>
      </trkpt>
      <trkpt lat="45.31318" lon="5.87415">
        <ele>1261</ele>
        <time>2016-05-22T12:11:07Z</time>
      </trkpt>
      <trkpt lat="45.31318" lon="5.87416">
        <ele>1260.9</ele>
        <time>2016-05-22T12:11:08Z</time>
      </trkpt>
      <trkpt lat="45.31317" lon="5.87417">
        <ele>1260.8</ele>
        <time>2016-05-22T12:11:09Z</time>
      </trkpt>
      <trkpt lat="45.31317" lon="5.87418">
        <ele>1260.7</ele>
        <time>2016-05-22T12:11:10Z</time>
      </trkpt>
      <trkpt lat="45.31316" lon="5.8742">
        <ele>1260.6</ele>
        <time>2016-05-22T12:11:11Z</time>
      </trkpt>
      <trkpt lat="45.31269" lon="5.87607">
        <ele>1219.5</ele>
        <time>2016-05-22T12:15:14Z</time>
      </trkpt>
      <trkpt lat="45.3127" lon="5.87607">
        <ele>1219.5</ele>
        <time>2016-05-22T12:15:15Z</time>
      </trkpt>
      <trkpt lat="45.3127" lon="5.87606">
        <ele>1219.5</ele>
        <time>2016-05-22T12:15:16Z</time>
      </trkpt>
      <trkpt lat="45.31271" lon="5.87606">
        <ele>1219.3</ele>
        <time>2016-05-22T12:15:17Z</time>
      </trkpt>
      <trkpt lat="45.31272" lon="5.87606">
        <ele>1219.3</ele>
        <time>2016-05-22T12:15:18Z</time>
      </trkpt>
      <trkpt lat="45.31273" lon="5.87606">
        <ele>1219.2</ele>
        <time>2016-05-22T12:15:19Z</time>
      </trkpt>
      <trkpt lat="45.31273" lon="5.87606">
        <ele>1219.3</ele>
        <time>2016-05-22T12:15:20Z</time>
      </trkpt>
      <trkpt lat="45.31272" lon="5.87604">
        <ele>1219.7</ele>
        <time>2016-05-22T12:15:21Z</time>
      </trkpt>
      <trkpt lat="45.31272" lon="5.87604">
        <ele>1219.9</ele>
        <time>2016-05-22T12:15:22Z</time>
      </trkpt>
      <trkpt lat="45.31272" lon="5.87603">
        <ele>1220.1</ele>
        <time>2016-05-22T12:15:23Z</time>
      </trkpt>
      <trkpt lat="45.3127" lon="5.87602">
        <ele>1220.7</ele>
        <time>2016-05-22T12:15:24Z</time>
      </trkpt>
      <trkpt lat="45.3127" lon="5.87601">
        <ele>1221</ele>
        <time>2016-05-22T12:15:25Z</time>
      </trkpt>
      <trkpt lat="45.31269" lon="5.876">
        <ele>1221.5</ele>
        <time>2016-05-22T12:15:26Z</time>
      </trkpt>
      <trkpt lat="45.31268" lon="5.87599">
        <ele>1221.8</ele>
        <time>2016-05-22T12:15:27Z</time>
      </trkpt>
      <trkpt lat="45.31267" lon="5.87598">
        <ele>1222.3</ele>
        <time>2016-05-22T12:15:28Z</time>
      </trkpt>
      <trkpt lat="45.31267" lon="5.87598">
        <ele>1222.4</ele>
        <time>2016-05-22T12:15:29Z</time>
      </trkpt>
      <trkpt lat="45.31267" lon="5.87598">
        <ele>1222.5</ele>
        <time>2016-05-22T12:15:30Z</time>
      </trkpt>
      <trkpt lat="45.31266" lon="5.87598">
        <ele>1222.5</ele>
        <time>2016-05-22T12:15:31Z</time>
      </trkpt>
      <trkpt lat="45.31265" lon="5.87598">
        <ele>1222.6</ele>
        <time>2016-05-22T12:15:32Z</time>
      </trkpt>
      <trkpt lat="45.31265" lon="5.87598">
        <ele>1222.6</ele>
        <time>2016-05-22T12:15:33Z</time>
      </trkpt>
      <trkpt lat="45.31265" lon="5.87598">
        <ele>1222.8</ele>
        <time>2016-05-22T12:15:34Z</time>
      </trkpt>
      <trkpt lat="45.31265" lon="5.87598">
        <ele>1222.8</ele>
        <time>2016-05-22T12:15:35Z</time>
      </trkpt>
      <trkpt lat="45.31265" lon="5.87597">
        <ele>1222.9</ele>
        <time>2016-05-22T12:15:36Z</time>
      </trkpt>
      <trkpt lat="45.31265" lon="5.87597">
        <ele>1222.9</ele>
        <time>2016-05-22T12:15:37Z</time>
      </trkpt>
      <trkpt lat="45.31265" lon="5.87597">
        <ele>1223</ele>
        <time>2016-05-22T12:15:38Z</time>
      </trkpt>
      <trkpt lat="45.31265" lon="5.87597">
        <ele>1223</ele>
        <time>2016-05-22T12:15:39Z</time>
      </trkpt>
      <trkpt lat="45.31265" lon="5.87597">
        <ele>1222.8</ele>
        <time>2016-05-22T12:15:40Z</time>
      </trkpt>
      <trkpt lat="45.31265" lon="5.87598">
        <ele>1222.6</ele>
        <time>2016-05-22T12:15:41Z</time>
      </trkpt>
      <trkpt lat="45.31266" lon="5.87598">
        <ele>1222.5</ele>
        <time>2016-05-22T12:15:42Z</time>
      </trkpt>
      <trkpt lat="45.31266" lon="5.87599">
        <ele>1222.3</ele>
        <time>2016-05-22T12:15:43Z</time>
      </trkpt>
      <trkpt lat="45.31265" lon="5.87599">
        <ele>1222.3</ele>
        <time>2016-05-22T12:15:44Z</time>
      </trkpt>
      <trkpt lat="45.31266" lon="5.876">
        <ele>1222.1</ele>
        <time>2016-05-22T12:15:45Z</time>
      </trkpt>
      <trkpt lat="45.31266" lon="5.876">
        <ele>1221.9</ele>
        <time>2016-05-22T12:15:46Z</time>
      </trkpt>
      <trkpt lat="45.31266" lon="5.87601">
        <ele>1221.8</ele>
        <time>2016-05-22T12:15:47Z</time>
      </trkpt>
      <trkpt lat="45.31267" lon="5.87601">
        <ele>1221.6</ele>
        <time>2016-05-22T12:15:48Z</time>
      </trkpt>
      <trkpt lat="45.31267" lon="5.87601">
        <ele>1221.5</ele>
        <time>2016-05-22T12:15:49Z</time>
      </trkpt>
      <trkpt lat="45.31267" lon="5.87602">
        <ele>1221.2</ele>
        <time>2016-05-22T12:15:50Z</time>
      </trkpt>
      <trkpt lat="45.31267" lon="5.87603">
        <ele>1220.9</ele>
        <time>2016-05-22T12:15:51Z</time>
      </trkpt>
      <trkpt lat="45.31268" lon="5.87604">
        <ele>1220.7</ele>
        <time>2016-05-22T12:15:52Z</time>
      </trkpt>
      <trkpt lat="45.31268" lon="5.87604">
        <ele>1220.6</ele>
        <time>2016-05-22T12:15:53Z</time>
      </trkpt>
      <trkpt lat="45.31268" lon="5.87604">
        <ele>1220.4</ele>
        <time>2016-05-22T12:15:54Z</time>
      </trkpt>
      <trkpt lat="45.31268" lon="5.87604">
        <ele>1220.4</ele>
        <time>2016-05-22T12:15:55Z</time>
      </trkpt>
      <trkpt lat="45.31269" lon="5.87605">
        <ele>1220.2</ele>
        <time>2016-05-22T12:15:56Z</time>
      </trkpt>
      <trkpt lat="45.31269" lon="5.87605">
        <ele>1220</ele>
        <time>2016-05-22T12:15:57Z</time>
      </trkpt>
      <trkpt lat="45.31269" lon="5.87606">
        <ele>1219.9</ele>
        <time>2016-05-22T12:15:58Z</time>
      </trkpt>
      <trkpt lat="45.31269" lon="5.87606">
        <ele>1219.7</ele>
        <time>2016-05-22T12:15:59Z</time>
      </trkpt>
      <trkpt lat="45.31269" lon="5.87607">
        <ele>1219.7</ele>
        <time>2016-05-22T12:16:00Z</time>
      </trkpt>
      <trkpt lat="45.31269" lon="5.87605">
        <ele>1220.2</ele>
        <time>2016-05-22T12:16:01Z</time>
      </trkpt>
      <trkpt lat="45.31269" lon="5.87604">
        <ele>1220.4</ele>
        <time>2016-05-22T12:16:02Z</time>
      </trkpt>
      <trkpt lat="45.31269" lon="5.87603">
        <ele>1220.5</ele>
        <time>2016-05-22T12:16:03Z</time>
      </trkpt>
      <trkpt lat="45.31269" lon="5.87603">
        <ele>1220.6</ele>
        <time>2016-05-22T12:16:04Z</time>
      </trkpt>
      <trkpt lat="45.31269" lon="5.87603">
        <ele>1220.7</ele>
        <time>2016-05-22T12:16:05Z</time>
      </trkpt>
      <trkpt lat="45.31269" lon="5.87602">
        <ele>1220.9</ele>
        <time>2016-05-22T12:16:06Z</time>
      </trkpt>
      <trkpt lat="45.31269" lon="5.87602">
        <ele>1221</ele>
        <time>2016-05-22T12:16:07Z</time>
      </trkpt>
      <trkpt lat="45.31269" lon="5.87601">
        <ele>1221.1</ele>
        <time>2016-05-22T12:16:08Z</time>
      </trkpt>
      <trkpt lat="45.31268" lon="5.87601">
        <ele>1221.4</ele>
        <time>2016-05-22T12:16:09Z</time>
      </trkpt>
      <trkpt lat="45.31266" lon="5.87598">
        <ele>1222.4</ele>
        <time>2016-05-22T12:16:10Z</time>
      </trkpt>
      <trkpt lat="45.31265" lon="5.87598">
        <ele>1222.7</ele>
        <time>2016-05-22T12:16:11Z</time>
      </trkpt>
      <trkpt lat="45.31266" lon="5.87598">
        <ele>1222.7</ele>
        <time>2016-05-22T12:16:12Z</time>
      </trkpt>
      <trkpt lat="45.31266" lon="5.87598">
        <ele>1222.6</ele>
        <time>2016-05-22T12:16:13Z</time>
      </trkpt>
      <trkpt lat="45.31266" lon="5.87597">
        <ele>1222.7</ele>
        <time>2016-05-22T12:16:14Z</time>
      </trkpt>
      <trkpt lat="45.31266" lon="5.87597">
        <ele>1222.7</ele>
        <time>2016-05-22T12:16:15Z</time>
      </trkpt>
      <trkpt lat="45.31266" lon="5.87598">
        <ele>1222.6</ele>
        <time>2016-05-22T12:16:16Z</time>
      </trkpt>
      <trkpt lat="45.31266" lon="5.87597">
        <ele>1222.6</ele>
        <time>2016-05-22T12:16:17Z</time>
      </trkpt>
      <trkpt lat="45.31266" lon="5.87597">
        <ele>1222.8</ele>
        <time>2016-05-22T12:16:18Z</time>
      </trkpt>
      <trkpt lat="45.31266" lon="5.87596">
        <ele>1222.9</ele>
        <time>2016-05-22T12:16:19Z</time>
      </trkpt>
      <trkpt lat="45.31266" lon="5.87596">
        <ele>1222.9</ele>
        <time>2016-05-22T12:16:20Z</time>
      </trkpt>
      <trkpt lat="45.31266" lon="5.87596">
        <ele>1223.1</ele>
        <time>2016-05-22T12:16:21Z</time>
      </trkpt>
      <trkpt lat="45.31265" lon="5.87594">
        <ele>1223.7</ele>
        <time>2016-05-22T12:16:22Z</time>
      </trkpt>
      <trkpt lat="45.31265" lon="5.87594">
        <ele>1223.7</ele>
        <time>2016-05-22T12:16:23Z</time>
      </trkpt>
      <trkpt lat="45.31267" lon="5.87594">
        <ele>1223.4</ele>
        <time>2016-05-22T12:16:24Z</time>
      </trkpt>
      <trkpt lat="45.31267" lon="5.87594">
        <ele>1223.5</ele>
        <time>2016-05-22T12:16:25Z</time>
      </trkpt>
      <trkpt lat="45.31268" lon="5.87594">
        <ele>1223.3</ele>
        <time>2016-05-22T12:16:26Z</time>
      </trkpt>
      <trkpt lat="45.31268" lon="5.87595">
        <ele>1223.1</ele>
        <time>2016-05-22T12:16:27Z</time>
      </trkpt>
      <trkpt lat="45.31268" lon="5.87594">
        <ele>1223.1</ele>
        <time>2016-05-22T12:16:28Z</time>
      </trkpt>
      <trkpt lat="45.31268" lon="5.87594">
        <ele>1223.1</ele>
        <time>2016-05-22T12:16:29Z</time>
      </trkpt>
      <trkpt lat="45.31268" lon="5.87596">
        <ele>1222.7</ele>
        <time>2016-05-22T12:16:30Z</time>
      </trkpt>
      <trkpt lat="45.31268" lon="5.87596">
        <ele>1222.5</ele>
        <time>2016-05-22T12:16:31Z</time>
      </trkpt>
      <trkpt lat="45.31268" lon="5.87597">
        <ele>1222.4</ele>
        <time>2016-05-22T12:16:32Z</time>
      </trkpt>
      <trkpt lat="45.31268" lon="5.87598">
        <ele>1222.2</ele>
        <time>2016-05-22T12:16:33Z</time>
      </trkpt>
      <trkpt lat="45.31268" lon="5.87598">
        <ele>1222.1</ele>
        <time>2016-05-22T12:16:34Z</time>
      </trkpt>
      <trkpt lat="45.31269" lon="5.87598">
        <ele>1221.8</ele>
        <time>2016-05-22T12:16:35Z</time>
      </trkpt>
      <trkpt lat="45.3127" lon="5.87599">
        <ele>1221.6</ele>
        <time>2016-05-22T12:16:36Z</time>
      </trkpt>
      <trkpt lat="45.3127" lon="5.876">
        <ele>1221.3</ele>
        <time>2016-05-22T12:16:37Z</time>
      </trkpt>
      <trkpt lat="45.3127" lon="5.876">
        <ele>1221.2</ele>
        <time>2016-05-22T12:16:38Z</time>
      </trkpt>
      <trkpt lat="45.3127" lon="5.876">
        <ele>1221.2</ele>
        <time>2016-05-22T12:16:39Z</time>
      </trkpt>
      <trkpt lat="45.3127" lon="5.876">
        <ele>1221.2</ele>
        <time>2016-05-22T12:16:40Z</time>
      </trkpt>
      <trkpt lat="45.3127" lon="5.876">
        <ele>1221.1</ele>
        <time>2016-05-22T12:16:41Z</time>
      </trkpt>
      <trkpt lat="45.3127" lon="5.876">
        <ele>1221.1</ele>
        <time>2016-05-22T12:16:42Z</time>
      </trkpt>
      <trkpt lat="45.3127" lon="5.87601">
        <ele>1221.1</ele>
        <time>2016-05-22T12:16:43Z</time>
      </trkpt>
      <trkpt lat="45.31271" lon="5.876">
        <ele>1221</ele>
        <time>2016-05-22T12:16:44Z</time>
      </trkpt>
      <trkpt lat="45.31271" lon="5.876">
        <ele>1221</ele>
        <time>2016-05-22T12:16:45Z</time>
      </trkpt>
      <trkpt lat="45.31271" lon="5.876">
        <ele>1221</ele>
        <time>2016-05-22T12:16:46Z</time>
      </trkpt>
      <trkpt lat="45.3127" lon="5.87601">
        <ele>1221.1</ele>
        <time>2016-05-22T12:16:47Z</time>
      </trkpt>
      <trkpt lat="45.3127" lon="5.87601">
        <ele>1221.1</ele>
        <time>2016-05-22T12:16:48Z</time>
      </trkpt>
      <trkpt lat="45.3127" lon="5.87601">
        <ele>1221.1</ele>
        <time>2016-05-22T12:16:49Z</time>
      </trkpt>
      <trkpt lat="45.31269" lon="5.876">
        <ele>1221.4</ele>
        <time>2016-05-22T12:16:50Z</time>
      </trkpt>
      <trkpt lat="45.31268" lon="5.876">
        <ele>1221.4</ele>
        <time>2016-05-22T12:16:51Z</time>
      </trkpt>
      <trkpt lat="45.31268" lon="5.876">
        <ele>1221.5</ele>
        <time>2016-05-22T12:16:52Z</time>
      </trkpt>
      <trkpt lat="45.31268" lon="5.876">
        <ele>1221.7</ele>
        <time>2016-05-22T12:16:53Z</time>
      </trkpt>
      <trkpt lat="45.31267" lon="5.876">
        <ele>1221.7</ele>
        <time>2016-05-22T12:16:54Z</time>
      </trkpt>
      <trkpt lat="45.31268" lon="5.87601">
        <ele>1221.5</ele>
        <time>2016-05-22T12:16:55Z</time>
      </trkpt>
      <trkpt lat="45.31268" lon="5.876">
        <ele>1221.6</ele>
        <time>2016-05-22T12:16:56Z</time>
      </trkpt>
      <trkpt lat="45.31268" lon="5.876">
        <ele>1221.6</ele>
        <time>2016-05-22T12:16:57Z</time>
      </trkpt>
      <trkpt lat="45.31268" lon="5.876">
        <ele>1221.7</ele>
        <time>2016-05-22T12:16:58Z</time>
      </trkpt>
      <trkpt lat="45.31268" lon="5.876">
        <ele>1221.8</ele>
        <time>2016-05-22T12:16:59Z</time>
      </trkpt>
      <trkpt lat="45.31268" lon="5.87599">
        <ele>1221.8</ele>
        <time>2016-05-22T12:17:00Z</time>
      </trkpt>
      <trkpt lat="45.31269" lon="5.87599">
        <ele>1221.9</ele>
        <time>2016-05-22T12:17:01Z</time>
      </trkpt>
      <trkpt lat="45.31269" lon="5.87599">
        <ele>1221.8</ele>
        <time>2016-05-22T12:17:02Z</time>
      </trkpt>
      <trkpt lat="45.3127" lon="5.87599">
        <ele>1221.7</ele>
        <time>2016-05-22T12:17:03Z</time>
      </trkpt>
      <trkpt lat="45.3127" lon="5.87599">
        <ele>1221.6</ele>
        <time>2016-05-22T12:17:04Z</time>
      </trkpt>
      <trkpt lat="45.31271" lon="5.87599">
        <ele>1221.4</ele>
        <time>2016-05-22T12:17:05Z</time>
      </trkpt>
      <trkpt lat="45.31271" lon="5.87599">
        <ele>1221.4</ele>
        <time>2016-05-22T12:17:06Z</time>
      </trkpt>
      <trkpt lat="45.31272" lon="5.87599">
        <ele>1221.3</ele>
        <time>2016-05-22T12:17:07Z</time>
      </trkpt>
      <trkpt lat="45.31273" lon="5.87599">
        <ele>1221.1</ele>
        <time>2016-05-22T12:17:08Z</time>
      </trkpt>
      <trkpt lat="45.31274" lon="5.87599">
        <ele>1221</ele>
        <time>2016-05-22T12:17:09Z</time>
      </trkpt>
      <trkpt lat="45.31274" lon="5.87599">
        <ele>1220.9</ele>
        <time>2016-05-22T12:17:10Z</time>
      </trkpt>
      <trkpt lat="45.31275" lon="5.87598">
        <ele>1220.9</ele>
        <time>2016-05-22T12:17:11Z</time>
      </trkpt>
      <trkpt lat="45.31275" lon="5.87599">
        <ele>1220.8</ele>
        <time>2016-05-22T12:17:12Z</time>
      </trkpt>
      <trkpt lat="45.31276" lon="5.87599">
        <ele>1220.5</ele>
        <time>2016-05-22T12:17:13Z</time>
      </trkpt>
      <trkpt lat="45.31277" lon="5.87599">
        <ele>1220.4</ele>
        <time>2016-05-22T12:17:14Z</time>
      </trkpt>
      <trkpt lat="45.31277" lon="5.87599">
        <ele>1220.4</ele>
        <time>2016-05-22T12:17:15Z</time>
      </trkpt>
      <trkpt lat="45.31277" lon="5.87599">
        <ele>1220.5</ele>
        <time>2016-05-22T12:17:16Z</time>
      </trkpt>
      <trkpt lat="45.31277" lon="5.87599">
        <ele>1220.4</ele>
        <time>2016-05-22T12:17:17Z</time>
      </trkpt>
      <trkpt lat="45.31277" lon="5.87599">
        <ele>1220.4</ele>
        <time>2016-05-22T12:17:18Z</time>
      </trkpt>
      <trkpt lat="45.31277" lon="5.87599">
        <ele>1220.4</ele>
        <time>2016-05-22T12:17:19Z</time>
      </trkpt>
      <trkpt lat="45.31277" lon="5.87599">
        <ele>1220.4</ele>
        <time>2016-05-22T12:17:20Z</time>
      </trkpt>
      <trkpt lat="45.31278" lon="5.87599">
        <ele>1220.3</ele>
        <time>2016-05-22T12:17:21Z</time>
      </trkpt>
      <trkpt lat="45.31278" lon="5.87599">
        <ele>1220.2</ele>
        <time>2016-05-22T12:17:22Z</time>
      </trkpt>
      <trkpt lat="45.31278" lon="5.87599">
        <ele>1220.2</ele>
        <time>2016-05-22T12:17:23Z</time>
      </trkpt>
      <trkpt lat="45.31278" lon="5.87598">
        <ele>1220.3</ele>
        <time>2016-05-22T12:17:24Z</time>
      </trkpt>
      <trkpt lat="45.31278" lon="5.87598">
        <ele>1220.4</ele>
        <time>2016-05-22T12:17:25Z</time>
      </trkpt>
      <trkpt lat="45.31278" lon="5.87598">
        <ele>1220.5</ele>
        <time>2016-05-22T12:17:26Z</time>
      </trkpt>
      <trkpt lat="45.31278" lon="5.87598">
        <ele>1220.5</ele>
        <time>2016-05-22T12:17:27Z</time>
      </trkpt>
      <trkpt lat="45.31278" lon="5.87598">
        <ele>1220.4</ele>
        <time>2016-05-22T12:17:28Z</time>
      </trkpt>
      <trkpt lat="45.31278" lon="5.87598">
        <ele>1220.3</ele>
        <time>2016-05-22T12:17:29Z</time>
      </trkpt>
      <trkpt lat="45.31278" lon="5.87598">
        <ele>1220.4</ele>
        <time>2016-05-22T12:17:30Z</time>
      </trkpt>
      <trkpt lat="45.31278" lon="5.87599">
        <ele>1220.2</ele>
        <time>2016-05-22T12:17:31Z</time>
      </trkpt>
      <trkpt lat="45.31278" lon="5.87599">
        <ele>1220.1</ele>
        <time>2016-05-22T12:17:32Z</time>
      </trkpt>
      <trkpt lat="45.31277" lon="5.876">
        <ele>1220.1</ele>
        <time>2016-05-22T12:17:33Z</time>
      </trkpt>
      <trkpt lat="45.31277" lon="5.87601">
        <ele>1219.9</ele>
        <time>2016-05-22T12:17:34Z</time>
      </trkpt>
      <trkpt lat="45.31277" lon="5.87601">
        <ele>1219.8</ele>
        <time>2016-05-22T12:17:35Z</time>
      </trkpt>
      <trkpt lat="45.31277" lon="5.87601">
        <ele>1219.7</ele>
        <time>2016-05-22T12:17:36Z</time>
      </trkpt>
      <trkpt lat="45.31277" lon="5.87601">
        <ele>1219.7</ele>
        <time>2016-05-22T12:17:37Z</time>
      </trkpt>
      <trkpt lat="45.31277" lon="5.87601">
        <ele>1219.7</ele>
        <time>2016-05-22T12:17:38Z</time>
      </trkpt>
      <trkpt lat="45.31277" lon="5.87602">
        <ele>1219.6</ele>
        <time>2016-05-22T12:17:39Z</time>
      </trkpt>
      <trkpt lat="45.31277" lon="5.87601">
        <ele>1219.8</ele>
        <time>2016-05-22T12:17:40Z</time>
      </trkpt>
      <trkpt lat="45.31276" lon="5.87601">
        <ele>1219.9</ele>
        <time>2016-05-22T12:17:41Z</time>
      </trkpt>
      <trkpt lat="45.31276" lon="5.87601">
        <ele>1219.9</ele>
        <time>2016-05-22T12:17:42Z</time>
      </trkpt>
      <trkpt lat="45.31275" lon="5.87601">
        <ele>1220.1</ele>
        <time>2016-05-22T12:17:43Z</time>
      </trkpt>
      <trkpt lat="45.31274" lon="5.87602">
        <ele>1220.1</ele>
        <time>2016-05-22T12:17:44Z</time>
      </trkpt>
      <trkpt lat="45.31273" lon="5.87601">
        <ele>1220.3</ele>
        <time>2016-05-22T12:17:45Z</time>
      </trkpt>
      <trkpt lat="45.31273" lon="5.87601">
        <ele>1220.4</ele>
        <time>2016-05-22T12:17:46Z</time>
      </trkpt>
      <trkpt lat="45.31272" lon="5.87602">
        <ele>1220.4</ele>
        <time>2016-05-22T12:17:47Z</time>
      </trkpt>
      <trkpt lat="45.31273" lon="5.87602">
        <ele>1220.2</ele>
        <time>2016-05-22T12:17:48Z</time>
      </trkpt>
      <trkpt lat="45.31272" lon="5.87602">
        <ele>1220.5</ele>
        <time>2016-05-22T12:17:49Z</time>
      </trkpt>
      <trkpt lat="45.31272" lon="5.87602">
        <ele>1220.4</ele>
        <time>2016-05-22T12:17:50Z</time>
      </trkpt>
      <trkpt lat="45.31271" lon="5.87602">
        <ele>1220.5</ele>
        <time>2016-05-22T12:17:51Z</time>
      </trkpt>
      <trkpt lat="45.31271" lon="5.87602">
        <ele>1220.5</ele>
        <time>2016-05-22T12:17:52Z</time>
      </trkpt>
      <trkpt lat="45.31271" lon="5.87602">
        <ele>1220.4</ele>
        <time>2016-05-22T12:17:53Z</time>
      </trkpt>
      <trkpt lat="45.31271" lon="5.87603">
        <ele>1220.4</ele>
        <time>2016-05-22T12:17:54Z</time>
      </trkpt>
      <trkpt lat="45.3127" lon="5.87603">
        <ele>1220.4</ele>
        <time>2016-05-22T12:17:55Z</time>
      </trkpt>
      <trkpt lat="45.3127" lon="5.87603">
        <ele>1220.3</ele>
        <time>2016-05-22T12:17:56Z</time>
      </trkpt>
      <trkpt lat="45.31271" lon="5.87604">
        <ele>1220.1</ele>
        <time>2016-05-22T12:17:57Z</time>
      </trkpt>
      <trkpt lat="45.31271" lon="5.87604">
        <ele>1219.9</ele>
        <time>2016-05-22T12:17:58Z</time>
      </trkpt>
      <trkpt lat="45.31272" lon="5.87604">
        <ele>1219.9</ele>
        <time>2016-05-22T12:17:59Z</time>
      </trkpt>
      <trkpt lat="45.31272" lon="5.87604">
        <ele>1219.8</ele>
        <time>2016-05-22T12:18:00Z</time>
      </trkpt>
      <trkpt lat="45.31272" lon="5.87605">
        <ele>1219.6</ele>
        <time>2016-05-22T12:18:01Z</time>
      </trkpt>
      <trkpt lat="45.31272" lon="5.87605">
        <ele>1219.5</ele>
        <time>2016-05-22T12:18:02Z</time>
      </trkpt>
      <trkpt lat="45.31272" lon="5.87605">
        <ele>1219.5</ele>
        <time>2016-05-22T12:18:03Z</time>
      </trkpt>
      <trkpt lat="45.31272" lon="5.87605">
        <ele>1219.7</ele>
        <time>2016-05-22T12:18:04Z</time>
      </trkpt>
      <trkpt lat="45.31272" lon="5.87604">
        <ele>1219.9</ele>
        <time>2016-05-22T12:18:05Z</time>
      </trkpt>
      <trkpt lat="45.31271" lon="5.87602">
        <ele>1220.5</ele>
        <time>2016-05-22T12:18:06Z</time>
      </trkpt>
      <trkpt lat="45.31271" lon="5.87601">
        <ele>1220.9</ele>
        <time>2016-05-22T12:18:07Z</time>
      </trkpt>
      <trkpt lat="45.3127" lon="5.876">
        <ele>1221.2</ele>
        <time>2016-05-22T12:18:08Z</time>
      </trkpt>
      <trkpt lat="45.31271" lon="5.87599">
        <ele>1221.3</ele>
        <time>2016-05-22T12:18:09Z</time>
      </trkpt>
      <trkpt lat="45.3127" lon="5.87598">
        <ele>1221.8</ele>
        <time>2016-05-22T12:18:10Z</time>
      </trkpt>
      <trkpt lat="45.3127" lon="5.87597">
        <ele>1222</ele>
        <time>2016-05-22T12:18:11Z</time>
      </trkpt>
      <trkpt lat="45.31269" lon="5.87596">
        <ele>1222.4</ele>
        <time>2016-05-22T12:18:12Z</time>
      </trkpt>
      <trkpt lat="45.31269" lon="5.87595">
        <ele>1222.8</ele>
        <time>2016-05-22T12:18:13Z</time>
      </trkpt>
      <trkpt lat="45.31268" lon="5.87594">
        <ele>1223</ele>
        <time>2016-05-22T12:18:14Z</time>
      </trkpt>
      <trkpt lat="45.31269" lon="5.87594">
        <ele>1223</ele>
        <time>2016-05-22T12:18:15Z</time>
      </trkpt>
      <trkpt lat="45.31269" lon="5.87594">
        <ele>1223</ele>
        <time>2016-05-22T12:18:16Z</time>
      </trkpt>
      <trkpt lat="45.31269" lon="5.87593">
        <ele>1223.3</ele>
        <time>2016-05-22T12:18:17Z</time>
      </trkpt>
      <trkpt lat="45.31268" lon="5.87593">
        <ele>1223.6</ele>
        <time>2016-05-22T12:18:18Z</time>
      </trkpt>
      <trkpt lat="45.31268" lon="5.87592">
        <ele>1223.7</ele>
        <time>2016-05-22T12:18:19Z</time>
      </trkpt>
      <trkpt lat="45.31268" lon="5.87591">
        <ele>1223.8</ele>
        <time>2016-05-22T12:18:20Z</time>
      </trkpt>
      <trkpt lat="45.31268" lon="5.87591">
        <ele>1223.9</ele>
        <time>2016-05-22T12:18:21Z</time>
      </trkpt>
      <trkpt lat="45.31268" lon="5.87591">
        <ele>1223.9</ele>
        <time>2016-05-22T12:18:22Z</time>
      </trkpt>
      <trkpt lat="45.3127" lon="5.87592">
        <ele>1223.6</ele>
        <time>2016-05-22T12:18:23Z</time>
      </trkpt>
      <trkpt lat="45.3127" lon="5.87593">
        <ele>1223.2</ele>
        <time>2016-05-22T12:18:24Z</time>
      </trkpt>
      <trkpt lat="45.3127" lon="5.87593">
        <ele>1223.1</ele>
        <time>2016-05-22T12:18:25Z</time>
      </trkpt>
      <trkpt lat="45.3127" lon="5.87594">
        <ele>1222.9</ele>
        <time>2016-05-22T12:18:26Z</time>
      </trkpt>
      <trkpt lat="45.3127" lon="5.87595">
        <ele>1222.5</ele>
        <time>2016-05-22T12:18:27Z</time>
      </trkpt>
      <trkpt lat="45.3127" lon="5.87596">
        <ele>1222.3</ele>
        <time>2016-05-22T12:18:28Z</time>
      </trkpt>
      <trkpt lat="45.31271" lon="5.87597">
        <ele>1221.7</ele>
        <time>2016-05-22T12:18:29Z</time>
      </trkpt>
      <trkpt lat="45.31272" lon="5.87599">
        <ele>1221.3</ele>
        <time>2016-05-22T12:18:30Z</time>
      </trkpt>
      <trkpt lat="45.31273" lon="5.876">
        <ele>1220.7</ele>
        <time>2016-05-22T12:18:31Z</time>
      </trkpt>
      <trkpt lat="45.31274" lon="5.87602">
        <ele>1219.9</ele>
        <time>2016-05-22T12:18:32Z</time>
      </trkpt>
      <trkpt lat="45.31275" lon="5.87604">
        <ele>1219.2</ele>
        <time>2016-05-22T12:18:33Z</time>
      </trkpt>
      <trkpt lat="45.31276" lon="5.87605">
        <ele>1218.8</ele>
        <time>2016-05-22T12:18:34Z</time>
      </trkpt>
      <trkpt lat="45.31277" lon="5.87607">
        <ele>1218</ele>
        <time>2016-05-22T12:18:35Z</time>
      </trkpt>
      <trkpt lat="45.31279" lon="5.8761">
        <ele>1217.1</ele>
        <time>2016-05-22T12:18:36Z</time>
      </trkpt>
      <trkpt lat="45.3128" lon="5.87612">
        <ele>1216.3</ele>
        <time>2016-05-22T12:18:37Z</time>
      </trkpt>
      <trkpt lat="45.31281" lon="5.87613">
        <ele>1215.7</ele>
        <time>2016-05-22T12:18:38Z</time>
      </trkpt>
      <trkpt lat="45.31282" lon="5.87615">
        <ele>1215</ele>
        <time>2016-05-22T12:18:39Z</time>
      </trkpt>
      <trkpt lat="45.31283" lon="5.87617">
        <ele>1214.4</ele>
        <time>2016-05-22T12:18:40Z</time>
      </trkpt>
      <trkpt lat="45.31284" lon="5.87618">
        <ele>1214</ele>
        <time>2016-05-22T12:18:41Z</time>
      </trkpt>
      <trkpt lat="45.31284" lon="5.87619">
        <ele>1213.7</ele>
        <time>2016-05-22T12:18:42Z</time>
      </trkpt>
      <trkpt lat="45.31285" lon="5.8762">
        <ele>1213.4</ele>
        <time>2016-05-22T12:18:43Z</time>
      </trkpt>
      <trkpt lat="45.31285" lon="5.8762">
        <ele>1213.2</ele>
        <time>2016-05-22T12:18:44Z</time>
      </trkpt>
      <trkpt lat="45.31285" lon="5.8762">
        <ele>1213.1</ele>
        <time>2016-05-22T12:18:45Z</time>
      </trkpt>
      <trkpt lat="45.31286" lon="5.87621">
        <ele>1212.9</ele>
        <time>2016-05-22T12:18:46Z</time>
      </trkpt>
      <trkpt lat="45.31286" lon="5.87621">
        <ele>1212.7</ele>
        <time>2016-05-22T12:18:47Z</time>
      </trkpt>
      <trkpt lat="45.31287" lon="5.87622">
        <ele>1212.3</ele>
        <time>2016-05-22T12:18:48Z</time>
      </trkpt>
      <trkpt lat="45.31287" lon="5.87623">
        <ele>1212</ele>
        <time>2016-05-22T12:18:49Z</time>
      </trkpt>
      <trkpt lat="45.31287" lon="5.87623">
        <ele>1211.8</ele>
        <time>2016-05-22T12:18:50Z</time>
      </trkpt>
      <trkpt lat="45.31287" lon="5.87626">
        <ele>1211.2</ele>
        <time>2016-05-22T12:18:51Z</time>
      </trkpt>
      <trkpt lat="45.31286" lon="5.87628">
        <ele>1210.7</ele>
        <time>2016-05-22T12:18:52Z</time>
      </trkpt>
      <trkpt lat="45.31287" lon="5.87629">
        <ele>1210.4</ele>
        <time>2016-05-22T12:18:53Z</time>
      </trkpt>
      <trkpt lat="45.31286" lon="5.87631">
        <ele>1210</ele>
        <time>2016-05-22T12:18:54Z</time>
      </trkpt>
      <trkpt lat="45.31288" lon="5.87631">
        <ele>1209.7</ele>
        <time>2016-05-22T12:18:55Z</time>
      </trkpt>
      <trkpt lat="45.31288" lon="5.87632">
        <ele>1209.6</ele>
        <time>2016-05-22T12:18:56Z</time>
      </trkpt>
      <trkpt lat="45.31287" lon="5.87631">
        <ele>1209.8</ele>
        <time>2016-05-22T12:18:57Z</time>
      </trkpt>
      <trkpt lat="45.31287" lon="5.8763">
        <ele>1210.1</ele>
        <time>2016-05-22T12:18:58Z</time>
      </trkpt>
      <trkpt lat="45.31287" lon="5.87631">
        <ele>1210</ele>
        <time>2016-05-22T12:18:59Z</time>
      </trkpt>
      <trkpt lat="45.31286" lon="5.87631">
        <ele>1210</ele>
        <time>2016-05-22T12:19:00Z</time>
      </trkpt>
      <trkpt lat="45.31286" lon="5.8763">
        <ele>1210.2</ele>
        <time>2016-05-22T12:19:01Z</time>
      </trkpt>
      <trkpt lat="45.31286" lon="5.8763">
        <ele>1210.3</ele>
        <time>2016-05-22T12:19:02Z</time>
      </trkpt>
      <trkpt lat="45.31286" lon="5.8763">
        <ele>1210.3</ele>
        <time>2016-05-22T12:19:03Z</time>
      </trkpt>
      <trkpt lat="45.31285" lon="5.87631">
        <ele>1210</ele>
        <time>2016-05-22T12:19:04Z</time>
      </trkpt>
      <trkpt lat="45.31285" lon="5.87631">
        <ele>1210.1</ele>
        <time>2016-05-22T12:19:05Z</time>
      </trkpt>
      <trkpt lat="45.31285" lon="5.8763">
        <ele>1210.3</ele>
        <time>2016-05-22T12:19:06Z</time>
      </trkpt>
      <trkpt lat="45.31285" lon="5.8763">
        <ele>1210.4</ele>
        <time>2016-05-22T12:19:07Z</time>
      </trkpt>
      <trkpt lat="45.31284" lon="5.87631">
        <ele>1210.4</ele>
        <time>2016-05-22T12:19:08Z</time>
      </trkpt>
      <trkpt lat="45.31284" lon="5.87631">
        <ele>1210.4</ele>
        <time>2016-05-22T12:19:09Z</time>
      </trkpt>
      <trkpt lat="45.31284" lon="5.87631">
        <ele>1210.5</ele>
        <time>2016-05-22T12:19:10Z</time>
      </trkpt>
      <trkpt lat="45.31284" lon="5.8763">
        <ele>1210.6</ele>
        <time>2016-05-22T12:19:11Z</time>
      </trkpt>
      <trkpt lat="45.31284" lon="5.87629">
        <ele>1210.8</ele>
        <time>2016-05-22T12:19:12Z</time>
      </trkpt>
      <trkpt lat="45.31285" lon="5.87628">
        <ele>1211</ele>
        <time>2016-05-22T12:19:13Z</time>
      </trkpt>
      <trkpt lat="45.31285" lon="5.87628">
        <ele>1211.1</ele>
        <time>2016-05-22T12:19:14Z</time>
      </trkpt>
      <trkpt lat="45.31284" lon="5.87628">
        <ele>1211.2</ele>
        <time>2016-05-22T12:19:15Z</time>
      </trkpt>
      <trkpt lat="45.31284" lon="5.87628">
        <ele>1211.3</ele>
        <time>2016-05-22T12:19:16Z</time>
      </trkpt>
      <trkpt lat="45.31283" lon="5.87628">
        <ele>1211.5</ele>
        <time>2016-05-22T12:19:17Z</time>
      </trkpt>
      <trkpt lat="45.31282" lon="5.87628">
        <ele>1211.5</ele>
        <time>2016-05-22T12:19:18Z</time>
      </trkpt>
      <trkpt lat="45.31282" lon="5.87627">
        <ele>1211.8</ele>
        <time>2016-05-22T12:19:19Z</time>
      </trkpt>
      <trkpt lat="45.31282" lon="5.87626">
        <ele>1212.2</ele>
        <time>2016-05-22T12:19:20Z</time>
      </trkpt>
      <trkpt lat="45.31282" lon="5.87625">
        <ele>1212.3</ele>
        <time>2016-05-22T12:19:21Z</time>
      </trkpt>
      <trkpt lat="45.31282" lon="5.87625">
        <ele>1212.4</ele>
        <time>2016-05-22T12:19:22Z</time>
      </trkpt>
      <trkpt lat="45.31282" lon="5.87625">
        <ele>1212.3</ele>
        <time>2016-05-22T12:19:23Z</time>
      </trkpt>
      <trkpt lat="45.31282" lon="5.87625">
        <ele>1212.3</ele>
        <time>2016-05-22T12:19:24Z</time>
      </trkpt>
      <trkpt lat="45.31282" lon="5.87625">
        <ele>1212.3</ele>
        <time>2016-05-22T12:19:25Z</time>
      </trkpt>
      <trkpt lat="45.31282" lon="5.87625">
        <ele>1212.3</ele>
        <time>2016-05-22T12:19:26Z</time>
      </trkpt>
      <trkpt lat="45.31282" lon="5.87625">
        <ele>1212.3</ele>
        <time>2016-05-22T12:19:27Z</time>
      </trkpt>
      <trkpt lat="45.31282" lon="5.87625">
        <ele>1212.3</ele>
        <time>2016-05-22T12:19:28Z</time>
      </trkpt>
      <trkpt lat="45.31283" lon="5.87625">
        <ele>1212.3</ele>
        <time>2016-05-22T12:19:29Z</time>
      </trkpt>
      <trkpt lat="45.31283" lon="5.87625">
        <ele>1212.3</ele>
        <time>2016-05-22T12:19:30Z</time>
      </trkpt>
      <trkpt lat="45.31282" lon="5.87625">
        <ele>1212.3</ele>
        <time>2016-05-22T12:19:31Z</time>
      </trkpt>
      <trkpt lat="45.31282" lon="5.87625">
        <ele>1212.4</ele>
        <time>2016-05-22T12:19:32Z</time>
      </trkpt>
      <trkpt lat="45.31282" lon="5.87625">
        <ele>1212.5</ele>
        <time>2016-05-22T12:19:33Z</time>
      </trkpt>
      <trkpt lat="45.31282" lon="5.87624">
        <ele>1212.7</ele>
        <time>2016-05-22T12:19:34Z</time>
      </trkpt>
      <trkpt lat="45.31282" lon="5.87624">
        <ele>1212.7</ele>
        <time>2016-05-22T12:19:35Z</time>
      </trkpt>
      <trkpt lat="45.31282" lon="5.87624">
        <ele>1212.8</ele>
        <time>2016-05-22T12:19:36Z</time>
      </trkpt>
      <trkpt lat="45.31282" lon="5.87624">
        <ele>1212.8</ele>
        <time>2016-05-22T12:19:37Z</time>
      </trkpt>
      <trkpt lat="45.31281" lon="5.87623">
        <ele>1213.1</ele>
        <time>2016-05-22T12:19:38Z</time>
      </trkpt>
      <trkpt lat="45.31282" lon="5.87622">
        <ele>1213.3</ele>
        <time>2016-05-22T12:19:39Z</time>
      </trkpt>
      <trkpt lat="45.31282" lon="5.87621">
        <ele>1213.4</ele>
        <time>2016-05-22T12:19:40Z</time>
      </trkpt>
      <trkpt lat="45.31283" lon="5.8762">
        <ele>1213.4</ele>
        <time>2016-05-22T12:19:41Z</time>
      </trkpt>
      <trkpt lat="45.31284" lon="5.8762">
        <ele>1213.3</ele>
        <time>2016-05-22T12:19:42Z</time>
      </trkpt>
      <trkpt lat="45.31285" lon="5.8762">
        <ele>1213.2</ele>
        <time>2016-05-22T12:19:43Z</time>
      </trkpt>
      <trkpt lat="45.31286" lon="5.8762">
        <ele>1212.9</ele>
        <time>2016-05-22T12:19:44Z</time>
      </trkpt>
      <trkpt lat="45.31287" lon="5.8762">
        <ele>1212.7</ele>
        <time>2016-05-22T12:19:45Z</time>
      </trkpt>
      <trkpt lat="45.31288" lon="5.87619">
        <ele>1212.9</ele>
        <time>2016-05-22T12:19:46Z</time>
      </trkpt>
      <trkpt lat="45.31288" lon="5.87619">
        <ele>1212.9</ele>
        <time>2016-05-22T12:19:47Z</time>
      </trkpt>
      <trkpt lat="45.31289" lon="5.8762">
        <ele>1212.6</ele>
        <time>2016-05-22T12:19:48Z</time>
      </trkpt>
      <trkpt lat="45.31289" lon="5.8762">
        <ele>1212.6</ele>
        <time>2016-05-22T12:19:49Z</time>
      </trkpt>
      <trkpt lat="45.3129" lon="5.8762">
        <ele>1212.5</ele>
        <time>2016-05-22T12:19:50Z</time>
      </trkpt>
      <trkpt lat="45.3129" lon="5.87619">
        <ele>1212.5</ele>
        <time>2016-05-22T12:19:51Z</time>
      </trkpt>
      <trkpt lat="45.31291" lon="5.87619">
        <ele>1212.5</ele>
        <time>2016-05-22T12:19:52Z</time>
      </trkpt>
      <trkpt lat="45.3129" lon="5.87619">
        <ele>1212.5</ele>
        <time>2016-05-22T12:19:53Z</time>
      </trkpt>
      <trkpt lat="45.3129" lon="5.87619">
        <ele>1212.6</ele>
        <time>2016-05-22T12:19:54Z</time>
      </trkpt>
      <trkpt lat="45.31289" lon="5.87619">
        <ele>1212.8</ele>
        <time>2016-05-22T12:19:55Z</time>
      </trkpt>
      <trkpt lat="45.31289" lon="5.87618">
        <ele>1212.9</ele>
        <time>2016-05-22T12:19:56Z</time>
      </trkpt>
      <trkpt lat="45.31288" lon="5.87618">
        <ele>1213.3</ele>
        <time>2016-05-22T12:19:57Z</time>
      </trkpt>
      <trkpt lat="45.31287" lon="5.87618">
        <ele>1213.4</ele>
        <time>2016-05-22T12:19:58Z</time>
      </trkpt>
      <trkpt lat="45.31286" lon="5.87618">
        <ele>1213.5</ele>
        <time>2016-05-22T12:19:59Z</time>
      </trkpt>
      <trkpt lat="45.31286" lon="5.87618">
        <ele>1213.5</ele>
        <time>2016-05-22T12:20:00Z</time>
      </trkpt>
      <trkpt lat="45.31286" lon="5.87618">
        <ele>1213.5</ele>
        <time>2016-05-22T12:20:01Z</time>
      </trkpt>
      <trkpt lat="45.31286" lon="5.87619">
        <ele>1213.3</ele>
        <time>2016-05-22T12:20:02Z</time>
      </trkpt>
      <trkpt lat="45.31287" lon="5.87619">
        <ele>1213</ele>
        <time>2016-05-22T12:20:03Z</time>
      </trkpt>
      <trkpt lat="45.31287" lon="5.8762">
        <ele>1213</ele>
        <time>2016-05-22T12:20:04Z</time>
      </trkpt>
      <trkpt lat="45.31288" lon="5.87621">
        <ele>1212.4</ele>
        <time>2016-05-22T12:20:05Z</time>
      </trkpt>
      <trkpt lat="45.31289" lon="5.87621">
        <ele>1212.1</ele>
        <time>2016-05-22T12:20:06Z</time>
      </trkpt>
      <trkpt lat="45.3129" lon="5.87621">
        <ele>1212</ele>
        <time>2016-05-22T12:20:07Z</time>
      </trkpt>
      <trkpt lat="45.31289" lon="5.87622">
        <ele>1212</ele>
        <time>2016-05-22T12:20:08Z</time>
      </trkpt>
      <trkpt lat="45.3129" lon="5.87622">
        <ele>1211.9</ele>
        <time>2016-05-22T12:20:09Z</time>
      </trkpt>
      <trkpt lat="45.3129" lon="5.87621">
        <ele>1212</ele>
        <time>2016-05-22T12:20:10Z</time>
      </trkpt>
      <trkpt lat="45.3129" lon="5.87621">
        <ele>1212.2</ele>
        <time>2016-05-22T12:20:11Z</time>
      </trkpt>
      <trkpt lat="45.3129" lon="5.8762">
        <ele>1212.5</ele>
        <time>2016-05-22T12:20:12Z</time>
      </trkpt>
      <trkpt lat="45.3129" lon="5.87618">
        <ele>1212.9</ele>
        <time>2016-05-22T12:20:13Z</time>
      </trkpt>
      <trkpt lat="45.3129" lon="5.87616">
        <ele>1213.3</ele>
        <time>2016-05-22T12:20:14Z</time>
      </trkpt>
      <trkpt lat="45.3129" lon="5.87614">
        <ele>1213.9</ele>
        <time>2016-05-22T12:20:15Z</time>
      </trkpt>
      <trkpt lat="45.3129" lon="5.87613">
        <ele>1214.2</ele>
        <time>2016-05-22T12:20:16Z</time>
      </trkpt>
      <trkpt lat="45.3129" lon="5.87613">
        <ele>1214.2</ele>
        <time>2016-05-22T12:20:17Z</time>
      </trkpt>
      <trkpt lat="45.3129" lon="5.87614">
        <ele>1213.8</ele>
        <time>2016-05-22T12:20:18Z</time>
      </trkpt>
      <trkpt lat="45.31287" lon="5.87617">
        <ele>1213.7</ele>
        <time>2016-05-22T12:20:19Z</time>
      </trkpt>
      <trkpt lat="45.31286" lon="5.8762">
        <ele>1212.9</ele>
        <time>2016-05-22T12:20:20Z</time>
      </trkpt>
      <trkpt lat="45.31286" lon="5.87621">
        <ele>1212.8</ele>
        <time>2016-05-22T12:20:21Z</time>
      </trkpt>
      <trkpt lat="45.31286" lon="5.87621">
        <ele>1212.6</ele>
        <time>2016-05-22T12:20:22Z</time>
      </trkpt>
      <trkpt lat="45.31286" lon="5.87624">
        <ele>1212</ele>
        <time>2016-05-22T12:20:23Z</time>
      </trkpt>
      <trkpt lat="45.31287" lon="5.87625">
        <ele>1211.5</ele>
        <time>2016-05-22T12:20:24Z</time>
      </trkpt>
      <trkpt lat="45.31288" lon="5.87626">
        <ele>1211.1</ele>
        <time>2016-05-22T12:20:25Z</time>
      </trkpt>
      <trkpt lat="45.31289" lon="5.87624">
        <ele>1211.4</ele>
        <time>2016-05-22T12:20:26Z</time>
      </trkpt>
      <trkpt lat="45.31289" lon="5.87623">
        <ele>1211.6</ele>
        <time>2016-05-22T12:20:27Z</time>
      </trkpt>
      <trkpt lat="45.3129" lon="5.87622">
        <ele>1211.7</ele>
        <time>2016-05-22T12:20:28Z</time>
      </trkpt>
      <trkpt lat="45.31291" lon="5.87622">
        <ele>1211.5</ele>
        <time>2016-05-22T12:20:29Z</time>
      </trkpt>
      <trkpt lat="45.31293" lon="5.87622">
        <ele>1211.3</ele>
        <time>2016-05-22T12:20:30Z</time>
      </trkpt>
      <trkpt lat="45.31294" lon="5.87622">
        <ele>1211.1</ele>
        <time>2016-05-22T12:20:31Z</time>
      </trkpt>
      <trkpt lat="45.31294" lon="5.87621">
        <ele>1211.1</ele>
        <time>2016-05-22T12:20:32Z</time>
      </trkpt>
      <trkpt lat="45.31294" lon="5.87621">
        <ele>1211.1</ele>
        <time>2016-05-22T12:20:33Z</time>
      </trkpt>
      <trkpt lat="45.31294" lon="5.87621">
        <ele>1211.2</ele>
        <time>2016-05-22T12:20:34Z</time>
      </trkpt>
      <trkpt lat="45.31294" lon="5.87621">
        <ele>1211.1</ele>
        <time>2016-05-22T12:20:35Z</time>
      </trkpt>
      <trkpt lat="45.31295" lon="5.87621">
        <ele>1211.2</ele>
        <time>2016-05-22T12:20:36Z</time>
      </trkpt>
      <trkpt lat="45.31295" lon="5.87621">
        <ele>1211.1</ele>
        <time>2016-05-22T12:20:37Z</time>
      </trkpt>
      <trkpt lat="45.31294" lon="5.87621">
        <ele>1211.2</ele>
        <time>2016-05-22T12:20:38Z</time>
      </trkpt>
      <trkpt lat="45.31295" lon="5.87621">
        <ele>1211.3</ele>
        <time>2016-05-22T12:20:39Z</time>
      </trkpt>
      <trkpt lat="45.31295" lon="5.87621">
        <ele>1211.3</ele>
        <time>2016-05-22T12:20:40Z</time>
      </trkpt>
      <trkpt lat="45.31293" lon="5.87619">
        <ele>1212.1</ele>
        <time>2016-05-22T12:20:41Z</time>
      </trkpt>
      <trkpt lat="45.31292" lon="5.87619">
        <ele>1212.1</ele>
        <time>2016-05-22T12:20:42Z</time>
      </trkpt>
      <trkpt lat="45.31291" lon="5.87622">
        <ele>1211.8</ele>
        <time>2016-05-22T12:20:43Z</time>
      </trkpt>
      <trkpt lat="45.3129" lon="5.87623">
        <ele>1211.6</ele>
        <time>2016-05-22T12:20:44Z</time>
      </trkpt>
      <trkpt lat="45.31289" lon="5.87624">
        <ele>1211.4</ele>
        <time>2016-05-22T12:20:45Z</time>
      </trkpt>
      <trkpt lat="45.31289" lon="5.87624">
        <ele>1211.3</ele>
        <time>2016-05-22T12:20:46Z</time>
      </trkpt>
      <trkpt lat="45.31288" lon="5.87625">
        <ele>1211.3</ele>
        <time>2016-05-22T12:20:47Z</time>
      </trkpt>
      <trkpt lat="45.31288" lon="5.87625">
        <ele>1211.2</ele>
        <time>2016-05-22T12:20:48Z</time>
      </trkpt>
      <trkpt lat="45.31288" lon="5.87626">
        <ele>1210.9</ele>
        <time>2016-05-22T12:20:49Z</time>
      </trkpt>
      <trkpt lat="45.31288" lon="5.87627">
        <ele>1210.8</ele>
        <time>2016-05-22T12:20:50Z</time>
      </trkpt>
      <trkpt lat="45.31288" lon="5.87627">
        <ele>1210.8</ele>
        <time>2016-05-22T12:20:51Z</time>
      </trkpt>
      <trkpt lat="45.3129" lon="5.87627">
        <ele>1210.4</ele>
        <time>2016-05-22T12:20:52Z</time>
      </trkpt>
      <trkpt lat="45.3129" lon="5.87626">
        <ele>1210.5</ele>
        <time>2016-05-22T12:20:53Z</time>
      </trkpt>
      <trkpt lat="45.31289" lon="5.87626">
        <ele>1210.8</ele>
        <time>2016-05-22T12:20:54Z</time>
      </trkpt>
      <trkpt lat="45.31289" lon="5.87626">
        <ele>1211</ele>
        <time>2016-05-22T12:20:55Z</time>
      </trkpt>
      <trkpt lat="45.31289" lon="5.87625">
        <ele>1211.3</ele>
        <time>2016-05-22T12:20:56Z</time>
      </trkpt>
      <trkpt lat="45.31289" lon="5.87624">
        <ele>1211.5</ele>
        <time>2016-05-22T12:20:57Z</time>
      </trkpt>
      <trkpt lat="45.31289" lon="5.87625">
        <ele>1211.3</ele>
        <time>2016-05-22T12:20:58Z</time>
      </trkpt>
      <trkpt lat="45.31288" lon="5.87626">
        <ele>1211.1</ele>
        <time>2016-05-22T12:20:59Z</time>
      </trkpt>
      <trkpt lat="45.31288" lon="5.87627">
        <ele>1210.8</ele>
        <time>2016-05-22T12:21:00Z</time>
      </trkpt>
      <trkpt lat="45.31287" lon="5.87629">
        <ele>1210.3</ele>
        <time>2016-05-22T12:21:01Z</time>
      </trkpt>
      <trkpt lat="45.31286" lon="5.8763">
        <ele>1210.3</ele>
        <time>2016-05-22T12:21:02Z</time>
      </trkpt>
      <trkpt lat="45.31286" lon="5.87629">
        <ele>1210.4</ele>
        <time>2016-05-22T12:21:03Z</time>
      </trkpt>
      <trkpt lat="45.31286" lon="5.87628">
        <ele>1210.8</ele>
        <time>2016-05-22T12:21:04Z</time>
      </trkpt>
      <trkpt lat="45.31285" lon="5.87628">
        <ele>1211</ele>
        <time>2016-05-22T12:21:05Z</time>
      </trkpt>
      <trkpt lat="45.31285" lon="5.87627">
        <ele>1211.2</ele>
        <time>2016-05-22T12:21:06Z</time>
      </trkpt>
      <trkpt lat="45.31285" lon="5.87627">
        <ele>1211.2</ele>
        <time>2016-05-22T12:21:07Z</time>
      </trkpt>
      <trkpt lat="45.31286" lon="5.87627">
        <ele>1211.1</ele>
        <time>2016-05-22T12:21:08Z</time>
      </trkpt>
      <trkpt lat="45.31286" lon="5.87628">
        <ele>1210.9</ele>
        <time>2016-05-22T12:21:09Z</time>
      </trkpt>
      <trkpt lat="45.31285" lon="5.87628">
        <ele>1211</ele>
        <time>2016-05-22T12:21:10Z</time>
      </trkpt>
      <trkpt lat="45.31285" lon="5.87628">
        <ele>1211</ele>
        <time>2016-05-22T12:21:11Z</time>
      </trkpt>
      <trkpt lat="45.31285" lon="5.87628">
        <ele>1210.9</ele>
        <time>2016-05-22T12:21:12Z</time>
      </trkpt>
      <trkpt lat="45.31285" lon="5.87628">
        <ele>1211</ele>
        <time>2016-05-22T12:21:13Z</time>
      </trkpt>
      <trkpt lat="45.31285" lon="5.87628">
        <ele>1211.1</ele>
        <time>2016-05-22T12:21:14Z</time>
      </trkpt>
      <trkpt lat="45.31285" lon="5.87628">
        <ele>1211.1</ele>
        <time>2016-05-22T12:21:15Z</time>
      </trkpt>
      <trkpt lat="45.31285" lon="5.87628">
        <ele>1211</ele>
        <time>2016-05-22T12:21:16Z</time>
      </trkpt>
      <trkpt lat="45.31286" lon="5.87628">
        <ele>1210.8</ele>
        <time>2016-05-22T12:21:17Z</time>
      </trkpt>
      <trkpt lat="45.31287" lon="5.87628">
        <ele>1210.6</ele>
        <time>2016-05-22T12:21:18Z</time>
      </trkpt>
      <trkpt lat="45.31287" lon="5.87628">
        <ele>1210.6</ele>
        <time>2016-05-22T12:21:19Z</time>
      </trkpt>
      <trkpt lat="45.31287" lon="5.87628">
        <ele>1210.7</ele>
        <time>2016-05-22T12:21:20Z</time>
      </trkpt>
      <trkpt lat="45.31285" lon="5.87625">
        <ele>1211.9</ele>
        <time>2016-05-22T12:21:21Z</time>
      </trkpt>
      <trkpt lat="45.31286" lon="5.87624">
        <ele>1212</ele>
        <time>2016-05-22T12:21:22Z</time>
      </trkpt>
      <trkpt lat="45.31286" lon="5.87623">
        <ele>1212.2</ele>
        <time>2016-05-22T12:21:23Z</time>
      </trkpt>
      <trkpt lat="45.31285" lon="5.87621">
        <ele>1212.9</ele>
        <time>2016-05-22T12:21:24Z</time>
      </trkpt>
      <trkpt lat="45.31285" lon="5.8762">
        <ele>1213.2</ele>
        <time>2016-05-22T12:21:25Z</time>
      </trkpt>
      <trkpt lat="45.31285" lon="5.8762">
        <ele>1213.3</ele>
        <time>2016-05-22T12:21:26Z</time>
      </trkpt>
      <trkpt lat="45.31285" lon="5.87617">
        <ele>1213.9</ele>
        <time>2016-05-22T12:21:27Z</time>
      </trkpt>
      <trkpt lat="45.31288" lon="5.87615">
        <ele>1214.1</ele>
        <time>2016-05-22T12:21:28Z</time>
      </trkpt>
      <trkpt lat="45.31288" lon="5.87613">
        <ele>1214.7</ele>
        <time>2016-05-22T12:21:29Z</time>
      </trkpt>
      <trkpt lat="45.31288" lon="5.87613">
        <ele>1214.8</ele>
        <time>2016-05-22T12:21:30Z</time>
      </trkpt>
      <trkpt lat="45.31287" lon="5.87613">
        <ele>1214.8</ele>
        <time>2016-05-22T12:21:31Z</time>
      </trkpt>
      <trkpt lat="45.31286" lon="5.87612">
        <ele>1215.2</ele>
        <time>2016-05-22T12:21:32Z</time>
      </trkpt>
      <trkpt lat="45.31283" lon="5.87611">
        <ele>1215.9</ele>
        <time>2016-05-22T12:21:33Z</time>
      </trkpt>
      <trkpt lat="45.3128" lon="5.87611">
        <ele>1216.5</ele>
        <time>2016-05-22T12:21:34Z</time>
      </trkpt>
      <trkpt lat="45.3128" lon="5.8761">
        <ele>1216.7</ele>
        <time>2016-05-22T12:21:35Z</time>
      </trkpt>
      <trkpt lat="45.31281" lon="5.87611">
        <ele>1216.4</ele>
        <time>2016-05-22T12:21:36Z</time>
      </trkpt>
      <trkpt lat="45.3128" lon="5.87611">
        <ele>1216.5</ele>
        <time>2016-05-22T12:21:37Z</time>
      </trkpt>
      <trkpt lat="45.3128" lon="5.87611">
        <ele>1216.6</ele>
        <time>2016-05-22T12:21:38Z</time>
      </trkpt>
      <trkpt lat="45.3128" lon="5.8761">
        <ele>1216.7</ele>
        <time>2016-05-22T12:21:39Z</time>
      </trkpt>
      <trkpt lat="45.3128" lon="5.8761">
        <ele>1216.7</ele>
        <time>2016-05-22T12:21:40Z</time>
      </trkpt>
      <trkpt lat="45.3128" lon="5.8761">
        <ele>1216.8</ele>
        <time>2016-05-22T12:21:41Z</time>
      </trkpt>
      <trkpt lat="45.31279" lon="5.8761">
        <ele>1216.8</ele>
        <time>2016-05-22T12:21:42Z</time>
      </trkpt>
      <trkpt lat="45.31278" lon="5.8761">
        <ele>1217.1</ele>
        <time>2016-05-22T12:21:43Z</time>
      </trkpt>
      <trkpt lat="45.31276" lon="5.87611">
        <ele>1217.3</ele>
        <time>2016-05-22T12:21:44Z</time>
      </trkpt>
      <trkpt lat="45.31276" lon="5.87611">
        <ele>1217.3</ele>
        <time>2016-05-22T12:21:45Z</time>
      </trkpt>
      <trkpt lat="45.31275" lon="5.8761">
        <ele>1217.7</ele>
        <time>2016-05-22T12:21:46Z</time>
      </trkpt>
      <trkpt lat="45.31275" lon="5.8761">
        <ele>1217.7</ele>
        <time>2016-05-22T12:21:47Z</time>
      </trkpt>
      <trkpt lat="45.31275" lon="5.87611">
        <ele>1217.5</ele>
        <time>2016-05-22T12:21:48Z</time>
      </trkpt>
      <trkpt lat="45.31274" lon="5.87614">
        <ele>1216.7</ele>
        <time>2016-05-22T12:21:49Z</time>
      </trkpt>
      <trkpt lat="45.31274" lon="5.87614">
        <ele>1216.8</ele>
        <time>2016-05-22T12:21:50Z</time>
      </trkpt>
      <trkpt lat="45.31274" lon="5.87614">
        <ele>1216.8</ele>
        <time>2016-05-22T12:21:51Z</time>
      </trkpt>
      <trkpt lat="45.31274" lon="5.87614">
        <ele>1216.8</ele>
        <time>2016-05-22T12:21:52Z</time>
      </trkpt>
      <trkpt lat="45.31273" lon="5.87614">
        <ele>1216.9</ele>
        <time>2016-05-22T12:21:53Z</time>
      </trkpt>
      <trkpt lat="45.31273" lon="5.87614">
        <ele>1217</ele>
        <time>2016-05-22T12:21:54Z</time>
      </trkpt>
      <trkpt lat="45.31274" lon="5.87614">
        <ele>1216.9</ele>
        <time>2016-05-22T12:21:55Z</time>
      </trkpt>
      <trkpt lat="45.31274" lon="5.87614">
        <ele>1216.8</ele>
        <time>2016-05-22T12:21:56Z</time>
      </trkpt>
      <trkpt lat="45.31276" lon="5.87614">
        <ele>1216.5</ele>
        <time>2016-05-22T12:21:57Z</time>
      </trkpt>
      <trkpt lat="45.31276" lon="5.87614">
        <ele>1216.5</ele>
        <time>2016-05-22T12:21:58Z</time>
      </trkpt>
      <trkpt lat="45.31276" lon="5.87616">
        <ele>1216</ele>
        <time>2016-05-22T12:21:59Z</time>
      </trkpt>
      <trkpt lat="45.31276" lon="5.87617">
        <ele>1215.7</ele>
        <time>2016-05-22T12:22:00Z</time>
      </trkpt>
      <trkpt lat="45.31277" lon="5.87618">
        <ele>1215.2</ele>
        <time>2016-05-22T12:22:01Z</time>
      </trkpt>
      <trkpt lat="45.31278" lon="5.8762">
        <ele>1214.4</ele>
        <time>2016-05-22T12:22:02Z</time>
      </trkpt>
      <trkpt lat="45.31279" lon="5.87619">
        <ele>1214.6</ele>
        <time>2016-05-22T12:22:03Z</time>
      </trkpt>
      <trkpt lat="45.31279" lon="5.87618">
        <ele>1214.8</ele>
        <time>2016-05-22T12:22:04Z</time>
      </trkpt>
      <trkpt lat="45.31279" lon="5.87619">
        <ele>1214.6</ele>
        <time>2016-05-22T12:22:05Z</time>
      </trkpt>
      <trkpt lat="45.31278" lon="5.87619">
        <ele>1214.5</ele>
        <time>2016-05-22T12:22:06Z</time>
      </trkpt>
      <trkpt lat="45.31278" lon="5.87617">
        <ele>1215.4</ele>
        <time>2016-05-22T12:22:07Z</time>
      </trkpt>
      <trkpt lat="45.31277" lon="5.87616">
        <ele>1215.6</ele>
        <time>2016-05-22T12:22:08Z</time>
      </trkpt>
      <trkpt lat="45.31277" lon="5.87616">
        <ele>1215.7</ele>
        <time>2016-05-22T12:22:09Z</time>
      </trkpt>
      <trkpt lat="45.31277" lon="5.87616">
        <ele>1215.7</ele>
        <time>2016-05-22T12:22:10Z</time>
      </trkpt>
      <trkpt lat="45.31277" lon="5.87617">
        <ele>1215.5</ele>
        <time>2016-05-22T12:22:11Z</time>
      </trkpt>
      <trkpt lat="45.31277" lon="5.87617">
        <ele>1215.4</ele>
        <time>2016-05-22T12:22:12Z</time>
      </trkpt>
      <trkpt lat="45.31276" lon="5.87617">
        <ele>1215.5</ele>
        <time>2016-05-22T12:22:13Z</time>
      </trkpt>
      <trkpt lat="45.31275" lon="5.87617">
        <ele>1215.6</ele>
        <time>2016-05-22T12:22:14Z</time>
      </trkpt>
      <trkpt lat="45.31275" lon="5.87617">
        <ele>1215.7</ele>
        <time>2016-05-22T12:22:15Z</time>
      </trkpt>
      <trkpt lat="45.31274" lon="5.87617">
        <ele>1216</ele>
        <time>2016-05-22T12:22:16Z</time>
      </trkpt>
      <trkpt lat="45.31274" lon="5.87615">
        <ele>1216.5</ele>
        <time>2016-05-22T12:22:17Z</time>
      </trkpt>
      <trkpt lat="45.31273" lon="5.87614">
        <ele>1217</ele>
        <time>2016-05-22T12:22:18Z</time>
      </trkpt>
      <trkpt lat="45.31273" lon="5.87612">
        <ele>1217.4</ele>
        <time>2016-05-22T12:22:19Z</time>
      </trkpt>
      <trkpt lat="45.31273" lon="5.87611">
        <ele>1217.8</ele>
        <time>2016-05-22T12:22:20Z</time>
      </trkpt>
      <trkpt lat="45.31272" lon="5.8761">
        <ele>1218.1</ele>
        <time>2016-05-22T12:22:21Z</time>
      </trkpt>
      <trkpt lat="45.31272" lon="5.87608">
        <ele>1218.7</ele>
        <time>2016-05-22T12:22:22Z</time>
      </trkpt>
      <trkpt lat="45.31272" lon="5.87608">
        <ele>1218.9</ele>
        <time>2016-05-22T12:22:23Z</time>
      </trkpt>
      <trkpt lat="45.31271" lon="5.87607">
        <ele>1219.1</ele>
        <time>2016-05-22T12:22:24Z</time>
      </trkpt>
      <trkpt lat="45.31271" lon="5.87607">
        <ele>1219.2</ele>
        <time>2016-05-22T12:22:25Z</time>
      </trkpt>
      <trkpt lat="45.31271" lon="5.87606">
        <ele>1219.5</ele>
        <time>2016-05-22T12:22:26Z</time>
      </trkpt>
      <trkpt lat="45.31271" lon="5.87605">
        <ele>1219.7</ele>
        <time>2016-05-22T12:22:27Z</time>
      </trkpt>
      <trkpt lat="45.3127" lon="5.87605">
        <ele>1219.8</ele>
        <time>2016-05-22T12:22:28Z</time>
      </trkpt>
      <trkpt lat="45.3127" lon="5.87605">
        <ele>1219.9</ele>
        <time>2016-05-22T12:22:29Z</time>
      </trkpt>
      <trkpt lat="45.31271" lon="5.87605">
        <ele>1219.8</ele>
        <time>2016-05-22T12:22:30Z</time>
      </trkpt>
      <trkpt lat="45.31272" lon="5.87605">
        <ele>1219.5</ele>
        <time>2016-05-22T12:22:31Z</time>
      </trkpt>
      <trkpt lat="45.3127" lon="5.87603">
        <ele>1220.4</ele>
        <time>2016-05-22T12:22:32Z</time>
      </trkpt>
      <trkpt lat="45.31269" lon="5.87602">
        <ele>1220.9</ele>
        <time>2016-05-22T12:22:33Z</time>
      </trkpt>
      <trkpt lat="45.3127" lon="5.87602">
        <ele>1220.7</ele>
        <time>2016-05-22T12:22:34Z</time>
      </trkpt>
      <trkpt lat="45.3127" lon="5.87603">
        <ele>1220.4</ele>
        <time>2016-05-22T12:22:35Z</time>
      </trkpt>
      <trkpt lat="45.31272" lon="5.87604">
        <ele>1219.8</ele>
        <time>2016-05-22T12:22:36Z</time>
      </trkpt>
      <trkpt lat="45.31273" lon="5.87604">
        <ele>1219.6</ele>
        <time>2016-05-22T12:22:37Z</time>
      </trkpt>
      <trkpt lat="45.31274" lon="5.87604">
        <ele>1219.6</ele>
        <time>2016-05-22T12:22:38Z</time>
      </trkpt>
      <trkpt lat="45.31274" lon="5.87603">
        <ele>1219.7</ele>
        <time>2016-05-22T12:22:39Z</time>
      </trkpt>
      <trkpt lat="45.31274" lon="5.87602">
        <ele>1219.9</ele>
        <time>2016-05-22T12:22:40Z</time>
      </trkpt>
      <trkpt lat="45.31275" lon="5.87602">
        <ele>1219.9</ele>
        <time>2016-05-22T12:22:41Z</time>
      </trkpt>
      <trkpt lat="45.31275" lon="5.87602">
        <ele>1220</ele>
        <time>2016-05-22T12:22:42Z</time>
      </trkpt>
      <trkpt lat="45.31274" lon="5.87601">
        <ele>1220.1</ele>
        <time>2016-05-22T12:22:43Z</time>
      </trkpt>
      <trkpt lat="45.31274" lon="5.87601">
        <ele>1220.3</ele>
        <time>2016-05-22T12:22:44Z</time>
      </trkpt>
      <trkpt lat="45.31274" lon="5.87601">
        <ele>1220.5</ele>
        <time>2016-05-22T12:22:45Z</time>
      </trkpt>
      <trkpt lat="45.31273" lon="5.87601">
        <ele>1220.5</ele>
        <time>2016-05-22T12:22:46Z</time>
      </trkpt>
      <trkpt lat="45.31273" lon="5.87601">
        <ele>1220.5</ele>
        <time>2016-05-22T12:22:47Z</time>
      </trkpt>
      <trkpt lat="45.31274" lon="5.87601">
        <ele>1220.3</ele>
        <time>2016-05-22T12:22:48Z</time>
      </trkpt>
      <trkpt lat="45.31274" lon="5.87602">
        <ele>1219.8</ele>
        <time>2016-05-22T12:22:49Z</time>
      </trkpt>
      <trkpt lat="45.31275" lon="5.87603">
        <ele>1219.7</ele>
        <time>2016-05-22T12:22:50Z</time>
      </trkpt>
      <trkpt lat="45.31275" lon="5.87603">
        <ele>1219.6</ele>
        <time>2016-05-22T12:22:51Z</time>
      </trkpt>
      <trkpt lat="45.31275" lon="5.87604">
        <ele>1219.4</ele>
        <time>2016-05-22T12:22:52Z</time>
      </trkpt>
      <trkpt lat="45.31275" lon="5.87604">
        <ele>1219.4</ele>
        <time>2016-05-22T12:22:53Z</time>
      </trkpt>
      <trkpt lat="45.31275" lon="5.87603">
        <ele>1219.5</ele>
        <time>2016-05-22T12:22:54Z</time>
      </trkpt>
      <trkpt lat="45.31275" lon="5.87603">
        <ele>1219.4</ele>
        <time>2016-05-22T12:22:55Z</time>
      </trkpt>
      <trkpt lat="45.31277" lon="5.87604">
        <ele>1218.9</ele>
        <time>2016-05-22T12:22:56Z</time>
      </trkpt>
      <trkpt lat="45.31274" lon="5.87602">
        <ele>1220</ele>
        <time>2016-05-22T12:22:57Z</time>
      </trkpt>
      <trkpt lat="45.31274" lon="5.87602">
        <ele>1220.1</ele>
        <time>2016-05-22T12:22:58Z</time>
      </trkpt>
      <trkpt lat="45.31274" lon="5.87602">
        <ele>1219.9</ele>
        <time>2016-05-22T12:22:59Z</time>
      </trkpt>
      <trkpt lat="45.31275" lon="5.87603">
        <ele>1219.6</ele>
        <time>2016-05-22T12:23:00Z</time>
      </trkpt>
      <trkpt lat="45.31275" lon="5.87604">
        <ele>1219.2</ele>
        <time>2016-05-22T12:23:01Z</time>
      </trkpt>
      <trkpt lat="45.31276" lon="5.87604">
        <ele>1219.1</ele>
        <time>2016-05-22T12:23:02Z</time>
      </trkpt>
      <trkpt lat="45.31276" lon="5.87604">
        <ele>1219.2</ele>
        <time>2016-05-22T12:23:03Z</time>
      </trkpt>
      <trkpt lat="45.31275" lon="5.87604">
        <ele>1219.2</ele>
        <time>2016-05-22T12:23:04Z</time>
      </trkpt>
      <trkpt lat="45.31275" lon="5.87604">
        <ele>1219.2</ele>
        <time>2016-05-22T12:23:05Z</time>
      </trkpt>
      <trkpt lat="45.31276" lon="5.87605">
        <ele>1219</ele>
        <time>2016-05-22T12:23:06Z</time>
      </trkpt>
      <trkpt lat="45.31275" lon="5.87604">
        <ele>1219.3</ele>
        <time>2016-05-22T12:23:07Z</time>
      </trkpt>
      <trkpt lat="45.31274" lon="5.87604">
        <ele>1219.7</ele>
        <time>2016-05-22T12:23:08Z</time>
      </trkpt>
      <trkpt lat="45.31272" lon="5.87603">
        <ele>1219.9</ele>
        <time>2016-05-22T12:23:09Z</time>
      </trkpt>
      <trkpt lat="45.31272" lon="5.87604">
        <ele>1219.7</ele>
        <time>2016-05-22T12:23:10Z</time>
      </trkpt>
      <trkpt lat="45.31273" lon="5.87605">
        <ele>1219.4</ele>
        <time>2016-05-22T12:23:11Z</time>
      </trkpt>
      <trkpt lat="45.31273" lon="5.87606">
        <ele>1219.3</ele>
        <time>2016-05-22T12:23:12Z</time>
      </trkpt>
      <trkpt lat="45.31272" lon="5.87605">
        <ele>1219.4</ele>
        <time>2016-05-22T12:23:13Z</time>
      </trkpt>
      <trkpt lat="45.31273" lon="5.87606">
        <ele>1219.2</ele>
        <time>2016-05-22T12:23:14Z</time>
      </trkpt>
      <trkpt lat="45.31273" lon="5.87606">
        <ele>1219.3</ele>
        <time>2016-05-22T12:23:15Z</time>
      </trkpt>
      <trkpt lat="45.31272" lon="5.87606">
        <ele>1219.5</ele>
        <time>2016-05-22T12:23:16Z</time>
      </trkpt>
      <trkpt lat="45.31271" lon="5.87605">
        <ele>1219.6</ele>
        <time>2016-05-22T12:23:17Z</time>
      </trkpt>
      <trkpt lat="45.31272" lon="5.87606">
        <ele>1219.3</ele>
        <time>2016-05-22T12:23:18Z</time>
      </trkpt>
      <trkpt lat="45.31272" lon="5.87606">
        <ele>1219.2</ele>
        <time>2016-05-22T12:23:19Z</time>
      </trkpt>
      <trkpt lat="45.31272" lon="5.87606">
        <ele>1219.4</ele>
        <time>2016-05-22T12:23:20Z</time>
      </trkpt>
      <trkpt lat="45.31272" lon="5.87605">
        <ele>1219.6</ele>
        <time>2016-05-22T12:23:21Z</time>
      </trkpt>
      <trkpt lat="45.31273" lon="5.87605">
        <ele>1219.5</ele>
        <time>2016-05-22T12:23:22Z</time>
      </trkpt>
      <trkpt lat="45.31273" lon="5.87604">
        <ele>1219.6</ele>
        <time>2016-05-22T12:23:23Z</time>
      </trkpt>
      <trkpt lat="45.31274" lon="5.87604">
        <ele>1219.5</ele>
        <time>2016-05-22T12:23:24Z</time>
      </trkpt>
      <trkpt lat="45.31274" lon="5.87604">
        <ele>1219.4</ele>
        <time>2016-05-22T12:23:25Z</time>
      </trkpt>
      <trkpt lat="45.31274" lon="5.87604">
        <ele>1219.6</ele>
        <time>2016-05-22T12:23:26Z</time>
      </trkpt>
      <trkpt lat="45.31273" lon="5.87604">
        <ele>1219.7</ele>
        <time>2016-05-22T12:23:27Z</time>
      </trkpt>
      <trkpt lat="45.31274" lon="5.87604">
        <ele>1219.6</ele>
        <time>2016-05-22T12:23:28Z</time>
      </trkpt>
      <trkpt lat="45.31274" lon="5.87604">
        <ele>1219.4</ele>
        <time>2016-05-22T12:23:29Z</time>
      </trkpt>
      <trkpt lat="45.31275" lon="5.87604">
        <ele>1219.4</ele>
        <time>2016-05-22T12:23:30Z</time>
      </trkpt>
      <trkpt lat="45.31274" lon="5.87604">
        <ele>1219.5</ele>
        <time>2016-05-22T12:23:31Z</time>
      </trkpt>
      <trkpt lat="45.31274" lon="5.87604">
        <ele>1219.6</ele>
        <time>2016-05-22T12:23:32Z</time>
      </trkpt>
      <trkpt lat="45.31274" lon="5.87604">
        <ele>1219.5</ele>
        <time>2016-05-22T12:23:33Z</time>
      </trkpt>
      <trkpt lat="45.31274" lon="5.87603">
        <ele>1219.6</ele>
        <time>2016-05-22T12:23:34Z</time>
      </trkpt>
      <trkpt lat="45.31274" lon="5.87603">
        <ele>1219.7</ele>
        <time>2016-05-22T12:23:35Z</time>
      </trkpt>
      <trkpt lat="45.31274" lon="5.87603">
        <ele>1219.8</ele>
        <time>2016-05-22T12:23:36Z</time>
      </trkpt>
      <trkpt lat="45.31273" lon="5.87604">
        <ele>1219.8</ele>
        <time>2016-05-22T12:24:11Z</time>
      </trkpt>
      <trkpt lat="45.31273" lon="5.87604">
        <ele>1219.6</ele>
        <time>2016-05-22T12:24:12Z</time>
      </trkpt>
      <trkpt lat="45.31274" lon="5.87605">
        <ele>1219.4</ele>
        <time>2016-05-22T12:24:13Z</time>
      </trkpt>
      <trkpt lat="45.31275" lon="5.87606">
        <ele>1218.8</ele>
        <time>2016-05-22T12:24:14Z</time>
      </trkpt>
      <trkpt lat="45.31277" lon="5.87607">
        <ele>1218.2</ele>
        <time>2016-05-22T12:24:15Z</time>
      </trkpt>
      <trkpt lat="45.31278" lon="5.87608">
        <ele>1217.7</ele>
        <time>2016-05-22T12:24:16Z</time>
      </trkpt>
      <trkpt lat="45.31279" lon="5.8761">
        <ele>1217.1</ele>
        <time>2016-05-22T12:24:17Z</time>
      </trkpt>
      <trkpt lat="45.3128" lon="5.87611">
        <ele>1216.5</ele>
        <time>2016-05-22T12:24:18Z</time>
      </trkpt>
      <trkpt lat="45.3128" lon="5.87614">
        <ele>1215.8</ele>
        <time>2016-05-22T12:24:19Z</time>
      </trkpt>
      <trkpt lat="45.31281" lon="5.87615">
        <ele>1215.2</ele>
        <time>2016-05-22T12:24:20Z</time>
      </trkpt>
      <trkpt lat="45.31281" lon="5.87617">
        <ele>1214.7</ele>
        <time>2016-05-22T12:24:21Z</time>
      </trkpt>
      <trkpt lat="45.31282" lon="5.87618">
        <ele>1214.3</ele>
        <time>2016-05-22T12:24:22Z</time>
      </trkpt>
      <trkpt lat="45.31282" lon="5.87619">
        <ele>1214.1</ele>
        <time>2016-05-22T12:24:23Z</time>
      </trkpt>
      <trkpt lat="45.31282" lon="5.87619">
        <ele>1213.9</ele>
        <time>2016-05-22T12:24:24Z</time>
      </trkpt>
      <trkpt lat="45.31283" lon="5.8762">
        <ele>1213.6</ele>
        <time>2016-05-22T12:24:25Z</time>
      </trkpt>
      <trkpt lat="45.31282" lon="5.87621">
        <ele>1213.4</ele>
        <time>2016-05-22T12:24:26Z</time>
      </trkpt>
      <trkpt lat="45.31283" lon="5.87621">
        <ele>1213.2</ele>
        <time>2016-05-22T12:24:27Z</time>
      </trkpt>
      <trkpt lat="45.31282" lon="5.87621">
        <ele>1213.4</ele>
        <time>2016-05-22T12:24:28Z</time>
      </trkpt>
      <trkpt lat="45.31282" lon="5.8762">
        <ele>1213.7</ele>
        <time>2016-05-22T12:24:29Z</time>
      </trkpt>
      <trkpt lat="45.3128" lon="5.87623">
        <ele>1213.2</ele>
        <time>2016-05-22T12:27:53Z</time>
      </trkpt>
      <trkpt lat="45.31281" lon="5.87623">
        <ele>1213.1</ele>
        <time>2016-05-22T12:27:54Z</time>
      </trkpt>
      <trkpt lat="45.31281" lon="5.87623">
        <ele>1213</ele>
        <time>2016-05-22T12:27:55Z</time>
      </trkpt>
      <trkpt lat="45.31282" lon="5.87624">
        <ele>1212.8</ele>
        <time>2016-05-22T12:27:56Z</time>
      </trkpt>
      <trkpt lat="45.31283" lon="5.87624">
        <ele>1212.5</ele>
        <time>2016-05-22T12:27:57Z</time>
      </trkpt>
      <trkpt lat="45.31283" lon="5.87625">
        <ele>1212.1</ele>
        <time>2016-05-22T12:27:58Z</time>
      </trkpt>
      <trkpt lat="45.31283" lon="5.87626">
        <ele>1212</ele>
        <time>2016-05-22T12:27:59Z</time>
      </trkpt>
      <trkpt lat="45.31282" lon="5.87626">
        <ele>1212.1</ele>
        <time>2016-05-22T12:28:00Z</time>
      </trkpt>
      <trkpt lat="45.3128" lon="5.87627">
        <ele>1212.2</ele>
        <time>2016-05-22T12:28:01Z</time>
      </trkpt>
      <trkpt lat="45.31278" lon="5.87629">
        <ele>1212.1</ele>
        <time>2016-05-22T12:28:02Z</time>
      </trkpt>
      <trkpt lat="45.31276" lon="5.87631">
        <ele>1212</ele>
        <time>2016-05-22T12:28:03Z</time>
      </trkpt>
      <trkpt lat="45.31274" lon="5.87632">
        <ele>1212.1</ele>
        <time>2016-05-22T12:28:04Z</time>
      </trkpt>
      <trkpt lat="45.31272" lon="5.87633">
        <ele>1212.1</ele>
        <time>2016-05-22T12:28:05Z</time>
      </trkpt>
      <trkpt lat="45.31272" lon="5.87633">
        <ele>1212</ele>
        <time>2016-05-22T12:28:06Z</time>
      </trkpt>
      <trkpt lat="45.31271" lon="5.87635">
        <ele>1211.7</ele>
        <time>2016-05-22T12:28:07Z</time>
      </trkpt>
      <trkpt lat="45.3127" lon="5.87637">
        <ele>1211.2</ele>
        <time>2016-05-22T12:28:08Z</time>
      </trkpt>
      <trkpt lat="45.31271" lon="5.8764">
        <ele>1210.5</ele>
        <time>2016-05-22T12:28:09Z</time>
      </trkpt>
      <trkpt lat="45.31271" lon="5.87642">
        <ele>1209.8</ele>
        <time>2016-05-22T12:28:10Z</time>
      </trkpt>
      <trkpt lat="45.31272" lon="5.87644">
        <ele>1208.9</ele>
        <time>2016-05-22T12:28:11Z</time>
      </trkpt>
      <trkpt lat="45.31274" lon="5.87646">
        <ele>1208.1</ele>
        <time>2016-05-22T12:28:12Z</time>
      </trkpt>
      <trkpt lat="45.31276" lon="5.87648">
        <ele>1207.2</ele>
        <time>2016-05-22T12:28:13Z</time>
      </trkpt>
      <trkpt lat="45.31277" lon="5.8765">
        <ele>1206.6</ele>
        <time>2016-05-22T12:28:14Z</time>
      </trkpt>
      <trkpt lat="45.31276" lon="5.87652">
        <ele>1206.1</ele>
        <time>2016-05-22T12:28:15Z</time>
      </trkpt>
      <trkpt lat="45.31276" lon="5.87652">
        <ele>1206.2</ele>
        <time>2016-05-22T12:28:16Z</time>
      </trkpt>
      <trkpt lat="45.31274" lon="5.87651">
        <ele>1206.6</ele>
        <time>2016-05-22T12:28:17Z</time>
      </trkpt>
      <trkpt lat="45.31273" lon="5.87652">
        <ele>1206.7</ele>
        <time>2016-05-22T12:28:18Z</time>
      </trkpt>
      <trkpt lat="45.31272" lon="5.87653">
        <ele>1206.5</ele>
        <time>2016-05-22T12:28:19Z</time>
      </trkpt>
      <trkpt lat="45.31272" lon="5.87655">
        <ele>1206</ele>
        <time>2016-05-22T12:28:20Z</time>
      </trkpt>
      <trkpt lat="45.31274" lon="5.87658">
        <ele>1205</ele>
        <time>2016-05-22T12:28:21Z</time>
      </trkpt>
      <trkpt lat="45.31274" lon="5.87662">
        <ele>1203.9</ele>
        <time>2016-05-22T12:28:22Z</time>
      </trkpt>
      <trkpt lat="45.31273" lon="5.87666">
        <ele>1202.8</ele>
        <time>2016-05-22T12:28:23Z</time>
      </trkpt>
      <trkpt lat="45.31272" lon="5.8767">
        <ele>1202</ele>
        <time>2016-05-22T12:28:24Z</time>
      </trkpt>
      <trkpt lat="45.31272" lon="5.87676">
        <ele>1200.7</ele>
        <time>2016-05-22T12:28:25Z</time>
      </trkpt>
      <trkpt lat="45.31273" lon="5.87681">
        <ele>1199.4</ele>
        <time>2016-05-22T12:28:26Z</time>
      </trkpt>
      <trkpt lat="45.31274" lon="5.87685">
        <ele>1198.2</ele>
        <time>2016-05-22T12:28:27Z</time>
      </trkpt>
      <trkpt lat="45.31275" lon="5.87689">
        <ele>1197.2</ele>
        <time>2016-05-22T12:28:28Z</time>
      </trkpt>
      <trkpt lat="45.31275" lon="5.87693">
        <ele>1196.3</ele>
        <time>2016-05-22T12:28:29Z</time>
      </trkpt>
      <trkpt lat="45.31276" lon="5.87694">
        <ele>1195.9</ele>
        <time>2016-05-22T12:28:30Z</time>
      </trkpt>
      <trkpt lat="45.31276" lon="5.87693">
        <ele>1195.9</ele>
        <time>2016-05-22T12:28:31Z</time>
      </trkpt>
      <trkpt lat="45.31277" lon="5.87693">
        <ele>1196.1</ele>
        <time>2016-05-22T12:28:32Z</time>
      </trkpt>
      <trkpt lat="45.31276" lon="5.87693">
        <ele>1196</ele>
        <time>2016-05-22T12:28:33Z</time>
      </trkpt>
      <trkpt lat="45.31276" lon="5.87694">
        <ele>1195.8</ele>
        <time>2016-05-22T12:28:34Z</time>
      </trkpt>
      <trkpt lat="45.31276" lon="5.87696">
        <ele>1195.5</ele>
        <time>2016-05-22T12:28:35Z</time>
      </trkpt>
      <trkpt lat="45.31275" lon="5.87697">
        <ele>1195.2</ele>
        <time>2016-05-22T12:28:36Z</time>
      </trkpt>
      <trkpt lat="45.31275" lon="5.877">
        <ele>1194.6</ele>
        <time>2016-05-22T12:28:37Z</time>
      </trkpt>
      <trkpt lat="45.31274" lon="5.87705">
        <ele>1193.8</ele>
        <time>2016-05-22T12:28:38Z</time>
      </trkpt>
      <trkpt lat="45.31273" lon="5.87708">
        <ele>1193.2</ele>
        <time>2016-05-22T12:28:39Z</time>
      </trkpt>
      <trkpt lat="45.31272" lon="5.87711">
        <ele>1192.6</ele>
        <time>2016-05-22T12:28:40Z</time>
      </trkpt>
      <trkpt lat="45.31272" lon="5.87714">
        <ele>1191.8</ele>
        <time>2016-05-22T12:28:41Z</time>
      </trkpt>
      <trkpt lat="45.31271" lon="5.87718">
        <ele>1191.1</ele>
        <time>2016-05-22T12:28:42Z</time>
      </trkpt>
      <trkpt lat="45.31269" lon="5.87722">
        <ele>1190.4</ele>
        <time>2016-05-22T12:28:43Z</time>
      </trkpt>
      <trkpt lat="45.31267" lon="5.87727">
        <ele>1189.6</ele>
        <time>2016-05-22T12:28:44Z</time>
      </trkpt>
      <trkpt lat="45.31265" lon="5.87731">
        <ele>1188.8</ele>
        <time>2016-05-22T12:28:45Z</time>
      </trkpt>
      <trkpt lat="45.31262" lon="5.87734">
        <ele>1188.5</ele>
        <time>2016-05-22T12:28:46Z</time>
      </trkpt>
      <trkpt lat="45.3126" lon="5.87736">
        <ele>1188.4</ele>
        <time>2016-05-22T12:28:47Z</time>
      </trkpt>
      <trkpt lat="45.31258" lon="5.87737">
        <ele>1188.5</ele>
        <time>2016-05-22T12:28:48Z</time>
      </trkpt>
      <trkpt lat="45.31255" lon="5.87738">
        <ele>1188.6</ele>
        <time>2016-05-22T12:28:49Z</time>
      </trkpt>
      <trkpt lat="45.31254" lon="5.87738">
        <ele>1188.8</ele>
        <time>2016-05-22T12:28:50Z</time>
      </trkpt>
      <trkpt lat="45.31253" lon="5.87738">
        <ele>1188.9</ele>
        <time>2016-05-22T12:28:51Z</time>
      </trkpt>
      <trkpt lat="45.31251" lon="5.87737">
        <ele>1189.2</ele>
        <time>2016-05-22T12:28:52Z</time>
      </trkpt>
      <trkpt lat="45.31249" lon="5.87737">
        <ele>1189.3</ele>
        <time>2016-05-22T12:28:53Z</time>
      </trkpt>
      <trkpt lat="45.31247" lon="5.87737">
        <ele>1189.2</ele>
        <time>2016-05-22T12:28:54Z</time>
      </trkpt>
      <trkpt lat="45.31245" lon="5.87738">
        <ele>1188.8</ele>
        <time>2016-05-22T12:28:55Z</time>
      </trkpt>
      <trkpt lat="45.31244" lon="5.87739">
        <ele>1188.6</ele>
        <time>2016-05-22T12:28:56Z</time>
      </trkpt>
      <trkpt lat="45.31244" lon="5.87739">
        <ele>1188.5</ele>
        <time>2016-05-22T12:28:57Z</time>
      </trkpt>
      <trkpt lat="45.31245" lon="5.8774">
        <ele>1188.3</ele>
        <time>2016-05-22T12:28:58Z</time>
      </trkpt>
      <trkpt lat="45.31246" lon="5.87742">
        <ele>1188</ele>
        <time>2016-05-22T12:28:59Z</time>
      </trkpt>
      <trkpt lat="45.31248" lon="5.87745">
        <ele>1187.3</ele>
        <time>2016-05-22T12:29:00Z</time>
      </trkpt>
      <trkpt lat="45.31251" lon="5.87748">
        <ele>1186.5</ele>
        <time>2016-05-22T12:29:01Z</time>
      </trkpt>
      <trkpt lat="45.31253" lon="5.8775">
        <ele>1185.8</ele>
        <time>2016-05-22T12:29:02Z</time>
      </trkpt>
      <trkpt lat="45.31256" lon="5.87751">
        <ele>1185.2</ele>
        <time>2016-05-22T12:29:03Z</time>
      </trkpt>
      <trkpt lat="45.31258" lon="5.87752">
        <ele>1184.6</ele>
        <time>2016-05-22T12:29:04Z</time>
      </trkpt>
      <trkpt lat="45.3126" lon="5.87753">
        <ele>1184.2</ele>
        <time>2016-05-22T12:29:05Z</time>
      </trkpt>
      <trkpt lat="45.31262" lon="5.87754">
        <ele>1183.7</ele>
        <time>2016-05-22T12:29:06Z</time>
      </trkpt>
      <trkpt lat="45.31263" lon="5.87755">
        <ele>1183.2</ele>
        <time>2016-05-22T12:29:07Z</time>
      </trkpt>
      <trkpt lat="45.31264" lon="5.87758">
        <ele>1182.5</ele>
        <time>2016-05-22T12:29:08Z</time>
      </trkpt>
      <trkpt lat="45.31264" lon="5.8776">
        <ele>1182</ele>
        <time>2016-05-22T12:29:09Z</time>
      </trkpt>
      <trkpt lat="45.31263" lon="5.87761">
        <ele>1181.6</ele>
        <time>2016-05-22T12:29:10Z</time>
      </trkpt>
      <trkpt lat="45.31263" lon="5.87762">
        <ele>1181.5</ele>
        <time>2016-05-22T12:29:11Z</time>
      </trkpt>
      <trkpt lat="45.31264" lon="5.87762">
        <ele>1181.4</ele>
        <time>2016-05-22T12:29:12Z</time>
      </trkpt>
      <trkpt lat="45.31264" lon="5.87762">
        <ele>1181.3</ele>
        <time>2016-05-22T12:29:13Z</time>
      </trkpt>
      <trkpt lat="45.31264" lon="5.8776">
        <ele>1181.9</ele>
        <time>2016-05-22T12:29:14Z</time>
      </trkpt>
      <trkpt lat="45.31263" lon="5.87762">
        <ele>1181.6</ele>
        <time>2016-05-22T12:29:15Z</time>
      </trkpt>
      <trkpt lat="45.31262" lon="5.87763">
        <ele>1181.2</ele>
        <time>2016-05-22T12:29:16Z</time>
      </trkpt>
      <trkpt lat="45.31261" lon="5.87766">
        <ele>1180.5</ele>
        <time>2016-05-22T12:29:17Z</time>
      </trkpt>
      <trkpt lat="45.31261" lon="5.8777">
        <ele>1179.6</ele>
        <time>2016-05-22T12:29:18Z</time>
      </trkpt>
      <trkpt lat="45.31262" lon="5.87775">
        <ele>1178.2</ele>
        <time>2016-05-22T12:29:19Z</time>
      </trkpt>
      <trkpt lat="45.31263" lon="5.87781">
        <ele>1176.7</ele>
        <time>2016-05-22T12:29:20Z</time>
      </trkpt>
      <trkpt lat="45.31264" lon="5.87786">
        <ele>1175.1</ele>
        <time>2016-05-22T12:29:21Z</time>
      </trkpt>
      <trkpt lat="45.31264" lon="5.87789">
        <ele>1174.5</ele>
        <time>2016-05-22T12:29:22Z</time>
      </trkpt>
      <trkpt lat="45.31265" lon="5.8779">
        <ele>1174.2</ele>
        <time>2016-05-22T12:29:23Z</time>
      </trkpt>
      <trkpt lat="45.31265" lon="5.8779">
        <ele>1174</ele>
        <time>2016-05-22T12:29:24Z</time>
      </trkpt>
      <trkpt lat="45.31266" lon="5.87791">
        <ele>1173.8</ele>
        <time>2016-05-22T12:29:25Z</time>
      </trkpt>
      <trkpt lat="45.31266" lon="5.87791">
        <ele>1173.7</ele>
        <time>2016-05-22T12:29:26Z</time>
      </trkpt>
      <trkpt lat="45.31266" lon="5.87792">
        <ele>1173.6</ele>
        <time>2016-05-22T12:29:27Z</time>
      </trkpt>
      <trkpt lat="45.31266" lon="5.87793">
        <ele>1173.3</ele>
        <time>2016-05-22T12:29:28Z</time>
      </trkpt>
      <trkpt lat="45.31268" lon="5.87796">
        <ele>1172.4</ele>
        <time>2016-05-22T12:29:29Z</time>
      </trkpt>
      <trkpt lat="45.31268" lon="5.87797">
        <ele>1172</ele>
        <time>2016-05-22T12:29:30Z</time>
      </trkpt>
      <trkpt lat="45.31269" lon="5.87798">
        <ele>1171.8</ele>
        <time>2016-05-22T12:29:31Z</time>
      </trkpt>
      <trkpt lat="45.31269" lon="5.87798">
        <ele>1171.6</ele>
        <time>2016-05-22T12:29:32Z</time>
      </trkpt>
      <trkpt lat="45.31269" lon="5.87799">
        <ele>1171.5</ele>
        <time>2016-05-22T12:29:33Z</time>
      </trkpt>
      <trkpt lat="45.31269" lon="5.87799">
        <ele>1171.3</ele>
        <time>2016-05-22T12:29:34Z</time>
      </trkpt>
      <trkpt lat="45.3127" lon="5.87801">
        <ele>1170.8</ele>
        <time>2016-05-22T12:29:35Z</time>
      </trkpt>
      <trkpt lat="45.3127" lon="5.87803">
        <ele>1170.4</ele>
        <time>2016-05-22T12:29:36Z</time>
      </trkpt>
      <trkpt lat="45.31269" lon="5.87803">
        <ele>1170.4</ele>
        <time>2016-05-22T12:29:37Z</time>
      </trkpt>
      <trkpt lat="45.31269" lon="5.87803">
        <ele>1170.3</ele>
        <time>2016-05-22T12:29:38Z</time>
      </trkpt>
      <trkpt lat="45.31269" lon="5.87803">
        <ele>1170.3</ele>
        <time>2016-05-22T12:29:39Z</time>
      </trkpt>
      <trkpt lat="45.31269" lon="5.87804">
        <ele>1170.2</ele>
        <time>2016-05-22T12:29:40Z</time>
      </trkpt>
      <trkpt lat="45.31268" lon="5.87804">
        <ele>1170.3</ele>
        <time>2016-05-22T12:29:41Z</time>
      </trkpt>
      <trkpt lat="45.31268" lon="5.87803">
        <ele>1170.4</ele>
        <time>2016-05-22T12:29:42Z</time>
      </trkpt>
      <trkpt lat="45.31268" lon="5.87803">
        <ele>1170.5</ele>
        <time>2016-05-22T12:29:43Z</time>
      </trkpt>
      <trkpt lat="45.31268" lon="5.87803">
        <ele>1170.6</ele>
        <time>2016-05-22T12:29:44Z</time>
      </trkpt>
      <trkpt lat="45.31268" lon="5.87803">
        <ele>1170.5</ele>
        <time>2016-05-22T12:29:45Z</time>
      </trkpt>
      <trkpt lat="45.31269" lon="5.87803">
        <ele>1170.5</ele>
        <time>2016-05-22T12:29:46Z</time>
      </trkpt>
      <trkpt lat="45.31269" lon="5.87803">
        <ele>1170.3</ele>
        <time>2016-05-22T12:29:47Z</time>
      </trkpt>
      <trkpt lat="45.31269" lon="5.87804">
        <ele>1170.2</ele>
        <time>2016-05-22T12:29:48Z</time>
      </trkpt>
      <trkpt lat="45.31268" lon="5.87804">
        <ele>1170.2</ele>
        <time>2016-05-22T12:29:49Z</time>
      </trkpt>
      <trkpt lat="45.31268" lon="5.87803">
        <ele>1170.4</ele>
        <time>2016-05-22T12:29:50Z</time>
      </trkpt>
      <trkpt lat="45.31268" lon="5.87803">
        <ele>1170.5</ele>
        <time>2016-05-22T12:29:51Z</time>
      </trkpt>
      <trkpt lat="45.31268" lon="5.87803">
        <ele>1170.6</ele>
        <time>2016-05-22T12:29:52Z</time>
      </trkpt>
      <trkpt lat="45.31268" lon="5.87802">
        <ele>1170.8</ele>
        <time>2016-05-22T12:29:53Z</time>
      </trkpt>
      <trkpt lat="45.31267" lon="5.87801">
        <ele>1171</ele>
        <time>2016-05-22T12:29:54Z</time>
      </trkpt>
      <trkpt lat="45.31267" lon="5.87801">
        <ele>1171.1</ele>
        <time>2016-05-22T12:29:55Z</time>
      </trkpt>
      <trkpt lat="45.31267" lon="5.87801">
        <ele>1171.1</ele>
        <time>2016-05-22T12:29:56Z</time>
      </trkpt>
      <trkpt lat="45.31267" lon="5.87801">
        <ele>1171.1</ele>
        <time>2016-05-22T12:29:57Z</time>
      </trkpt>
      <trkpt lat="45.31267" lon="5.87801">
        <ele>1171.2</ele>
        <time>2016-05-22T12:29:58Z</time>
      </trkpt>
      <trkpt lat="45.31267" lon="5.87801">
        <ele>1171</ele>
        <time>2016-05-22T12:29:59Z</time>
      </trkpt>
      <trkpt lat="45.31267" lon="5.87802">
        <ele>1170.9</ele>
        <time>2016-05-22T12:30:00Z</time>
      </trkpt>
      <trkpt lat="45.31267" lon="5.87803">
        <ele>1170.6</ele>
        <time>2016-05-22T12:30:01Z</time>
      </trkpt>
      <trkpt lat="45.31267" lon="5.87804">
        <ele>1170.4</ele>
        <time>2016-05-22T12:30:02Z</time>
      </trkpt>
      <trkpt lat="45.31267" lon="5.87805">
        <ele>1170.2</ele>
        <time>2016-05-22T12:30:03Z</time>
      </trkpt>
      <trkpt lat="45.31267" lon="5.87805">
        <ele>1170</ele>
        <time>2016-05-22T12:30:04Z</time>
      </trkpt>
      <trkpt lat="45.31267" lon="5.87805">
        <ele>1170</ele>
        <time>2016-05-22T12:30:05Z</time>
      </trkpt>
      <trkpt lat="45.31267" lon="5.87805">
        <ele>1170.1</ele>
        <time>2016-05-22T12:30:06Z</time>
      </trkpt>
      <trkpt lat="45.31267" lon="5.87805">
        <ele>1170.1</ele>
        <time>2016-05-22T12:30:07Z</time>
      </trkpt>
      <trkpt lat="45.31266" lon="5.87805">
        <ele>1170.1</ele>
        <time>2016-05-22T12:30:08Z</time>
      </trkpt>
      <trkpt lat="45.31266" lon="5.87805">
        <ele>1170.1</ele>
        <time>2016-05-22T12:30:09Z</time>
      </trkpt>
      <trkpt lat="45.31266" lon="5.87805">
        <ele>1170.1</ele>
        <time>2016-05-22T12:30:10Z</time>
      </trkpt>
      <trkpt lat="45.31266" lon="5.87805">
        <ele>1170.1</ele>
        <time>2016-05-22T12:30:11Z</time>
      </trkpt>
      <trkpt lat="45.31266" lon="5.87805">
        <ele>1170.1</ele>
        <time>2016-05-22T12:30:12Z</time>
      </trkpt>
      <trkpt lat="45.31266" lon="5.87806">
        <ele>1170</ele>
        <time>2016-05-22T12:30:13Z</time>
      </trkpt>
      <trkpt lat="45.31266" lon="5.87806">
        <ele>1170</ele>
        <time>2016-05-22T12:30:14Z</time>
      </trkpt>
      <trkpt lat="45.31266" lon="5.87806">
        <ele>1169.9</ele>
        <time>2016-05-22T12:30:15Z</time>
      </trkpt>
      <trkpt lat="45.31266" lon="5.87806">
        <ele>1169.8</ele>
        <time>2016-05-22T12:30:16Z</time>
      </trkpt>
      <trkpt lat="45.31266" lon="5.87807">
        <ele>1169.7</ele>
        <time>2016-05-22T12:30:17Z</time>
      </trkpt>
      <trkpt lat="45.31266" lon="5.87807">
        <ele>1169.7</ele>
        <time>2016-05-22T12:30:18Z</time>
      </trkpt>
      <trkpt lat="45.31266" lon="5.87806">
        <ele>1170</ele>
        <time>2016-05-22T12:30:19Z</time>
      </trkpt>
      <trkpt lat="45.31266" lon="5.87805">
        <ele>1170</ele>
        <time>2016-05-22T12:30:20Z</time>
      </trkpt>
      <trkpt lat="45.31266" lon="5.87805">
        <ele>1170.3</ele>
        <time>2016-05-22T12:30:21Z</time>
      </trkpt>
      <trkpt lat="45.31265" lon="5.87804">
        <ele>1170.4</ele>
        <time>2016-05-22T12:30:22Z</time>
      </trkpt>
      <trkpt lat="45.31265" lon="5.87804">
        <ele>1170.6</ele>
        <time>2016-05-22T12:30:23Z</time>
      </trkpt>
      <trkpt lat="45.31265" lon="5.87802">
        <ele>1170.9</ele>
        <time>2016-05-22T12:30:24Z</time>
      </trkpt>
      <trkpt lat="45.31266" lon="5.87801">
        <ele>1171.2</ele>
        <time>2016-05-22T12:30:25Z</time>
      </trkpt>
      <trkpt lat="45.31265" lon="5.878">
        <ele>1171.5</ele>
        <time>2016-05-22T12:30:26Z</time>
      </trkpt>
      <trkpt lat="45.31265" lon="5.87799">
        <ele>1171.9</ele>
        <time>2016-05-22T12:30:27Z</time>
      </trkpt>
      <trkpt lat="45.31265" lon="5.87798">
        <ele>1172.1</ele>
        <time>2016-05-22T12:30:28Z</time>
      </trkpt>
      <trkpt lat="45.31264" lon="5.87797">
        <ele>1172.5</ele>
        <time>2016-05-22T12:30:29Z</time>
      </trkpt>
      <trkpt lat="45.31265" lon="5.87795">
        <ele>1172.8</ele>
        <time>2016-05-22T12:30:30Z</time>
      </trkpt>
      <trkpt lat="45.31265" lon="5.87795">
        <ele>1173</ele>
        <time>2016-05-22T12:30:31Z</time>
      </trkpt>
      <trkpt lat="45.31266" lon="5.87794">
        <ele>1173</ele>
        <time>2016-05-22T12:30:32Z</time>
      </trkpt>
      <trkpt lat="45.31265" lon="5.87794">
        <ele>1173.1</ele>
        <time>2016-05-22T12:30:33Z</time>
      </trkpt>
      <trkpt lat="45.31265" lon="5.87793">
        <ele>1173.3</ele>
        <time>2016-05-22T12:30:34Z</time>
      </trkpt>
      <trkpt lat="45.31266" lon="5.87793">
        <ele>1173.4</ele>
        <time>2016-05-22T12:30:35Z</time>
      </trkpt>
      <trkpt lat="45.31268" lon="5.87793">
        <ele>1173</ele>
        <time>2016-05-22T12:30:36Z</time>
      </trkpt>
      <trkpt lat="45.31269" lon="5.87793">
        <ele>1173</ele>
        <time>2016-05-22T12:30:37Z</time>
      </trkpt>
      <trkpt lat="45.31269" lon="5.87793">
        <ele>1172.9</ele>
        <time>2016-05-22T12:30:38Z</time>
      </trkpt>
      <trkpt lat="45.31269" lon="5.87793">
        <ele>1172.8</ele>
        <time>2016-05-22T12:30:39Z</time>
      </trkpt>
      <trkpt lat="45.3127" lon="5.87795">
        <ele>1172.5</ele>
        <time>2016-05-22T12:30:40Z</time>
      </trkpt>
      <trkpt lat="45.31271" lon="5.87796">
        <ele>1171.9</ele>
        <time>2016-05-22T12:30:41Z</time>
      </trkpt>
      <trkpt lat="45.31272" lon="5.87798">
        <ele>1171.3</ele>
        <time>2016-05-22T12:30:42Z</time>
      </trkpt>
      <trkpt lat="45.31274" lon="5.87801">
        <ele>1170.4</ele>
        <time>2016-05-22T12:30:43Z</time>
      </trkpt>
      <trkpt lat="45.31277" lon="5.87803">
        <ele>1169.6</ele>
        <time>2016-05-22T12:30:44Z</time>
      </trkpt>
      <trkpt lat="45.31281" lon="5.87805">
        <ele>1168.9</ele>
        <time>2016-05-22T12:30:45Z</time>
      </trkpt>
      <trkpt lat="45.31285" lon="5.87806">
        <ele>1168.4</ele>
        <time>2016-05-22T12:30:46Z</time>
      </trkpt>
      <trkpt lat="45.31291" lon="5.87809">
        <ele>1167.1</ele>
        <time>2016-01-17T15:11:01Z</time>
      </trkpt>
      <trkpt lat="45.31337" lon="5.8784">
        <ele>1155.3</ele>
        <time>2016-01-17T15:11:01Z</time>
      </trkpt>
      <trkpt lat="45.31372" lon="5.87859">
        <ele>1141.1</ele>
        <time>2016-01-17T15:11:01Z</time>
      </trkpt>
      <trkpt lat="45.31367" lon="5.87854">
        <ele>1143.6</ele>
        <time>2016-05-22T12:31:12Z</time>
      </trkpt>
      <trkpt lat="45.31366" lon="5.87855">
        <ele>1143.5</ele>
        <time>2016-05-22T12:31:13Z</time>
      </trkpt>
      <trkpt lat="45.31366" lon="5.87855">
        <ele>1143.4</ele>
        <time>2016-05-22T12:31:14Z</time>
      </trkpt>
      <trkpt lat="45.31367" lon="5.87855">
        <ele>1143.5</ele>
        <time>2016-05-22T12:31:15Z</time>
      </trkpt>
      <trkpt lat="45.31367" lon="5.87855">
        <ele>1143.4</ele>
        <time>2016-05-22T12:31:16Z</time>
      </trkpt>
      <trkpt lat="45.31367" lon="5.87855">
        <ele>1143.2</ele>
        <time>2016-05-22T12:31:17Z</time>
      </trkpt>
      <trkpt lat="45.31367" lon="5.87856">
        <ele>1143.1</ele>
        <time>2016-05-22T12:31:18Z</time>
      </trkpt>
      <trkpt lat="45.31368" lon="5.87856">
        <ele>1142.9</ele>
        <time>2016-05-22T12:31:19Z</time>
      </trkpt>
      <trkpt lat="45.31368" lon="5.87857">
        <ele>1142.7</ele>
        <time>2016-05-22T12:31:20Z</time>
      </trkpt>
      <trkpt lat="45.31368" lon="5.87857">
        <ele>1142.6</ele>
        <time>2016-05-22T12:31:21Z</time>
      </trkpt>
      <trkpt lat="45.31368" lon="5.87857">
        <ele>1142.4</ele>
        <time>2016-05-22T12:31:22Z</time>
      </trkpt>
      <trkpt lat="45.31369" lon="5.87859">
        <ele>1141.9</ele>
        <time>2016-05-22T12:31:23Z</time>
      </trkpt>
      <trkpt lat="45.3137" lon="5.87861">
        <ele>1140.9</ele>
        <time>2016-05-22T12:31:24Z</time>
      </trkpt>
      <trkpt lat="45.31371" lon="5.87865">
        <ele>1140</ele>
        <time>2016-05-22T12:31:25Z</time>
      </trkpt>
      <trkpt lat="45.3137" lon="5.87869">
        <ele>1139.3</ele>
        <time>2016-05-22T12:31:26Z</time>
      </trkpt>
      <trkpt lat="45.31368" lon="5.87873">
        <ele>1138.7</ele>
        <time>2016-05-22T12:31:27Z</time>
      </trkpt>
      <trkpt lat="45.31367" lon="5.87877">
        <ele>1138</ele>
        <time>2016-05-22T12:31:28Z</time>
      </trkpt>
      <trkpt lat="45.31367" lon="5.87881">
        <ele>1137.3</ele>
        <time>2016-05-22T12:31:29Z</time>
      </trkpt>
      <trkpt lat="45.31366" lon="5.87885">
        <ele>1136.3</ele>
        <time>2016-05-22T12:31:30Z</time>
      </trkpt>
      <trkpt lat="45.31366" lon="5.87889">
        <ele>1135.6</ele>
        <time>2016-05-22T12:31:31Z</time>
      </trkpt>
      <trkpt lat="45.31365" lon="5.87894">
        <ele>1134.8</ele>
        <time>2016-05-22T12:31:32Z</time>
      </trkpt>
      <trkpt lat="45.31365" lon="5.87898">
        <ele>1133.9</ele>
        <time>2016-05-22T12:31:33Z</time>
      </trkpt>
      <trkpt lat="45.31365" lon="5.87901">
        <ele>1132.9</ele>
        <time>2016-05-22T12:31:34Z</time>
      </trkpt>
      <trkpt lat="45.31367" lon="5.87904">
        <ele>1131.8</ele>
        <time>2016-05-22T12:31:35Z</time>
      </trkpt>
      <trkpt lat="45.3137" lon="5.87906">
        <ele>1130.6</ele>
        <time>2016-05-22T12:31:36Z</time>
      </trkpt>
      <trkpt lat="45.31373" lon="5.8791">
        <ele>1128.7</ele>
        <time>2016-05-22T12:31:37Z</time>
      </trkpt>
      <trkpt lat="45.31376" lon="5.87915">
        <ele>1126.7</ele>
        <time>2016-05-22T12:31:38Z</time>
      </trkpt>
      <trkpt lat="45.31378" lon="5.87922">
        <ele>1124.3</ele>
        <time>2016-05-22T12:31:39Z</time>
      </trkpt>
      <trkpt lat="45.31379" lon="5.87928">
        <ele>1122.4</ele>
        <time>2016-05-22T12:31:40Z</time>
      </trkpt>
      <trkpt lat="45.31381" lon="5.87933">
        <ele>1120.5</ele>
        <time>2016-05-22T12:31:41Z</time>
      </trkpt>
      <trkpt lat="45.31381" lon="5.87938">
        <ele>1119</ele>
        <time>2016-05-22T12:31:42Z</time>
      </trkpt>
      <trkpt lat="45.31382" lon="5.87941">
        <ele>1118</ele>
        <time>2016-05-22T12:31:43Z</time>
      </trkpt>
      <trkpt lat="45.31384" lon="5.87943">
        <ele>1117.2</ele>
        <time>2016-05-22T12:31:44Z</time>
      </trkpt>
      <trkpt lat="45.31385" lon="5.87944">
        <ele>1116.5</ele>
        <time>2016-05-22T12:31:45Z</time>
      </trkpt>
      <trkpt lat="45.31386" lon="5.87945">
        <ele>1116.1</ele>
        <time>2016-05-22T12:31:46Z</time>
      </trkpt>
      <trkpt lat="45.31388" lon="5.87945">
        <ele>1115.6</ele>
        <time>2016-05-22T12:31:47Z</time>
      </trkpt>
      <trkpt lat="45.3139" lon="5.87946">
        <ele>1114.8</ele>
        <time>2016-05-22T12:31:48Z</time>
      </trkpt>
      <trkpt lat="45.31392" lon="5.87948">
        <ele>1113.7</ele>
        <time>2016-05-22T12:31:49Z</time>
      </trkpt>
      <trkpt lat="45.31394" lon="5.8795">
        <ele>1112.8</ele>
        <time>2016-05-22T12:31:50Z</time>
      </trkpt>
      <trkpt lat="45.31394" lon="5.8795">
        <ele>1112.8</ele>
        <time>2016-05-22T12:31:51Z</time>
      </trkpt>
      <trkpt lat="45.31392" lon="5.87952">
        <ele>1112.7</ele>
        <time>2016-05-22T12:31:52Z</time>
      </trkpt>
      <trkpt lat="45.31392" lon="5.87953">
        <ele>1112.4</ele>
        <time>2016-05-22T12:31:53Z</time>
      </trkpt>
      <trkpt lat="45.31393" lon="5.87956">
        <ele>1111.4</ele>
        <time>2016-05-22T12:31:54Z</time>
      </trkpt>
      <trkpt lat="45.31394" lon="5.87959">
        <ele>1110.4</ele>
        <time>2016-05-22T12:31:55Z</time>
      </trkpt>
      <trkpt lat="45.31394" lon="5.87963">
        <ele>1109.3</ele>
        <time>2016-05-22T12:31:56Z</time>
      </trkpt>
      <trkpt lat="45.31394" lon="5.87968">
        <ele>1108.1</ele>
        <time>2016-05-22T12:31:57Z</time>
      </trkpt>
      <trkpt lat="45.31393" lon="5.87975">
        <ele>1106.5</ele>
        <time>2016-05-22T12:31:58Z</time>
      </trkpt>
      <trkpt lat="45.31392" lon="5.87982">
        <ele>1104.8</ele>
        <time>2016-05-22T12:31:59Z</time>
      </trkpt>
      <trkpt lat="45.31391" lon="5.87988">
        <ele>1103.4</ele>
        <time>2016-05-22T12:32:00Z</time>
      </trkpt>
      <trkpt lat="45.3139" lon="5.87993">
        <ele>1102.3</ele>
        <time>2016-05-22T12:32:01Z</time>
      </trkpt>
      <trkpt lat="45.31389" lon="5.87998">
        <ele>1101.3</ele>
        <time>2016-05-22T12:32:02Z</time>
      </trkpt>
      <trkpt lat="45.31389" lon="5.88002">
        <ele>1100.4</ele>
        <time>2016-05-22T12:32:03Z</time>
      </trkpt>
      <trkpt lat="45.31388" lon="5.88006">
        <ele>1099.6</ele>
        <time>2016-05-22T12:32:04Z</time>
      </trkpt>
      <trkpt lat="45.31387" lon="5.88008">
        <ele>1099</ele>
        <time>2016-05-22T12:32:05Z</time>
      </trkpt>
      <trkpt lat="45.31388" lon="5.88009">
        <ele>1098.8</ele>
        <time>2016-05-22T12:32:06Z</time>
      </trkpt>
      <trkpt lat="45.3139" lon="5.88007">
        <ele>1098.9</ele>
        <time>2016-05-22T12:32:07Z</time>
      </trkpt>
      <trkpt lat="45.31391" lon="5.88006">
        <ele>1098.9</ele>
        <time>2016-05-22T12:32:08Z</time>
      </trkpt>
      <trkpt lat="45.31391" lon="5.88005">
        <ele>1099.2</ele>
        <time>2016-05-22T12:32:09Z</time>
      </trkpt>
      <trkpt lat="45.31391" lon="5.88004">
        <ele>1099.2</ele>
        <time>2016-05-22T12:32:10Z</time>
      </trkpt>
      <trkpt lat="45.31392" lon="5.88006">
        <ele>1098.5</ele>
        <time>2016-05-22T12:32:11Z</time>
      </trkpt>
      <trkpt lat="45.31393" lon="5.8801">
        <ele>1097.3</ele>
        <time>2016-05-22T12:32:12Z</time>
      </trkpt>
      <trkpt lat="45.31394" lon="5.88015">
        <ele>1095.8</ele>
        <time>2016-05-22T12:32:13Z</time>
      </trkpt>
      <trkpt lat="45.31394" lon="5.88018">
        <ele>1095.1</ele>
        <time>2016-05-22T12:32:14Z</time>
      </trkpt>
      <trkpt lat="45.31393" lon="5.88021">
        <ele>1094.5</ele>
        <time>2016-05-22T12:32:15Z</time>
      </trkpt>
      <trkpt lat="45.31394" lon="5.88023">
        <ele>1093.8</ele>
        <time>2016-05-22T12:32:16Z</time>
      </trkpt>
      <trkpt lat="45.31394" lon="5.88025">
        <ele>1093.2</ele>
        <time>2016-05-22T12:32:17Z</time>
      </trkpt>
      <trkpt lat="45.31395" lon="5.88026">
        <ele>1092.9</ele>
        <time>2016-05-22T12:32:18Z</time>
      </trkpt>
      <trkpt lat="45.31396" lon="5.88027">
        <ele>1092.4</ele>
        <time>2016-05-22T12:32:19Z</time>
      </trkpt>
      <trkpt lat="45.31398" lon="5.88027">
        <ele>1092</ele>
        <time>2016-05-22T12:32:20Z</time>
      </trkpt>
      <trkpt lat="45.31398" lon="5.88026">
        <ele>1092.2</ele>
        <time>2016-05-22T12:32:21Z</time>
      </trkpt>
      <trkpt lat="45.31399" lon="5.88025">
        <ele>1092.3</ele>
        <time>2016-05-22T12:32:22Z</time>
      </trkpt>
      <trkpt lat="45.31402" lon="5.88025">
        <ele>1091.7</ele>
        <time>2016-05-22T12:32:23Z</time>
      </trkpt>
      <trkpt lat="45.31406" lon="5.88025">
        <ele>1091</ele>
        <time>2016-05-22T12:32:24Z</time>
      </trkpt>
      <trkpt lat="45.31408" lon="5.88028">
        <ele>1089.8</ele>
        <time>2016-05-22T12:32:25Z</time>
      </trkpt>
      <trkpt lat="45.3141" lon="5.88031">
        <ele>1088.7</ele>
        <time>2016-05-22T12:32:26Z</time>
      </trkpt>
      <trkpt lat="45.31411" lon="5.88035">
        <ele>1087.5</ele>
        <time>2016-05-22T12:32:27Z</time>
      </trkpt>
      <trkpt lat="45.31413" lon="5.88046">
        <ele>1084.3</ele>
        <time>2016-05-22T12:32:28Z</time>
      </trkpt>
      <trkpt lat="45.31412" lon="5.88054">
        <ele>1082.3</ele>
        <time>2016-05-22T12:32:29Z</time>
      </trkpt>
      <trkpt lat="45.3141" lon="5.88062">
        <ele>1080.6</ele>
        <time>2016-05-22T12:32:30Z</time>
      </trkpt>
      <trkpt lat="45.31409" lon="5.8807">
        <ele>1078.8</ele>
        <time>2016-05-22T12:32:31Z</time>
      </trkpt>
      <trkpt lat="45.31408" lon="5.88078">
        <ele>1077.2</ele>
        <time>2016-05-22T12:32:32Z</time>
      </trkpt>
      <trkpt lat="45.31407" lon="5.88083">
        <ele>1076.1</ele>
        <time>2016-05-22T12:32:33Z</time>
      </trkpt>
      <trkpt lat="45.31407" lon="5.88087">
        <ele>1075.1</ele>
        <time>2016-05-22T12:32:34Z</time>
      </trkpt>
      <trkpt lat="45.31408" lon="5.88091">
        <ele>1074.2</ele>
        <time>2016-05-22T12:32:35Z</time>
      </trkpt>
      <trkpt lat="45.31408" lon="5.88094">
        <ele>1073.4</ele>
        <time>2016-05-22T12:32:36Z</time>
      </trkpt>
      <trkpt lat="45.31409" lon="5.88096">
        <ele>1073</ele>
        <time>2016-05-22T12:32:37Z</time>
      </trkpt>
      <trkpt lat="45.31408" lon="5.88097">
        <ele>1072.8</ele>
        <time>2016-05-22T12:32:38Z</time>
      </trkpt>
      <trkpt lat="45.31408" lon="5.88098">
        <ele>1072.6</ele>
        <time>2016-05-22T12:32:39Z</time>
      </trkpt>
      <trkpt lat="45.31408" lon="5.88098">
        <ele>1072.6</ele>
        <time>2016-05-22T12:32:40Z</time>
      </trkpt>
      <trkpt lat="45.31408" lon="5.88098">
        <ele>1072.6</ele>
        <time>2016-05-22T12:32:41Z</time>
      </trkpt>
      <trkpt lat="45.31408" lon="5.88098">
        <ele>1072.6</ele>
        <time>2016-05-22T12:32:42Z</time>
      </trkpt>
      <trkpt lat="45.31409" lon="5.88098">
        <ele>1072.4</ele>
        <time>2016-05-22T12:32:43Z</time>
      </trkpt>
      <trkpt lat="45.31409" lon="5.88098">
        <ele>1072.4</ele>
        <time>2016-05-22T12:32:44Z</time>
      </trkpt>
      <trkpt lat="45.3141" lon="5.88098">
        <ele>1072.4</ele>
        <time>2016-05-22T12:32:45Z</time>
      </trkpt>
      <trkpt lat="45.3141" lon="5.88098">
        <ele>1072.4</ele>
        <time>2016-05-22T12:32:46Z</time>
      </trkpt>
      <trkpt lat="45.3141" lon="5.88097">
        <ele>1072.4</ele>
        <time>2016-05-22T12:32:47Z</time>
      </trkpt>
      <trkpt lat="45.3141" lon="5.88097">
        <ele>1072.5</ele>
        <time>2016-05-22T12:32:48Z</time>
      </trkpt>
      <trkpt lat="45.31412" lon="5.88098">
        <ele>1072</ele>
        <time>2016-05-22T12:32:49Z</time>
      </trkpt>
      <trkpt lat="45.31413" lon="5.88098">
        <ele>1071.8</ele>
        <time>2016-05-22T12:32:50Z</time>
      </trkpt>
      <trkpt lat="45.31413" lon="5.88098">
        <ele>1071.7</ele>
        <time>2016-05-22T12:32:51Z</time>
      </trkpt>
      <trkpt lat="45.31414" lon="5.88099">
        <ele>1071.7</ele>
        <time>2016-05-22T12:32:52Z</time>
      </trkpt>
      <trkpt lat="45.31414" lon="5.88099">
        <ele>1071.6</ele>
        <time>2016-05-22T12:32:53Z</time>
      </trkpt>
      <trkpt lat="45.31415" lon="5.88099">
        <ele>1071.2</ele>
        <time>2016-05-22T12:32:54Z</time>
      </trkpt>
      <trkpt lat="45.31416" lon="5.881">
        <ele>1071</ele>
        <time>2016-05-22T12:32:55Z</time>
      </trkpt>
      <trkpt lat="45.31418" lon="5.88101">
        <ele>1070.8</ele>
        <time>2016-05-22T12:32:56Z</time>
      </trkpt>
      <trkpt lat="45.31421" lon="5.88101">
        <ele>1070.8</ele>
        <time>2016-05-22T12:32:57Z</time>
      </trkpt>
      <trkpt lat="45.31423" lon="5.88103">
        <ele>1070.6</ele>
        <time>2016-05-22T12:32:58Z</time>
      </trkpt>
      <trkpt lat="45.31425" lon="5.88105">
        <ele>1070.3</ele>
        <time>2016-05-22T12:32:59Z</time>
      </trkpt>
      <trkpt lat="45.31428" lon="5.88109">
        <ele>1069.7</ele>
        <time>2016-05-22T12:33:00Z</time>
      </trkpt>
      <trkpt lat="45.3143" lon="5.88112">
        <ele>1069.1</ele>
        <time>2016-05-22T12:33:01Z</time>
      </trkpt>
      <trkpt lat="45.31433" lon="5.88116">
        <ele>1068.5</ele>
        <time>2016-05-22T12:33:02Z</time>
      </trkpt>
      <trkpt lat="45.31436" lon="5.88119">
        <ele>1067.9</ele>
        <time>2016-05-22T12:33:03Z</time>
      </trkpt>
      <trkpt lat="45.31437" lon="5.88123">
        <ele>1067.2</ele>
        <time>2016-05-22T12:33:04Z</time>
      </trkpt>
      <trkpt lat="45.31439" lon="5.88128">
        <ele>1066.3</ele>
        <time>2016-05-22T12:33:05Z</time>
      </trkpt>
      <trkpt lat="45.31441" lon="5.88133">
        <ele>1065.2</ele>
        <time>2016-05-22T12:33:06Z</time>
      </trkpt>
      <trkpt lat="45.31441" lon="5.88137">
        <ele>1064.4</ele>
        <time>2016-05-22T12:33:07Z</time>
      </trkpt>
      <trkpt lat="45.3144" lon="5.8814">
        <ele>1063.7</ele>
        <time>2016-05-22T12:33:08Z</time>
      </trkpt>
      <trkpt lat="45.31439" lon="5.88143">
        <ele>1063.1</ele>
        <time>2016-05-22T12:33:09Z</time>
      </trkpt>
      <trkpt lat="45.31436" lon="5.88147">
        <ele>1062.2</ele>
        <time>2016-05-22T12:33:10Z</time>
      </trkpt>
      <trkpt lat="45.31435" lon="5.88151">
        <ele>1061.4</ele>
        <time>2016-05-22T12:33:11Z</time>
      </trkpt>
      <trkpt lat="45.31434" lon="5.88156">
        <ele>1060.4</ele>
        <time>2016-05-22T12:33:12Z</time>
      </trkpt>
      <trkpt lat="45.31434" lon="5.88161">
        <ele>1059.4</ele>
        <time>2016-05-22T12:33:13Z</time>
      </trkpt>
      <trkpt lat="45.31435" lon="5.88166">
        <ele>1058.5</ele>
        <time>2016-05-22T12:33:14Z</time>
      </trkpt>
      <trkpt lat="45.31435" lon="5.88169">
        <ele>1057.7</ele>
        <time>2016-05-22T12:33:15Z</time>
      </trkpt>
      <trkpt lat="45.31437" lon="5.88171">
        <ele>1057.3</ele>
        <time>2016-05-22T12:33:16Z</time>
      </trkpt>
      <trkpt lat="45.3144" lon="5.88175">
        <ele>1056.6</ele>
        <time>2016-05-22T12:33:17Z</time>
      </trkpt>
      <trkpt lat="45.31444" lon="5.88178">
        <ele>1056</ele>
        <time>2016-05-22T12:33:18Z</time>
      </trkpt>
      <trkpt lat="45.31448" lon="5.88184">
        <ele>1054.9</ele>
        <time>2016-05-22T12:33:19Z</time>
      </trkpt>
      <trkpt lat="45.31449" lon="5.88188">
        <ele>1054.2</ele>
        <time>2016-05-22T12:33:20Z</time>
      </trkpt>
      <trkpt lat="45.31449" lon="5.88191">
        <ele>1053.4</ele>
        <time>2016-05-22T12:33:21Z</time>
      </trkpt>
      <trkpt lat="45.31448" lon="5.88195">
        <ele>1052.6</ele>
        <time>2016-05-22T12:33:22Z</time>
      </trkpt>
      <trkpt lat="45.31448" lon="5.882">
        <ele>1051.7</ele>
        <time>2016-05-22T12:33:23Z</time>
      </trkpt>
      <trkpt lat="45.31447" lon="5.88205">
        <ele>1050.6</ele>
        <time>2016-05-22T12:33:24Z</time>
      </trkpt>
      <trkpt lat="45.31447" lon="5.8821">
        <ele>1049.5</ele>
        <time>2016-05-22T12:33:25Z</time>
      </trkpt>
      <trkpt lat="45.31445" lon="5.88215">
        <ele>1048.4</ele>
        <time>2016-05-22T12:33:26Z</time>
      </trkpt>
      <trkpt lat="45.31444" lon="5.8822">
        <ele>1047.4</ele>
        <time>2016-05-22T12:33:27Z</time>
      </trkpt>
      <trkpt lat="45.31444" lon="5.88225">
        <ele>1046.4</ele>
        <time>2016-05-22T12:33:28Z</time>
      </trkpt>
      <trkpt lat="45.31446" lon="5.88228">
        <ele>1045.6</ele>
        <time>2016-05-22T12:33:29Z</time>
      </trkpt>
      <trkpt lat="45.31449" lon="5.88233">
        <ele>1044.8</ele>
        <time>2016-05-22T12:33:30Z</time>
      </trkpt>
      <trkpt lat="45.31452" lon="5.88238">
        <ele>1043.9</ele>
        <time>2016-05-22T12:33:31Z</time>
      </trkpt>
      <trkpt lat="45.31454" lon="5.88244">
        <ele>1042.8</ele>
        <time>2016-05-22T12:33:32Z</time>
      </trkpt>
      <trkpt lat="45.31455" lon="5.88252">
        <ele>1041.1</ele>
        <time>2016-05-22T12:33:33Z</time>
      </trkpt>
      <trkpt lat="45.31457" lon="5.8826">
        <ele>1038.9</ele>
        <time>2016-05-22T12:33:34Z</time>
      </trkpt>
      <trkpt lat="45.31458" lon="5.88267">
        <ele>1037.3</ele>
        <time>2016-05-22T12:33:35Z</time>
      </trkpt>
      <trkpt lat="45.31458" lon="5.88274">
        <ele>1035.7</ele>
        <time>2016-05-22T12:33:36Z</time>
      </trkpt>
      <trkpt lat="45.31458" lon="5.88278">
        <ele>1034.5</ele>
        <time>2016-05-22T12:33:37Z</time>
      </trkpt>
      <trkpt lat="45.31458" lon="5.88282">
        <ele>1033.6</ele>
        <time>2016-05-22T12:33:38Z</time>
      </trkpt>
      <trkpt lat="45.31459" lon="5.88285">
        <ele>1032.8</ele>
        <time>2016-05-22T12:33:39Z</time>
      </trkpt>
      <trkpt lat="45.31461" lon="5.8829">
        <ele>1031.8</ele>
        <time>2016-05-22T12:33:40Z</time>
      </trkpt>
      <trkpt lat="45.3146" lon="5.88293">
        <ele>1031</ele>
        <time>2016-05-22T12:33:41Z</time>
      </trkpt>
      <trkpt lat="45.3146" lon="5.88295">
        <ele>1030.4</ele>
        <time>2016-05-22T12:33:42Z</time>
      </trkpt>
      <trkpt lat="45.3146" lon="5.88297">
        <ele>1030</ele>
        <time>2016-05-22T12:33:43Z</time>
      </trkpt>
      <trkpt lat="45.31461" lon="5.88298">
        <ele>1029.6</ele>
        <time>2016-05-22T12:33:44Z</time>
      </trkpt>
      <trkpt lat="45.31461" lon="5.88301">
        <ele>1028.9</ele>
        <time>2016-05-22T12:33:45Z</time>
      </trkpt>
      <trkpt lat="45.31463" lon="5.88306">
        <ele>1027.9</ele>
        <time>2016-05-22T12:33:46Z</time>
      </trkpt>
      <trkpt lat="45.31464" lon="5.88311">
        <ele>1026.7</ele>
        <time>2016-05-22T12:33:47Z</time>
      </trkpt>
      <trkpt lat="45.31463" lon="5.88314">
        <ele>1025.8</ele>
        <time>2016-05-22T12:33:48Z</time>
      </trkpt>
      <trkpt lat="45.31462" lon="5.88318">
        <ele>1024.7</ele>
        <time>2016-05-22T12:33:49Z</time>
      </trkpt>
      <trkpt lat="45.31461" lon="5.88323">
        <ele>1023.4</ele>
        <time>2016-05-22T12:33:50Z</time>
      </trkpt>
      <trkpt lat="45.3146" lon="5.88326">
        <ele>1022.6</ele>
        <time>2016-05-22T12:33:51Z</time>
      </trkpt>
      <trkpt lat="45.3146" lon="5.88328">
        <ele>1022</ele>
        <time>2016-05-22T12:33:52Z</time>
      </trkpt>
      <trkpt lat="45.3146" lon="5.88328">
        <ele>1022.1</ele>
        <time>2016-05-22T12:33:53Z</time>
      </trkpt>
      <trkpt lat="45.31462" lon="5.8833">
        <ele>1021.9</ele>
        <time>2016-05-22T12:33:54Z</time>
      </trkpt>
      <trkpt lat="45.31463" lon="5.88331">
        <ele>1021.6</ele>
        <time>2016-05-22T12:33:55Z</time>
      </trkpt>
      <trkpt lat="45.31464" lon="5.88334">
        <ele>1020.9</ele>
        <time>2016-05-22T12:33:56Z</time>
      </trkpt>
      <trkpt lat="45.31464" lon="5.88338">
        <ele>1020</ele>
        <time>2016-05-22T12:33:57Z</time>
      </trkpt>
      <trkpt lat="45.31465" lon="5.88343">
        <ele>1018.6</ele>
        <time>2016-05-22T12:33:58Z</time>
      </trkpt>
      <trkpt lat="45.31466" lon="5.8835">
        <ele>1017</ele>
        <time>2016-05-22T12:33:59Z</time>
      </trkpt>
      <trkpt lat="45.31467" lon="5.88355">
        <ele>1015.7</ele>
        <time>2016-05-22T12:34:00Z</time>
      </trkpt>
      <trkpt lat="45.31467" lon="5.8836">
        <ele>1014.4</ele>
        <time>2016-05-22T12:34:01Z</time>
      </trkpt>
      <trkpt lat="45.31465" lon="5.88365">
        <ele>1013</ele>
        <time>2016-05-22T12:34:02Z</time>
      </trkpt>
      <trkpt lat="45.31463" lon="5.88371">
        <ele>1011.3</ele>
        <time>2016-05-22T12:34:03Z</time>
      </trkpt>
      <trkpt lat="45.31462" lon="5.88381">
        <ele>1008.6</ele>
        <time>2016-05-22T12:34:04Z</time>
      </trkpt>
      <trkpt lat="45.31461" lon="5.88389">
        <ele>1006.5</ele>
        <time>2016-05-22T12:34:05Z</time>
      </trkpt>
      <trkpt lat="45.31461" lon="5.88397">
        <ele>1004.4</ele>
        <time>2016-05-22T12:34:06Z</time>
      </trkpt>
      <trkpt lat="45.31462" lon="5.88406">
        <ele>1002</ele>
        <time>2016-05-22T12:34:07Z</time>
      </trkpt>
      <trkpt lat="45.31463" lon="5.88415">
        <ele>999.7</ele>
        <time>2016-05-22T12:34:08Z</time>
      </trkpt>
      <trkpt lat="45.31465" lon="5.88421">
        <ele>998.6</ele>
        <time>2016-05-22T12:34:09Z</time>
      </trkpt>
      <trkpt lat="45.31466" lon="5.88426">
        <ele>998</ele>
        <time>2016-05-22T12:34:10Z</time>
      </trkpt>
      <trkpt lat="45.31466" lon="5.88428">
        <ele>997.6</ele>
        <time>2016-05-22T12:34:11Z</time>
      </trkpt>
      <trkpt lat="45.31467" lon="5.88433">
        <ele>996.7</ele>
        <time>2016-05-22T12:37:12Z</time>
      </trkpt>
      <trkpt lat="45.31468" lon="5.88435">
        <ele>996.4</ele>
        <time>2016-05-22T12:37:13Z</time>
      </trkpt>
      <trkpt lat="45.31469" lon="5.88438">
        <ele>996</ele>
        <time>2016-05-22T12:37:14Z</time>
      </trkpt>
      <trkpt lat="45.3147" lon="5.88443">
        <ele>995.2</ele>
        <time>2016-05-22T12:37:15Z</time>
      </trkpt>
      <trkpt lat="45.31471" lon="5.88448">
        <ele>994.4</ele>
        <time>2016-05-22T12:37:16Z</time>
      </trkpt>
      <trkpt lat="45.31473" lon="5.88454">
        <ele>993.6</ele>
        <time>2016-05-22T12:37:17Z</time>
      </trkpt>
      <trkpt lat="45.31476" lon="5.8846">
        <ele>992.6</ele>
        <time>2016-05-22T12:37:18Z</time>
      </trkpt>
      <trkpt lat="45.31478" lon="5.88466">
        <ele>991.6</ele>
        <time>2016-05-22T12:37:19Z</time>
      </trkpt>
      <trkpt lat="45.31481" lon="5.88472">
        <ele>990.7</ele>
        <time>2016-05-22T12:37:20Z</time>
      </trkpt>
      <trkpt lat="45.31484" lon="5.88477">
        <ele>989.9</ele>
        <time>2016-05-22T12:37:21Z</time>
      </trkpt>
      <trkpt lat="45.31487" lon="5.88481">
        <ele>989.3</ele>
        <time>2016-05-22T12:37:22Z</time>
      </trkpt>
      <trkpt lat="45.31489" lon="5.88485">
        <ele>988.6</ele>
        <time>2016-05-22T12:37:23Z</time>
      </trkpt>
      <trkpt lat="45.31492" lon="5.88489">
        <ele>988</ele>
        <time>2016-05-22T12:37:24Z</time>
      </trkpt>
      <trkpt lat="45.31495" lon="5.88493">
        <ele>987.3</ele>
        <time>2016-05-22T12:37:25Z</time>
      </trkpt>
      <trkpt lat="45.31498" lon="5.88496">
        <ele>986.8</ele>
        <time>2016-05-22T12:37:26Z</time>
      </trkpt>
      <trkpt lat="45.31502" lon="5.88499">
        <ele>986.5</ele>
        <time>2016-05-22T12:37:27Z</time>
      </trkpt>
      <trkpt lat="45.31505" lon="5.88502">
        <ele>986.7</ele>
        <time>2016-05-22T12:37:28Z</time>
      </trkpt>
      <trkpt lat="45.31508" lon="5.88503">
        <ele>987.1</ele>
        <time>2016-05-22T12:37:29Z</time>
      </trkpt>
      <trkpt lat="45.31512" lon="5.88503">
        <ele>987.6</ele>
        <time>2016-05-22T12:37:30Z</time>
      </trkpt>
      <trkpt lat="45.31515" lon="5.88503">
        <ele>988.1</ele>
        <time>2016-05-22T12:37:31Z</time>
      </trkpt>
      <trkpt lat="45.31519" lon="5.88503">
        <ele>988.8</ele>
        <time>2016-05-22T12:37:32Z</time>
      </trkpt>
      <trkpt lat="45.31522" lon="5.88502">
        <ele>989.4</ele>
        <time>2016-05-22T12:37:33Z</time>
      </trkpt>
      <trkpt lat="45.31525" lon="5.88501">
        <ele>990.1</ele>
        <time>2016-05-22T12:37:34Z</time>
      </trkpt>
      <trkpt lat="45.31528" lon="5.88501">
        <ele>990.7</ele>
        <time>2016-05-22T12:37:35Z</time>
      </trkpt>
      <trkpt lat="45.31531" lon="5.885">
        <ele>991.4</ele>
        <time>2016-05-22T12:37:36Z</time>
      </trkpt>
      <trkpt lat="45.31534" lon="5.885">
        <ele>991.9</ele>
        <time>2016-05-22T12:37:37Z</time>
      </trkpt>
      <trkpt lat="45.31537" lon="5.885">
        <ele>992.3</ele>
        <time>2016-05-22T12:37:38Z</time>
      </trkpt>
      <trkpt lat="45.3154" lon="5.885">
        <ele>992.8</ele>
        <time>2016-05-22T12:37:39Z</time>
      </trkpt>
      <trkpt lat="45.31542" lon="5.88499">
        <ele>993.3</ele>
        <time>2016-05-22T12:37:40Z</time>
      </trkpt>
      <trkpt lat="45.31545" lon="5.88498">
        <ele>993.9</ele>
        <time>2016-05-22T12:37:41Z</time>
      </trkpt>
      <trkpt lat="45.31547" lon="5.88498">
        <ele>994.4</ele>
        <time>2016-05-22T12:37:42Z</time>
      </trkpt>
      <trkpt lat="45.3155" lon="5.88499">
        <ele>994.8</ele>
        <time>2016-05-22T12:37:43Z</time>
      </trkpt>
      <trkpt lat="45.31553" lon="5.88501">
        <ele>994.8</ele>
        <time>2016-05-22T12:37:44Z</time>
      </trkpt>
      <trkpt lat="45.31556" lon="5.88504">
        <ele>994.9</ele>
        <time>2016-05-22T12:37:45Z</time>
      </trkpt>
      <trkpt lat="45.31559" lon="5.88507">
        <ele>995</ele>
        <time>2016-05-22T12:37:46Z</time>
      </trkpt>
      <trkpt lat="45.31563" lon="5.8851">
        <ele>995.1</ele>
        <time>2016-05-22T12:37:47Z</time>
      </trkpt>
      <trkpt lat="45.31566" lon="5.88514">
        <ele>995.2</ele>
        <time>2016-05-22T12:37:48Z</time>
      </trkpt>
      <trkpt lat="45.31571" lon="5.88518">
        <ele>995.4</ele>
        <time>2016-05-22T12:37:49Z</time>
      </trkpt>
      <trkpt lat="45.31575" lon="5.88522">
        <ele>995.6</ele>
        <time>2016-05-22T12:37:50Z</time>
      </trkpt>
      <trkpt lat="45.3158" lon="5.88525">
        <ele>995.8</ele>
        <time>2016-05-22T12:37:51Z</time>
      </trkpt>
      <trkpt lat="45.31584" lon="5.88529">
        <ele>996</ele>
        <time>2016-05-22T12:37:52Z</time>
      </trkpt>
      <trkpt lat="45.31588" lon="5.88533">
        <ele>996.2</ele>
        <time>2016-05-22T12:37:53Z</time>
      </trkpt>
      <trkpt lat="45.31591" lon="5.88536">
        <ele>996.4</ele>
        <time>2016-05-22T12:37:54Z</time>
      </trkpt>
      <trkpt lat="45.31593" lon="5.88538">
        <ele>996.5</ele>
        <time>2016-05-22T12:37:55Z</time>
      </trkpt>
      <trkpt lat="45.31594" lon="5.88538">
        <ele>996.7</ele>
        <time>2016-05-22T12:37:56Z</time>
      </trkpt>
      <trkpt lat="45.31594" lon="5.88539">
        <ele>996.7</ele>
        <time>2016-05-22T12:37:57Z</time>
      </trkpt>
      <trkpt lat="45.31595" lon="5.88539">
        <ele>996.7</ele>
        <time>2016-05-22T12:37:58Z</time>
      </trkpt>
      <trkpt lat="45.31595" lon="5.88539">
        <ele>996.7</ele>
        <time>2016-05-22T12:37:59Z</time>
      </trkpt>
      <trkpt lat="45.31595" lon="5.88539">
        <ele>996.6</ele>
        <time>2016-05-22T12:38:00Z</time>
      </trkpt>
      <trkpt lat="45.31594" lon="5.8854">
        <ele>996.6</ele>
        <time>2016-05-22T12:38:01Z</time>
      </trkpt>
      <trkpt lat="45.31595" lon="5.8854">
        <ele>996.7</ele>
        <time>2016-05-22T12:38:02Z</time>
      </trkpt>
      <trkpt lat="45.31596" lon="5.8854">
        <ele>996.9</ele>
        <time>2016-05-22T12:38:03Z</time>
      </trkpt>
      <trkpt lat="45.31597" lon="5.8854">
        <ele>997</ele>
        <time>2016-05-22T12:38:04Z</time>
      </trkpt>
      <trkpt lat="45.31597" lon="5.88541">
        <ele>997</ele>
        <time>2016-05-22T12:38:05Z</time>
      </trkpt>
      <trkpt lat="45.31598" lon="5.88543">
        <ele>996.9</ele>
        <time>2016-05-22T12:38:06Z</time>
      </trkpt>
      <trkpt lat="45.31599" lon="5.88544">
        <ele>996.8</ele>
        <time>2016-05-22T12:38:07Z</time>
      </trkpt>
      <trkpt lat="45.31601" lon="5.88547">
        <ele>996.9</ele>
        <time>2016-05-22T12:38:08Z</time>
      </trkpt>
      <trkpt lat="45.31604" lon="5.88549">
        <ele>997</ele>
        <time>2016-05-22T12:38:09Z</time>
      </trkpt>
      <trkpt lat="45.31607" lon="5.88552">
        <ele>997.1</ele>
        <time>2016-05-22T12:38:10Z</time>
      </trkpt>
      <trkpt lat="45.3161" lon="5.88556">
        <ele>997.2</ele>
        <time>2016-05-22T12:38:11Z</time>
      </trkpt>
      <trkpt lat="45.31613" lon="5.88559">
        <ele>997.3</ele>
        <time>2016-05-22T12:38:12Z</time>
      </trkpt>
      <trkpt lat="45.31617" lon="5.88562">
        <ele>997.5</ele>
        <time>2016-05-22T12:38:13Z</time>
      </trkpt>
      <trkpt lat="45.3162" lon="5.88565">
        <ele>997.7</ele>
        <time>2016-05-22T12:38:14Z</time>
      </trkpt>
      <trkpt lat="45.31624" lon="5.88568">
        <ele>997.8</ele>
        <time>2016-05-22T12:38:15Z</time>
      </trkpt>
      <trkpt lat="45.31627" lon="5.88571">
        <ele>997.9</ele>
        <time>2016-05-22T12:38:16Z</time>
      </trkpt>
      <trkpt lat="45.3163" lon="5.88574">
        <ele>998.1</ele>
        <time>2016-05-22T12:38:17Z</time>
      </trkpt>
      <trkpt lat="45.31634" lon="5.88576">
        <ele>998.4</ele>
        <time>2016-05-22T12:38:18Z</time>
      </trkpt>
      <trkpt lat="45.31637" lon="5.88578">
        <ele>998.6</ele>
        <time>2016-05-22T12:38:19Z</time>
      </trkpt>
      <trkpt lat="45.31639" lon="5.8858">
        <ele>998.7</ele>
        <time>2016-05-22T12:38:20Z</time>
      </trkpt>
      <trkpt lat="45.31642" lon="5.88583">
        <ele>998.7</ele>
        <time>2016-05-22T12:38:21Z</time>
      </trkpt>
      <trkpt lat="45.31644" lon="5.88586">
        <ele>998.5</ele>
        <time>2016-05-22T12:38:22Z</time>
      </trkpt>
      <trkpt lat="45.31646" lon="5.88589">
        <ele>998.1</ele>
        <time>2016-05-22T12:38:23Z</time>
      </trkpt>
      <trkpt lat="45.31648" lon="5.88593">
        <ele>997.7</ele>
        <time>2016-05-22T12:38:24Z</time>
      </trkpt>
      <trkpt lat="45.31651" lon="5.88596">
        <ele>997.2</ele>
        <time>2016-05-22T12:38:25Z</time>
      </trkpt>
      <trkpt lat="45.31653" lon="5.88599">
        <ele>996.8</ele>
        <time>2016-05-22T12:38:26Z</time>
      </trkpt>
      <trkpt lat="45.31655" lon="5.88602">
        <ele>996.6</ele>
        <time>2016-05-22T12:38:27Z</time>
      </trkpt>
      <trkpt lat="45.31657" lon="5.88604">
        <ele>996.4</ele>
        <time>2016-05-22T12:38:28Z</time>
      </trkpt>
      <trkpt lat="45.31658" lon="5.88605">
        <ele>996.2</ele>
        <time>2016-05-22T12:38:29Z</time>
      </trkpt>
      <trkpt lat="45.31659" lon="5.88606">
        <ele>996.2</ele>
        <time>2016-05-22T12:38:30Z</time>
      </trkpt>
      <trkpt lat="45.31659" lon="5.88606">
        <ele>996.2</ele>
        <time>2016-05-22T12:38:31Z</time>
      </trkpt>
      <trkpt lat="45.31659" lon="5.88607">
        <ele>996</ele>
        <time>2016-05-22T12:38:32Z</time>
      </trkpt>
      <trkpt lat="45.31659" lon="5.88607">
        <ele>996</ele>
        <time>2016-05-22T12:38:33Z</time>
      </trkpt>
      <trkpt lat="45.31659" lon="5.88607">
        <ele>996</ele>
        <time>2016-05-22T12:38:34Z</time>
      </trkpt>
      <trkpt lat="45.3166" lon="5.88606">
        <ele>996.2</ele>
        <time>2016-05-22T12:38:35Z</time>
      </trkpt>
      <trkpt lat="45.3166" lon="5.88606">
        <ele>996.4</ele>
        <time>2016-05-22T12:38:36Z</time>
      </trkpt>
      <trkpt lat="45.31661" lon="5.88606">
        <ele>996.4</ele>
        <time>2016-05-22T12:38:37Z</time>
      </trkpt>
      <trkpt lat="45.31661" lon="5.88606">
        <ele>996.6</ele>
        <time>2016-05-22T12:38:38Z</time>
      </trkpt>
      <trkpt lat="45.31662" lon="5.88606">
        <ele>996.9</ele>
        <time>2016-05-22T12:38:39Z</time>
      </trkpt>
      <trkpt lat="45.31663" lon="5.88605">
        <ele>997.2</ele>
        <time>2016-05-22T12:38:40Z</time>
      </trkpt>
      <trkpt lat="45.31665" lon="5.88604">
        <ele>997.7</ele>
        <time>2016-05-22T12:38:41Z</time>
      </trkpt>
      <trkpt lat="45.31665" lon="5.88602">
        <ele>998.2</ele>
        <time>2016-05-22T12:38:42Z</time>
      </trkpt>
      <trkpt lat="45.31666" lon="5.88601">
        <ele>998.6</ele>
        <time>2016-05-22T12:38:43Z</time>
      </trkpt>
      <trkpt lat="45.31667" lon="5.886">
        <ele>998.9</ele>
        <time>2016-05-22T12:38:44Z</time>
      </trkpt>
      <trkpt lat="45.31667" lon="5.88599">
        <ele>999.2</ele>
        <time>2016-05-22T12:38:45Z</time>
      </trkpt>
      <trkpt lat="45.31668" lon="5.88598">
        <ele>999.4</ele>
        <time>2016-05-22T12:38:46Z</time>
      </trkpt>
      <trkpt lat="45.31668" lon="5.88597">
        <ele>999.6</ele>
        <time>2016-05-22T12:38:47Z</time>
      </trkpt>
      <trkpt lat="45.31668" lon="5.88596">
        <ele>999.8</ele>
        <time>2016-05-22T12:38:48Z</time>
      </trkpt>
      <trkpt lat="45.31669" lon="5.88595">
        <ele>1000.2</ele>
        <time>2016-05-22T12:38:49Z</time>
      </trkpt>
      <trkpt lat="45.31669" lon="5.88593">
        <ele>1000.6</ele>
        <time>2016-05-22T12:38:50Z</time>
      </trkpt>
      <trkpt lat="45.3167" lon="5.88592">
        <ele>1001.1</ele>
        <time>2016-05-22T12:38:51Z</time>
      </trkpt>
      <trkpt lat="45.31671" lon="5.88591">
        <ele>1001.3</ele>
        <time>2016-05-22T12:38:52Z</time>
      </trkpt>
      <trkpt lat="45.31671" lon="5.8859">
        <ele>1001.6</ele>
        <time>2016-05-22T12:38:53Z</time>
      </trkpt>
      <trkpt lat="45.3167" lon="5.88588">
        <ele>1002</ele>
        <time>2016-05-22T12:38:54Z</time>
      </trkpt>
      <trkpt lat="45.3167" lon="5.88586">
        <ele>1002.5</ele>
        <time>2016-05-22T12:38:55Z</time>
      </trkpt>
      <trkpt lat="45.31671" lon="5.88584">
        <ele>1003</ele>
        <time>2016-05-22T12:38:56Z</time>
      </trkpt>
      <trkpt lat="45.3167" lon="5.88581">
        <ele>1003.6</ele>
        <time>2016-05-22T12:38:57Z</time>
      </trkpt>
      <trkpt lat="45.3167" lon="5.88579">
        <ele>1003.9</ele>
        <time>2016-05-22T12:38:58Z</time>
      </trkpt>
      <trkpt lat="45.3167" lon="5.88577">
        <ele>1004.3</ele>
        <time>2016-05-22T12:38:59Z</time>
      </trkpt>
      <trkpt lat="45.31671" lon="5.88575">
        <ele>1004.6</ele>
        <time>2016-05-22T12:39:00Z</time>
      </trkpt>
      <trkpt lat="45.31671" lon="5.88574">
        <ele>1004.9</ele>
        <time>2016-05-22T12:39:01Z</time>
      </trkpt>
      <trkpt lat="45.31671" lon="5.88572">
        <ele>1005.2</ele>
        <time>2016-05-22T12:39:02Z</time>
      </trkpt>
      <trkpt lat="45.31671" lon="5.88569">
        <ele>1005.7</ele>
        <time>2016-05-22T12:39:03Z</time>
      </trkpt>
      <trkpt lat="45.31671" lon="5.88568">
        <ele>1006</ele>
        <time>2016-05-22T12:39:04Z</time>
      </trkpt>
      <trkpt lat="45.31671" lon="5.88566">
        <ele>1006.3</ele>
        <time>2016-05-22T12:39:05Z</time>
      </trkpt>
      <trkpt lat="45.31671" lon="5.88564">
        <ele>1006.6</ele>
        <time>2016-05-22T12:39:06Z</time>
      </trkpt>
      <trkpt lat="45.31672" lon="5.88563">
        <ele>1006.9</ele>
        <time>2016-05-22T12:39:07Z</time>
      </trkpt>
      <trkpt lat="45.31672" lon="5.88561">
        <ele>1007.2</ele>
        <time>2016-05-22T12:39:08Z</time>
      </trkpt>
      <trkpt lat="45.31673" lon="5.8856">
        <ele>1007.5</ele>
        <time>2016-05-22T12:39:09Z</time>
      </trkpt>
      <trkpt lat="45.31673" lon="5.88557">
        <ele>1007.9</ele>
        <time>2016-05-22T12:39:10Z</time>
      </trkpt>
      <trkpt lat="45.31674" lon="5.88556">
        <ele>1008.2</ele>
        <time>2016-05-22T12:39:11Z</time>
      </trkpt>
      <trkpt lat="45.31674" lon="5.88554">
        <ele>1008.6</ele>
        <time>2016-05-22T12:39:12Z</time>
      </trkpt>
      <trkpt lat="45.31674" lon="5.88552">
        <ele>1008.9</ele>
        <time>2016-05-22T12:39:13Z</time>
      </trkpt>
      <trkpt lat="45.31675" lon="5.88552">
        <ele>1009</ele>
        <time>2016-05-22T12:39:14Z</time>
      </trkpt>
      <trkpt lat="45.31675" lon="5.88551">
        <ele>1009.2</ele>
        <time>2016-05-22T12:39:15Z</time>
      </trkpt>
      <trkpt lat="45.31676" lon="5.88549">
        <ele>1009.5</ele>
        <time>2016-05-22T12:39:16Z</time>
      </trkpt>
      <trkpt lat="45.31677" lon="5.88548">
        <ele>1009.8</ele>
        <time>2016-05-22T12:39:17Z</time>
      </trkpt>
      <trkpt lat="45.31677" lon="5.88546">
        <ele>1010.1</ele>
        <time>2016-05-22T12:39:18Z</time>
      </trkpt>
      <trkpt lat="45.31677" lon="5.88545">
        <ele>1010.3</ele>
        <time>2016-05-22T12:39:19Z</time>
      </trkpt>
      <trkpt lat="45.31677" lon="5.88544">
        <ele>1010.6</ele>
        <time>2016-05-22T12:39:20Z</time>
      </trkpt>
      <trkpt lat="45.31678" lon="5.88543">
        <ele>1010.8</ele>
        <time>2016-05-22T12:39:21Z</time>
      </trkpt>
      <trkpt lat="45.31678" lon="5.88541">
        <ele>1011</ele>
        <time>2016-05-22T12:39:22Z</time>
      </trkpt>
      <trkpt lat="45.31678" lon="5.8854">
        <ele>1011.2</ele>
        <time>2016-05-22T12:39:23Z</time>
      </trkpt>
      <trkpt lat="45.31678" lon="5.88539">
        <ele>1011.5</ele>
        <time>2016-05-22T12:39:24Z</time>
      </trkpt>
      <trkpt lat="45.31678" lon="5.88538">
        <ele>1011.8</ele>
        <time>2016-05-22T12:39:25Z</time>
      </trkpt>
      <trkpt lat="45.31678" lon="5.88536">
        <ele>1012</ele>
        <time>2016-05-22T12:39:26Z</time>
      </trkpt>
      <trkpt lat="45.31678" lon="5.88535">
        <ele>1012.3</ele>
        <time>2016-05-22T12:39:27Z</time>
      </trkpt>
      <trkpt lat="45.31677" lon="5.88533">
        <ele>1012.7</ele>
        <time>2016-05-22T12:39:28Z</time>
      </trkpt>
      <trkpt lat="45.31677" lon="5.88531">
        <ele>1013</ele>
        <time>2016-05-22T12:39:29Z</time>
      </trkpt>
      <trkpt lat="45.31676" lon="5.88528">
        <ele>1013.4</ele>
        <time>2016-05-22T12:39:30Z</time>
      </trkpt>
      <trkpt lat="45.31676" lon="5.88527">
        <ele>1013.6</ele>
        <time>2016-05-22T12:39:31Z</time>
      </trkpt>
      <trkpt lat="45.31676" lon="5.88526">
        <ele>1013.9</ele>
        <time>2016-05-22T12:39:32Z</time>
      </trkpt>
      <trkpt lat="45.31676" lon="5.88524">
        <ele>1014.2</ele>
        <time>2016-05-22T12:39:33Z</time>
      </trkpt>
      <trkpt lat="45.31675" lon="5.88522">
        <ele>1014.5</ele>
        <time>2016-05-22T12:39:34Z</time>
      </trkpt>
      <trkpt lat="45.31675" lon="5.88521">
        <ele>1014.8</ele>
        <time>2016-05-22T12:39:35Z</time>
      </trkpt>
      <trkpt lat="45.31675" lon="5.8852">
        <ele>1014.8</ele>
        <time>2016-05-22T12:39:36Z</time>
      </trkpt>
      <trkpt lat="45.31674" lon="5.88519">
        <ele>1015.1</ele>
        <time>2016-05-22T12:39:37Z</time>
      </trkpt>
      <trkpt lat="45.31674" lon="5.88518">
        <ele>1015.4</ele>
        <time>2016-05-22T12:39:38Z</time>
      </trkpt>
      <trkpt lat="45.31675" lon="5.88516">
        <ele>1015.6</ele>
        <time>2016-05-22T12:39:39Z</time>
      </trkpt>
      <trkpt lat="45.31675" lon="5.88515">
        <ele>1015.8</ele>
        <time>2016-05-22T12:39:40Z</time>
      </trkpt>
      <trkpt lat="45.31674" lon="5.88514">
        <ele>1016.1</ele>
        <time>2016-05-22T12:39:41Z</time>
      </trkpt>
      <trkpt lat="45.31674" lon="5.88513">
        <ele>1016.2</ele>
        <time>2016-05-22T12:39:42Z</time>
      </trkpt>
      <trkpt lat="45.31674" lon="5.88512">
        <ele>1016.4</ele>
        <time>2016-05-22T12:39:43Z</time>
      </trkpt>
      <trkpt lat="45.31674" lon="5.88512">
        <ele>1016.4</ele>
        <time>2016-05-22T12:39:44Z</time>
      </trkpt>
      <trkpt lat="45.31674" lon="5.88512">
        <ele>1016.4</ele>
        <time>2016-05-22T12:39:45Z</time>
      </trkpt>
      <trkpt lat="45.31674" lon="5.88511">
        <ele>1016.5</ele>
        <time>2016-05-22T12:39:46Z</time>
      </trkpt>
      <trkpt lat="45.31674" lon="5.8851">
        <ele>1016.7</ele>
        <time>2016-05-22T12:39:47Z</time>
      </trkpt>
      <trkpt lat="45.31673" lon="5.88509">
        <ele>1016.9</ele>
        <time>2016-05-22T12:39:48Z</time>
      </trkpt>
      <trkpt lat="45.31674" lon="5.88507">
        <ele>1017.3</ele>
        <time>2016-05-22T12:39:49Z</time>
      </trkpt>
      <trkpt lat="45.31674" lon="5.88505">
        <ele>1017.8</ele>
        <time>2016-05-22T12:39:50Z</time>
      </trkpt>
      <trkpt lat="45.31675" lon="5.88504">
        <ele>1018</ele>
        <time>2016-05-22T12:39:51Z</time>
      </trkpt>
      <trkpt lat="45.31675" lon="5.88502">
        <ele>1018.3</ele>
        <time>2016-05-22T12:39:52Z</time>
      </trkpt>
      <trkpt lat="45.31676" lon="5.88501">
        <ele>1018.7</ele>
        <time>2016-05-22T12:39:53Z</time>
      </trkpt>
      <trkpt lat="45.31677" lon="5.88499">
        <ele>1018.9</ele>
        <time>2016-05-22T12:39:54Z</time>
      </trkpt>
      <trkpt lat="45.31677" lon="5.88498">
        <ele>1019.2</ele>
        <time>2016-05-22T12:39:55Z</time>
      </trkpt>
      <trkpt lat="45.31678" lon="5.88496">
        <ele>1019.5</ele>
        <time>2016-05-22T12:39:56Z</time>
      </trkpt>
      <trkpt lat="45.31678" lon="5.88494">
        <ele>1019.8</ele>
        <time>2016-05-22T12:39:57Z</time>
      </trkpt>
      <trkpt lat="45.31678" lon="5.88492">
        <ele>1020.1</ele>
        <time>2016-05-22T12:39:58Z</time>
      </trkpt>
      <trkpt lat="45.31678" lon="5.88491">
        <ele>1020.3</ele>
        <time>2016-05-22T12:39:59Z</time>
      </trkpt>
      <trkpt lat="45.31677" lon="5.88488">
        <ele>1020.6</ele>
        <time>2016-05-22T12:40:00Z</time>
      </trkpt>
      <trkpt lat="45.31677" lon="5.88487">
        <ele>1020.9</ele>
        <time>2016-05-22T12:40:01Z</time>
      </trkpt>
      <trkpt lat="45.31677" lon="5.88485">
        <ele>1021.2</ele>
        <time>2016-05-22T12:40:02Z</time>
      </trkpt>
      <trkpt lat="45.31677" lon="5.88483">
        <ele>1021.4</ele>
        <time>2016-05-22T12:40:03Z</time>
      </trkpt>
      <trkpt lat="45.31677" lon="5.88482">
        <ele>1021.6</ele>
        <time>2016-05-22T12:40:04Z</time>
      </trkpt>
      <trkpt lat="45.31677" lon="5.8848">
        <ele>1021.9</ele>
        <time>2016-05-22T12:40:05Z</time>
      </trkpt>
      <trkpt lat="45.31677" lon="5.88478">
        <ele>1022.2</ele>
        <time>2016-05-22T12:40:06Z</time>
      </trkpt>
      <trkpt lat="45.31677" lon="5.88477">
        <ele>1022.5</ele>
        <time>2016-05-22T12:40:07Z</time>
      </trkpt>
      <trkpt lat="45.31677" lon="5.88475">
        <ele>1022.8</ele>
        <time>2016-05-22T12:40:08Z</time>
      </trkpt>
      <trkpt lat="45.31676" lon="5.88472">
        <ele>1023</ele>
        <time>2016-05-22T12:40:09Z</time>
      </trkpt>
      <trkpt lat="45.31677" lon="5.8847">
        <ele>1023.5</ele>
        <time>2016-05-22T12:40:10Z</time>
      </trkpt>
      <trkpt lat="45.31677" lon="5.88468">
        <ele>1023.8</ele>
        <time>2016-05-22T12:40:11Z</time>
      </trkpt>
      <trkpt lat="45.31678" lon="5.88466">
        <ele>1024.1</ele>
        <time>2016-05-22T12:40:12Z</time>
      </trkpt>
      <trkpt lat="45.31678" lon="5.88465">
        <ele>1024.4</ele>
        <time>2016-05-22T12:40:13Z</time>
      </trkpt>
      <trkpt lat="45.31678" lon="5.88463">
        <ele>1024.7</ele>
        <time>2016-05-22T12:40:14Z</time>
      </trkpt>
      <trkpt lat="45.31678" lon="5.88461">
        <ele>1024.9</ele>
        <time>2016-05-22T12:40:15Z</time>
      </trkpt>
      <trkpt lat="45.31678" lon="5.8846">
        <ele>1025.2</ele>
        <time>2016-05-22T12:40:16Z</time>
      </trkpt>
      <trkpt lat="45.31678" lon="5.88459">
        <ele>1025.4</ele>
        <time>2016-05-22T12:40:17Z</time>
      </trkpt>
      <trkpt lat="45.31678" lon="5.88458">
        <ele>1025.4</ele>
        <time>2016-05-22T12:40:18Z</time>
      </trkpt>
      <trkpt lat="45.31679" lon="5.88457">
        <ele>1025.7</ele>
        <time>2016-05-22T12:40:19Z</time>
      </trkpt>
      <trkpt lat="45.3168" lon="5.88456">
        <ele>1026</ele>
        <time>2016-05-22T12:40:20Z</time>
      </trkpt>
      <trkpt lat="45.31681" lon="5.88454">
        <ele>1026.4</ele>
        <time>2016-05-22T12:40:21Z</time>
      </trkpt>
      <trkpt lat="45.31682" lon="5.88453">
        <ele>1026.6</ele>
        <time>2016-05-22T12:40:22Z</time>
      </trkpt>
      <trkpt lat="45.31682" lon="5.88452">
        <ele>1026.9</ele>
        <time>2016-05-22T12:40:23Z</time>
      </trkpt>
      <trkpt lat="45.31682" lon="5.8845">
        <ele>1027.1</ele>
        <time>2016-05-22T12:40:24Z</time>
      </trkpt>
      <trkpt lat="45.31682" lon="5.88448">
        <ele>1027.4</ele>
        <time>2016-05-22T12:40:25Z</time>
      </trkpt>
      <trkpt lat="45.31682" lon="5.88447">
        <ele>1027.7</ele>
        <time>2016-05-22T12:40:26Z</time>
      </trkpt>
      <trkpt lat="45.31683" lon="5.88445">
        <ele>1028.1</ele>
        <time>2016-05-22T12:40:27Z</time>
      </trkpt>
      <trkpt lat="45.31684" lon="5.88443">
        <ele>1028.5</ele>
        <time>2016-05-22T12:40:28Z</time>
      </trkpt>
      <trkpt lat="45.31685" lon="5.88442">
        <ele>1028.9</ele>
        <time>2016-05-22T12:40:29Z</time>
      </trkpt>
      <trkpt lat="45.31686" lon="5.8844">
        <ele>1029.2</ele>
        <time>2016-05-22T12:40:30Z</time>
      </trkpt>
      <trkpt lat="45.31686" lon="5.88438">
        <ele>1029.6</ele>
        <time>2016-05-22T12:40:31Z</time>
      </trkpt>
      <trkpt lat="45.31686" lon="5.88436">
        <ele>1029.9</ele>
        <time>2016-05-22T12:40:32Z</time>
      </trkpt>
      <trkpt lat="45.31686" lon="5.88434">
        <ele>1030.2</ele>
        <time>2016-05-22T12:40:33Z</time>
      </trkpt>
      <trkpt lat="45.31686" lon="5.88433">
        <ele>1030.3</ele>
        <time>2016-05-22T12:40:34Z</time>
      </trkpt>
      <trkpt lat="45.31686" lon="5.88432">
        <ele>1030.6</ele>
        <time>2016-05-22T12:40:35Z</time>
      </trkpt>
      <trkpt lat="45.31686" lon="5.88429">
        <ele>1031</ele>
        <time>2016-05-22T12:40:36Z</time>
      </trkpt>
      <trkpt lat="45.31686" lon="5.88428">
        <ele>1031.4</ele>
        <time>2016-05-22T12:40:37Z</time>
      </trkpt>
      <trkpt lat="45.31687" lon="5.88427">
        <ele>1031.7</ele>
        <time>2016-05-22T12:40:38Z</time>
      </trkpt>
      <trkpt lat="45.31687" lon="5.88424">
        <ele>1032</ele>
        <time>2016-05-22T12:40:39Z</time>
      </trkpt>
      <trkpt lat="45.31688" lon="5.88422">
        <ele>1032.4</ele>
        <time>2016-05-22T12:40:40Z</time>
      </trkpt>
      <trkpt lat="45.31688" lon="5.88421">
        <ele>1032.8</ele>
        <time>2016-05-22T12:40:41Z</time>
      </trkpt>
      <trkpt lat="45.31688" lon="5.88419">
        <ele>1033.1</ele>
        <time>2016-05-22T12:40:42Z</time>
      </trkpt>
      <trkpt lat="45.31688" lon="5.88417">
        <ele>1033.4</ele>
        <time>2016-05-22T12:40:43Z</time>
      </trkpt>
      <trkpt lat="45.31689" lon="5.88415">
        <ele>1033.7</ele>
        <time>2016-05-22T12:40:44Z</time>
      </trkpt>
      <trkpt lat="45.31689" lon="5.88413">
        <ele>1033.9</ele>
        <time>2016-05-22T12:40:45Z</time>
      </trkpt>
      <trkpt lat="45.3169" lon="5.88412">
        <ele>1034.1</ele>
        <time>2016-05-22T12:40:46Z</time>
      </trkpt>
      <trkpt lat="45.3169" lon="5.88411">
        <ele>1034.3</ele>
        <time>2016-05-22T12:40:47Z</time>
      </trkpt>
      <trkpt lat="45.31691" lon="5.8841">
        <ele>1034.5</ele>
        <time>2016-05-22T12:40:48Z</time>
      </trkpt>
      <trkpt lat="45.3169" lon="5.88406">
        <ele>1034.7</ele>
        <time>2016-05-22T12:40:49Z</time>
      </trkpt>
      <trkpt lat="45.3169" lon="5.88405">
        <ele>1034.9</ele>
        <time>2016-05-22T12:40:50Z</time>
      </trkpt>
      <trkpt lat="45.31692" lon="5.88405">
        <ele>1035.2</ele>
        <time>2016-05-22T12:40:51Z</time>
      </trkpt>
      <trkpt lat="45.31692" lon="5.88403">
        <ele>1035.4</ele>
        <time>2016-05-22T12:40:52Z</time>
      </trkpt>
      <trkpt lat="45.31692" lon="5.88401">
        <ele>1035.6</ele>
        <time>2016-05-22T12:40:53Z</time>
      </trkpt>
      <trkpt lat="45.31692" lon="5.88399">
        <ele>1035.9</ele>
        <time>2016-05-22T12:40:54Z</time>
      </trkpt>
      <trkpt lat="45.31693" lon="5.88398">
        <ele>1036.1</ele>
        <time>2016-05-22T12:40:55Z</time>
      </trkpt>
      <trkpt lat="45.31693" lon="5.88396">
        <ele>1036.3</ele>
        <time>2016-05-22T12:40:56Z</time>
      </trkpt>
      <trkpt lat="45.31693" lon="5.88395">
        <ele>1036.5</ele>
        <time>2016-05-22T12:40:57Z</time>
      </trkpt>
      <trkpt lat="45.31693" lon="5.88393">
        <ele>1036.7</ele>
        <time>2016-05-22T12:40:58Z</time>
      </trkpt>
      <trkpt lat="45.31692" lon="5.8839">
        <ele>1036.8</ele>
        <time>2016-05-22T12:40:59Z</time>
      </trkpt>
      <trkpt lat="45.31692" lon="5.88389">
        <ele>1036.9</ele>
        <time>2016-05-22T12:41:00Z</time>
      </trkpt>
      <trkpt lat="45.31693" lon="5.88388">
        <ele>1037.1</ele>
        <time>2016-05-22T12:41:01Z</time>
      </trkpt>
      <trkpt lat="45.31693" lon="5.88386">
        <ele>1037.4</ele>
        <time>2016-05-22T12:41:02Z</time>
      </trkpt>
      <trkpt lat="45.31693" lon="5.88385">
        <ele>1037.5</ele>
        <time>2016-05-22T12:41:03Z</time>
      </trkpt>
      <trkpt lat="45.31693" lon="5.88383">
        <ele>1037.7</ele>
        <time>2016-05-22T12:41:04Z</time>
      </trkpt>
      <trkpt lat="45.31693" lon="5.88382">
        <ele>1037.7</ele>
        <time>2016-05-22T12:41:05Z</time>
      </trkpt>
      <trkpt lat="45.31693" lon="5.88381">
        <ele>1037.8</ele>
        <time>2016-05-22T12:41:06Z</time>
      </trkpt>
      <trkpt lat="45.31693" lon="5.8838">
        <ele>1037.9</ele>
        <time>2016-05-22T12:41:07Z</time>
      </trkpt>
      <trkpt lat="45.31693" lon="5.88379">
        <ele>1038</ele>
        <time>2016-05-22T12:41:08Z</time>
      </trkpt>
      <trkpt lat="45.31692" lon="5.88377">
        <ele>1038.2</ele>
        <time>2016-05-22T12:41:09Z</time>
      </trkpt>
      <trkpt lat="45.31692" lon="5.88375">
        <ele>1038.4</ele>
        <time>2016-05-22T12:41:10Z</time>
      </trkpt>
      <trkpt lat="45.31692" lon="5.88373">
        <ele>1038.6</ele>
        <time>2016-05-22T12:41:11Z</time>
      </trkpt>
      <trkpt lat="45.31692" lon="5.88371">
        <ele>1038.7</ele>
        <time>2016-05-22T12:41:12Z</time>
      </trkpt>
      <trkpt lat="45.31692" lon="5.88369">
        <ele>1039</ele>
        <time>2016-05-22T12:41:13Z</time>
      </trkpt>
      <trkpt lat="45.31693" lon="5.88367">
        <ele>1039.4</ele>
        <time>2016-05-22T12:41:14Z</time>
      </trkpt>
      <trkpt lat="45.31694" lon="5.88365">
        <ele>1039.7</ele>
        <time>2016-05-22T12:41:15Z</time>
      </trkpt>
      <trkpt lat="45.31695" lon="5.88365">
        <ele>1039.9</ele>
        <time>2016-05-22T12:41:16Z</time>
      </trkpt>
      <trkpt lat="45.31696" lon="5.88364">
        <ele>1040.1</ele>
        <time>2016-05-22T12:41:17Z</time>
      </trkpt>
      <trkpt lat="45.31697" lon="5.88363">
        <ele>1040.3</ele>
        <time>2016-05-22T12:41:18Z</time>
      </trkpt>
      <trkpt lat="45.31697" lon="5.88361">
        <ele>1040.7</ele>
        <time>2016-05-22T12:41:19Z</time>
      </trkpt>
      <trkpt lat="45.31698" lon="5.88359">
        <ele>1041</ele>
        <time>2016-05-22T12:41:20Z</time>
      </trkpt>
      <trkpt lat="45.31699" lon="5.88358">
        <ele>1041.3</ele>
        <time>2016-05-22T12:41:21Z</time>
      </trkpt>
      <trkpt lat="45.31699" lon="5.88355">
        <ele>1041.7</ele>
        <time>2016-05-22T12:41:22Z</time>
      </trkpt>
      <trkpt lat="45.31701" lon="5.88355">
        <ele>1041.9</ele>
        <time>2016-05-22T12:41:23Z</time>
      </trkpt>
      <trkpt lat="45.31702" lon="5.88354">
        <ele>1042.2</ele>
        <time>2016-05-22T12:41:24Z</time>
      </trkpt>
      <trkpt lat="45.31703" lon="5.88353">
        <ele>1042.5</ele>
        <time>2016-05-22T12:41:25Z</time>
      </trkpt>
      <trkpt lat="45.31704" lon="5.88352">
        <ele>1042.8</ele>
        <time>2016-05-22T12:41:26Z</time>
      </trkpt>
      <trkpt lat="45.31704" lon="5.88349">
        <ele>1043.1</ele>
        <time>2016-05-22T12:41:27Z</time>
      </trkpt>
      <trkpt lat="45.31705" lon="5.88348">
        <ele>1043.3</ele>
        <time>2016-05-22T12:41:28Z</time>
      </trkpt>
      <trkpt lat="45.31705" lon="5.88347">
        <ele>1043.5</ele>
        <time>2016-05-22T12:41:29Z</time>
      </trkpt>
      <trkpt lat="45.31706" lon="5.88347">
        <ele>1043.8</ele>
        <time>2016-05-22T12:41:30Z</time>
      </trkpt>
      <trkpt lat="45.31707" lon="5.88346">
        <ele>1044</ele>
        <time>2016-05-22T12:41:31Z</time>
      </trkpt>
      <trkpt lat="45.31708" lon="5.88345">
        <ele>1044.2</ele>
        <time>2016-05-22T12:41:32Z</time>
      </trkpt>
      <trkpt lat="45.31708" lon="5.88343">
        <ele>1044.5</ele>
        <time>2016-05-22T12:41:33Z</time>
      </trkpt>
      <trkpt lat="45.31709" lon="5.88342">
        <ele>1044.7</ele>
        <time>2016-05-22T12:41:34Z</time>
      </trkpt>
      <trkpt lat="45.3171" lon="5.88342">
        <ele>1044.9</ele>
        <time>2016-05-22T12:41:35Z</time>
      </trkpt>
      <trkpt lat="45.3171" lon="5.8834">
        <ele>1045.2</ele>
        <time>2016-05-22T12:41:36Z</time>
      </trkpt>
      <trkpt lat="45.31711" lon="5.88339">
        <ele>1045.5</ele>
        <time>2016-05-22T12:41:37Z</time>
      </trkpt>
      <trkpt lat="45.31712" lon="5.88338">
        <ele>1045.7</ele>
        <time>2016-05-22T12:41:38Z</time>
      </trkpt>
      <trkpt lat="45.31713" lon="5.88337">
        <ele>1045.9</ele>
        <time>2016-05-22T12:41:39Z</time>
      </trkpt>
      <trkpt lat="45.31713" lon="5.88336">
        <ele>1046.1</ele>
        <time>2016-05-22T12:41:40Z</time>
      </trkpt>
      <trkpt lat="45.31714" lon="5.88335">
        <ele>1046.3</ele>
        <time>2016-05-22T12:41:41Z</time>
      </trkpt>
      <trkpt lat="45.31714" lon="5.88334">
        <ele>1046.6</ele>
        <time>2016-05-22T12:41:42Z</time>
      </trkpt>
      <trkpt lat="45.31715" lon="5.88332">
        <ele>1046.8</ele>
        <time>2016-05-22T12:41:43Z</time>
      </trkpt>
      <trkpt lat="45.31715" lon="5.88331">
        <ele>1047.1</ele>
        <time>2016-05-22T12:41:44Z</time>
      </trkpt>
      <trkpt lat="45.31715" lon="5.8833">
        <ele>1047.2</ele>
        <time>2016-05-22T12:41:45Z</time>
      </trkpt>
      <trkpt lat="45.31716" lon="5.88328">
        <ele>1047.5</ele>
        <time>2016-05-22T12:41:46Z</time>
      </trkpt>
      <trkpt lat="45.31716" lon="5.88327">
        <ele>1047.7</ele>
        <time>2016-05-22T12:41:47Z</time>
      </trkpt>
      <trkpt lat="45.31716" lon="5.88325">
        <ele>1047.9</ele>
        <time>2016-05-22T12:41:48Z</time>
      </trkpt>
      <trkpt lat="45.31716" lon="5.88324">
        <ele>1048.1</ele>
        <time>2016-05-22T12:41:49Z</time>
      </trkpt>
      <trkpt lat="45.31717" lon="5.88323">
        <ele>1048.3</ele>
        <time>2016-05-22T12:41:50Z</time>
      </trkpt>
      <trkpt lat="45.31717" lon="5.88322">
        <ele>1048.5</ele>
        <time>2016-05-22T12:41:51Z</time>
      </trkpt>
      <trkpt lat="45.31718" lon="5.88321">
        <ele>1048.7</ele>
        <time>2016-05-22T12:41:52Z</time>
      </trkpt>
      <trkpt lat="45.31718" lon="5.8832">
        <ele>1048.8</ele>
        <time>2016-05-22T12:41:53Z</time>
      </trkpt>
      <trkpt lat="45.31718" lon="5.88318">
        <ele>1049</ele>
        <time>2016-05-22T12:41:54Z</time>
      </trkpt>
      <trkpt lat="45.31718" lon="5.88317">
        <ele>1049.2</ele>
        <time>2016-05-22T12:41:55Z</time>
      </trkpt>
      <trkpt lat="45.31718" lon="5.88316">
        <ele>1049.3</ele>
        <time>2016-05-22T12:41:56Z</time>
      </trkpt>
      <trkpt lat="45.31718" lon="5.88315">
        <ele>1049.5</ele>
        <time>2016-05-22T12:41:57Z</time>
      </trkpt>
      <trkpt lat="45.31718" lon="5.88313">
        <ele>1049.6</ele>
        <time>2016-05-22T12:41:58Z</time>
      </trkpt>
      <trkpt lat="45.31718" lon="5.88312">
        <ele>1049.8</ele>
        <time>2016-05-22T12:41:59Z</time>
      </trkpt>
      <trkpt lat="45.31718" lon="5.88311">
        <ele>1050</ele>
        <time>2016-05-22T12:42:00Z</time>
      </trkpt>
      <trkpt lat="45.31718" lon="5.88308">
        <ele>1050.2</ele>
        <time>2016-05-22T12:42:01Z</time>
      </trkpt>
      <trkpt lat="45.31718" lon="5.88306">
        <ele>1050.4</ele>
        <time>2016-05-22T12:42:02Z</time>
      </trkpt>
      <trkpt lat="45.31718" lon="5.88305">
        <ele>1050.7</ele>
        <time>2016-05-22T12:42:03Z</time>
      </trkpt>
      <trkpt lat="45.31719" lon="5.88304">
        <ele>1050.9</ele>
        <time>2016-05-22T12:42:04Z</time>
      </trkpt>
      <trkpt lat="45.3172" lon="5.88303">
        <ele>1051.1</ele>
        <time>2016-05-22T12:42:05Z</time>
      </trkpt>
      <trkpt lat="45.31721" lon="5.88302">
        <ele>1051.4</ele>
        <time>2016-05-22T12:42:06Z</time>
      </trkpt>
      <trkpt lat="45.31722" lon="5.88301">
        <ele>1051.6</ele>
        <time>2016-05-22T12:42:07Z</time>
      </trkpt>
      <trkpt lat="45.31722" lon="5.883">
        <ele>1051.8</ele>
        <time>2016-05-22T12:42:08Z</time>
      </trkpt>
      <trkpt lat="45.31723" lon="5.88298">
        <ele>1052.1</ele>
        <time>2016-05-22T12:42:09Z</time>
      </trkpt>
      <trkpt lat="45.31724" lon="5.88297">
        <ele>1052.3</ele>
        <time>2016-05-22T12:42:10Z</time>
      </trkpt>
      <trkpt lat="45.31725" lon="5.88297">
        <ele>1052.5</ele>
        <time>2016-05-22T12:42:11Z</time>
      </trkpt>
      <trkpt lat="45.31726" lon="5.88296">
        <ele>1052.8</ele>
        <time>2016-05-22T12:42:12Z</time>
      </trkpt>
      <trkpt lat="45.31726" lon="5.88294">
        <ele>1053</ele>
        <time>2016-05-22T12:42:13Z</time>
      </trkpt>
      <trkpt lat="45.31727" lon="5.88294">
        <ele>1053.2</ele>
        <time>2016-05-22T12:42:14Z</time>
      </trkpt>
      <trkpt lat="45.31728" lon="5.88293">
        <ele>1053.4</ele>
        <time>2016-05-22T12:42:15Z</time>
      </trkpt>
      <trkpt lat="45.31729" lon="5.88293">
        <ele>1053.6</ele>
        <time>2016-05-22T12:42:16Z</time>
      </trkpt>
      <trkpt lat="45.3173" lon="5.88292">
        <ele>1053.7</ele>
        <time>2016-05-22T12:42:17Z</time>
      </trkpt>
      <trkpt lat="45.3173" lon="5.88291">
        <ele>1053.9</ele>
        <time>2016-05-22T12:42:18Z</time>
      </trkpt>
      <trkpt lat="45.31731" lon="5.88291">
        <ele>1054.1</ele>
        <time>2016-05-22T12:42:19Z</time>
      </trkpt>
      <trkpt lat="45.31732" lon="5.8829">
        <ele>1054.3</ele>
        <time>2016-05-22T12:42:20Z</time>
      </trkpt>
      <trkpt lat="45.31732" lon="5.88289">
        <ele>1054.4</ele>
        <time>2016-05-22T12:42:21Z</time>
      </trkpt>
      <trkpt lat="45.31732" lon="5.88289">
        <ele>1054.4</ele>
        <time>2016-05-22T12:42:22Z</time>
      </trkpt>
      <trkpt lat="45.31732" lon="5.88289">
        <ele>1054.4</ele>
        <time>2016-05-22T12:42:23Z</time>
      </trkpt>
      <trkpt lat="45.31732" lon="5.88289">
        <ele>1054.4</ele>
        <time>2016-05-22T12:42:24Z</time>
      </trkpt>
      <trkpt lat="45.31733" lon="5.88289">
        <ele>1054.5</ele>
        <time>2016-05-22T12:42:25Z</time>
      </trkpt>
      <trkpt lat="45.31733" lon="5.88288">
        <ele>1054.5</ele>
        <time>2016-05-22T12:42:26Z</time>
      </trkpt>
      <trkpt lat="45.31733" lon="5.88288">
        <ele>1054.6</ele>
        <time>2016-05-22T12:42:27Z</time>
      </trkpt>
      <trkpt lat="45.31734" lon="5.88288">
        <ele>1054.7</ele>
        <time>2016-05-22T12:42:28Z</time>
      </trkpt>
      <trkpt lat="45.31735" lon="5.88288">
        <ele>1054.8</ele>
        <time>2016-05-22T12:42:29Z</time>
      </trkpt>
      <trkpt lat="45.31735" lon="5.88287">
        <ele>1055</ele>
        <time>2016-05-22T12:42:30Z</time>
      </trkpt>
      <trkpt lat="45.31736" lon="5.88287">
        <ele>1055.1</ele>
        <time>2016-05-22T12:42:31Z</time>
      </trkpt>
      <trkpt lat="45.31736" lon="5.88286">
        <ele>1055.1</ele>
        <time>2016-05-22T12:42:32Z</time>
      </trkpt>
      <trkpt lat="45.31736" lon="5.88285">
        <ele>1055.3</ele>
        <time>2016-05-22T12:42:33Z</time>
      </trkpt>
      <trkpt lat="45.31737" lon="5.88285">
        <ele>1055.4</ele>
        <time>2016-05-22T12:42:34Z</time>
      </trkpt>
      <trkpt lat="45.31737" lon="5.88284">
        <ele>1055.5</ele>
        <time>2016-05-22T12:42:35Z</time>
      </trkpt>
      <trkpt lat="45.31738" lon="5.88284">
        <ele>1055.6</ele>
        <time>2016-05-22T12:42:36Z</time>
      </trkpt>
      <trkpt lat="45.31738" lon="5.88283">
        <ele>1055.8</ele>
        <time>2016-05-22T12:42:37Z</time>
      </trkpt>
      <trkpt lat="45.31739" lon="5.88282">
        <ele>1056</ele>
        <time>2016-05-22T12:42:38Z</time>
      </trkpt>
      <trkpt lat="45.3174" lon="5.88282">
        <ele>1056.1</ele>
        <time>2016-05-22T12:42:39Z</time>
      </trkpt>
      <trkpt lat="45.31741" lon="5.88282">
        <ele>1056.2</ele>
        <time>2016-05-22T12:42:40Z</time>
      </trkpt>
      <trkpt lat="45.31742" lon="5.88282">
        <ele>1056.3</ele>
        <time>2016-05-22T12:42:41Z</time>
      </trkpt>
      <trkpt lat="45.31743" lon="5.88282">
        <ele>1056.5</ele>
        <time>2016-05-22T12:42:42Z</time>
      </trkpt>
      <trkpt lat="45.31743" lon="5.88282">
        <ele>1056.6</ele>
        <time>2016-05-22T12:42:43Z</time>
      </trkpt>
      <trkpt lat="45.31744" lon="5.88282">
        <ele>1056.6</ele>
        <time>2016-05-22T12:42:44Z</time>
      </trkpt>
      <trkpt lat="45.31745" lon="5.88283">
        <ele>1056.6</ele>
        <time>2016-05-22T12:42:45Z</time>
      </trkpt>
      <trkpt lat="45.31746" lon="5.88283">
        <ele>1056.7</ele>
        <time>2016-05-22T12:42:46Z</time>
      </trkpt>
      <trkpt lat="45.31746" lon="5.88284">
        <ele>1056.7</ele>
        <time>2016-05-22T12:42:47Z</time>
      </trkpt>
      <trkpt lat="45.31747" lon="5.88284">
        <ele>1056.9</ele>
        <time>2016-05-22T12:42:48Z</time>
      </trkpt>
      <trkpt lat="45.31748" lon="5.88284">
        <ele>1057</ele>
        <time>2016-05-22T12:42:49Z</time>
      </trkpt>
      <trkpt lat="45.31749" lon="5.88284">
        <ele>1057.1</ele>
        <time>2016-05-22T12:42:50Z</time>
      </trkpt>
      <trkpt lat="45.3175" lon="5.88284">
        <ele>1057.2</ele>
        <time>2016-05-22T12:42:51Z</time>
      </trkpt>
      <trkpt lat="45.31751" lon="5.88284">
        <ele>1057.3</ele>
        <time>2016-05-22T12:42:52Z</time>
      </trkpt>
      <trkpt lat="45.31751" lon="5.88283">
        <ele>1057.4</ele>
        <time>2016-05-22T12:42:53Z</time>
      </trkpt>
      <trkpt lat="45.31752" lon="5.88283">
        <ele>1057.5</ele>
        <time>2016-05-22T12:42:54Z</time>
      </trkpt>
      <trkpt lat="45.31753" lon="5.88283">
        <ele>1057.7</ele>
        <time>2016-05-22T12:42:55Z</time>
      </trkpt>
      <trkpt lat="45.31754" lon="5.88283">
        <ele>1057.8</ele>
        <time>2016-05-22T12:42:56Z</time>
      </trkpt>
      <trkpt lat="45.31754" lon="5.88282">
        <ele>1057.9</ele>
        <time>2016-05-22T12:42:57Z</time>
      </trkpt>
      <trkpt lat="45.31755" lon="5.88282">
        <ele>1058</ele>
        <time>2016-05-22T12:42:58Z</time>
      </trkpt>
      <trkpt lat="45.31756" lon="5.88282">
        <ele>1058.1</ele>
        <time>2016-05-22T12:42:59Z</time>
      </trkpt>
      <trkpt lat="45.31757" lon="5.88282">
        <ele>1058.2</ele>
        <time>2016-05-22T12:43:00Z</time>
      </trkpt>
      <trkpt lat="45.31757" lon="5.88282">
        <ele>1058.3</ele>
        <time>2016-05-22T12:43:01Z</time>
      </trkpt>
      <trkpt lat="45.31757" lon="5.88281">
        <ele>1058.4</ele>
        <time>2016-05-22T12:43:02Z</time>
      </trkpt>
      <trkpt lat="45.31758" lon="5.8828">
        <ele>1058.6</ele>
        <time>2016-05-22T12:43:03Z</time>
      </trkpt>
      <trkpt lat="45.31758" lon="5.88279">
        <ele>1058.7</ele>
        <time>2016-05-22T12:43:04Z</time>
      </trkpt>
      <trkpt lat="45.31759" lon="5.88278">
        <ele>1058.9</ele>
        <time>2016-05-22T12:43:05Z</time>
      </trkpt>
      <trkpt lat="45.3176" lon="5.88277">
        <ele>1059.1</ele>
        <time>2016-05-22T12:43:06Z</time>
      </trkpt>
      <trkpt lat="45.31761" lon="5.88277">
        <ele>1059.2</ele>
        <time>2016-05-22T12:43:07Z</time>
      </trkpt>
      <trkpt lat="45.31761" lon="5.88276">
        <ele>1059.4</ele>
        <time>2016-05-22T12:43:08Z</time>
      </trkpt>
      <trkpt lat="45.31762" lon="5.88276">
        <ele>1059.6</ele>
        <time>2016-05-22T12:43:09Z</time>
      </trkpt>
      <trkpt lat="45.31763" lon="5.88275">
        <ele>1059.7</ele>
        <time>2016-05-22T12:43:10Z</time>
      </trkpt>
      <trkpt lat="45.31764" lon="5.88275">
        <ele>1059.8</ele>
        <time>2016-05-22T12:43:11Z</time>
      </trkpt>
      <trkpt lat="45.31764" lon="5.88274">
        <ele>1059.9</ele>
        <time>2016-05-22T12:43:12Z</time>
      </trkpt>
      <trkpt lat="45.31765" lon="5.88274">
        <ele>1060</ele>
        <time>2016-05-22T12:43:13Z</time>
      </trkpt>
      <trkpt lat="45.31765" lon="5.88274">
        <ele>1060.2</ele>
        <time>2016-05-22T12:43:14Z</time>
      </trkpt>
      <trkpt lat="45.31766" lon="5.88273">
        <ele>1060.3</ele>
        <time>2016-05-22T12:43:15Z</time>
      </trkpt>
      <trkpt lat="45.31767" lon="5.88273">
        <ele>1060.5</ele>
        <time>2016-05-22T12:43:16Z</time>
      </trkpt>
      <trkpt lat="45.31768" lon="5.88272">
        <ele>1060.7</ele>
        <time>2016-05-22T12:43:17Z</time>
      </trkpt>
      <trkpt lat="45.31769" lon="5.88271">
        <ele>1060.8</ele>
        <time>2016-05-22T12:43:18Z</time>
      </trkpt>
      <trkpt lat="45.31769" lon="5.8827">
        <ele>1061</ele>
        <time>2016-05-22T12:43:19Z</time>
      </trkpt>
      <trkpt lat="45.3177" lon="5.8827">
        <ele>1061.1</ele>
        <time>2016-05-22T12:43:20Z</time>
      </trkpt>
      <trkpt lat="45.3177" lon="5.8827">
        <ele>1061.2</ele>
        <time>2016-05-22T12:43:21Z</time>
      </trkpt>
      <trkpt lat="45.31771" lon="5.88269">
        <ele>1061.3</ele>
        <time>2016-05-22T12:43:22Z</time>
      </trkpt>
      <trkpt lat="45.31771" lon="5.88268">
        <ele>1061.5</ele>
        <time>2016-05-22T12:43:23Z</time>
      </trkpt>
      <trkpt lat="45.31772" lon="5.88267">
        <ele>1061.6</ele>
        <time>2016-05-22T12:43:24Z</time>
      </trkpt>
      <trkpt lat="45.31773" lon="5.88267">
        <ele>1061.8</ele>
        <time>2016-05-22T12:43:25Z</time>
      </trkpt>
      <trkpt lat="45.31773" lon="5.88266">
        <ele>1061.9</ele>
        <time>2016-05-22T12:43:26Z</time>
      </trkpt>
      <trkpt lat="45.31774" lon="5.88266">
        <ele>1062.1</ele>
        <time>2016-05-22T12:43:27Z</time>
      </trkpt>
      <trkpt lat="45.31775" lon="5.88266">
        <ele>1062.3</ele>
        <time>2016-05-22T12:43:28Z</time>
      </trkpt>
      <trkpt lat="45.31776" lon="5.88265">
        <ele>1062.5</ele>
        <time>2016-05-22T12:43:29Z</time>
      </trkpt>
      <trkpt lat="45.31777" lon="5.88264">
        <ele>1062.7</ele>
        <time>2016-05-22T12:43:30Z</time>
      </trkpt>
      <trkpt lat="45.31778" lon="5.88263">
        <ele>1062.9</ele>
        <time>2016-05-22T12:43:31Z</time>
      </trkpt>
      <trkpt lat="45.31779" lon="5.88263">
        <ele>1063.1</ele>
        <time>2016-05-22T12:43:32Z</time>
      </trkpt>
      <trkpt lat="45.3178" lon="5.88261">
        <ele>1063.3</ele>
        <time>2016-05-22T12:43:33Z</time>
      </trkpt>
      <trkpt lat="45.3178" lon="5.8826">
        <ele>1063.5</ele>
        <time>2016-05-22T12:43:34Z</time>
      </trkpt>
      <trkpt lat="45.31781" lon="5.88259">
        <ele>1063.7</ele>
        <time>2016-05-22T12:43:35Z</time>
      </trkpt>
      <trkpt lat="45.31782" lon="5.88258">
        <ele>1063.9</ele>
        <time>2016-05-22T12:43:36Z</time>
      </trkpt>
      <trkpt lat="45.31782" lon="5.88257">
        <ele>1064</ele>
        <time>2016-05-22T12:43:37Z</time>
      </trkpt>
      <trkpt lat="45.31783" lon="5.88256">
        <ele>1064.2</ele>
        <time>2016-05-22T12:43:38Z</time>
      </trkpt>
      <trkpt lat="45.31784" lon="5.88255">
        <ele>1064.5</ele>
        <time>2016-05-22T12:43:39Z</time>
      </trkpt>
      <trkpt lat="45.31784" lon="5.88253">
        <ele>1064.6</ele>
        <time>2016-05-22T12:43:40Z</time>
      </trkpt>
      <trkpt lat="45.31785" lon="5.88252">
        <ele>1064.8</ele>
        <time>2016-05-22T12:43:41Z</time>
      </trkpt>
      <trkpt lat="45.31785" lon="5.88251">
        <ele>1065</ele>
        <time>2016-05-22T12:43:42Z</time>
      </trkpt>
      <trkpt lat="45.31785" lon="5.88249">
        <ele>1065.3</ele>
        <time>2016-05-22T12:43:43Z</time>
      </trkpt>
      <trkpt lat="45.31786" lon="5.88248">
        <ele>1065.5</ele>
        <time>2016-05-22T12:43:44Z</time>
      </trkpt>
      <trkpt lat="45.31786" lon="5.88246">
        <ele>1065.8</ele>
        <time>2016-05-22T12:43:45Z</time>
      </trkpt>
      <trkpt lat="45.31786" lon="5.88244">
        <ele>1066.2</ele>
        <time>2016-05-22T12:43:46Z</time>
      </trkpt>
      <trkpt lat="45.31786" lon="5.88242">
        <ele>1066.5</ele>
        <time>2016-05-22T12:43:47Z</time>
      </trkpt>
      <trkpt lat="45.31786" lon="5.8824">
        <ele>1066.8</ele>
        <time>2016-05-22T12:43:48Z</time>
      </trkpt>
      <trkpt lat="45.31787" lon="5.88239">
        <ele>1067.2</ele>
        <time>2016-05-22T12:43:49Z</time>
      </trkpt>
      <trkpt lat="45.31788" lon="5.88238">
        <ele>1067.5</ele>
        <time>2016-05-22T12:43:50Z</time>
      </trkpt>
      <trkpt lat="45.31788" lon="5.88236">
        <ele>1067.8</ele>
        <time>2016-05-22T12:43:51Z</time>
      </trkpt>
      <trkpt lat="45.31789" lon="5.88236">
        <ele>1068</ele>
        <time>2016-05-22T12:43:52Z</time>
      </trkpt>
      <trkpt lat="45.3179" lon="5.88235">
        <ele>1068.1</ele>
        <time>2016-05-22T12:43:53Z</time>
      </trkpt>
      <trkpt lat="45.3179" lon="5.88234">
        <ele>1068.3</ele>
        <time>2016-05-22T12:43:54Z</time>
      </trkpt>
      <trkpt lat="45.3179" lon="5.88233">
        <ele>1068.5</ele>
        <time>2016-05-22T12:43:55Z</time>
      </trkpt>
      <trkpt lat="45.31791" lon="5.88232">
        <ele>1068.8</ele>
        <time>2016-05-22T12:43:56Z</time>
      </trkpt>
      <trkpt lat="45.31791" lon="5.88231">
        <ele>1069</ele>
        <time>2016-05-22T12:43:57Z</time>
      </trkpt>
      <trkpt lat="45.31791" lon="5.88229">
        <ele>1069.2</ele>
        <time>2016-05-22T12:43:58Z</time>
      </trkpt>
      <trkpt lat="45.31791" lon="5.88228">
        <ele>1069.4</ele>
        <time>2016-05-22T12:43:59Z</time>
      </trkpt>
      <trkpt lat="45.31792" lon="5.88227">
        <ele>1069.7</ele>
        <time>2016-05-22T12:44:00Z</time>
      </trkpt>
      <trkpt lat="45.31793" lon="5.88227">
        <ele>1069.8</ele>
        <time>2016-05-22T12:44:01Z</time>
      </trkpt>
      <trkpt lat="45.31793" lon="5.88226">
        <ele>1070.1</ele>
        <time>2016-05-22T12:44:02Z</time>
      </trkpt>
      <trkpt lat="45.31793" lon="5.88225">
        <ele>1070.2</ele>
        <time>2016-05-22T12:44:03Z</time>
      </trkpt>
      <trkpt lat="45.31794" lon="5.88224">
        <ele>1070.5</ele>
        <time>2016-05-22T12:44:04Z</time>
      </trkpt>
      <trkpt lat="45.31794" lon="5.88222">
        <ele>1070.7</ele>
        <time>2016-05-22T12:44:05Z</time>
      </trkpt>
      <trkpt lat="45.31794" lon="5.88221">
        <ele>1070.9</ele>
        <time>2016-05-22T12:44:06Z</time>
      </trkpt>
      <trkpt lat="45.31794" lon="5.8822">
        <ele>1071.1</ele>
        <time>2016-05-22T12:44:07Z</time>
      </trkpt>
      <trkpt lat="45.31794" lon="5.88219">
        <ele>1071.3</ele>
        <time>2016-05-22T12:44:08Z</time>
      </trkpt>
      <trkpt lat="45.31795" lon="5.88218">
        <ele>1071.4</ele>
        <time>2016-05-22T12:44:09Z</time>
      </trkpt>
      <trkpt lat="45.31795" lon="5.88217">
        <ele>1071.5</ele>
        <time>2016-05-22T12:44:10Z</time>
      </trkpt>
      <trkpt lat="45.31795" lon="5.88217">
        <ele>1071.7</ele>
        <time>2016-05-22T12:44:11Z</time>
      </trkpt>
      <trkpt lat="45.31795" lon="5.88216">
        <ele>1071.8</ele>
        <time>2016-05-22T12:44:12Z</time>
      </trkpt>
      <trkpt lat="45.31795" lon="5.88215">
        <ele>1071.9</ele>
        <time>2016-05-22T12:44:13Z</time>
      </trkpt>
      <trkpt lat="45.31794" lon="5.88215">
        <ele>1071.9</ele>
        <time>2016-05-22T12:44:14Z</time>
      </trkpt>
      <trkpt lat="45.31794" lon="5.88214">
        <ele>1072</ele>
        <time>2016-05-22T12:44:15Z</time>
      </trkpt>
      <trkpt lat="45.31794" lon="5.88213">
        <ele>1072.2</ele>
        <time>2016-05-22T12:44:16Z</time>
      </trkpt>
      <trkpt lat="45.31794" lon="5.88211">
        <ele>1072.4</ele>
        <time>2016-05-22T12:44:17Z</time>
      </trkpt>
      <trkpt lat="45.31794" lon="5.88211">
        <ele>1072.5</ele>
        <time>2016-05-22T12:44:18Z</time>
      </trkpt>
      <trkpt lat="45.31794" lon="5.8821">
        <ele>1072.6</ele>
        <time>2016-05-22T12:44:19Z</time>
      </trkpt>
      <trkpt lat="45.31794" lon="5.88209">
        <ele>1072.8</ele>
        <time>2016-05-22T12:44:20Z</time>
      </trkpt>
      <trkpt lat="45.31794" lon="5.88208">
        <ele>1073</ele>
        <time>2016-05-22T12:44:21Z</time>
      </trkpt>
      <trkpt lat="45.31794" lon="5.88207">
        <ele>1073.2</ele>
        <time>2016-05-22T12:44:22Z</time>
      </trkpt>
      <trkpt lat="45.31795" lon="5.88206">
        <ele>1073.3</ele>
        <time>2016-05-22T12:44:23Z</time>
      </trkpt>
      <trkpt lat="45.31795" lon="5.88206">
        <ele>1073.3</ele>
        <time>2016-05-22T12:44:24Z</time>
      </trkpt>
      <trkpt lat="45.31795" lon="5.88205">
        <ele>1073.6</ele>
        <time>2016-05-22T12:44:25Z</time>
      </trkpt>
      <trkpt lat="45.31795" lon="5.88203">
        <ele>1073.8</ele>
        <time>2016-05-22T12:44:26Z</time>
      </trkpt>
      <trkpt lat="45.31794" lon="5.88202">
        <ele>1073.9</ele>
        <time>2016-05-22T12:44:27Z</time>
      </trkpt>
      <trkpt lat="45.31793" lon="5.882">
        <ele>1074.1</ele>
        <time>2016-05-22T12:44:28Z</time>
      </trkpt>
      <trkpt lat="45.31793" lon="5.88198">
        <ele>1074.4</ele>
        <time>2016-05-22T12:44:29Z</time>
      </trkpt>
      <trkpt lat="45.31792" lon="5.88196">
        <ele>1074.6</ele>
        <time>2016-05-22T12:44:30Z</time>
      </trkpt>
      <trkpt lat="45.31791" lon="5.88194">
        <ele>1074.7</ele>
        <time>2016-05-22T12:44:31Z</time>
      </trkpt>
      <trkpt lat="45.31791" lon="5.88192">
        <ele>1075</ele>
        <time>2016-05-22T12:44:32Z</time>
      </trkpt>
      <trkpt lat="45.31792" lon="5.88191">
        <ele>1075.2</ele>
        <time>2016-05-22T12:44:33Z</time>
      </trkpt>
      <trkpt lat="45.31792" lon="5.8819">
        <ele>1075.4</ele>
        <time>2016-05-22T12:44:34Z</time>
      </trkpt>
      <trkpt lat="45.31792" lon="5.8819">
        <ele>1075.5</ele>
        <time>2016-05-22T12:44:35Z</time>
      </trkpt>
      <trkpt lat="45.31792" lon="5.88189">
        <ele>1075.6</ele>
        <time>2016-05-22T12:44:36Z</time>
      </trkpt>
      <trkpt lat="45.31792" lon="5.88188">
        <ele>1075.9</ele>
        <time>2016-05-22T12:44:37Z</time>
      </trkpt>
      <trkpt lat="45.31792" lon="5.88186">
        <ele>1076.1</ele>
        <time>2016-05-22T12:44:38Z</time>
      </trkpt>
      <trkpt lat="45.31791" lon="5.88183">
        <ele>1076.4</ele>
        <time>2016-05-22T12:44:39Z</time>
      </trkpt>
      <trkpt lat="45.3179" lon="5.88182">
        <ele>1076.4</ele>
        <time>2016-05-22T12:44:40Z</time>
      </trkpt>
      <trkpt lat="45.3179" lon="5.8818">
        <ele>1076.8</ele>
        <time>2016-05-22T12:44:41Z</time>
      </trkpt>
      <trkpt lat="45.31789" lon="5.88179">
        <ele>1076.9</ele>
        <time>2016-05-22T12:44:42Z</time>
      </trkpt>
      <trkpt lat="45.31789" lon="5.88177">
        <ele>1077.1</ele>
        <time>2016-05-22T12:44:43Z</time>
      </trkpt>
      <trkpt lat="45.31789" lon="5.88176">
        <ele>1077.3</ele>
        <time>2016-05-22T12:44:44Z</time>
      </trkpt>
      <trkpt lat="45.31789" lon="5.88175">
        <ele>1077.6</ele>
        <time>2016-05-22T12:44:45Z</time>
      </trkpt>
      <trkpt lat="45.3179" lon="5.88173">
        <ele>1077.8</ele>
        <time>2016-05-22T12:44:46Z</time>
      </trkpt>
      <trkpt lat="45.3179" lon="5.88172">
        <ele>1078.1</ele>
        <time>2016-05-22T12:44:47Z</time>
      </trkpt>
      <trkpt lat="45.3179" lon="5.8817">
        <ele>1078.3</ele>
        <time>2016-05-22T12:44:48Z</time>
      </trkpt>
      <trkpt lat="45.3179" lon="5.88169">
        <ele>1078.5</ele>
        <time>2016-05-22T12:44:49Z</time>
      </trkpt>
      <trkpt lat="45.3179" lon="5.88167">
        <ele>1078.9</ele>
        <time>2016-05-22T12:44:50Z</time>
      </trkpt>
      <trkpt lat="45.3179" lon="5.88166">
        <ele>1079.1</ele>
        <time>2016-05-22T12:44:51Z</time>
      </trkpt>
      <trkpt lat="45.3179" lon="5.88165">
        <ele>1079.4</ele>
        <time>2016-05-22T12:44:52Z</time>
      </trkpt>
      <trkpt lat="45.3179" lon="5.88164">
        <ele>1079.6</ele>
        <time>2016-05-22T12:44:53Z</time>
      </trkpt>
      <trkpt lat="45.3179" lon="5.88161">
        <ele>1080.3</ele>
        <time>2016-05-22T12:44:54Z</time>
      </trkpt>
      <trkpt lat="45.31789" lon="5.88158">
        <ele>1080.9</ele>
        <time>2016-05-22T12:44:55Z</time>
      </trkpt>
      <trkpt lat="45.31789" lon="5.88156">
        <ele>1081.4</ele>
        <time>2016-05-22T12:44:56Z</time>
      </trkpt>
      <trkpt lat="45.3179" lon="5.88155">
        <ele>1081.7</ele>
        <time>2016-05-22T12:44:57Z</time>
      </trkpt>
      <trkpt lat="45.3179" lon="5.88153">
        <ele>1082.1</ele>
        <time>2016-05-22T12:44:58Z</time>
      </trkpt>
      <trkpt lat="45.3179" lon="5.88153">
        <ele>1082.3</ele>
        <time>2016-05-22T12:44:59Z</time>
      </trkpt>
      <trkpt lat="45.3179" lon="5.88151">
        <ele>1082.7</ele>
        <time>2016-05-22T12:45:00Z</time>
      </trkpt>
      <trkpt lat="45.3179" lon="5.8815">
        <ele>1083</ele>
        <time>2016-05-22T12:45:01Z</time>
      </trkpt>
      <trkpt lat="45.3179" lon="5.88149">
        <ele>1083.3</ele>
        <time>2016-05-22T12:45:02Z</time>
      </trkpt>
      <trkpt lat="45.31791" lon="5.88147">
        <ele>1083.6</ele>
        <time>2016-05-22T12:45:03Z</time>
      </trkpt>
      <trkpt lat="45.3179" lon="5.88147">
        <ele>1083.7</ele>
        <time>2016-05-22T12:45:04Z</time>
      </trkpt>
      <trkpt lat="45.31791" lon="5.88146">
        <ele>1083.9</ele>
        <time>2016-05-22T12:45:05Z</time>
      </trkpt>
      <trkpt lat="45.31791" lon="5.88145">
        <ele>1084.2</ele>
        <time>2016-05-22T12:45:06Z</time>
      </trkpt>
      <trkpt lat="45.31791" lon="5.88144">
        <ele>1084.4</ele>
        <time>2016-05-22T12:45:07Z</time>
      </trkpt>
      <trkpt lat="45.31791" lon="5.88143">
        <ele>1084.6</ele>
        <time>2016-05-22T12:45:08Z</time>
      </trkpt>
      <trkpt lat="45.31791" lon="5.88143">
        <ele>1084.8</ele>
        <time>2016-05-22T12:45:09Z</time>
      </trkpt>
      <trkpt lat="45.31792" lon="5.88142">
        <ele>1085</ele>
        <time>2016-05-22T12:45:10Z</time>
      </trkpt>
      <trkpt lat="45.31792" lon="5.88142">
        <ele>1085.2</ele>
        <time>2016-05-22T12:45:11Z</time>
      </trkpt>
      <trkpt lat="45.31793" lon="5.88141">
        <ele>1085.5</ele>
        <time>2016-05-22T12:45:12Z</time>
      </trkpt>
      <trkpt lat="45.31793" lon="5.8814">
        <ele>1085.8</ele>
        <time>2016-05-22T12:45:13Z</time>
      </trkpt>
      <trkpt lat="45.31794" lon="5.88139">
        <ele>1086.1</ele>
        <time>2016-05-22T12:45:14Z</time>
      </trkpt>
      <trkpt lat="45.31795" lon="5.88139">
        <ele>1086.2</ele>
        <time>2016-05-22T12:45:15Z</time>
      </trkpt>
      <trkpt lat="45.31795" lon="5.88138">
        <ele>1086.4</ele>
        <time>2016-05-22T12:45:16Z</time>
      </trkpt>
      <trkpt lat="45.31796" lon="5.88137">
        <ele>1086.6</ele>
        <time>2016-05-22T12:45:17Z</time>
      </trkpt>
      <trkpt lat="45.31796" lon="5.88137">
        <ele>1086.9</ele>
        <time>2016-05-22T12:45:18Z</time>
      </trkpt>
      <trkpt lat="45.31796" lon="5.88136">
        <ele>1087.1</ele>
        <time>2016-05-22T12:45:19Z</time>
      </trkpt>
      <trkpt lat="45.31797" lon="5.88134">
        <ele>1087.5</ele>
        <time>2016-05-22T12:45:20Z</time>
      </trkpt>
      <trkpt lat="45.31797" lon="5.88134">
        <ele>1087.8</ele>
        <time>2016-05-22T12:45:21Z</time>
      </trkpt>
      <trkpt lat="45.31798" lon="5.88133">
        <ele>1087.9</ele>
        <time>2016-05-22T12:45:22Z</time>
      </trkpt>
      <trkpt lat="45.31798" lon="5.88132">
        <ele>1088.2</ele>
        <time>2016-05-22T12:45:23Z</time>
      </trkpt>
      <trkpt lat="45.31799" lon="5.88131">
        <ele>1088.5</ele>
        <time>2016-05-22T12:45:24Z</time>
      </trkpt>
      <trkpt lat="45.31799" lon="5.8813">
        <ele>1088.7</ele>
        <time>2016-05-22T12:45:25Z</time>
      </trkpt>
      <trkpt lat="45.318" lon="5.88129">
        <ele>1089</ele>
        <time>2016-05-22T12:45:26Z</time>
      </trkpt>
      <trkpt lat="45.318" lon="5.88128">
        <ele>1089.3</ele>
        <time>2016-05-22T12:45:27Z</time>
      </trkpt>
      <trkpt lat="45.318" lon="5.88128">
        <ele>1089.6</ele>
        <time>2016-05-22T12:45:28Z</time>
      </trkpt>
      <trkpt lat="45.31801" lon="5.88127">
        <ele>1089.7</ele>
        <time>2016-05-22T12:45:29Z</time>
      </trkpt>
      <trkpt lat="45.31802" lon="5.88127">
        <ele>1089.9</ele>
        <time>2016-05-22T12:45:30Z</time>
      </trkpt>
      <trkpt lat="45.31802" lon="5.88126">
        <ele>1090.1</ele>
        <time>2016-05-22T12:45:31Z</time>
      </trkpt>
      <trkpt lat="45.31802" lon="5.88126">
        <ele>1090.3</ele>
        <time>2016-05-22T12:45:32Z</time>
      </trkpt>
      <trkpt lat="45.31803" lon="5.88125">
        <ele>1090.5</ele>
        <time>2016-05-22T12:45:33Z</time>
      </trkpt>
      <trkpt lat="45.31803" lon="5.88124">
        <ele>1090.7</ele>
        <time>2016-05-22T12:45:34Z</time>
      </trkpt>
      <trkpt lat="45.31803" lon="5.88123">
        <ele>1091</ele>
        <time>2016-05-22T12:45:35Z</time>
      </trkpt>
      <trkpt lat="45.31804" lon="5.88122">
        <ele>1091.3</ele>
        <time>2016-05-22T12:45:36Z</time>
      </trkpt>
      <trkpt lat="45.31804" lon="5.88121">
        <ele>1091.6</ele>
        <time>2016-05-22T12:45:37Z</time>
      </trkpt>
      <trkpt lat="45.31805" lon="5.8812">
        <ele>1091.8</ele>
        <time>2016-05-22T12:45:38Z</time>
      </trkpt>
      <trkpt lat="45.31805" lon="5.88119">
        <ele>1092.2</ele>
        <time>2016-05-22T12:45:39Z</time>
      </trkpt>
      <trkpt lat="45.31806" lon="5.88118">
        <ele>1092.6</ele>
        <time>2016-05-22T12:45:40Z</time>
      </trkpt>
      <trkpt lat="45.31807" lon="5.88117">
        <ele>1092.8</ele>
        <time>2016-05-22T12:45:41Z</time>
      </trkpt>
      <trkpt lat="45.31807" lon="5.88116">
        <ele>1093.1</ele>
        <time>2016-05-22T12:45:42Z</time>
      </trkpt>
      <trkpt lat="45.31808" lon="5.88115">
        <ele>1093.3</ele>
        <time>2016-05-22T12:45:43Z</time>
      </trkpt>
      <trkpt lat="45.31808" lon="5.88115">
        <ele>1093.6</ele>
        <time>2016-05-22T12:45:44Z</time>
      </trkpt>
      <trkpt lat="45.31809" lon="5.88114">
        <ele>1093.7</ele>
        <time>2016-05-22T12:45:45Z</time>
      </trkpt>
      <trkpt lat="45.3181" lon="5.88114">
        <ele>1093.9</ele>
        <time>2016-05-22T12:45:46Z</time>
      </trkpt>
      <trkpt lat="45.3181" lon="5.88113">
        <ele>1094.1</ele>
        <time>2016-05-22T12:45:47Z</time>
      </trkpt>
      <trkpt lat="45.31811" lon="5.88113">
        <ele>1094.4</ele>
        <time>2016-05-22T12:45:48Z</time>
      </trkpt>
      <trkpt lat="45.31811" lon="5.88112">
        <ele>1094.5</ele>
        <time>2016-05-22T12:45:49Z</time>
      </trkpt>
      <trkpt lat="45.31811" lon="5.88112">
        <ele>1094.6</ele>
        <time>2016-05-22T12:45:50Z</time>
      </trkpt>
      <trkpt lat="45.31812" lon="5.88112">
        <ele>1094.6</ele>
        <time>2016-05-22T12:45:51Z</time>
      </trkpt>
      <trkpt lat="45.31812" lon="5.88112">
        <ele>1094.8</ele>
        <time>2016-05-22T12:45:52Z</time>
      </trkpt>
      <trkpt lat="45.31813" lon="5.88111">
        <ele>1095</ele>
        <time>2016-05-22T12:45:53Z</time>
      </trkpt>
      <trkpt lat="45.31813" lon="5.8811">
        <ele>1095.3</ele>
        <time>2016-05-22T12:45:54Z</time>
      </trkpt>
      <trkpt lat="45.31814" lon="5.88109">
        <ele>1095.6</ele>
        <time>2016-05-22T12:45:55Z</time>
      </trkpt>
      <trkpt lat="45.31815" lon="5.88108">
        <ele>1095.9</ele>
        <time>2016-05-22T12:45:56Z</time>
      </trkpt>
      <trkpt lat="45.31815" lon="5.88107">
        <ele>1096.1</ele>
        <time>2016-05-22T12:45:57Z</time>
      </trkpt>
      <trkpt lat="45.31815" lon="5.88107">
        <ele>1096.4</ele>
        <time>2016-05-22T12:45:58Z</time>
      </trkpt>
      <trkpt lat="45.31816" lon="5.88106">
        <ele>1096.6</ele>
        <time>2016-05-22T12:45:59Z</time>
      </trkpt>
      <trkpt lat="45.31816" lon="5.88106">
        <ele>1096.7</ele>
        <time>2016-05-22T12:46:00Z</time>
      </trkpt>
      <trkpt lat="45.31817" lon="5.88105">
        <ele>1097</ele>
        <time>2016-05-22T12:46:01Z</time>
      </trkpt>
      <trkpt lat="45.31818" lon="5.88103">
        <ele>1097.4</ele>
        <time>2016-05-22T12:46:02Z</time>
      </trkpt>
      <trkpt lat="45.31818" lon="5.88104">
        <ele>1097.4</ele>
        <time>2016-05-22T12:46:03Z</time>
      </trkpt>
      <trkpt lat="45.31819" lon="5.88102">
        <ele>1097.8</ele>
        <time>2016-05-22T12:46:04Z</time>
      </trkpt>
      <trkpt lat="45.3182" lon="5.88101">
        <ele>1098.2</ele>
        <time>2016-05-22T12:46:05Z</time>
      </trkpt>
      <trkpt lat="45.3182" lon="5.881">
        <ele>1098.5</ele>
        <time>2016-05-22T12:46:06Z</time>
      </trkpt>
      <trkpt lat="45.31821" lon="5.881">
        <ele>1098.7</ele>
        <time>2016-05-22T12:46:07Z</time>
      </trkpt>
      <trkpt lat="45.31821" lon="5.88099">
        <ele>1098.9</ele>
        <time>2016-05-22T12:46:08Z</time>
      </trkpt>
      <trkpt lat="45.31822" lon="5.88098">
        <ele>1099.3</ele>
        <time>2016-05-22T12:46:09Z</time>
      </trkpt>
      <trkpt lat="45.31822" lon="5.88097">
        <ele>1099.5</ele>
        <time>2016-05-22T12:46:10Z</time>
      </trkpt>
      <trkpt lat="45.31823" lon="5.88096">
        <ele>1099.7</ele>
        <time>2016-05-22T12:46:11Z</time>
      </trkpt>
      <trkpt lat="45.31823" lon="5.88096">
        <ele>1099.9</ele>
        <time>2016-05-22T12:46:12Z</time>
      </trkpt>
      <trkpt lat="45.31824" lon="5.88095">
        <ele>1100.1</ele>
        <time>2016-05-22T12:46:13Z</time>
      </trkpt>
      <trkpt lat="45.31824" lon="5.88095">
        <ele>1100.3</ele>
        <time>2016-05-22T12:46:14Z</time>
      </trkpt>
      <trkpt lat="45.31825" lon="5.88094">
        <ele>1100.6</ele>
        <time>2016-05-22T12:46:15Z</time>
      </trkpt>
      <trkpt lat="45.31825" lon="5.88093">
        <ele>1100.8</ele>
        <time>2016-05-22T12:46:16Z</time>
      </trkpt>
      <trkpt lat="45.31826" lon="5.88092">
        <ele>1101.1</ele>
        <time>2016-05-22T12:46:17Z</time>
      </trkpt>
      <trkpt lat="45.31827" lon="5.88091">
        <ele>1101.5</ele>
        <time>2016-05-22T12:46:18Z</time>
      </trkpt>
      <trkpt lat="45.31828" lon="5.88091">
        <ele>1101.7</ele>
        <time>2016-05-22T12:46:19Z</time>
      </trkpt>
      <trkpt lat="45.31829" lon="5.8809">
        <ele>1102</ele>
        <time>2016-05-22T12:46:20Z</time>
      </trkpt>
      <trkpt lat="45.3183" lon="5.88089">
        <ele>1102.3</ele>
        <time>2016-05-22T12:46:21Z</time>
      </trkpt>
      <trkpt lat="45.31831" lon="5.88088">
        <ele>1102.6</ele>
        <time>2016-05-22T12:46:22Z</time>
      </trkpt>
      <trkpt lat="45.31831" lon="5.88087">
        <ele>1102.9</ele>
        <time>2016-05-22T12:46:23Z</time>
      </trkpt>
      <trkpt lat="45.31832" lon="5.88086">
        <ele>1103.2</ele>
        <time>2016-05-22T12:46:24Z</time>
      </trkpt>
      <trkpt lat="45.31833" lon="5.88086">
        <ele>1103.5</ele>
        <time>2016-05-22T12:46:25Z</time>
      </trkpt>
      <trkpt lat="45.31834" lon="5.88085">
        <ele>1103.8</ele>
        <time>2016-05-22T12:46:26Z</time>
      </trkpt>
      <trkpt lat="45.31835" lon="5.88085">
        <ele>1103.9</ele>
        <time>2016-05-22T12:46:27Z</time>
      </trkpt>
      <trkpt lat="45.31835" lon="5.88085">
        <ele>1104</ele>
        <time>2016-05-22T12:46:28Z</time>
      </trkpt>
      <trkpt lat="45.31836" lon="5.88084">
        <ele>1104.3</ele>
        <time>2016-05-22T12:46:29Z</time>
      </trkpt>
      <trkpt lat="45.31837" lon="5.88084">
        <ele>1104.5</ele>
        <time>2016-05-22T12:46:30Z</time>
      </trkpt>
      <trkpt lat="45.31838" lon="5.88083">
        <ele>1104.7</ele>
        <time>2016-05-22T12:46:31Z</time>
      </trkpt>
      <trkpt lat="45.31839" lon="5.88083">
        <ele>1104.9</ele>
        <time>2016-05-22T12:46:32Z</time>
      </trkpt>
      <trkpt lat="45.3184" lon="5.88083">
        <ele>1104.9</ele>
        <time>2016-05-22T12:46:33Z</time>
      </trkpt>
      <trkpt lat="45.31841" lon="5.88083">
        <ele>1105.1</ele>
        <time>2016-05-22T12:46:34Z</time>
      </trkpt>
      <trkpt lat="45.31842" lon="5.88082">
        <ele>1105.3</ele>
        <time>2016-05-22T12:46:35Z</time>
      </trkpt>
      <trkpt lat="45.31843" lon="5.88082">
        <ele>1105.6</ele>
        <time>2016-05-22T12:46:36Z</time>
      </trkpt>
      <trkpt lat="45.31844" lon="5.88081">
        <ele>1105.9</ele>
        <time>2016-05-22T12:46:37Z</time>
      </trkpt>
      <trkpt lat="45.31844" lon="5.8808">
        <ele>1106.1</ele>
        <time>2016-05-22T12:46:38Z</time>
      </trkpt>
      <trkpt lat="45.31845" lon="5.88079">
        <ele>1106.3</ele>
        <time>2016-05-22T12:46:39Z</time>
      </trkpt>
      <trkpt lat="45.31846" lon="5.88078">
        <ele>1106.6</ele>
        <time>2016-05-22T12:46:40Z</time>
      </trkpt>
      <trkpt lat="45.31847" lon="5.88077">
        <ele>1107</ele>
        <time>2016-05-22T12:46:41Z</time>
      </trkpt>
      <trkpt lat="45.31847" lon="5.88075">
        <ele>1107.4</ele>
        <time>2016-05-22T12:46:42Z</time>
      </trkpt>
      <trkpt lat="45.31847" lon="5.88074">
        <ele>1107.7</ele>
        <time>2016-05-22T12:46:43Z</time>
      </trkpt>
      <trkpt lat="45.31847" lon="5.88073">
        <ele>1107.9</ele>
        <time>2016-05-22T12:46:44Z</time>
      </trkpt>
      <trkpt lat="45.31848" lon="5.88071">
        <ele>1108.3</ele>
        <time>2016-05-22T12:46:45Z</time>
      </trkpt>
      <trkpt lat="45.31849" lon="5.8807">
        <ele>1108.7</ele>
        <time>2016-05-22T12:46:46Z</time>
      </trkpt>
      <trkpt lat="45.31849" lon="5.88069">
        <ele>1109</ele>
        <time>2016-05-22T12:46:47Z</time>
      </trkpt>
      <trkpt lat="45.3185" lon="5.88068">
        <ele>1109.3</ele>
        <time>2016-05-22T12:46:48Z</time>
      </trkpt>
      <trkpt lat="45.3185" lon="5.88067">
        <ele>1109.5</ele>
        <time>2016-05-22T12:46:49Z</time>
      </trkpt>
      <trkpt lat="45.31851" lon="5.88066">
        <ele>1109.9</ele>
        <time>2016-05-22T12:46:50Z</time>
      </trkpt>
      <trkpt lat="45.31852" lon="5.88065">
        <ele>1110.2</ele>
        <time>2016-05-22T12:46:51Z</time>
      </trkpt>
      <trkpt lat="45.31853" lon="5.88063">
        <ele>1110.6</ele>
        <time>2016-05-22T12:46:52Z</time>
      </trkpt>
      <trkpt lat="45.31853" lon="5.88062">
        <ele>1111</ele>
        <time>2016-05-22T12:46:53Z</time>
      </trkpt>
      <trkpt lat="45.31854" lon="5.88061">
        <ele>1111.2</ele>
        <time>2016-05-22T12:46:54Z</time>
      </trkpt>
      <trkpt lat="45.31854" lon="5.8806">
        <ele>1111.5</ele>
        <time>2016-05-22T12:46:55Z</time>
      </trkpt>
      <trkpt lat="45.31854" lon="5.88059">
        <ele>1111.7</ele>
        <time>2016-05-22T12:46:56Z</time>
      </trkpt>
      <trkpt lat="45.31855" lon="5.88058">
        <ele>1112.1</ele>
        <time>2016-05-22T12:46:57Z</time>
      </trkpt>
      <trkpt lat="45.31856" lon="5.88057">
        <ele>1112.4</ele>
        <time>2016-05-22T12:46:58Z</time>
      </trkpt>
      <trkpt lat="45.31856" lon="5.88056">
        <ele>1112.7</ele>
        <time>2016-05-22T12:46:59Z</time>
      </trkpt>
      <trkpt lat="45.31856" lon="5.88055">
        <ele>1112.9</ele>
        <time>2016-05-22T12:47:00Z</time>
      </trkpt>
      <trkpt lat="45.31857" lon="5.88055">
        <ele>1113</ele>
        <time>2016-05-22T12:47:01Z</time>
      </trkpt>
      <trkpt lat="45.31857" lon="5.88054">
        <ele>1113.2</ele>
        <time>2016-05-22T12:47:02Z</time>
      </trkpt>
      <trkpt lat="45.31857" lon="5.88053">
        <ele>1113.4</ele>
        <time>2016-05-22T12:47:03Z</time>
      </trkpt>
      <trkpt lat="45.31857" lon="5.88052">
        <ele>1113.6</ele>
        <time>2016-05-22T12:47:04Z</time>
      </trkpt>
      <trkpt lat="45.31858" lon="5.88052">
        <ele>1113.8</ele>
        <time>2016-05-22T12:47:05Z</time>
      </trkpt>
      <trkpt lat="45.31858" lon="5.88052">
        <ele>1113.9</ele>
        <time>2016-05-22T12:47:06Z</time>
      </trkpt>
      <trkpt lat="45.31859" lon="5.88052">
        <ele>1113.9</ele>
        <time>2016-05-22T12:47:07Z</time>
      </trkpt>
      <trkpt lat="45.31859" lon="5.88052">
        <ele>1114</ele>
        <time>2016-05-22T12:47:08Z</time>
      </trkpt>
      <trkpt lat="45.3186" lon="5.88051">
        <ele>1114.2</ele>
        <time>2016-05-22T12:47:09Z</time>
      </trkpt>
      <trkpt lat="45.31861" lon="5.8805">
        <ele>1114.5</ele>
        <time>2016-05-22T12:47:10Z</time>
      </trkpt>
      <trkpt lat="45.31861" lon="5.8805">
        <ele>1114.7</ele>
        <time>2016-05-22T12:47:11Z</time>
      </trkpt>
      <trkpt lat="45.31862" lon="5.88049">
        <ele>1114.9</ele>
        <time>2016-05-22T12:47:12Z</time>
      </trkpt>
      <trkpt lat="45.31863" lon="5.88049">
        <ele>1115.1</ele>
        <time>2016-05-22T12:47:13Z</time>
      </trkpt>
      <trkpt lat="45.31863" lon="5.88048">
        <ele>1115.4</ele>
        <time>2016-05-22T12:47:14Z</time>
      </trkpt>
      <trkpt lat="45.31864" lon="5.88048">
        <ele>1115.6</ele>
        <time>2016-05-22T12:47:15Z</time>
      </trkpt>
      <trkpt lat="45.31864" lon="5.88047">
        <ele>1115.9</ele>
        <time>2016-05-22T12:47:16Z</time>
      </trkpt>
      <trkpt lat="45.31865" lon="5.88046">
        <ele>1116.2</ele>
        <time>2016-05-22T12:47:17Z</time>
      </trkpt>
      <trkpt lat="45.31866" lon="5.88045">
        <ele>1116.6</ele>
        <time>2016-05-22T12:47:18Z</time>
      </trkpt>
      <trkpt lat="45.31867" lon="5.88044">
        <ele>1116.9</ele>
        <time>2016-05-22T12:47:19Z</time>
      </trkpt>
      <trkpt lat="45.31867" lon="5.88043">
        <ele>1117.1</ele>
        <time>2016-05-22T12:47:20Z</time>
      </trkpt>
      <trkpt lat="45.31867" lon="5.88042">
        <ele>1117.3</ele>
        <time>2016-05-22T12:47:21Z</time>
      </trkpt>
      <trkpt lat="45.31867" lon="5.88042">
        <ele>1117.5</ele>
        <time>2016-05-22T12:47:22Z</time>
      </trkpt>
      <trkpt lat="45.31868" lon="5.88041">
        <ele>1117.7</ele>
        <time>2016-05-22T12:47:23Z</time>
      </trkpt>
      <trkpt lat="45.31869" lon="5.8804">
        <ele>1118</ele>
        <time>2016-05-22T12:47:24Z</time>
      </trkpt>
      <trkpt lat="45.31869" lon="5.88039">
        <ele>1118.3</ele>
        <time>2016-05-22T12:47:25Z</time>
      </trkpt>
      <trkpt lat="45.3187" lon="5.88037">
        <ele>1118.7</ele>
        <time>2016-05-22T12:47:26Z</time>
      </trkpt>
      <trkpt lat="45.31871" lon="5.88037">
        <ele>1119.1</ele>
        <time>2016-05-22T12:47:27Z</time>
      </trkpt>
      <trkpt lat="45.31871" lon="5.88036">
        <ele>1119.4</ele>
        <time>2016-05-22T12:47:28Z</time>
      </trkpt>
      <trkpt lat="45.31872" lon="5.88035">
        <ele>1119.7</ele>
        <time>2016-05-22T12:47:29Z</time>
      </trkpt>
      <trkpt lat="45.31873" lon="5.88034">
        <ele>1119.9</ele>
        <time>2016-05-22T12:47:30Z</time>
      </trkpt>
      <trkpt lat="45.31873" lon="5.88034">
        <ele>1120</ele>
        <time>2016-05-22T12:47:31Z</time>
      </trkpt>
      <trkpt lat="45.31874" lon="5.88034">
        <ele>1120.1</ele>
        <time>2016-05-22T12:47:32Z</time>
      </trkpt>
      <trkpt lat="45.31875" lon="5.88034">
        <ele>1120.4</ele>
        <time>2016-05-22T12:47:33Z</time>
      </trkpt>
      <trkpt lat="45.31876" lon="5.88033">
        <ele>1120.7</ele>
        <time>2016-05-22T12:47:34Z</time>
      </trkpt>
      <trkpt lat="45.31876" lon="5.88032">
        <ele>1121</ele>
        <time>2016-05-22T12:47:35Z</time>
      </trkpt>
      <trkpt lat="45.31877" lon="5.88032">
        <ele>1121.3</ele>
        <time>2016-05-22T12:47:36Z</time>
      </trkpt>
      <trkpt lat="45.31878" lon="5.88031">
        <ele>1121.5</ele>
        <time>2016-05-22T12:47:37Z</time>
      </trkpt>
      <trkpt lat="45.31878" lon="5.8803">
        <ele>1121.8</ele>
        <time>2016-05-22T12:47:38Z</time>
      </trkpt>
      <trkpt lat="45.31879" lon="5.88029">
        <ele>1122</ele>
        <time>2016-05-22T12:47:39Z</time>
      </trkpt>
      <trkpt lat="45.31879" lon="5.88029">
        <ele>1122.2</ele>
        <time>2016-05-22T12:47:40Z</time>
      </trkpt>
      <trkpt lat="45.3188" lon="5.88028">
        <ele>1122.4</ele>
        <time>2016-05-22T12:47:41Z</time>
      </trkpt>
      <trkpt lat="45.3188" lon="5.88028">
        <ele>1122.5</ele>
        <time>2016-05-22T12:47:42Z</time>
      </trkpt>
      <trkpt lat="45.31881" lon="5.88028">
        <ele>1122.8</ele>
        <time>2016-05-22T12:47:43Z</time>
      </trkpt>
      <trkpt lat="45.31882" lon="5.88027">
        <ele>1123.2</ele>
        <time>2016-05-22T12:47:44Z</time>
      </trkpt>
      <trkpt lat="45.31882" lon="5.88026">
        <ele>1123.5</ele>
        <time>2016-05-22T12:47:45Z</time>
      </trkpt>
      <trkpt lat="45.31883" lon="5.88025">
        <ele>1123.8</ele>
        <time>2016-05-22T12:47:46Z</time>
      </trkpt>
      <trkpt lat="45.31884" lon="5.88024">
        <ele>1124.2</ele>
        <time>2016-05-22T12:47:47Z</time>
      </trkpt>
      <trkpt lat="45.31885" lon="5.88022">
        <ele>1124.7</ele>
        <time>2016-05-22T12:47:48Z</time>
      </trkpt>
      <trkpt lat="45.31886" lon="5.88021">
        <ele>1125.1</ele>
        <time>2016-05-22T12:47:49Z</time>
      </trkpt>
      <trkpt lat="45.31886" lon="5.88021">
        <ele>1125.4</ele>
        <time>2016-05-22T12:47:50Z</time>
      </trkpt>
      <trkpt lat="45.31887" lon="5.8802">
        <ele>1125.6</ele>
        <time>2016-05-22T12:47:51Z</time>
      </trkpt>
      <trkpt lat="45.31887" lon="5.8802">
        <ele>1125.7</ele>
        <time>2016-05-22T12:47:52Z</time>
      </trkpt>
      <trkpt lat="45.31887" lon="5.8802">
        <ele>1125.7</ele>
        <time>2016-05-22T12:47:53Z</time>
      </trkpt>
      <trkpt lat="45.31887" lon="5.8802">
        <ele>1125.6</ele>
        <time>2016-05-22T12:47:54Z</time>
      </trkpt>
      <trkpt lat="45.31888" lon="5.8802">
        <ele>1125.8</ele>
        <time>2016-05-22T12:47:55Z</time>
      </trkpt>
      <trkpt lat="45.31888" lon="5.88019">
        <ele>1126.1</ele>
        <time>2016-05-22T12:47:56Z</time>
      </trkpt>
      <trkpt lat="45.31889" lon="5.88018">
        <ele>1126.5</ele>
        <time>2016-05-22T12:47:57Z</time>
      </trkpt>
      <trkpt lat="45.31889" lon="5.88016">
        <ele>1126.9</ele>
        <time>2016-05-22T12:47:58Z</time>
      </trkpt>
      <trkpt lat="45.31889" lon="5.88015">
        <ele>1127.4</ele>
        <time>2016-05-22T12:47:59Z</time>
      </trkpt>
      <trkpt lat="45.3189" lon="5.88013">
        <ele>1127.8</ele>
        <time>2016-05-22T12:48:00Z</time>
      </trkpt>
      <trkpt lat="45.3189" lon="5.88011">
        <ele>1128.4</ele>
        <time>2016-05-22T12:48:01Z</time>
      </trkpt>
      <trkpt lat="45.31891" lon="5.88009">
        <ele>1129</ele>
        <time>2016-05-22T12:48:02Z</time>
      </trkpt>
      <trkpt lat="45.31892" lon="5.88008">
        <ele>1129.4</ele>
        <time>2016-05-22T12:48:03Z</time>
      </trkpt>
      <trkpt lat="45.31892" lon="5.88006">
        <ele>1130</ele>
        <time>2016-05-22T12:48:04Z</time>
      </trkpt>
      <trkpt lat="45.31893" lon="5.88005">
        <ele>1130.4</ele>
        <time>2016-05-22T12:48:05Z</time>
      </trkpt>
      <trkpt lat="45.31894" lon="5.88004">
        <ele>1130.8</ele>
        <time>2016-05-22T12:48:06Z</time>
      </trkpt>
      <trkpt lat="45.31895" lon="5.88003">
        <ele>1131.1</ele>
        <time>2016-05-22T12:48:07Z</time>
      </trkpt>
      <trkpt lat="45.31896" lon="5.88003">
        <ele>1131.2</ele>
        <time>2016-05-22T12:48:08Z</time>
      </trkpt>
      <trkpt lat="45.31896" lon="5.88004">
        <ele>1131.2</ele>
        <time>2016-05-22T12:48:09Z</time>
      </trkpt>
      <trkpt lat="45.31897" lon="5.88004">
        <ele>1131.3</ele>
        <time>2016-05-22T12:48:10Z</time>
      </trkpt>
      <trkpt lat="45.31898" lon="5.88005">
        <ele>1131.3</ele>
        <time>2016-05-22T12:48:11Z</time>
      </trkpt>
      <trkpt lat="45.31898" lon="5.88006">
        <ele>1131.2</ele>
        <time>2016-05-22T12:48:12Z</time>
      </trkpt>
      <trkpt lat="45.31899" lon="5.88006">
        <ele>1131.2</ele>
        <time>2016-05-22T12:48:13Z</time>
      </trkpt>
      <trkpt lat="45.31899" lon="5.88006">
        <ele>1131.2</ele>
        <time>2016-05-22T12:48:14Z</time>
      </trkpt>
      <trkpt lat="45.319" lon="5.88006">
        <ele>1131.4</ele>
        <time>2016-05-22T12:48:15Z</time>
      </trkpt>
      <trkpt lat="45.31901" lon="5.88007">
        <ele>1131.4</ele>
        <time>2016-05-22T12:48:16Z</time>
      </trkpt>
      <trkpt lat="45.31902" lon="5.88007">
        <ele>1131.5</ele>
        <time>2016-05-22T12:48:17Z</time>
      </trkpt>
      <trkpt lat="45.31903" lon="5.88008">
        <ele>1131.5</ele>
        <time>2016-05-22T12:48:18Z</time>
      </trkpt>
      <trkpt lat="45.31904" lon="5.88008">
        <ele>1131.7</ele>
        <time>2016-05-22T12:48:19Z</time>
      </trkpt>
      <trkpt lat="45.31905" lon="5.88007">
        <ele>1132</ele>
        <time>2016-05-22T12:48:20Z</time>
      </trkpt>
      <trkpt lat="45.31906" lon="5.88007">
        <ele>1132.3</ele>
        <time>2016-05-22T12:48:21Z</time>
      </trkpt>
      <trkpt lat="45.31907" lon="5.88007">
        <ele>1132.6</ele>
        <time>2016-05-22T12:48:22Z</time>
      </trkpt>
      <trkpt lat="45.31908" lon="5.88006">
        <ele>1133</ele>
        <time>2016-05-22T12:48:23Z</time>
      </trkpt>
      <trkpt lat="45.3191" lon="5.88006">
        <ele>1133.3</ele>
        <time>2016-05-22T12:48:24Z</time>
      </trkpt>
      <trkpt lat="45.31912" lon="5.88006">
        <ele>1133.7</ele>
        <time>2016-05-22T12:48:25Z</time>
      </trkpt>
      <trkpt lat="45.31914" lon="5.88006">
        <ele>1134.1</ele>
        <time>2016-05-22T12:48:26Z</time>
      </trkpt>
      <trkpt lat="45.31916" lon="5.88006">
        <ele>1134.6</ele>
        <time>2016-05-22T12:48:27Z</time>
      </trkpt>
      <trkpt lat="45.31919" lon="5.88006">
        <ele>1135</ele>
        <time>2016-05-22T12:48:28Z</time>
      </trkpt>
      <trkpt lat="45.31921" lon="5.88006">
        <ele>1135.5</ele>
        <time>2016-05-22T12:48:29Z</time>
      </trkpt>
      <trkpt lat="45.31922" lon="5.88005">
        <ele>1135.8</ele>
        <time>2016-05-22T12:48:30Z</time>
      </trkpt>
      <trkpt lat="45.31923" lon="5.88005">
        <ele>1136.2</ele>
        <time>2016-05-22T12:48:31Z</time>
      </trkpt>
      <trkpt lat="45.31924" lon="5.88004">
        <ele>1136.7</ele>
        <time>2016-05-22T12:48:32Z</time>
      </trkpt>
      <trkpt lat="45.31925" lon="5.88003">
        <ele>1137.1</ele>
        <time>2016-05-22T12:48:33Z</time>
      </trkpt>
      <trkpt lat="45.31926" lon="5.88002">
        <ele>1137.5</ele>
        <time>2016-05-22T12:48:34Z</time>
      </trkpt>
      <trkpt lat="45.31928" lon="5.88002">
        <ele>1137.9</ele>
        <time>2016-05-22T12:48:35Z</time>
      </trkpt>
      <trkpt lat="45.31929" lon="5.88001">
        <ele>1138.3</ele>
        <time>2016-05-22T12:48:36Z</time>
      </trkpt>
      <trkpt lat="45.31931" lon="5.88001">
        <ele>1138.8</ele>
        <time>2016-05-22T12:48:37Z</time>
      </trkpt>
      <trkpt lat="45.31932" lon="5.88001">
        <ele>1139.1</ele>
        <time>2016-05-22T12:48:38Z</time>
      </trkpt>
      <trkpt lat="45.31933" lon="5.88001">
        <ele>1139.4</ele>
        <time>2016-05-22T12:48:39Z</time>
      </trkpt>
      <trkpt lat="45.31934" lon="5.88">
        <ele>1139.7</ele>
        <time>2016-05-22T12:48:40Z</time>
      </trkpt>
      <trkpt lat="45.31934" lon="5.88001">
        <ele>1139.6</ele>
        <time>2016-05-22T12:48:41Z</time>
      </trkpt>
      <trkpt lat="45.31935" lon="5.88001">
        <ele>1139.6</ele>
        <time>2016-05-22T12:48:42Z</time>
      </trkpt>
      <trkpt lat="45.31936" lon="5.88002">
        <ele>1139.6</ele>
        <time>2016-05-22T12:48:43Z</time>
      </trkpt>
      <trkpt lat="45.31936" lon="5.88002">
        <ele>1139.5</ele>
        <time>2016-05-22T12:48:44Z</time>
      </trkpt>
      <trkpt lat="45.31937" lon="5.88003">
        <ele>1139.5</ele>
        <time>2016-05-22T12:48:45Z</time>
      </trkpt>
      <trkpt lat="45.31937" lon="5.88002">
        <ele>1139.7</ele>
        <time>2016-05-22T12:48:46Z</time>
      </trkpt>
      <trkpt lat="45.31938" lon="5.88002">
        <ele>1139.9</ele>
        <time>2016-05-22T12:48:47Z</time>
      </trkpt>
      <trkpt lat="45.31939" lon="5.88002">
        <ele>1140.1</ele>
        <time>2016-05-22T12:48:48Z</time>
      </trkpt>
      <trkpt lat="45.31939" lon="5.88002">
        <ele>1140.2</ele>
        <time>2016-05-22T12:48:49Z</time>
      </trkpt>
      <trkpt lat="45.31939" lon="5.88001">
        <ele>1140.4</ele>
        <time>2016-05-22T12:48:50Z</time>
      </trkpt>
      <trkpt lat="45.3194" lon="5.88001">
        <ele>1140.7</ele>
        <time>2016-05-22T12:48:51Z</time>
      </trkpt>
      <trkpt lat="45.31942" lon="5.88001">
        <ele>1141</ele>
        <time>2016-05-22T12:48:52Z</time>
      </trkpt>
      <trkpt lat="45.31944" lon="5.88001">
        <ele>1141.4</ele>
        <time>2016-05-22T12:48:53Z</time>
      </trkpt>
      <trkpt lat="45.31945" lon="5.88001">
        <ele>1141.6</ele>
        <time>2016-05-22T12:48:54Z</time>
      </trkpt>
      <trkpt lat="45.31946" lon="5.88001">
        <ele>1141.9</ele>
        <time>2016-05-22T12:48:55Z</time>
      </trkpt>
      <trkpt lat="45.31948" lon="5.88">
        <ele>1142.4</ele>
        <time>2016-05-22T12:48:56Z</time>
      </trkpt>
      <trkpt lat="45.31949" lon="5.88001">
        <ele>1142.6</ele>
        <time>2016-05-22T12:48:57Z</time>
      </trkpt>
      <trkpt lat="45.31951" lon="5.88001">
        <ele>1142.9</ele>
        <time>2016-05-22T12:48:58Z</time>
      </trkpt>
      <trkpt lat="45.31952" lon="5.88">
        <ele>1143.2</ele>
        <time>2016-05-22T12:48:59Z</time>
      </trkpt>
      <trkpt lat="45.31953" lon="5.88001">
        <ele>1143.1</ele>
        <time>2016-05-22T12:49:00Z</time>
      </trkpt>
      <trkpt lat="45.31953" lon="5.88002">
        <ele>1143.2</ele>
        <time>2016-05-22T12:49:01Z</time>
      </trkpt>
      <trkpt lat="45.31954" lon="5.88003">
        <ele>1142.8</ele>
        <time>2016-05-22T12:49:02Z</time>
      </trkpt>
      <trkpt lat="45.31954" lon="5.88003">
        <ele>1142.9</ele>
        <time>2016-05-22T12:49:03Z</time>
      </trkpt>
      <trkpt lat="45.31955" lon="5.88003">
        <ele>1143.1</ele>
        <time>2016-05-22T12:49:04Z</time>
      </trkpt>
      <trkpt lat="45.31955" lon="5.88003">
        <ele>1143.2</ele>
        <time>2016-05-22T12:49:05Z</time>
      </trkpt>
      <trkpt lat="45.31955" lon="5.88002">
        <ele>1143.5</ele>
        <time>2016-05-22T12:49:06Z</time>
      </trkpt>
      <trkpt lat="45.31956" lon="5.88001">
        <ele>1143.9</ele>
        <time>2016-05-22T12:49:07Z</time>
      </trkpt>
      <trkpt lat="45.31957" lon="5.88">
        <ele>1144.4</ele>
        <time>2016-05-22T12:49:08Z</time>
      </trkpt>
      <trkpt lat="45.31958" lon="5.87999">
        <ele>1144.8</ele>
        <time>2016-05-22T12:49:09Z</time>
      </trkpt>
      <trkpt lat="45.31959" lon="5.87998">
        <ele>1145.2</ele>
        <time>2016-05-22T12:49:10Z</time>
      </trkpt>
      <trkpt lat="45.3196" lon="5.87998">
        <ele>1145.5</ele>
        <time>2016-05-22T12:49:11Z</time>
      </trkpt>
      <trkpt lat="45.31961" lon="5.87997">
        <ele>1146</ele>
        <time>2016-05-22T12:49:12Z</time>
      </trkpt>
      <trkpt lat="45.31962" lon="5.87997">
        <ele>1146.2</ele>
        <time>2016-05-22T12:49:13Z</time>
      </trkpt>
      <trkpt lat="45.31963" lon="5.87997">
        <ele>1146.5</ele>
        <time>2016-05-22T12:49:14Z</time>
      </trkpt>
      <trkpt lat="45.31964" lon="5.87996">
        <ele>1146.9</ele>
        <time>2016-05-22T12:49:15Z</time>
      </trkpt>
      <trkpt lat="45.31965" lon="5.87995">
        <ele>1147.2</ele>
        <time>2016-05-22T12:49:16Z</time>
      </trkpt>
      <trkpt lat="45.31966" lon="5.87994">
        <ele>1147.7</ele>
        <time>2016-05-22T12:49:17Z</time>
      </trkpt>
      <trkpt lat="45.31967" lon="5.87993">
        <ele>1148.2</ele>
        <time>2016-05-22T12:49:18Z</time>
      </trkpt>
      <trkpt lat="45.31967" lon="5.87992">
        <ele>1148.6</ele>
        <time>2016-05-22T12:49:19Z</time>
      </trkpt>
      <trkpt lat="45.31968" lon="5.87991">
        <ele>1148.9</ele>
        <time>2016-05-22T12:49:20Z</time>
      </trkpt>
      <trkpt lat="45.31969" lon="5.8799">
        <ele>1149.3</ele>
        <time>2016-05-22T12:49:21Z</time>
      </trkpt>
      <trkpt lat="45.31969" lon="5.8799">
        <ele>1149.6</ele>
        <time>2016-05-22T12:49:22Z</time>
      </trkpt>
      <trkpt lat="45.31971" lon="5.87989">
        <ele>1150.1</ele>
        <time>2016-05-22T12:49:23Z</time>
      </trkpt>
      <trkpt lat="45.31971" lon="5.87988">
        <ele>1150.5</ele>
        <time>2016-05-22T12:49:24Z</time>
      </trkpt>
      <trkpt lat="45.31972" lon="5.87988">
        <ele>1150.6</ele>
        <time>2016-05-22T12:49:25Z</time>
      </trkpt>
      <trkpt lat="45.31973" lon="5.87988">
        <ele>1150.9</ele>
        <time>2016-05-22T12:49:26Z</time>
      </trkpt>
      <trkpt lat="45.31973" lon="5.87988">
        <ele>1150.9</ele>
        <time>2016-05-22T12:49:27Z</time>
      </trkpt>
      <trkpt lat="45.31974" lon="5.87988">
        <ele>1151.1</ele>
        <time>2016-05-22T12:49:28Z</time>
      </trkpt>
      <trkpt lat="45.31975" lon="5.87988">
        <ele>1151.3</ele>
        <time>2016-05-22T12:49:29Z</time>
      </trkpt>
      <trkpt lat="45.31976" lon="5.87987">
        <ele>1151.6</ele>
        <time>2016-05-22T12:49:30Z</time>
      </trkpt>
      <trkpt lat="45.31977" lon="5.87986">
        <ele>1152.1</ele>
        <time>2016-05-22T12:49:31Z</time>
      </trkpt>
      <trkpt lat="45.31979" lon="5.87986">
        <ele>1152.6</ele>
        <time>2016-05-22T12:49:32Z</time>
      </trkpt>
      <trkpt lat="45.31981" lon="5.87986">
        <ele>1152.9</ele>
        <time>2016-05-22T12:49:33Z</time>
      </trkpt>
      <trkpt lat="45.31981" lon="5.87986">
        <ele>1153</ele>
        <time>2016-05-22T12:49:34Z</time>
      </trkpt>
      <trkpt lat="45.31982" lon="5.87986">
        <ele>1153.1</ele>
        <time>2016-05-22T12:49:35Z</time>
      </trkpt>
      <trkpt lat="45.31983" lon="5.87987">
        <ele>1153.2</ele>
        <time>2016-05-22T12:49:36Z</time>
      </trkpt>
      <trkpt lat="45.31985" lon="5.87987">
        <ele>1153.5</ele>
        <time>2016-05-22T12:49:37Z</time>
      </trkpt>
      <trkpt lat="45.31986" lon="5.87986">
        <ele>1154</ele>
        <time>2016-05-22T12:49:38Z</time>
      </trkpt>
      <trkpt lat="45.31987" lon="5.87985">
        <ele>1154.3</ele>
        <time>2016-05-22T12:49:39Z</time>
      </trkpt>
      <trkpt lat="45.31988" lon="5.87985">
        <ele>1154.6</ele>
        <time>2016-05-22T12:49:40Z</time>
      </trkpt>
      <trkpt lat="45.31989" lon="5.87985">
        <ele>1154.7</ele>
        <time>2016-05-22T12:49:41Z</time>
      </trkpt>
      <trkpt lat="45.31989" lon="5.87985">
        <ele>1154.9</ele>
        <time>2016-05-22T12:49:42Z</time>
      </trkpt>
      <trkpt lat="45.31989" lon="5.87985">
        <ele>1154.9</ele>
        <time>2016-05-22T12:49:43Z</time>
      </trkpt>
      <trkpt lat="45.3199" lon="5.87985">
        <ele>1154.9</ele>
        <time>2016-05-22T12:49:44Z</time>
      </trkpt>
      <trkpt lat="45.31989" lon="5.87985">
        <ele>1154.7</ele>
        <time>2016-05-22T12:49:45Z</time>
      </trkpt>
      <trkpt lat="45.31989" lon="5.87986">
        <ele>1154.7</ele>
        <time>2016-05-22T12:49:46Z</time>
      </trkpt>
      <trkpt lat="45.3199" lon="5.87985">
        <ele>1154.8</ele>
        <time>2016-05-22T12:49:47Z</time>
      </trkpt>
      <trkpt lat="45.3199" lon="5.87984">
        <ele>1155.1</ele>
        <time>2016-05-22T12:49:48Z</time>
      </trkpt>
      <trkpt lat="45.3199" lon="5.87984">
        <ele>1155.1</ele>
        <time>2016-05-22T12:49:49Z</time>
      </trkpt>
      <trkpt lat="45.31991" lon="5.87985">
        <ele>1155.1</ele>
        <time>2016-05-22T12:49:50Z</time>
      </trkpt>
      <trkpt lat="45.31991" lon="5.87985">
        <ele>1155.2</ele>
        <time>2016-05-22T12:49:51Z</time>
      </trkpt>
      <trkpt lat="45.31992" lon="5.87986">
        <ele>1155.2</ele>
        <time>2016-05-22T12:49:52Z</time>
      </trkpt>
      <trkpt lat="45.31993" lon="5.87985">
        <ele>1155.5</ele>
        <time>2016-05-22T12:49:53Z</time>
      </trkpt>
      <trkpt lat="45.31994" lon="5.87985">
        <ele>1155.8</ele>
        <time>2016-05-22T12:49:54Z</time>
      </trkpt>
      <trkpt lat="45.31994" lon="5.87984">
        <ele>1156</ele>
        <time>2016-05-22T12:49:55Z</time>
      </trkpt>
      <trkpt lat="45.31995" lon="5.87984">
        <ele>1156.2</ele>
        <time>2016-05-22T12:49:56Z</time>
      </trkpt>
      <trkpt lat="45.31995" lon="5.87984">
        <ele>1156.2</ele>
        <time>2016-05-22T12:49:57Z</time>
      </trkpt>
      <trkpt lat="45.31996" lon="5.87984">
        <ele>1156.3</ele>
        <time>2016-05-22T12:49:58Z</time>
      </trkpt>
      <trkpt lat="45.31997" lon="5.87984">
        <ele>1156.5</ele>
        <time>2016-05-22T12:49:59Z</time>
      </trkpt>
      <trkpt lat="45.31997" lon="5.87984">
        <ele>1156.7</ele>
        <time>2016-05-22T12:50:00Z</time>
      </trkpt>
      <trkpt lat="45.31998" lon="5.87983">
        <ele>1157</ele>
        <time>2016-05-22T12:50:01Z</time>
      </trkpt>
      <trkpt lat="45.31999" lon="5.87982">
        <ele>1157.4</ele>
        <time>2016-05-22T12:50:02Z</time>
      </trkpt>
      <trkpt lat="45.32" lon="5.87981">
        <ele>1157.8</ele>
        <time>2016-05-22T12:50:03Z</time>
      </trkpt>
      <trkpt lat="45.32" lon="5.8798">
        <ele>1158.3</ele>
        <time>2016-05-22T12:50:04Z</time>
      </trkpt>
      <trkpt lat="45.32002" lon="5.87979">
        <ele>1158.5</ele>
        <time>2016-05-22T12:50:05Z</time>
      </trkpt>
      <trkpt lat="45.32003" lon="5.87979">
        <ele>1158.8</ele>
        <time>2016-05-22T12:50:06Z</time>
      </trkpt>
      <trkpt lat="45.32004" lon="5.87978">
        <ele>1159</ele>
        <time>2016-05-22T12:50:07Z</time>
      </trkpt>
      <trkpt lat="45.32005" lon="5.87978">
        <ele>1159.2</ele>
        <time>2016-05-22T12:50:08Z</time>
      </trkpt>
      <trkpt lat="45.32007" lon="5.87979">
        <ele>1159.2</ele>
        <time>2016-05-22T12:50:09Z</time>
      </trkpt>
      <trkpt lat="45.32008" lon="5.87979">
        <ele>1159.3</ele>
        <time>2016-05-22T12:50:10Z</time>
      </trkpt>
      <trkpt lat="45.32009" lon="5.87979">
        <ele>1159.5</ele>
        <time>2016-05-22T12:50:11Z</time>
      </trkpt>
      <trkpt lat="45.3201" lon="5.87979">
        <ele>1159.5</ele>
        <time>2016-05-22T12:50:12Z</time>
      </trkpt>
      <trkpt lat="45.3201" lon="5.87978">
        <ele>1159.6</ele>
        <time>2016-05-22T12:50:13Z</time>
      </trkpt>
      <trkpt lat="45.32011" lon="5.87978">
        <ele>1159.8</ele>
        <time>2016-05-22T12:50:14Z</time>
      </trkpt>
      <trkpt lat="45.32011" lon="5.87978">
        <ele>1159.9</ele>
        <time>2016-05-22T12:50:15Z</time>
      </trkpt>
      <trkpt lat="45.32011" lon="5.87978">
        <ele>1159.9</ele>
        <time>2016-05-22T12:50:16Z</time>
      </trkpt>
      <trkpt lat="45.32012" lon="5.87978">
        <ele>1159.9</ele>
        <time>2016-05-22T12:50:17Z</time>
      </trkpt>
      <trkpt lat="45.32013" lon="5.87978">
        <ele>1160</ele>
        <time>2016-05-22T12:50:18Z</time>
      </trkpt>
      <trkpt lat="45.32013" lon="5.87978">
        <ele>1160.1</ele>
        <time>2016-05-22T12:50:19Z</time>
      </trkpt>
      <trkpt lat="45.32014" lon="5.87978">
        <ele>1160.2</ele>
        <time>2016-05-22T12:50:20Z</time>
      </trkpt>
      <trkpt lat="45.32013" lon="5.87977">
        <ele>1160.2</ele>
        <time>2016-05-22T12:50:21Z</time>
      </trkpt>
      <trkpt lat="45.32013" lon="5.87977">
        <ele>1160.3</ele>
        <time>2016-05-22T12:50:22Z</time>
      </trkpt>
      <trkpt lat="45.32013" lon="5.87977">
        <ele>1160.4</ele>
        <time>2016-05-22T12:50:23Z</time>
      </trkpt>
      <trkpt lat="45.32014" lon="5.87976">
        <ele>1160.5</ele>
        <time>2016-05-22T12:50:24Z</time>
      </trkpt>
      <trkpt lat="45.32014" lon="5.87977">
        <ele>1160.5</ele>
        <time>2016-05-22T12:50:25Z</time>
      </trkpt>
      <trkpt lat="45.32015" lon="5.87977">
        <ele>1160.6</ele>
        <time>2016-05-22T12:50:26Z</time>
      </trkpt>
      <trkpt lat="45.32016" lon="5.87977">
        <ele>1160.7</ele>
        <time>2016-05-22T12:50:27Z</time>
      </trkpt>
      <trkpt lat="45.32017" lon="5.87977">
        <ele>1160.8</ele>
        <time>2016-05-22T12:50:28Z</time>
      </trkpt>
      <trkpt lat="45.32018" lon="5.87977">
        <ele>1160.9</ele>
        <time>2016-05-22T12:50:29Z</time>
      </trkpt>
      <trkpt lat="45.32018" lon="5.87977">
        <ele>1160.9</ele>
        <time>2016-05-22T12:50:30Z</time>
      </trkpt>
      <trkpt lat="45.32019" lon="5.87977">
        <ele>1161</ele>
        <time>2016-05-22T12:50:31Z</time>
      </trkpt>
      <trkpt lat="45.3202" lon="5.87977">
        <ele>1161</ele>
        <time>2016-05-22T12:50:32Z</time>
      </trkpt>
      <trkpt lat="45.32021" lon="5.87977">
        <ele>1161.1</ele>
        <time>2016-05-22T12:50:33Z</time>
      </trkpt>
      <trkpt lat="45.32022" lon="5.87977">
        <ele>1161.2</ele>
        <time>2016-05-22T12:50:34Z</time>
      </trkpt>
      <trkpt lat="45.32023" lon="5.87978">
        <ele>1161</ele>
        <time>2016-05-22T12:50:35Z</time>
      </trkpt>
      <trkpt lat="45.32023" lon="5.87979">
        <ele>1160.8</ele>
        <time>2016-05-22T12:50:36Z</time>
      </trkpt>
      <trkpt lat="45.32024" lon="5.8798">
        <ele>1160.8</ele>
        <time>2016-05-22T12:50:37Z</time>
      </trkpt>
      <trkpt lat="45.32025" lon="5.8798">
        <ele>1160.7</ele>
        <time>2016-05-22T12:50:38Z</time>
      </trkpt>
      <trkpt lat="45.32025" lon="5.87981">
        <ele>1160.6</ele>
        <time>2016-05-22T12:50:39Z</time>
      </trkpt>
      <trkpt lat="45.32026" lon="5.87981">
        <ele>1160.6</ele>
        <time>2016-05-22T12:50:40Z</time>
      </trkpt>
      <trkpt lat="45.32026" lon="5.87981">
        <ele>1160.5</ele>
        <time>2016-05-22T12:50:41Z</time>
      </trkpt>
      <trkpt lat="45.32021" lon="5.87968">
        <ele>1163.7</ele>
        <time>2016-01-17T14:58:06Z</time>
      </trkpt>
      <trkpt lat="45.32023" lon="5.87982">
        <ele>1160.2</ele>
        <time>2016-01-17T14:58:09Z</time>
      </trkpt>
      <trkpt lat="45.32023" lon="5.87995">
        <ele>1156.6</ele>
        <time>2016-01-17T14:58:12Z</time>
      </trkpt>
      <trkpt lat="45.32028" lon="5.88006">
        <ele>1154.4</ele>
        <time>2016-01-17T14:58:15Z</time>
      </trkpt>
      <trkpt lat="45.32036" lon="5.88018">
        <ele>1152.9</ele>
        <time>2016-01-17T14:58:19Z</time>
      </trkpt>
      <trkpt lat="45.32046" lon="5.88025">
        <ele>1152.9</ele>
        <time>2016-01-17T14:58:23Z</time>
      </trkpt>
      <trkpt lat="45.32058" lon="5.88027">
        <ele>1154.2</ele>
        <time>2016-01-17T14:58:27Z</time>
      </trkpt>
      <trkpt lat="45.32068" lon="5.88026">
        <ele>1155.8</ele>
        <time>2016-01-17T14:58:31Z</time>
      </trkpt>
      <trkpt lat="45.32079" lon="5.88022">
        <ele>1157.8</ele>
        <time>2016-01-17T14:58:35Z</time>
      </trkpt>
      <trkpt lat="45.32089" lon="5.88016">
        <ele>1161.5</ele>
        <time>2016-01-17T14:58:39Z</time>
      </trkpt>
      <trkpt lat="45.32099" lon="5.88014">
        <ele>1165.6</ele>
        <time>2016-01-17T14:58:43Z</time>
      </trkpt>
      <trkpt lat="45.32107" lon="5.88024">
        <ele>1167.4</ele>
        <time>2016-01-17T14:58:47Z</time>
      </trkpt>
      <trkpt lat="45.32113" lon="5.88036">
        <ele>1168.1</ele>
        <time>2016-01-17T14:58:51Z</time>
      </trkpt>
      <trkpt lat="45.32119" lon="5.88048">
        <ele>1168.9</ele>
        <time>2016-01-17T14:58:55Z</time>
      </trkpt>
      <trkpt lat="45.32127" lon="5.88058">
        <ele>1170.4</ele>
        <time>2016-01-17T14:59:00Z</time>
      </trkpt>
      <trkpt lat="45.32137" lon="5.88066">
        <ele>1172.9</ele>
        <time>2016-01-17T14:59:05Z</time>
      </trkpt>
      <trkpt lat="45.32145" lon="5.88073">
        <ele>1175</ele>
        <time>2016-01-17T14:59:09Z</time>
      </trkpt>
      <trkpt lat="45.32154" lon="5.88079">
        <ele>1177.3</ele>
        <time>2016-01-17T14:59:13Z</time>
      </trkpt>
      <trkpt lat="45.32163" lon="5.88085">
        <ele>1179.3</ele>
        <time>2016-01-17T14:59:18Z</time>
      </trkpt>
      <trkpt lat="45.32171" lon="5.88093">
        <ele>1180.9</ele>
        <time>2016-01-17T14:59:23Z</time>
      </trkpt>
      <trkpt lat="45.32179" lon="5.88099">
        <ele>1183.1</ele>
        <time>2016-01-17T14:59:27Z</time>
      </trkpt>
      <trkpt lat="45.32188" lon="5.88106">
        <ele>1185</ele>
        <time>2016-01-17T14:59:32Z</time>
      </trkpt>
      <trkpt lat="45.32196" lon="5.88112">
        <ele>1187.2</ele>
        <time>2016-01-17T14:59:38Z</time>
      </trkpt>
      <trkpt lat="45.32205" lon="5.88118">
        <ele>1189.9</ele>
        <time>2016-01-17T14:59:43Z</time>
      </trkpt>
      <trkpt lat="45.32214" lon="5.88124">
        <ele>1192.4</ele>
        <time>2016-01-17T14:59:48Z</time>
      </trkpt>
      <trkpt lat="45.32223" lon="5.88131">
        <ele>1195.1</ele>
        <time>2016-01-17T14:59:53Z</time>
      </trkpt>
      <trkpt lat="45.3223" lon="5.88139">
        <ele>1197</ele>
        <time>2016-01-17T14:59:57Z</time>
      </trkpt>
      <trkpt lat="45.32238" lon="5.8815">
        <ele>1198.8</ele>
        <time>2016-01-17T15:00:02Z</time>
      </trkpt>
      <trkpt lat="45.32244" lon="5.88161">
        <ele>1200</ele>
        <time>2016-01-17T15:00:07Z</time>
      </trkpt>
      <trkpt lat="45.32252" lon="5.88172">
        <ele>1203.4</ele>
        <time>2016-01-17T15:00:13Z</time>
      </trkpt>
      <trkpt lat="45.32259" lon="5.88183">
        <ele>1207.8</ele>
        <time>2016-01-17T15:00:18Z</time>
      </trkpt>
      <trkpt lat="45.32264" lon="5.88197">
        <ele>1211.6</ele>
        <time>2016-01-17T15:00:23Z</time>
      </trkpt>
      <trkpt lat="45.32265" lon="5.8821">
        <ele>1213.6</ele>
        <time>2016-01-17T15:00:28Z</time>
      </trkpt>
      <trkpt lat="45.32263" lon="5.88223">
        <ele>1214.1</ele>
        <time>2016-01-17T15:00:33Z</time>
      </trkpt>
      <trkpt lat="45.32263" lon="5.88236">
        <ele>1215.2</ele>
        <time>2016-01-17T15:00:38Z</time>
      </trkpt>
      <trkpt lat="45.32263" lon="5.88249">
        <ele>1216.3</ele>
        <time>2016-01-17T15:00:43Z</time>
      </trkpt>
      <trkpt lat="45.3226" lon="5.88263">
        <ele>1216.1</ele>
        <time>2016-01-17T15:00:49Z</time>
      </trkpt>
      <trkpt lat="45.32258" lon="5.88276">
        <ele>1215.7</ele>
        <time>2016-01-17T15:00:54Z</time>
      </trkpt>
      <trkpt lat="45.32256" lon="5.8829">
        <ele>1215.3</ele>
        <time>2016-01-17T15:01:00Z</time>
      </trkpt>
      <trkpt lat="45.32254" lon="5.88303">
        <ele>1215.2</ele>
        <time>2016-01-17T15:01:05Z</time>
      </trkpt>
      <trkpt lat="45.32253" lon="5.88316">
        <ele>1215.2</ele>
        <time>2016-01-17T15:01:10Z</time>
      </trkpt>
      <trkpt lat="45.32251" lon="5.8833">
        <ele>1215.4</ele>
        <time>2016-01-17T15:01:15Z</time>
      </trkpt>
      <trkpt lat="45.32251" lon="5.88343">
        <ele>1215.3</ele>
        <time>2016-01-17T15:01:20Z</time>
      </trkpt>
      <trkpt lat="45.32247" lon="5.88356">
        <ele>1212.9</ele>
        <time>2016-01-17T15:01:25Z</time>
      </trkpt>
      <trkpt lat="45.32245" lon="5.88371">
        <ele>1211.9</ele>
        <time>2016-01-17T15:01:30Z</time>
      </trkpt>
      <trkpt lat="45.32243" lon="5.88384">
        <ele>1210.4</ele>
        <time>2016-01-17T15:01:35Z</time>
      </trkpt>
      <trkpt lat="45.32241" lon="5.88398">
        <ele>1209.4</ele>
        <time>2016-01-17T15:01:40Z</time>
      </trkpt>
      <trkpt lat="45.3224" lon="5.88412">
        <ele>1209</ele>
        <time>2016-01-17T15:01:45Z</time>
      </trkpt>
      <trkpt lat="45.32242" lon="5.88427">
        <ele>1208.4</ele>
        <time>2016-01-17T15:01:50Z</time>
      </trkpt>
      <trkpt lat="45.32244" lon="5.88442">
        <ele>1207.2</ele>
        <time>2016-01-17T15:01:55Z</time>
      </trkpt>
      <trkpt lat="45.32247" lon="5.88457">
        <ele>1206.2</ele>
        <time>2016-01-17T15:02:00Z</time>
      </trkpt>
      <trkpt lat="45.32248" lon="5.88472">
        <ele>1204.6</ele>
        <time>2016-01-17T15:02:05Z</time>
      </trkpt>
      <trkpt lat="45.32249" lon="5.88485">
        <ele>1202.8</ele>
        <time>2016-01-17T15:02:10Z</time>
      </trkpt>
      <trkpt lat="45.32253" lon="5.88499">
        <ele>1202</ele>
        <time>2016-01-17T15:02:14Z</time>
      </trkpt>
      <trkpt lat="45.32258" lon="5.88512">
        <ele>1199.7</ele>
        <time>2016-01-17T15:02:18Z</time>
      </trkpt>
      <trkpt lat="45.32264" lon="5.88522">
        <ele>1198.7</ele>
        <time>2016-01-17T15:02:22Z</time>
      </trkpt>
      <trkpt lat="45.32273" lon="5.88529">
        <ele>1198.8</ele>
        <time>2016-01-17T15:02:27Z</time>
      </trkpt>
      <trkpt lat="45.32281" lon="5.88537">
        <ele>1198.9</ele>
        <time>2016-01-17T15:02:32Z</time>
      </trkpt>
      <trkpt lat="45.3229" lon="5.88541">
        <ele>1199.9</ele>
        <time>2016-01-17T15:02:37Z</time>
      </trkpt>
      <trkpt lat="45.32301" lon="5.88544">
        <ele>1201.9</ele>
        <time>2016-01-17T15:02:43Z</time>
      </trkpt>
      <trkpt lat="45.32311" lon="5.88546">
        <ele>1203.6</ele>
        <time>2016-01-17T15:02:49Z</time>
      </trkpt>
      <trkpt lat="45.32321" lon="5.88548">
        <ele>1205.7</ele>
        <time>2016-01-17T15:02:54Z</time>
      </trkpt>
      <trkpt lat="45.32331" lon="5.88552">
        <ele>1207.2</ele>
        <time>2016-01-17T15:03:00Z</time>
      </trkpt>
      <trkpt lat="45.3234" lon="5.88556">
        <ele>1206.7</ele>
        <time>2016-01-17T15:03:05Z</time>
      </trkpt>
      <trkpt lat="45.32348" lon="5.88561">
        <ele>1205.3</ele>
        <time>2016-01-17T15:03:10Z</time>
      </trkpt>
      <trkpt lat="45.32357" lon="5.88568">
        <ele>1203.5</ele>
        <time>2016-01-17T15:03:15Z</time>
      </trkpt>
      <trkpt lat="45.32366" lon="5.88575">
        <ele>1201.6</ele>
        <time>2016-01-17T15:03:19Z</time>
      </trkpt>
      <trkpt lat="45.32375" lon="5.88583">
        <ele>1199.4</ele>
        <time>2016-01-17T15:03:24Z</time>
      </trkpt>
      <trkpt lat="45.32383" lon="5.88589">
        <ele>1197.3</ele>
        <time>2016-01-17T15:03:28Z</time>
      </trkpt>
      <trkpt lat="45.32391" lon="5.88595">
        <ele>1195.3</ele>
        <time>2016-01-17T15:03:32Z</time>
      </trkpt>
      <trkpt lat="45.32399" lon="5.88601">
        <ele>1193.1</ele>
        <time>2016-01-17T15:03:36Z</time>
      </trkpt>
      <trkpt lat="45.3241" lon="5.88607">
        <ele>1191.1</ele>
        <time>2016-01-17T15:03:41Z</time>
      </trkpt>
      <trkpt lat="45.32418" lon="5.88612">
        <ele>1188.4</ele>
        <time>2016-01-17T15:03:45Z</time>
      </trkpt>
      <trkpt lat="45.32427" lon="5.88616">
        <ele>1183.7</ele>
        <time>2016-01-17T15:03:49Z</time>
      </trkpt>
      <trkpt lat="45.32437" lon="5.8862">
        <ele>1178.2</ele>
        <time>2016-01-17T15:03:54Z</time>
      </trkpt>
      <trkpt lat="45.32447" lon="5.88618">
        <ele>1175.1</ele>
        <time>2016-01-17T15:04:00Z</time>
      </trkpt>
      <trkpt lat="45.32455" lon="5.88613">
        <ele>1173.1</ele>
        <time>2016-01-17T15:05:35Z</time>
      </trkpt>
      <trkpt lat="45.32447" lon="5.88604">
        <ele>1179.1</ele>
        <time>2016-01-17T15:05:44Z</time>
      </trkpt>
      <trkpt lat="45.32437" lon="5.88599">
        <ele>1184.8</ele>
        <time>2016-01-17T15:05:51Z</time>
      </trkpt>
      <trkpt lat="45.32429" lon="5.88592">
        <ele>1190.2</ele>
        <time>2016-01-17T15:05:57Z</time>
      </trkpt>
      <trkpt lat="45.32421" lon="5.88585">
        <ele>1196.1</ele>
        <time>2016-01-17T15:06:02Z</time>
      </trkpt>
      <trkpt lat="45.32412" lon="5.88577">
        <ele>1200.1</ele>
        <time>2016-01-17T15:06:07Z</time>
      </trkpt>
      <trkpt lat="45.32403" lon="5.88566">
        <ele>1203.7</ele>
        <time>2016-01-17T15:06:13Z</time>
      </trkpt>
      <trkpt lat="45.32397" lon="5.88556">
        <ele>1206.6</ele>
        <time>2016-01-17T15:06:17Z</time>
      </trkpt>
      <trkpt lat="45.3239" lon="5.88545">
        <ele>1209.9</ele>
        <time>2016-01-17T15:06:22Z</time>
      </trkpt>
      <trkpt lat="45.32384" lon="5.88533">
        <ele>1213.1</ele>
        <time>2016-01-17T15:06:27Z</time>
      </trkpt>
      <trkpt lat="45.32377" lon="5.88523">
        <ele>1216</ele>
        <time>2016-01-17T15:06:32Z</time>
      </trkpt>
      <trkpt lat="45.32372" lon="5.88511">
        <ele>1219</ele>
        <time>2016-01-17T15:06:38Z</time>
      </trkpt>
      <trkpt lat="45.32366" lon="5.885">
        <ele>1221.6</ele>
        <time>2016-01-17T15:06:43Z</time>
      </trkpt>
      <trkpt lat="45.32358" lon="5.88491">
        <ele>1223</ele>
        <time>2016-01-17T15:06:48Z</time>
      </trkpt>
      <trkpt lat="45.3235" lon="5.88481">
        <ele>1224.5</ele>
        <time>2016-01-17T15:06:54Z</time>
      </trkpt>
      <trkpt lat="45.32342" lon="5.88472">
        <ele>1225.7</ele>
        <time>2016-01-17T15:07:00Z</time>
      </trkpt>
      <trkpt lat="45.32334" lon="5.88463">
        <ele>1226.7</ele>
        <time>2016-01-17T15:07:06Z</time>
      </trkpt>
      <trkpt lat="45.3234" lon="5.88453">
        <ele>1229.1</ele>
        <time>2016-01-17T15:07:18Z</time>
      </trkpt>
      <trkpt lat="45.32349" lon="5.8845">
        <ele>1230.4</ele>
        <time>2016-01-17T15:07:25Z</time>
      </trkpt>
      <trkpt lat="45.32359" lon="5.88448">
        <ele>1231.5</ele>
        <time>2016-01-17T15:07:34Z</time>
      </trkpt>
      <trkpt lat="45.32368" lon="5.88442">
        <ele>1233.3</ele>
        <time>2016-01-17T15:07:42Z</time>
      </trkpt>
      <trkpt lat="45.32378" lon="5.8844">
        <ele>1234.7</ele>
        <time>2016-01-17T15:07:53Z</time>
      </trkpt>
      <trkpt lat="45.32388" lon="5.88438">
        <ele>1235.7</ele>
        <time>2016-01-17T15:08:01Z</time>
      </trkpt>
      <trkpt lat="45.32397" lon="5.88436">
        <ele>1237.2</ele>
        <time>2016-01-17T15:08:08Z</time>
      </trkpt>
      <trkpt lat="45.32407" lon="5.88436">
        <ele>1237.9</ele>
        <time>2016-01-17T15:08:25Z</time>
      </trkpt>
      <trkpt lat="45.32415" lon="5.88442">
        <ele>1237.2</ele>
        <time>2016-01-17T15:08:41Z</time>
      </trkpt>
      <trkpt lat="45.32424" lon="5.88446">
        <ele>1233.3</ele>
        <time>2016-01-17T15:08:59Z</time>
      </trkpt>
      <trkpt lat="45.32433" lon="5.88446">
        <ele>1229.8</ele>
        <time>2016-01-17T15:09:23Z</time>
      </trkpt>
      <trkpt lat="45.32442" lon="5.88438">
        <ele>1228.1</ele>
        <time>2016-01-17T15:09:38Z</time>
      </trkpt>
      <trkpt lat="45.3245" lon="5.88429">
        <ele>1226.7</ele>
        <time>2016-01-17T15:09:46Z</time>
      </trkpt>
      <trkpt lat="45.32459" lon="5.88426">
        <ele>1224</ele>
        <time>2016-01-17T15:09:53Z</time>
      </trkpt>
      <trkpt lat="45.32469" lon="5.88425">
        <ele>1220</ele>
        <time>2016-01-17T15:09:59Z</time>
      </trkpt>
      <trkpt lat="45.32476" lon="5.88415">
        <ele>1220.4</ele>
        <time>2016-01-17T15:10:08Z</time>
      </trkpt>
      <trkpt lat="45.32482" lon="5.88405">
        <ele>1221.6</ele>
        <time>2016-01-17T15:10:17Z</time>
      </trkpt>
      <trkpt lat="45.32481" lon="5.88391">
        <ele>1226.4</ele>
        <time>2016-01-17T15:10:39Z</time>
      </trkpt>
      <trkpt lat="45.32483" lon="5.88378">
        <ele>1230.3</ele>
        <time>2016-01-17T15:10:57Z</time>
      </trkpt>
      <trkpt lat="45.32483" lon="5.88365">
        <ele>1234.7</ele>
        <time>2016-01-17T15:11:18Z</time>
      </trkpt>
      <trkpt lat="45.32477" lon="5.88356">
        <ele>1240.1</ele>
        <time>2016-01-17T15:11:56Z</time>
      </trkpt>
      <trkpt lat="45.32479" lon="5.88344">
        <ele>1243.5</ele>
        <time>2016-01-17T15:12:06Z</time>
      </trkpt>
      <trkpt lat="45.3248" lon="5.8833">
        <ele>1247.8</ele>
        <time>2016-01-17T15:12:22Z</time>
      </trkpt>
      <trkpt lat="45.32481" lon="5.88317">
        <ele>1251</ele>
        <time>2016-01-17T15:12:43Z</time>
      </trkpt>
      <trkpt lat="45.32481" lon="5.88305">
        <ele>1254.4</ele>
        <time>2016-01-17T15:12:59Z</time>
      </trkpt>
      <trkpt lat="45.32479" lon="5.88292">
        <ele>1258.4</ele>
        <time>2016-01-17T15:13:23Z</time>
      </trkpt>
      <trkpt lat="45.3248" lon="5.88279">
        <ele>1261.9</ele>
        <time>2016-01-17T15:13:39Z</time>
      </trkpt>
      <trkpt lat="45.32486" lon="5.88269">
        <ele>1263.1</ele>
        <time>2016-01-17T15:14:36Z</time>
      </trkpt>
      <trkpt lat="45.32478" lon="5.88262">
        <ele>1266.7</ele>
        <time>2016-01-17T15:15:47Z</time>
      </trkpt>
      <trkpt lat="45.32488" lon="5.88264">
        <ele>1264.3</ele>
        <time>2016-01-17T15:17:30Z</time>
      </trkpt>
      <trkpt lat="45.32496" lon="5.88257">
        <ele>1264.8</ele>
        <time>2016-01-17T15:17:48Z</time>
      </trkpt>
      <trkpt lat="45.32503" lon="5.88245">
        <ele>1267</ele>
        <time>2016-01-17T15:17:56Z</time>
      </trkpt>
      <trkpt lat="45.32509" lon="5.88234">
        <ele>1269.2</ele>
        <time>2016-01-17T15:18:03Z</time>
      </trkpt>
      <trkpt lat="45.32515" lon="5.88225">
        <ele>1271.3</ele>
        <time>2016-01-17T15:18:10Z</time>
      </trkpt>
      <trkpt lat="45.32522" lon="5.88216">
        <ele>1273.2</ele>
        <time>2016-01-17T15:18:16Z</time>
      </trkpt>
      <trkpt lat="45.32529" lon="5.88204">
        <ele>1276.1</ele>
        <time>2016-01-17T15:18:22Z</time>
      </trkpt>
      <trkpt lat="45.32536" lon="5.88194">
        <ele>1278.8</ele>
        <time>2016-01-17T15:18:28Z</time>
      </trkpt>
      <trkpt lat="45.32542" lon="5.88182">
        <ele>1282.3</ele>
        <time>2016-01-17T15:18:34Z</time>
      </trkpt>
      <trkpt lat="45.32548" lon="5.88168">
        <ele>1286.6</ele>
        <time>2016-01-17T15:18:39Z</time>
      </trkpt>
      <trkpt lat="45.32553" lon="5.88156">
        <ele>1291.1</ele>
        <time>2016-01-17T15:18:42Z</time>
      </trkpt>
      <trkpt lat="45.32559" lon="5.88146">
        <ele>1295.1</ele>
        <time>2016-01-17T15:18:46Z</time>
      </trkpt>
      <trkpt lat="45.32569" lon="5.88142">
        <ele>1297.4</ele>
        <time>2016-01-17T15:18:51Z</time>
      </trkpt>
      <trkpt lat="45.32578" lon="5.88137">
        <ele>1299.8</ele>
        <time>2016-01-17T15:18:56Z</time>
      </trkpt>
      <trkpt lat="45.32588" lon="5.88137">
        <ele>1300.6</ele>
        <time>2016-01-17T15:19:02Z</time>
      </trkpt>
      <trkpt lat="45.32598" lon="5.88138">
        <ele>1300.6</ele>
        <time>2016-01-17T15:19:06Z</time>
      </trkpt>
      <trkpt lat="45.32608" lon="5.88137">
        <ele>1301.2</ele>
        <time>2016-01-17T15:19:10Z</time>
      </trkpt>
      <trkpt lat="45.32617" lon="5.88137">
        <ele>1301.4</ele>
        <time>2016-01-17T15:19:16Z</time>
      </trkpt>
      <trkpt lat="45.32628" lon="5.88138">
        <ele>1301.6</ele>
        <time>2016-01-17T15:19:21Z</time>
      </trkpt>
      <trkpt lat="45.32639" lon="5.88144">
        <ele>1299.6</ele>
        <time>2016-01-17T15:19:26Z</time>
      </trkpt>
      <trkpt lat="45.32649" lon="5.88148">
        <ele>1298.6</ele>
        <time>2016-01-17T15:19:31Z</time>
      </trkpt>
      <trkpt lat="45.3266" lon="5.88151">
        <ele>1298.2</ele>
        <time>2016-01-17T15:19:36Z</time>
      </trkpt>
      <trkpt lat="45.3267" lon="5.88147">
        <ele>1300.8</ele>
        <time>2016-01-17T15:19:40Z</time>
      </trkpt>
      <trkpt lat="45.3268" lon="5.88141">
        <ele>1305.9</ele>
        <time>2016-01-17T15:19:45Z</time>
      </trkpt>
      <trkpt lat="45.32687" lon="5.88133">
        <ele>1310.7</ele>
        <time>2016-01-17T15:19:49Z</time>
      </trkpt>
      <trkpt lat="45.32697" lon="5.88127">
        <ele>1315.7</ele>
        <time>2016-01-17T15:19:53Z</time>
      </trkpt>
      <trkpt lat="45.32706" lon="5.88118">
        <ele>1321.2</ele>
        <time>2016-01-17T15:19:58Z</time>
      </trkpt>
      <trkpt lat="45.32715" lon="5.88115">
        <ele>1324.7</ele>
        <time>2016-01-17T15:20:03Z</time>
      </trkpt>
      <trkpt lat="45.32726" lon="5.88114">
        <ele>1328.1</ele>
        <time>2016-01-17T15:20:08Z</time>
      </trkpt>
      <trkpt lat="45.32737" lon="5.88115">
        <ele>1330.8</ele>
        <time>2016-01-17T15:20:13Z</time>
      </trkpt>
      <trkpt lat="45.32746" lon="5.88113">
        <ele>1334.1</ele>
        <time>2016-01-17T15:20:18Z</time>
      </trkpt>
      <trkpt lat="45.32754" lon="5.88108">
        <ele>1337</ele>
        <time>2016-01-17T15:20:29Z</time>
      </trkpt>
      <trkpt lat="45.32754" lon="5.88121">
        <ele>1333.3</ele>
        <time>2016-01-17T15:20:44Z</time>
      </trkpt>
      <trkpt lat="45.32757" lon="5.88134">
        <ele>1329.9</ele>
        <time>2016-01-17T15:21:01Z</time>
      </trkpt>
      <trkpt lat="45.32763" lon="5.88146">
        <ele>1326.4</ele>
        <time>2016-01-17T15:21:12Z</time>
      </trkpt>
      <trkpt lat="45.32771" lon="5.88153">
        <ele>1323.6</ele>
        <time>2016-01-17T15:21:20Z</time>
      </trkpt>
      <trkpt lat="45.32778" lon="5.88162">
        <ele>1320.3</ele>
        <time>2016-01-17T15:21:31Z</time>
      </trkpt>
      <trkpt lat="45.32782" lon="5.88174">
        <ele>1315.2</ele>
        <time>2016-01-17T15:21:40Z</time>
      </trkpt>
      <trkpt lat="45.32784" lon="5.88187">
        <ele>1309.3</ele>
        <time>2016-01-17T15:21:48Z</time>
      </trkpt>
      <trkpt lat="45.32793" lon="5.88188">
        <ele>1308.1</ele>
        <time>2016-01-17T15:21:57Z</time>
      </trkpt>
      <trkpt lat="45.32802" lon="5.88188">
        <ele>1307.6</ele>
        <time>2016-01-17T15:22:06Z</time>
      </trkpt>
      <trkpt lat="45.32812" lon="5.88188">
        <ele>1307.2</ele>
        <time>2016-01-17T15:22:15Z</time>
      </trkpt>
      <trkpt lat="45.32822" lon="5.88187">
        <ele>1307</ele>
        <time>2016-01-17T15:22:24Z</time>
      </trkpt>
      <trkpt lat="45.32815" lon="5.88177">
        <ele>1311.5</ele>
        <time>2016-01-17T15:23:07Z</time>
      </trkpt>
      <trkpt lat="45.32808" lon="5.88168">
        <ele>1315.7</ele>
        <time>2016-01-17T15:23:15Z</time>
      </trkpt>
      <trkpt lat="45.328" lon="5.88159">
        <ele>1320.1</ele>
        <time>2016-01-17T15:23:22Z</time>
      </trkpt>
      <trkpt lat="45.3281" lon="5.88158">
        <ele>1320</ele>
        <time>2016-01-17T15:23:42Z</time>
      </trkpt>
      <trkpt lat="45.32819" lon="5.88156">
        <ele>1320.2</ele>
        <time>2016-01-17T15:23:50Z</time>
      </trkpt>
      <trkpt lat="45.3283" lon="5.88159">
        <ele>1317.9</ele>
        <time>2016-01-17T15:23:57Z</time>
      </trkpt>
      <trkpt lat="45.32839" lon="5.88154">
        <ele>1322.6</ele>
        <time>2016-01-17T15:24:04Z</time>
      </trkpt>
      <trkpt lat="45.32845" lon="5.88143">
        <ele>1330.7</ele>
        <time>2016-01-17T15:24:11Z</time>
      </trkpt>
      <trkpt lat="45.32851" lon="5.88134">
        <ele>1337.8</ele>
        <time>2016-01-17T15:24:18Z</time>
      </trkpt>
      <trkpt lat="45.3286" lon="5.88124">
        <ele>1345.7</ele>
        <time>2016-01-17T15:24:25Z</time>
      </trkpt>
      <trkpt lat="45.32869" lon="5.88118">
        <ele>1352.4</ele>
        <time>2016-01-17T15:24:33Z</time>
      </trkpt>
      <trkpt lat="45.32878" lon="5.88115">
        <ele>1357.9</ele>
        <time>2016-01-17T15:24:38Z</time>
      </trkpt>
      <trkpt lat="45.32887" lon="5.88111">
        <ele>1363.4</ele>
        <time>2016-01-17T15:24:45Z</time>
      </trkpt>
      <trkpt lat="45.32896" lon="5.88111">
        <ele>1367</ele>
        <time>2016-01-17T15:24:51Z</time>
      </trkpt>
      <trkpt lat="45.32906" lon="5.88114">
        <ele>1369.5</ele>
        <time>2016-01-17T15:24:58Z</time>
      </trkpt>
      <trkpt lat="45.32916" lon="5.88114">
        <ele>1373.9</ele>
        <time>2016-01-17T15:25:03Z</time>
      </trkpt>
      <trkpt lat="45.32925" lon="5.88111">
        <ele>1380.7</ele>
        <time>2016-01-17T15:25:09Z</time>
      </trkpt>
      <trkpt lat="45.32934" lon="5.88116">
        <ele>1383.5</ele>
        <time>2016-01-17T15:25:23Z</time>
      </trkpt>
      <trkpt lat="45.32943" lon="5.88121">
        <ele>1387</ele>
        <time>2016-01-17T15:26:10Z</time>
      </trkpt>
      <trkpt lat="45.32951" lon="5.88127">
        <ele>1388.7</ele>
        <time>2016-01-17T15:26:23Z</time>
      </trkpt>
      <trkpt lat="45.32957" lon="5.88136">
        <ele>1388.9</ele>
        <time>2016-01-17T15:26:37Z</time>
      </trkpt>
      <trkpt lat="45.32967" lon="5.88137">
        <ele>1394</ele>
        <time>2016-01-17T15:27:14Z</time>
      </trkpt>
      <trkpt lat="45.32972" lon="5.88149">
        <ele>1392.2</ele>
        <time>2016-01-17T15:27:44Z</time>
      </trkpt>
      <trkpt lat="45.32975" lon="5.88162">
        <ele>1388.3</ele>
        <time>2016-01-17T15:27:48Z</time>
      </trkpt>
      <trkpt lat="45.32981" lon="5.88172">
        <ele>1387.7</ele>
        <time>2016-01-17T15:28:05Z</time>
      </trkpt>
      <trkpt lat="45.32989" lon="5.88178">
        <ele>1390.2</ele>
        <time>2016-01-17T15:28:26Z</time>
      </trkpt>
      <trkpt lat="45.32998" lon="5.88184">
        <ele>1393.3</ele>
        <time>2016-01-17T15:28:43Z</time>
      </trkpt>
      <trkpt lat="45.33005" lon="5.88191">
        <ele>1394</ele>
        <time>2016-01-17T15:29:00Z</time>
      </trkpt>
      <trkpt lat="45.33008" lon="5.88205">
        <ele>1389.9</ele>
        <time>2016-01-17T15:29:14Z</time>
      </trkpt>
      <trkpt lat="45.33007" lon="5.88219">
        <ele>1384.6</ele>
        <time>2016-01-17T15:29:22Z</time>
      </trkpt>
      <trkpt lat="45.33013" lon="5.88231">
        <ele>1382.5</ele>
        <time>2016-01-17T15:29:28Z</time>
      </trkpt>
      <trkpt lat="45.33019" lon="5.88244">
        <ele>1380.2</ele>
        <time>2016-01-17T15:29:31Z</time>
      </trkpt>
      <trkpt lat="45.33024" lon="5.88255">
        <ele>1378.3</ele>
        <time>2016-01-17T15:29:35Z</time>
      </trkpt>
      <trkpt lat="45.33034" lon="5.88259">
        <ele>1381.2</ele>
        <time>2016-01-17T15:29:43Z</time>
      </trkpt>
      <trkpt lat="45.33041" lon="5.88269">
        <ele>1380.6</ele>
        <time>2016-01-17T15:29:51Z</time>
      </trkpt>
      <trkpt lat="45.3305" lon="5.88273">
        <ele>1382.8</ele>
        <time>2016-01-17T15:29:55Z</time>
      </trkpt>
      <trkpt lat="45.3306" lon="5.8827">
        <ele>1388.6</ele>
        <time>2016-01-17T15:30:00Z</time>
      </trkpt>
      <trkpt lat="45.3307" lon="5.88272">
        <ele>1391.9</ele>
        <time>2016-01-17T15:30:04Z</time>
      </trkpt>
      <trkpt lat="45.33079" lon="5.88275">
        <ele>1395.4</ele>
        <time>2016-01-17T15:30:17Z</time>
      </trkpt>
      <trkpt lat="45.33087" lon="5.88283">
        <ele>1395.3</ele>
        <time>2016-01-17T15:30:33Z</time>
      </trkpt>
      <trkpt lat="45.33096" lon="5.88287">
        <ele>1396.7</ele>
        <time>2016-01-17T15:30:46Z</time>
      </trkpt>
      <trkpt lat="45.33103" lon="5.88299">
        <ele>1394</ele>
        <time>2016-01-17T15:30:59Z</time>
      </trkpt>
      <trkpt lat="45.33102" lon="5.88312">
        <ele>1387.8</ele>
        <time>2016-01-17T15:31:05Z</time>
      </trkpt>
      <trkpt lat="45.331" lon="5.88325">
        <ele>1381.8</ele>
        <time>2016-01-17T15:31:10Z</time>
      </trkpt>
      <trkpt lat="45.33099" lon="5.88338">
        <ele>1376.5</ele>
        <time>2016-01-17T15:31:14Z</time>
      </trkpt>
      <trkpt lat="45.331" lon="5.88353">
        <ele>1372.2</ele>
        <time>2016-01-17T15:31:19Z</time>
      </trkpt>
      <trkpt lat="45.331" lon="5.88365">
        <ele>1368.2</ele>
        <time>2016-01-17T15:31:24Z</time>
      </trkpt>
      <trkpt lat="45.331" lon="5.8838">
        <ele>1363.6</ele>
        <time>2016-01-17T15:31:30Z</time>
      </trkpt>
      <trkpt lat="45.331" lon="5.88395">
        <ele>1358.8</ele>
        <time>2016-01-17T15:31:35Z</time>
      </trkpt>
      <trkpt lat="45.33108" lon="5.88403">
        <ele>1359.1</ele>
        <time>2016-01-17T15:31:41Z</time>
      </trkpt>
      <trkpt lat="45.33118" lon="5.88404">
        <ele>1362.4</ele>
        <time>2016-01-17T15:31:47Z</time>
      </trkpt>
      <trkpt lat="45.33128" lon="5.88408">
        <ele>1364.8</ele>
        <time>2016-01-17T15:31:53Z</time>
      </trkpt>
      <trkpt lat="45.33137" lon="5.88411">
        <ele>1367.1</ele>
        <time>2016-01-17T15:32:04Z</time>
      </trkpt>
      <trkpt lat="45.33146" lon="5.88417">
        <ele>1368.5</ele>
        <time>2016-01-17T15:32:25Z</time>
      </trkpt>
      <trkpt lat="45.33154" lon="5.88422">
        <ele>1369.9</ele>
        <time>2016-01-17T15:32:37Z</time>
      </trkpt>
      <trkpt lat="45.33163" lon="5.88425">
        <ele>1372.7</ele>
        <time>2016-01-17T15:32:50Z</time>
      </trkpt>
      <trkpt lat="45.33172" lon="5.88426">
        <ele>1376.5</ele>
        <time>2016-01-17T15:32:59Z</time>
      </trkpt>
      <trkpt lat="45.3318" lon="5.88435">
        <ele>1377.9</ele>
        <time>2016-01-17T15:33:07Z</time>
      </trkpt>
      <trkpt lat="45.33182" lon="5.88449">
        <ele>1375.3</ele>
        <time>2016-01-17T15:33:17Z</time>
      </trkpt>
      <trkpt lat="45.33179" lon="5.88461">
        <ele>1371</ele>
        <time>2016-01-17T15:33:29Z</time>
      </trkpt>
      <trkpt lat="45.33186" lon="5.88471">
        <ele>1371.6</ele>
        <time>2016-01-17T15:34:08Z</time>
      </trkpt>
      <trkpt lat="45.33193" lon="5.8848">
        <ele>1372.3</ele>
        <time>2016-01-17T15:34:52Z</time>
      </trkpt>
      <trkpt lat="45.33184" lon="5.88487">
        <ele>1366.6</ele>
        <time>2016-01-17T15:35:17Z</time>
      </trkpt>
      <trkpt lat="45.33175" lon="5.88491">
        <ele>1361.2</ele>
        <time>2016-01-17T15:35:24Z</time>
      </trkpt>
      <trkpt lat="45.33167" lon="5.885">
        <ele>1355.4</ele>
        <time>2016-01-17T15:35:28Z</time>
      </trkpt>
      <trkpt lat="45.33163" lon="5.88514">
        <ele>1352.2</ele>
        <time>2016-01-17T15:35:31Z</time>
      </trkpt>
      <trkpt lat="45.33163" lon="5.88528">
        <ele>1350.7</ele>
        <time>2016-01-17T15:35:36Z</time>
      </trkpt>
      <trkpt lat="45.33165" lon="5.88544">
        <ele>1350.5</ele>
        <time>2016-01-17T15:35:41Z</time>
      </trkpt>
      <trkpt lat="45.33169" lon="5.88559">
        <ele>1351</ele>
        <time>2016-01-17T15:35:46Z</time>
      </trkpt>
      <trkpt lat="45.33173" lon="5.88571">
        <ele>1351.3</ele>
        <time>2016-01-17T15:35:51Z</time>
      </trkpt>
      <trkpt lat="45.33176" lon="5.88584">
        <ele>1351.4</ele>
        <time>2016-01-17T15:35:56Z</time>
      </trkpt>
      <trkpt lat="45.33182" lon="5.88595">
        <ele>1350.8</ele>
        <time>2016-01-17T15:36:01Z</time>
      </trkpt>
      <trkpt lat="45.33187" lon="5.88606">
        <ele>1350.1</ele>
        <time>2016-01-17T15:36:06Z</time>
      </trkpt>
      <trkpt lat="45.33193" lon="5.88619">
        <ele>1349</ele>
        <time>2016-01-17T15:36:11Z</time>
      </trkpt>
      <trkpt lat="45.33197" lon="5.88634">
        <ele>1346.8</ele>
        <time>2016-01-17T15:36:15Z</time>
      </trkpt>
      <trkpt lat="45.33198" lon="5.88648">
        <ele>1343.7</ele>
        <time>2016-01-17T15:36:21Z</time>
      </trkpt>
      <trkpt lat="45.33208" lon="5.88649">
        <ele>1346.2</ele>
        <time>2016-01-17T15:38:34Z</time>
      </trkpt>
      <trkpt lat="45.33214" lon="5.88641">
        <ele>1350.3</ele>
        <time>2016-01-17T15:38:55Z</time>
      </trkpt>
      <trkpt lat="45.3322" lon="5.88631">
        <ele>1354.5</ele>
        <time>2016-01-17T15:39:08Z</time>
      </trkpt>
      <trkpt lat="45.33226" lon="5.88621">
        <ele>1358.8</ele>
        <time>2016-01-17T15:39:35Z</time>
      </trkpt>
      <trkpt lat="45.33234" lon="5.88617">
        <ele>1362.7</ele>
        <time>2016-01-17T15:40:05Z</time>
      </trkpt>
      <trkpt lat="45.33243" lon="5.88614">
        <ele>1366.3</ele>
        <time>2016-01-17T15:40:25Z</time>
      </trkpt>
      <trkpt lat="45.33253" lon="5.88614">
        <ele>1368.7</ele>
        <time>2016-01-17T15:40:44Z</time>
      </trkpt>
      <trkpt lat="45.33262" lon="5.88613">
        <ele>1370.6</ele>
        <time>2016-01-17T15:41:12Z</time>
      </trkpt>
      <trkpt lat="45.3327" lon="5.8862">
        <ele>1369.9</ele>
        <time>2016-01-17T15:41:36Z</time>
      </trkpt>
      <trkpt lat="45.3328" lon="5.8862">
        <ele>1371.5</ele>
        <time>2016-01-17T15:41:52Z</time>
      </trkpt>
      <trkpt lat="45.33288" lon="5.88624">
        <ele>1371.6</ele>
        <time>2016-01-17T15:42:08Z</time>
      </trkpt>
      <trkpt lat="45.33293" lon="5.88612">
        <ele>1376.3</ele>
        <time>2016-01-17T15:42:31Z</time>
      </trkpt>
      <trkpt lat="45.33298" lon="5.88601">
        <ele>1380.9</ele>
        <time>2016-01-17T15:42:58Z</time>
      </trkpt>
      <trkpt lat="45.33308" lon="5.886">
        <ele>1383.2</ele>
        <time>2016-01-17T15:43:12Z</time>
      </trkpt>
      <trkpt lat="45.3331" lon="5.88587">
        <ele>1388.1</ele>
        <time>2016-01-17T15:43:53Z</time>
      </trkpt>
      <trkpt lat="45.3331" lon="5.88574">
        <ele>1392.4</ele>
        <time>2016-01-17T15:44:15Z</time>
      </trkpt>
      <trkpt lat="45.33318" lon="5.88565">
        <ele>1396.6</ele>
        <time>2016-01-17T15:44:39Z</time>
      </trkpt>
      <trkpt lat="45.33326" lon="5.88559">
        <ele>1400.6</ele>
        <time>2016-01-17T15:45:05Z</time>
      </trkpt>
      <trkpt lat="45.33326" lon="5.88545">
        <ele>1404.9</ele>
        <time>2016-01-17T15:45:26Z</time>
      </trkpt>
      <trkpt lat="45.33336" lon="5.88542">
        <ele>1408.6</ele>
        <time>2016-01-17T15:45:49Z</time>
      </trkpt>
      <trkpt lat="45.33346" lon="5.88544">
        <ele>1409.9</ele>
        <time>2016-01-17T15:46:13Z</time>
      </trkpt>
      <trkpt lat="45.33355" lon="5.88544">
        <ele>1411.7</ele>
        <time>2016-01-17T15:46:30Z</time>
      </trkpt>
      <trkpt lat="45.33364" lon="5.88542">
        <ele>1413.9</ele>
        <time>2016-01-17T15:46:48Z</time>
      </trkpt>
      <trkpt lat="45.33374" lon="5.8854">
        <ele>1416.7</ele>
        <time>2016-01-17T15:47:02Z</time>
      </trkpt>
      <trkpt lat="45.33383" lon="5.88538">
        <ele>1419</ele>
        <time>2016-01-17T15:47:16Z</time>
      </trkpt>
      <trkpt lat="45.33393" lon="5.88539">
        <ele>1420.6</ele>
        <time>2016-01-17T15:47:29Z</time>
      </trkpt>
      <trkpt lat="45.33391" lon="5.88526">
        <ele>1424.6</ele>
        <time>2016-01-17T15:47:50Z</time>
      </trkpt>
      <trkpt lat="45.33389" lon="5.88514">
        <ele>1428.2</ele>
        <time>2016-01-17T15:48:07Z</time>
      </trkpt>
      <trkpt lat="45.33383" lon="5.88503">
        <ele>1430.7</ele>
        <time>2016-01-17T15:48:31Z</time>
      </trkpt>
      <trkpt lat="45.33376" lon="5.88494">
        <ele>1433.2</ele>
        <time>2016-01-17T15:48:41Z</time>
      </trkpt>
      <trkpt lat="45.33373" lon="5.88481">
        <ele>1437.8</ele>
        <time>2016-01-17T15:48:58Z</time>
      </trkpt>
      <trkpt lat="45.3337" lon="5.88469">
        <ele>1442.4</ele>
        <time>2016-01-17T15:49:15Z</time>
      </trkpt>
      <trkpt lat="45.33376" lon="5.88458">
        <ele>1448.1</ele>
        <time>2016-01-17T15:50:06Z</time>
      </trkpt>
      <trkpt lat="45.33382" lon="5.88448">
        <ele>1453.5</ele>
        <time>2016-01-17T15:50:23Z</time>
      </trkpt>
      <trkpt lat="45.33381" lon="5.88435">
        <ele>1458.7</ele>
        <time>2016-01-17T15:50:43Z</time>
      </trkpt>
      <trkpt lat="45.33379" lon="5.88422">
        <ele>1464</ele>
        <time>2016-01-17T15:51:02Z</time>
      </trkpt>
      <trkpt lat="45.33378" lon="5.88409">
        <ele>1469.5</ele>
        <time>2016-01-17T15:51:22Z</time>
      </trkpt>
      <trkpt lat="45.33392" lon="5.884">
        <ele>1476.7</ele>
        <time>2016-01-17T16:01:40Z</time>
      </trkpt>
      <trkpt lat="45.334" lon="5.88407">
        <ele>1475.4</ele>
        <time>2016-01-17T16:01:45Z</time>
      </trkpt>
      <trkpt lat="45.33408" lon="5.88417">
        <ele>1473.3</ele>
        <time>2016-01-17T16:01:51Z</time>
      </trkpt>
      <trkpt lat="45.33417" lon="5.88424">
        <ele>1472.1</ele>
        <time>2016-01-17T16:01:57Z</time>
      </trkpt>
      <trkpt lat="45.33426" lon="5.88428">
        <ele>1472.8</ele>
        <time>2016-01-17T16:02:03Z</time>
      </trkpt>
      <trkpt lat="45.33435" lon="5.8843">
        <ele>1474.6</ele>
        <time>2016-01-17T16:02:09Z</time>
      </trkpt>
      <trkpt lat="45.33444" lon="5.88429">
        <ele>1477.5</ele>
        <time>2016-01-17T16:02:15Z</time>
      </trkpt>
      <trkpt lat="45.33454" lon="5.8843">
        <ele>1480.3</ele>
        <time>2016-01-17T16:02:21Z</time>
      </trkpt>
      <trkpt lat="45.33465" lon="5.88431">
        <ele>1482.6</ele>
        <time>2016-01-17T16:02:28Z</time>
      </trkpt>
      <trkpt lat="45.33474" lon="5.88432">
        <ele>1484.8</ele>
        <time>2016-01-17T16:02:33Z</time>
      </trkpt>
      <trkpt lat="45.33484" lon="5.88434">
        <ele>1486.8</ele>
        <time>2016-01-17T16:02:38Z</time>
      </trkpt>
      <trkpt lat="45.33493" lon="5.88439">
        <ele>1487.7</ele>
        <time>2016-01-17T16:02:44Z</time>
      </trkpt>
      <trkpt lat="45.33502" lon="5.88445">
        <ele>1488.2</ele>
        <time>2016-01-17T16:02:50Z</time>
      </trkpt>
      <trkpt lat="45.3351" lon="5.88451">
        <ele>1488.7</ele>
        <time>2016-01-17T16:02:56Z</time>
      </trkpt>
      <trkpt lat="45.3352" lon="5.88457">
        <ele>1489.8</ele>
        <time>2016-01-17T16:03:03Z</time>
      </trkpt>
      <trkpt lat="45.33528" lon="5.88463">
        <ele>1490.1</ele>
        <time>2016-01-17T16:03:12Z</time>
      </trkpt>
      <trkpt lat="45.33537" lon="5.88468">
        <ele>1491.5</ele>
        <time>2016-01-17T16:03:56Z</time>
      </trkpt>
      <trkpt lat="45.33547" lon="5.88472">
        <ele>1493.1</ele>
        <time>2016-01-17T16:04:04Z</time>
      </trkpt>
      <trkpt lat="45.33557" lon="5.88474">
        <ele>1495.8</ele>
        <time>2016-01-17T16:04:12Z</time>
      </trkpt>
      <trkpt lat="45.33565" lon="5.88479">
        <ele>1496.9</ele>
        <time>2016-01-17T16:04:19Z</time>
      </trkpt>
      <trkpt lat="45.33575" lon="5.88486">
        <ele>1497.6</ele>
        <time>2016-01-17T16:04:26Z</time>
      </trkpt>
      <trkpt lat="45.33583" lon="5.88493">
        <ele>1497.7</ele>
        <time>2016-01-17T16:04:31Z</time>
      </trkpt>
      <trkpt lat="45.33591" lon="5.88499">
        <ele>1497.7</ele>
        <time>2016-01-17T16:04:36Z</time>
      </trkpt>
      <trkpt lat="45.33599" lon="5.88506">
        <ele>1498.1</ele>
        <time>2016-01-17T16:04:41Z</time>
      </trkpt>
      <trkpt lat="45.33608" lon="5.88513">
        <ele>1498.5</ele>
        <time>2016-01-17T16:04:47Z</time>
      </trkpt>
      <trkpt lat="45.33616" lon="5.88518">
        <ele>1499.2</ele>
        <time>2016-01-17T16:04:52Z</time>
      </trkpt>
      <trkpt lat="45.33626" lon="5.88523">
        <ele>1500.3</ele>
        <time>2016-01-17T16:04:58Z</time>
      </trkpt>
      <trkpt lat="45.33634" lon="5.88526">
        <ele>1501.6</ele>
        <time>2016-01-17T16:05:03Z</time>
      </trkpt>
      <trkpt lat="45.33644" lon="5.88531">
        <ele>1502.9</ele>
        <time>2016-01-17T16:05:09Z</time>
      </trkpt>
      <trkpt lat="45.33653" lon="5.88537">
        <ele>1503.3</ele>
        <time>2016-01-17T16:05:15Z</time>
      </trkpt>
      <trkpt lat="45.33661" lon="5.88544">
        <ele>1503.2</ele>
        <time>2016-01-17T16:05:21Z</time>
      </trkpt>
      <trkpt lat="45.3367" lon="5.88551">
        <ele>1503</ele>
        <time>2016-01-17T16:05:27Z</time>
      </trkpt>
      <trkpt lat="45.3368" lon="5.88558">
        <ele>1503</ele>
        <time>2016-01-17T16:05:33Z</time>
      </trkpt>
      <trkpt lat="45.33688" lon="5.88564">
        <ele>1502.6</ele>
        <time>2016-01-17T16:05:39Z</time>
      </trkpt>
      <trkpt lat="45.33697" lon="5.8857">
        <ele>1502.6</ele>
        <time>2016-01-17T16:05:46Z</time>
      </trkpt>
      <trkpt lat="45.33706" lon="5.88574">
        <ele>1503.2</ele>
        <time>2016-01-17T16:05:52Z</time>
      </trkpt>
      <trkpt lat="45.33716" lon="5.8858">
        <ele>1503.1</ele>
        <time>2016-01-17T16:05:58Z</time>
      </trkpt>
      <trkpt lat="45.33725" lon="5.88585">
        <ele>1503.5</ele>
        <time>2016-01-17T16:06:05Z</time>
      </trkpt>
      <trkpt lat="45.33734" lon="5.88588">
        <ele>1504.5</ele>
        <time>2016-01-17T16:06:11Z</time>
      </trkpt>
      <trkpt lat="45.33743" lon="5.88592">
        <ele>1505</ele>
        <time>2016-01-17T16:06:17Z</time>
      </trkpt>
      <trkpt lat="45.33754" lon="5.88594">
        <ele>1506.7</ele>
        <time>2016-01-17T16:06:23Z</time>
      </trkpt>
      <trkpt lat="45.33764" lon="5.88596">
        <ele>1508.5</ele>
        <time>2016-01-17T16:06:29Z</time>
      </trkpt>
      <trkpt lat="45.33774" lon="5.88596">
        <ele>1510.6</ele>
        <time>2016-01-17T16:06:35Z</time>
      </trkpt>
      <trkpt lat="45.33784" lon="5.88594">
        <ele>1513.5</ele>
        <time>2016-01-17T16:06:41Z</time>
      </trkpt>
      <trkpt lat="45.33794" lon="5.88593">
        <ele>1516.3</ele>
        <time>2016-01-17T16:06:47Z</time>
      </trkpt>
      <trkpt lat="45.33803" lon="5.88593">
        <ele>1518.7</ele>
        <time>2016-01-17T16:06:54Z</time>
      </trkpt>
      <trkpt lat="45.33813" lon="5.88593">
        <ele>1520.6</ele>
        <time>2016-01-17T16:07:02Z</time>
      </trkpt>
      <trkpt lat="45.33823" lon="5.88594">
        <ele>1522.5</ele>
        <time>2016-01-17T16:07:09Z</time>
      </trkpt>
      <trkpt lat="45.33833" lon="5.88597">
        <ele>1523.6</ele>
        <time>2016-01-17T16:07:16Z</time>
      </trkpt>
      <trkpt lat="45.33842" lon="5.88599">
        <ele>1524.8</ele>
        <time>2016-01-17T16:07:24Z</time>
      </trkpt>
      <trkpt lat="45.33851" lon="5.88604">
        <ele>1525.2</ele>
        <time>2016-01-17T16:07:29Z</time>
      </trkpt>
      <trkpt lat="45.33861" lon="5.88605">
        <ele>1527.1</ele>
        <time>2016-01-17T16:07:36Z</time>
      </trkpt>
      <trkpt lat="45.3387" lon="5.88609">
        <ele>1527.8</ele>
        <time>2016-01-17T16:07:42Z</time>
      </trkpt>
      <trkpt lat="45.3388" lon="5.88612">
        <ele>1528.6</ele>
        <time>2016-01-17T16:07:48Z</time>
      </trkpt>
      <trkpt lat="45.33889" lon="5.88616">
        <ele>1529</ele>
        <time>2016-01-17T16:07:54Z</time>
      </trkpt>
      <trkpt lat="45.33898" lon="5.88621">
        <ele>1528.8</ele>
        <time>2016-01-17T16:08:00Z</time>
      </trkpt>
      <trkpt lat="45.33908" lon="5.88627">
        <ele>1528.4</ele>
        <time>2016-01-17T16:08:05Z</time>
      </trkpt>
      <trkpt lat="45.33917" lon="5.88631">
        <ele>1528.5</ele>
        <time>2016-01-17T16:08:11Z</time>
      </trkpt>
      <trkpt lat="45.33926" lon="5.88634">
        <ele>1528.8</ele>
        <time>2016-01-17T16:08:17Z</time>
      </trkpt>
      <trkpt lat="45.33934" lon="5.88639">
        <ele>1528.2</ele>
        <time>2016-01-17T16:08:23Z</time>
      </trkpt>
      <trkpt lat="45.33944" lon="5.88642">
        <ele>1529</ele>
        <time>2016-01-17T16:08:30Z</time>
      </trkpt>
      <trkpt lat="45.33954" lon="5.88644">
        <ele>1530.1</ele>
        <time>2016-01-17T16:08:36Z</time>
      </trkpt>
      <trkpt lat="45.33964" lon="5.88645">
        <ele>1531.6</ele>
        <time>2016-01-17T16:08:42Z</time>
      </trkpt>
      <trkpt lat="45.33974" lon="5.88647">
        <ele>1532.8</ele>
        <time>2016-01-17T16:08:49Z</time>
      </trkpt>
      <trkpt lat="45.33984" lon="5.88648">
        <ele>1534.7</ele>
        <time>2016-01-17T16:08:56Z</time>
      </trkpt>
      <trkpt lat="45.33993" lon="5.8865">
        <ele>1535.7</ele>
        <time>2016-01-17T16:09:03Z</time>
      </trkpt>
      <trkpt lat="45.34003" lon="5.88651">
        <ele>1536.2</ele>
        <time>2016-01-17T16:09:11Z</time>
      </trkpt>
      <trkpt lat="45.33994" lon="5.88652">
        <ele>1534.8</ele>
        <time>2016-01-17T16:12:34Z</time>
      </trkpt>
      <trkpt lat="45.33987" lon="5.88642">
        <ele>1537.9</ele>
        <time>2016-01-17T16:13:15Z</time>
      </trkpt>
      <trkpt lat="45.33979" lon="5.88635">
        <ele>1539.7</ele>
        <time>2016-01-17T16:13:20Z</time>
      </trkpt>
      <trkpt lat="45.3397" lon="5.88628">
        <ele>1540.8</ele>
        <time>2016-01-17T16:13:25Z</time>
      </trkpt>
      <trkpt lat="45.33961" lon="5.88623">
        <ele>1541.4</ele>
        <time>2016-01-17T16:13:32Z</time>
      </trkpt>
      <trkpt lat="45.33952" lon="5.88615">
        <ele>1543.2</ele>
        <time>2016-01-17T16:13:38Z</time>
      </trkpt>
      <trkpt lat="45.33943" lon="5.88606">
        <ele>1545.8</ele>
        <time>2016-01-17T16:13:44Z</time>
      </trkpt>
      <trkpt lat="45.33935" lon="5.88598">
        <ele>1548.2</ele>
        <time>2016-01-17T16:13:50Z</time>
      </trkpt>
      <trkpt lat="45.33927" lon="5.88592">
        <ele>1549.3</ele>
        <time>2016-01-17T16:13:57Z</time>
      </trkpt>
      <trkpt lat="45.3392" lon="5.88583">
        <ele>1552</ele>
        <time>2016-01-17T16:14:02Z</time>
      </trkpt>
      <trkpt lat="45.33911" lon="5.88576">
        <ele>1552.8</ele>
        <time>2016-01-17T16:14:07Z</time>
      </trkpt>
      <trkpt lat="45.33903" lon="5.88569">
        <ele>1553.7</ele>
        <time>2016-01-17T16:14:13Z</time>
      </trkpt>
      <trkpt lat="45.33893" lon="5.88565">
        <ele>1553.3</ele>
        <time>2016-01-17T16:14:19Z</time>
      </trkpt>
      <trkpt lat="45.33884" lon="5.88556">
        <ele>1554.9</ele>
        <time>2016-01-17T16:14:25Z</time>
      </trkpt>
      <trkpt lat="45.33875" lon="5.88551">
        <ele>1554.9</ele>
        <time>2016-01-17T16:14:30Z</time>
      </trkpt>
      <trkpt lat="45.33866" lon="5.88543">
        <ele>1556.3</ele>
        <time>2016-01-17T16:14:36Z</time>
      </trkpt>
      <trkpt lat="45.33858" lon="5.88536">
        <ele>1557.4</ele>
        <time>2016-01-17T16:14:41Z</time>
      </trkpt>
      <trkpt lat="45.3385" lon="5.88529">
        <ele>1558.6</ele>
        <time>2016-01-17T16:14:47Z</time>
      </trkpt>
      <trkpt lat="45.33842" lon="5.88521">
        <ele>1560.3</ele>
        <time>2016-01-17T16:14:53Z</time>
      </trkpt>
      <trkpt lat="45.33833" lon="5.88515">
        <ele>1561.4</ele>
        <time>2016-01-17T16:14:58Z</time>
      </trkpt>
      <trkpt lat="45.33824" lon="5.88507">
        <ele>1562</ele>
        <time>2016-01-17T16:15:04Z</time>
      </trkpt>
      <trkpt lat="45.33814" lon="5.88503">
        <ele>1560.8</ele>
        <time>2016-01-17T16:15:10Z</time>
      </trkpt>
      <trkpt lat="45.33804" lon="5.885">
        <ele>1558.9</ele>
        <time>2016-01-17T16:15:16Z</time>
      </trkpt>
      <trkpt lat="45.33794" lon="5.88495">
        <ele>1557.7</ele>
        <time>2016-01-17T16:15:22Z</time>
      </trkpt>
      <trkpt lat="45.33784" lon="5.88489">
        <ele>1557.1</ele>
        <time>2016-01-17T16:15:28Z</time>
      </trkpt>
      <trkpt lat="45.33775" lon="5.88482">
        <ele>1557.4</ele>
        <time>2016-01-17T16:15:34Z</time>
      </trkpt>
      <trkpt lat="45.33766" lon="5.88475">
        <ele>1557.6</ele>
        <time>2016-01-17T16:15:40Z</time>
      </trkpt>
      <trkpt lat="45.33758" lon="5.88468">
        <ele>1558</ele>
        <time>2016-01-17T16:15:45Z</time>
      </trkpt>
      <trkpt lat="45.3375" lon="5.88459">
        <ele>1559</ele>
        <time>2016-01-17T16:15:51Z</time>
      </trkpt>
      <trkpt lat="45.33743" lon="5.8845">
        <ele>1560.3</ele>
        <time>2016-01-17T16:15:57Z</time>
      </trkpt>
      <trkpt lat="45.33736" lon="5.88441">
        <ele>1562.4</ele>
        <time>2016-01-17T16:16:03Z</time>
      </trkpt>
      <trkpt lat="45.3373" lon="5.88431">
        <ele>1564.4</ele>
        <time>2016-01-17T16:16:08Z</time>
      </trkpt>
      <trkpt lat="45.33724" lon="5.8842">
        <ele>1566.7</ele>
        <time>2016-01-17T16:16:14Z</time>
      </trkpt>
      <trkpt lat="45.33716" lon="5.88411">
        <ele>1567.7</ele>
        <time>2016-01-17T16:16:19Z</time>
      </trkpt>
      <trkpt lat="45.33709" lon="5.88401">
        <ele>1569</ele>
        <time>2016-01-17T16:16:25Z</time>
      </trkpt>
      <trkpt lat="45.33701" lon="5.88393">
        <ele>1568.8</ele>
        <time>2016-01-17T16:16:30Z</time>
      </trkpt>
      <trkpt lat="45.33693" lon="5.88384">
        <ele>1569</ele>
        <time>2016-01-17T16:16:36Z</time>
      </trkpt>
      <trkpt lat="45.33684" lon="5.88378">
        <ele>1568</ele>
        <time>2016-01-17T16:16:42Z</time>
      </trkpt>
      <trkpt lat="45.33675" lon="5.88372">
        <ele>1567.1</ele>
        <time>2016-01-17T16:16:48Z</time>
      </trkpt>
      <trkpt lat="45.33666" lon="5.88365">
        <ele>1566.1</ele>
        <time>2016-01-17T16:16:54Z</time>
      </trkpt>
      <trkpt lat="45.33658" lon="5.88358">
        <ele>1566.3</ele>
        <time>2016-01-17T16:17:00Z</time>
      </trkpt>
      <trkpt lat="45.33649" lon="5.88353">
        <ele>1565.6</ele>
        <time>2016-01-17T16:17:06Z</time>
      </trkpt>
      <trkpt lat="45.33641" lon="5.88347">
        <ele>1565.6</ele>
        <time>2016-01-17T16:17:11Z</time>
      </trkpt>
      <trkpt lat="45.33632" lon="5.8834">
        <ele>1566.2</ele>
        <time>2016-01-17T16:17:17Z</time>
      </trkpt>
      <trkpt lat="45.33625" lon="5.88331">
        <ele>1567.4</ele>
        <time>2016-01-17T16:18:23Z</time>
      </trkpt>
      <trkpt lat="45.33622" lon="5.88319">
        <ele>1570.5</ele>
        <time>2016-01-17T16:18:48Z</time>
      </trkpt>
      <trkpt lat="45.3362" lon="5.88306">
        <ele>1574</ele>
        <time>2016-01-17T16:19:06Z</time>
      </trkpt>
      <trkpt lat="45.3362" lon="5.88293">
        <ele>1578</ele>
        <time>2016-01-17T16:19:27Z</time>
      </trkpt>
      <trkpt lat="45.33629" lon="5.88296">
        <ele>1579.2</ele>
        <time>2016-01-17T16:19:45Z</time>
      </trkpt>
      <trkpt lat="45.33638" lon="5.883">
        <ele>1580.2</ele>
        <time>2016-01-17T16:19:59Z</time>
      </trkpt>
      <trkpt lat="45.33648" lon="5.883">
        <ele>1582.6</ele>
        <time>2016-01-17T16:20:15Z</time>
      </trkpt>
      <trkpt lat="45.33657" lon="5.88303">
        <ele>1583.5</ele>
        <time>2016-01-17T16:20:44Z</time>
      </trkpt>
      <trkpt lat="45.33661" lon="5.88292">
        <ele>1588.4</ele>
        <time>2016-01-17T16:21:15Z</time>
      </trkpt>
      <trkpt lat="45.33656" lon="5.88281">
        <ele>1590.7</ele>
        <time>2016-01-17T16:21:30Z</time>
      </trkpt>
      <trkpt lat="45.33652" lon="5.88268">
        <ele>1593.9</ele>
        <time>2016-01-17T16:21:50Z</time>
      </trkpt>
      <trkpt lat="45.33648" lon="5.88255">
        <ele>1597</ele>
        <time>2016-01-17T16:22:02Z</time>
      </trkpt>
      <trkpt lat="45.33644" lon="5.88243">
        <ele>1602.7</ele>
        <time>2016-01-17T16:22:15Z</time>
      </trkpt>
      <trkpt lat="45.33639" lon="5.88232">
        <ele>1610</ele>
        <time>2016-01-17T16:22:32Z</time>
      </trkpt>
      <trkpt lat="45.33632" lon="5.88223">
        <ele>1613.5</ele>
        <time>2016-01-17T16:22:44Z</time>
      </trkpt>
      <trkpt lat="45.33625" lon="5.88214">
        <ele>1615.9</ele>
        <time>2016-01-17T16:22:58Z</time>
      </trkpt>
      <trkpt lat="45.33618" lon="5.88204">
        <ele>1618.1</ele>
        <time>2016-01-17T16:23:10Z</time>
      </trkpt>
      <trkpt lat="45.33612" lon="5.88194">
        <ele>1619.8</ele>
        <time>2016-01-17T16:23:26Z</time>
      </trkpt>
      <trkpt lat="45.33606" lon="5.88184">
        <ele>1621.3</ele>
        <time>2016-01-17T16:23:43Z</time>
      </trkpt>
      <trkpt lat="45.33601" lon="5.88174">
        <ele>1622.4</ele>
        <time>2016-01-17T16:24:01Z</time>
      </trkpt>
      <trkpt lat="45.33594" lon="5.88164">
        <ele>1620.5</ele>
        <time>2016-01-17T16:24:17Z</time>
      </trkpt>
      <trkpt lat="45.33587" lon="5.88158">
        <ele>1614.1</ele>
        <time>2016-01-17T16:24:34Z</time>
      </trkpt>
      <trkpt lat="45.33579" lon="5.8815">
        <ele>1610.5</ele>
        <time>2016-01-17T16:25:07Z</time>
      </trkpt>
      <trkpt lat="45.3357" lon="5.88146">
        <ele>1609.4</ele>
        <time>2016-01-17T16:25:53Z</time>
      </trkpt>
      <trkpt lat="45.33561" lon="5.88139">
        <ele>1608.7</ele>
        <time>2016-01-17T16:26:03Z</time>
      </trkpt>
      <trkpt lat="45.33553" lon="5.88133">
        <ele>1608.3</ele>
        <time>2016-01-17T16:26:10Z</time>
      </trkpt>
      <trkpt lat="45.33545" lon="5.88123">
        <ele>1608.8</ele>
        <time>2016-01-17T16:26:18Z</time>
      </trkpt>
      <trkpt lat="45.33537" lon="5.88114">
        <ele>1609.6</ele>
        <time>2016-01-17T16:26:24Z</time>
      </trkpt>
      <trkpt lat="45.33529" lon="5.88107">
        <ele>1610.6</ele>
        <time>2016-01-17T16:26:30Z</time>
      </trkpt>
      <trkpt lat="45.33522" lon="5.88096">
        <ele>1612.5</ele>
        <time>2016-01-17T16:26:36Z</time>
      </trkpt>
      <trkpt lat="45.33514" lon="5.88087">
        <ele>1614.6</ele>
        <time>2016-01-17T16:26:42Z</time>
      </trkpt>
      <trkpt lat="45.33507" lon="5.88078">
        <ele>1621.4</ele>
        <time>2016-01-17T16:26:46Z</time>
      </trkpt>
      <trkpt lat="45.33501" lon="5.88066">
        <ele>1632</ele>
        <time>2016-01-17T16:26:51Z</time>
      </trkpt>
      <trkpt lat="45.33498" lon="5.88053">
        <ele>1642.1</ele>
        <time>2016-01-17T16:27:07Z</time>
      </trkpt>
      <trkpt lat="45.33491" lon="5.88044">
        <ele>1648</ele>
        <time>2016-01-17T16:27:15Z</time>
      </trkpt>
      <trkpt lat="45.33482" lon="5.88038">
        <ele>1649.2</ele>
        <time>2016-01-17T16:27:25Z</time>
      </trkpt>
      <trkpt lat="45.33474" lon="5.88032">
        <ele>1650.9</ele>
        <time>2016-01-17T16:27:36Z</time>
      </trkpt>
      <trkpt lat="45.33465" lon="5.88032">
        <ele>1647.3</ele>
        <time>2016-01-17T16:27:48Z</time>
      </trkpt>
      <trkpt lat="45.33456" lon="5.88028">
        <ele>1647.2</ele>
        <time>2016-01-17T16:28:06Z</time>
      </trkpt>
      <trkpt lat="45.33447" lon="5.88023">
        <ele>1647.3</ele>
        <time>2016-01-17T16:28:13Z</time>
      </trkpt>
      <trkpt lat="45.33438" lon="5.88018">
        <ele>1646</ele>
        <time>2016-01-17T16:28:20Z</time>
      </trkpt>
      <trkpt lat="45.33428" lon="5.88014">
        <ele>1644.3</ele>
        <time>2016-01-17T16:28:25Z</time>
      </trkpt>
      <trkpt lat="45.3342" lon="5.88009">
        <ele>1643.3</ele>
        <time>2016-01-17T16:28:30Z</time>
      </trkpt>
      <trkpt lat="45.33412" lon="5.88001">
        <ele>1644.7</ele>
        <time>2016-01-17T16:28:35Z</time>
      </trkpt>
      <trkpt lat="45.33406" lon="5.87991">
        <ele>1648.1</ele>
        <time>2016-01-17T16:29:05Z</time>
      </trkpt>
      <trkpt lat="45.33401" lon="5.87979">
        <ele>1653.3</ele>
        <time>2016-01-17T16:29:27Z</time>
      </trkpt>
      <trkpt lat="45.33394" lon="5.87971">
        <ele>1654.9</ele>
        <time>2016-01-17T16:29:37Z</time>
      </trkpt>
      <trkpt lat="45.33388" lon="5.87961">
        <ele>1658.2</ele>
        <time>2016-01-17T16:29:46Z</time>
      </trkpt>
      <trkpt lat="45.33382" lon="5.87949">
        <ele>1661.5</ele>
        <time>2016-01-17T16:29:59Z</time>
      </trkpt>
      <trkpt lat="45.33372" lon="5.87947">
        <ele>1657.6</ele>
        <time>2016-01-17T16:30:09Z</time>
      </trkpt>
      <trkpt lat="45.33364" lon="5.8794">
        <ele>1656.6</ele>
        <time>2016-01-17T16:30:24Z</time>
      </trkpt>
      <trkpt lat="45.33355" lon="5.87936">
        <ele>1653.3</ele>
        <time>2016-01-17T16:30:29Z</time>
      </trkpt>
      <trkpt lat="45.33347" lon="5.87928">
        <ele>1652.7</ele>
        <time>2016-01-17T16:30:39Z</time>
      </trkpt>
      <trkpt lat="45.33341" lon="5.87918">
        <ele>1653.5</ele>
        <time>2016-01-17T16:30:48Z</time>
      </trkpt>
      <trkpt lat="45.33334" lon="5.8791">
        <ele>1655</ele>
        <time>2016-01-17T16:30:59Z</time>
      </trkpt>
      <trkpt lat="45.33325" lon="5.87903">
        <ele>1655.2</ele>
        <time>2016-01-17T16:31:04Z</time>
      </trkpt>
      <trkpt lat="45.33317" lon="5.87897">
        <ele>1655.1</ele>
        <time>2016-01-17T16:31:11Z</time>
      </trkpt>
      <trkpt lat="45.33309" lon="5.87889">
        <ele>1656.6</ele>
        <time>2016-01-17T16:31:22Z</time>
      </trkpt>
      <trkpt lat="45.333" lon="5.87887">
        <ele>1653.2</ele>
        <time>2016-01-17T16:31:30Z</time>
      </trkpt>
      <trkpt lat="45.3329" lon="5.87887">
        <ele>1647.3</ele>
        <time>2016-01-17T16:31:40Z</time>
      </trkpt>
      <trkpt lat="45.3328" lon="5.87889">
        <ele>1640.2</ele>
        <time>2016-01-17T16:31:50Z</time>
      </trkpt>
      <trkpt lat="45.33271" lon="5.87889">
        <ele>1634.7</ele>
        <time>2016-01-17T16:31:58Z</time>
      </trkpt>
      <trkpt lat="45.33261" lon="5.87889">
        <ele>1629.7</ele>
        <time>2016-01-17T16:32:03Z</time>
      </trkpt>
      <trkpt lat="45.33252" lon="5.87891">
        <ele>1622.9</ele>
        <time>2016-01-17T16:32:08Z</time>
      </trkpt>
      <trkpt lat="45.33242" lon="5.87892">
        <ele>1618.2</ele>
        <time>2016-01-17T16:32:16Z</time>
      </trkpt>
      <trkpt lat="45.33232" lon="5.87893">
        <ele>1614</ele>
        <time>2016-01-17T16:32:22Z</time>
      </trkpt>
      <trkpt lat="45.33221" lon="5.87894">
        <ele>1609.5</ele>
        <time>2016-01-17T16:32:27Z</time>
      </trkpt>
      <trkpt lat="45.33215" lon="5.87894">
        <ele>1607.8</ele>
        <time>2016-01-17T16:59:33Z</time>
      </trkpt>
      <trkpt lat="45.33206" lon="5.87893">
        <ele>1605</ele>
        <time>2016-01-17T16:59:38Z</time>
      </trkpt>
      <trkpt lat="45.33212" lon="5.87905">
        <ele>1601.1</ele>
        <time>2016-01-17T16:59:45Z</time>
      </trkpt>
      <trkpt lat="45.33215" lon="5.87917">
        <ele>1596</ele>
        <time>2016-01-17T17:02:51Z</time>
      </trkpt>
      <trkpt lat="45.33205" lon="5.87919">
        <ele>1592.3</ele>
        <time>2016-01-17T17:02:56Z</time>
      </trkpt>
      <trkpt lat="45.33194" lon="5.8792">
        <ele>1588.7</ele>
        <time>2016-01-17T17:03:00Z</time>
      </trkpt>
      <trkpt lat="45.33199" lon="5.87932">
        <ele>1586.3</ele>
        <time>2016-01-17T17:03:08Z</time>
      </trkpt>
      <trkpt lat="45.33188" lon="5.87934">
        <ele>1582.6</ele>
        <time>2016-01-17T17:03:17Z</time>
      </trkpt>
      <trkpt lat="45.33181" lon="5.87945">
        <ele>1576.8</ele>
        <time>2016-01-17T17:03:27Z</time>
      </trkpt>
      <trkpt lat="45.33171" lon="5.87942">
        <ele>1575</ele>
        <time>2016-01-17T17:03:32Z</time>
      </trkpt>
      <trkpt lat="45.33173" lon="5.87955">
        <ele>1571.1</ele>
        <time>2016-01-17T17:03:42Z</time>
      </trkpt>
      <trkpt lat="45.33181" lon="5.87964">
        <ele>1570.8</ele>
        <time>2016-01-17T17:03:51Z</time>
      </trkpt>
      <trkpt lat="45.3319" lon="5.87968">
        <ele>1571.9</ele>
        <time>2016-01-17T17:03:57Z</time>
      </trkpt>
      <trkpt lat="45.33195" lon="5.87979">
        <ele>1570</ele>
        <time>2016-01-17T17:04:04Z</time>
      </trkpt>
      <trkpt lat="45.332" lon="5.8799">
        <ele>1567.8</ele>
        <time>2016-01-17T17:04:10Z</time>
      </trkpt>
      <trkpt lat="45.33212" lon="5.87995">
        <ele>1569.9</ele>
        <time>2016-01-17T17:04:17Z</time>
      </trkpt>
      <trkpt lat="45.33216" lon="5.88007">
        <ele>1567</ele>
        <time>2016-01-17T17:04:32Z</time>
      </trkpt>
      <trkpt lat="45.33213" lon="5.88019">
        <ele>1561.5</ele>
        <time>2016-01-17T17:04:58Z</time>
      </trkpt>
      <trkpt lat="45.3322" lon="5.88028">
        <ele>1560.8</ele>
        <time>2016-01-17T17:05:53Z</time>
      </trkpt>
      <trkpt lat="45.33226" lon="5.88038">
        <ele>1559.4</ele>
        <time>2016-01-17T17:06:12Z</time>
      </trkpt>
      <trkpt lat="45.33232" lon="5.88047">
        <ele>1558.7</ele>
        <time>2016-01-17T17:06:40Z</time>
      </trkpt>
      <trkpt lat="45.3324" lon="5.88056">
        <ele>1558.5</ele>
        <time>2016-01-17T17:06:47Z</time>
      </trkpt>
      <trkpt lat="45.33243" lon="5.8807">
        <ele>1555.2</ele>
        <time>2016-01-17T17:06:52Z</time>
      </trkpt>
      <trkpt lat="45.33249" lon="5.88082">
        <ele>1554.3</ele>
        <time>2016-01-17T17:06:56Z</time>
      </trkpt>
      <trkpt lat="45.33257" lon="5.8809">
        <ele>1554.3</ele>
        <time>2016-01-17T17:07:00Z</time>
      </trkpt>
      <trkpt lat="45.33263" lon="5.881">
        <ele>1552.9</ele>
        <time>2016-01-17T17:07:05Z</time>
      </trkpt>
      <trkpt lat="45.33272" lon="5.88106">
        <ele>1554.2</ele>
        <time>2016-01-17T17:07:10Z</time>
      </trkpt>
      <trkpt lat="45.33276" lon="5.88121">
        <ele>1550.3</ele>
        <time>2016-01-17T17:07:13Z</time>
      </trkpt>
      <trkpt lat="45.3328" lon="5.88134">
        <ele>1546.6</ele>
        <time>2016-01-17T17:07:16Z</time>
      </trkpt>
      <trkpt lat="45.33284" lon="5.88146">
        <ele>1543.6</ele>
        <time>2016-01-17T17:07:18Z</time>
      </trkpt>
      <trkpt lat="45.33284" lon="5.88161">
        <ele>1538.1</ele>
        <time>2016-01-17T17:07:20Z</time>
      </trkpt>
      <trkpt lat="45.33287" lon="5.88175">
        <ele>1533.6</ele>
        <time>2016-01-17T17:07:22Z</time>
      </trkpt>
      <trkpt lat="45.33291" lon="5.88188">
        <ele>1529.9</ele>
        <time>2016-01-17T17:07:25Z</time>
      </trkpt>
      <trkpt lat="45.33294" lon="5.88201">
        <ele>1525.9</ele>
        <time>2016-01-17T17:07:33Z</time>
      </trkpt>
      <trkpt lat="45.33297" lon="5.88217">
        <ele>1520.2</ele>
        <time>2016-01-17T17:07:37Z</time>
      </trkpt>
      <trkpt lat="45.33304" lon="5.88233">
        <ele>1516.9</ele>
        <time>2016-01-17T17:07:40Z</time>
      </trkpt>
      <trkpt lat="45.33308" lon="5.88247">
        <ele>1512.9</ele>
        <time>2016-01-17T17:07:43Z</time>
      </trkpt>
      <trkpt lat="45.33313" lon="5.88262">
        <ele>1509</ele>
        <time>2016-01-17T17:07:46Z</time>
      </trkpt>
      <trkpt lat="45.33318" lon="5.88273">
        <ele>1506.6</ele>
        <time>2016-01-17T17:07:48Z</time>
      </trkpt>
      <trkpt lat="45.33324" lon="5.88288">
        <ele>1503.1</ele>
        <time>2016-01-17T17:07:50Z</time>
      </trkpt>
      <trkpt lat="45.33332" lon="5.88303">
        <ele>1500.9</ele>
        <time>2016-01-17T17:07:53Z</time>
      </trkpt>
      <trkpt lat="45.33339" lon="5.88311">
        <ele>1500</ele>
        <time>2016-01-17T17:07:56Z</time>
      </trkpt>
      <trkpt lat="45.3335" lon="5.88313">
        <ele>1502.6</ele>
        <time>2016-01-17T17:08:00Z</time>
      </trkpt>
      <trkpt lat="45.33359" lon="5.88322">
        <ele>1501.6</ele>
        <time>2016-01-17T17:08:05Z</time>
      </trkpt>
      <trkpt lat="45.33364" lon="5.88335">
        <ele>1498.2</ele>
        <time>2016-01-17T17:08:07Z</time>
      </trkpt>
      <trkpt lat="45.3337" lon="5.88348">
        <ele>1493.8</ele>
        <time>2016-01-17T17:08:10Z</time>
      </trkpt>
      <trkpt lat="45.33374" lon="5.88365">
        <ele>1487.3</ele>
        <time>2016-01-17T17:08:13Z</time>
      </trkpt>
      <trkpt lat="45.33373" lon="5.88379">
        <ele>1481.2</ele>
        <time>2016-01-17T17:08:16Z</time>
      </trkpt>
      <trkpt lat="45.33373" lon="5.88394">
        <ele>1474.7</ele>
        <time>2016-01-17T17:08:50Z</time>
      </trkpt>
      <trkpt lat="45.33373" lon="5.8841">
        <ele>1467.6</ele>
        <time>2016-01-17T17:08:56Z</time>
      </trkpt>
      <trkpt lat="45.33374" lon="5.88425">
        <ele>1461.5</ele>
        <time>2016-01-17T17:09:02Z</time>
      </trkpt>
      <trkpt lat="45.3338" lon="5.88437">
        <ele>1458</ele>
        <time>2016-01-17T17:09:08Z</time>
      </trkpt>
      <trkpt lat="45.33383" lon="5.88449">
        <ele>1453.3</ele>
        <time>2016-01-17T17:09:14Z</time>
      </trkpt>
      <trkpt lat="45.33373" lon="5.88455">
        <ele>1448.5</ele>
        <time>2016-01-17T17:09:20Z</time>
      </trkpt>
      <trkpt lat="45.33369" lon="5.88469">
        <ele>1441.9</ele>
        <time>2016-01-17T17:09:28Z</time>
      </trkpt>
      <trkpt lat="45.33372" lon="5.88485">
        <ele>1436.1</ele>
        <time>2016-01-17T17:09:33Z</time>
      </trkpt>
      <trkpt lat="45.33379" lon="5.88495">
        <ele>1433.3</ele>
        <time>2016-01-17T17:09:36Z</time>
      </trkpt>
      <trkpt lat="45.33385" lon="5.88507">
        <ele>1429.7</ele>
        <time>2016-01-17T17:09:42Z</time>
      </trkpt>
      <trkpt lat="45.33393" lon="5.88516">
        <ele>1428.3</ele>
        <time>2016-01-17T17:09:46Z</time>
      </trkpt>
      <trkpt lat="45.33398" lon="5.88527">
        <ele>1425.5</ele>
        <time>2016-01-17T17:09:51Z</time>
      </trkpt>
      <trkpt lat="45.33389" lon="5.8853">
        <ele>1422.8</ele>
        <time>2016-01-17T17:09:57Z</time>
      </trkpt>
      <trkpt lat="45.33379" lon="5.88532">
        <ele>1420.4</ele>
        <time>2016-01-17T17:10:02Z</time>
      </trkpt>
      <trkpt lat="45.3337" lon="5.88533">
        <ele>1418</ele>
        <time>2016-01-17T17:10:07Z</time>
      </trkpt>
      <trkpt lat="45.33359" lon="5.88534">
        <ele>1415.4</ele>
        <time>2016-01-17T17:10:10Z</time>
      </trkpt>
      <trkpt lat="45.33346" lon="5.88536">
        <ele>1412.5</ele>
        <time>2016-01-17T17:10:13Z</time>
      </trkpt>
      <trkpt lat="45.33335" lon="5.88538">
        <ele>1409.8</ele>
        <time>2016-01-17T17:10:17Z</time>
      </trkpt>
      <trkpt lat="45.33332" lon="5.88551">
        <ele>1404.7</ele>
        <time>2016-01-17T17:10:22Z</time>
      </trkpt>
      <trkpt lat="45.33339" lon="5.88559">
        <ele>1403.4</ele>
        <time>2016-01-17T17:10:32Z</time>
      </trkpt>
      <trkpt lat="45.33336" lon="5.88572">
        <ele>1398.6</ele>
        <time>2016-01-17T17:10:56Z</time>
      </trkpt>
      <trkpt lat="45.33337" lon="5.88559">
        <ele>1403.1</ele>
        <time>2016-01-17T17:11:28Z</time>
      </trkpt>
      <trkpt lat="45.33328" lon="5.8856">
        <ele>1400.7</ele>
        <time>2016-01-17T17:11:48Z</time>
      </trkpt>
      <trkpt lat="45.33318" lon="5.88558">
        <ele>1398.8</ele>
        <time>2016-01-17T17:11:53Z</time>
      </trkpt>
      <trkpt lat="45.33321" lon="5.88571">
        <ele>1395.6</ele>
        <time>2016-01-17T17:12:00Z</time>
      </trkpt>
      <trkpt lat="45.33315" lon="5.88584">
        <ele>1390.2</ele>
        <time>2016-01-17T17:12:08Z</time>
      </trkpt>
      <trkpt lat="45.33316" lon="5.88598">
        <ele>1385.2</ele>
        <time>2016-01-17T17:12:15Z</time>
      </trkpt>
      <trkpt lat="45.33306" lon="5.88603">
        <ele>1381.8</ele>
        <time>2016-01-17T17:12:27Z</time>
      </trkpt>
      <trkpt lat="45.33301" lon="5.88614">
        <ele>1377.1</ele>
        <time>2016-01-17T17:12:42Z</time>
      </trkpt>
      <trkpt lat="45.33291" lon="5.88613">
        <ele>1375.4</ele>
        <time>2016-01-17T17:12:46Z</time>
      </trkpt>
      <trkpt lat="45.33282" lon="5.88613">
        <ele>1374.1</ele>
        <time>2016-01-17T17:12:50Z</time>
      </trkpt>
      <trkpt lat="45.3328" lon="5.88626">
        <ele>1369.6</ele>
        <time>2016-01-17T17:13:24Z</time>
      </trkpt>
      <trkpt lat="45.33286" lon="5.88635">
        <ele>1367.6</ele>
        <time>2016-01-17T17:13:31Z</time>
      </trkpt>
      <trkpt lat="45.33295" lon="5.88644">
        <ele>1365.8</ele>
        <time>2016-01-17T17:13:36Z</time>
      </trkpt>
      <trkpt lat="45.33298" lon="5.88656">
        <ele>1362</ele>
        <time>2016-01-17T17:13:41Z</time>
      </trkpt>
      <trkpt lat="45.33289" lon="5.88662">
        <ele>1359.1</ele>
        <time>2016-01-17T17:13:51Z</time>
      </trkpt>
      <trkpt lat="45.33283" lon="5.88672">
        <ele>1354.8</ele>
        <time>2016-01-17T17:13:59Z</time>
      </trkpt>
      <trkpt lat="45.33282" lon="5.88686">
        <ele>1348.9</ele>
        <time>2016-01-17T17:15:21Z</time>
      </trkpt>
      <trkpt lat="45.33288" lon="5.88695">
        <ele>1345.8</ele>
        <time>2016-01-17T17:15:29Z</time>
      </trkpt>
      <trkpt lat="45.33298" lon="5.88698">
        <ele>1345.8</ele>
        <time>2016-01-17T17:15:39Z</time>
      </trkpt>
      <trkpt lat="45.33292" lon="5.8871">
        <ele>1340.5</ele>
        <time>2016-01-17T17:16:03Z</time>
      </trkpt>
      <trkpt lat="45.33283" lon="5.88713">
        <ele>1337.9</ele>
        <time>2016-01-17T17:16:07Z</time>
      </trkpt>
      <trkpt lat="45.33274" lon="5.88716">
        <ele>1335.8</ele>
        <time>2016-01-17T17:16:11Z</time>
      </trkpt>
      <trkpt lat="45.33263" lon="5.88714">
        <ele>1334.9</ele>
        <time>2016-01-17T17:16:16Z</time>
      </trkpt>
      <trkpt lat="45.33253" lon="5.88708">
        <ele>1336.5</ele>
        <time>2016-01-17T17:16:21Z</time>
      </trkpt>
      <trkpt lat="45.33247" lon="5.88698">
        <ele>1339.6</ele>
        <time>2016-01-17T17:16:25Z</time>
      </trkpt>
      <trkpt lat="45.33241" lon="5.88684">
        <ele>1343.7</ele>
        <time>2016-01-17T17:16:30Z</time>
      </trkpt>
      <trkpt lat="45.33239" lon="5.88671">
        <ele>1348.8</ele>
        <time>2016-01-17T17:16:33Z</time>
      </trkpt>
      <trkpt lat="45.33229" lon="5.88666">
        <ele>1347.8</ele>
        <time>2016-01-17T17:16:37Z</time>
      </trkpt>
      <trkpt lat="45.33219" lon="5.88662">
        <ele>1346.2</ele>
        <time>2016-01-17T17:16:42Z</time>
      </trkpt>
      <trkpt lat="45.3321" lon="5.88663">
        <ele>1343.5</ele>
        <time>2016-01-17T17:16:46Z</time>
      </trkpt>
      <trkpt lat="45.33203" lon="5.88673">
        <ele>1338.7</ele>
        <time>2016-01-17T17:16:53Z</time>
      </trkpt>
      <trkpt lat="45.33198" lon="5.88685">
        <ele>1333.9</ele>
        <time>2016-01-17T17:17:01Z</time>
      </trkpt>
      <trkpt lat="45.3319" lon="5.88691">
        <ele>1330.4</ele>
        <time>2016-01-17T17:17:07Z</time>
      </trkpt>
      <trkpt lat="45.33186" lon="5.88702">
        <ele>1326.1</ele>
        <time>2016-01-17T17:17:11Z</time>
      </trkpt>
      <trkpt lat="45.33176" lon="5.88704">
        <ele>1324</ele>
        <time>2016-01-17T17:17:19Z</time>
      </trkpt>
      <trkpt lat="45.33169" lon="5.88712">
        <ele>1320.5</ele>
        <time>2016-01-17T17:17:26Z</time>
      </trkpt>
      <trkpt lat="45.33164" lon="5.88724">
        <ele>1316.6</ele>
        <time>2016-01-17T17:17:34Z</time>
      </trkpt>
      <trkpt lat="45.3316" lon="5.88738">
        <ele>1311.9</ele>
        <time>2016-01-17T17:17:39Z</time>
      </trkpt>
      <trkpt lat="45.33157" lon="5.88751">
        <ele>1308</ele>
        <time>2016-01-17T17:17:41Z</time>
      </trkpt>
      <trkpt lat="45.33157" lon="5.88769">
        <ele>1303.1</ele>
        <time>2016-01-17T17:17:45Z</time>
      </trkpt>
      <trkpt lat="45.33158" lon="5.88782">
        <ele>1299.9</ele>
        <time>2016-01-17T17:17:50Z</time>
      </trkpt>
      <trkpt lat="45.33156" lon="5.88795">
        <ele>1295.9</ele>
        <time>2016-01-17T17:18:01Z</time>
      </trkpt>
      <trkpt lat="45.33145" lon="5.88796">
        <ele>1293.5</ele>
        <time>2016-01-17T17:18:08Z</time>
      </trkpt>
      <trkpt lat="45.33145" lon="5.88809">
        <ele>1290.1</ele>
        <time>2016-01-17T17:18:16Z</time>
      </trkpt>
      <trkpt lat="45.33135" lon="5.88814">
        <ele>1287.2</ele>
        <time>2016-01-17T17:18:26Z</time>
      </trkpt>
      <trkpt lat="45.33128" lon="5.88821">
        <ele>1284.3</ele>
        <time>2016-01-17T17:18:36Z</time>
      </trkpt>
      <trkpt lat="45.33133" lon="5.88833">
        <ele>1282.4</ele>
        <time>2016-01-17T17:18:41Z</time>
      </trkpt>
      <trkpt lat="45.33123" lon="5.88836">
        <ele>1280.1</ele>
        <time>2016-01-17T17:18:49Z</time>
      </trkpt>
      <trkpt lat="45.33114" lon="5.88833">
        <ele>1279.6</ele>
        <time>2016-01-17T17:18:58Z</time>
      </trkpt>
      <trkpt lat="45.33108" lon="5.88822">
        <ele>1280.8</ele>
        <time>2016-01-17T17:19:03Z</time>
      </trkpt>
      <trkpt lat="45.33099" lon="5.88822">
        <ele>1279.2</ele>
        <time>2016-01-17T17:19:11Z</time>
      </trkpt>
      <trkpt lat="45.3309" lon="5.88828">
        <ele>1276.9</ele>
        <time>2016-01-17T17:19:21Z</time>
      </trkpt>
      <trkpt lat="45.33083" lon="5.88838">
        <ele>1273.7</ele>
        <time>2016-01-17T17:19:25Z</time>
      </trkpt>
      <trkpt lat="45.33075" lon="5.88833">
        <ele>1272.2</ele>
        <time>2016-01-17T17:20:10Z</time>
      </trkpt>
      <trkpt lat="45.33066" lon="5.88831">
        <ele>1269.3</ele>
        <time>2016-01-17T17:20:39Z</time>
      </trkpt>
      <trkpt lat="45.33058" lon="5.88841">
        <ele>1264.6</ele>
        <time>2016-01-17T17:20:55Z</time>
      </trkpt>
      <trkpt lat="45.33056" lon="5.88855">
        <ele>1260.1</ele>
        <time>2016-01-17T17:21:01Z</time>
      </trkpt>
      <trkpt lat="45.33053" lon="5.8887">
        <ele>1255.7</ele>
        <time>2016-01-17T17:21:05Z</time>
      </trkpt>
      <trkpt lat="45.33051" lon="5.88885">
        <ele>1251.6</ele>
        <time>2016-01-17T17:21:11Z</time>
      </trkpt>
      <trkpt lat="45.33044" lon="5.88896">
        <ele>1247.4</ele>
        <time>2016-01-17T17:21:22Z</time>
      </trkpt>
      <trkpt lat="45.33039" lon="5.88886">
        <ele>1248.1</ele>
        <time>2016-01-17T17:21:29Z</time>
      </trkpt>
      <trkpt lat="45.33032" lon="5.88899">
        <ele>1243.8</ele>
        <time>2016-01-17T17:21:34Z</time>
      </trkpt>
      <trkpt lat="45.33025" lon="5.88908">
        <ele>1240.2</ele>
        <time>2016-01-17T17:21:41Z</time>
      </trkpt>
      <trkpt lat="45.33022" lon="5.88921">
        <ele>1236.6</ele>
        <time>2016-01-17T17:21:46Z</time>
      </trkpt>
      <trkpt lat="45.33018" lon="5.88935">
        <ele>1231.8</ele>
        <time>2016-01-17T17:21:51Z</time>
      </trkpt>
      <trkpt lat="45.33012" lon="5.88945">
        <ele>1227.5</ele>
        <time>2016-01-17T17:21:56Z</time>
      </trkpt>
      <trkpt lat="45.33002" lon="5.88946">
        <ele>1225</ele>
        <time>2016-01-17T17:22:03Z</time>
      </trkpt>
      <trkpt lat="45.32997" lon="5.8896">
        <ele>1219.5</ele>
        <time>2016-01-17T17:22:11Z</time>
      </trkpt>
      <trkpt lat="45.32988" lon="5.88968">
        <ele>1214.2</ele>
        <time>2016-01-17T17:22:17Z</time>
      </trkpt>
      <trkpt lat="45.32979" lon="5.88967">
        <ele>1210.7</ele>
        <time>2016-01-17T17:23:17Z</time>
      </trkpt>
      <trkpt lat="45.3297" lon="5.8896">
        <ele>1209.4</ele>
        <time>2016-01-17T17:23:25Z</time>
      </trkpt>
      <trkpt lat="45.32968" lon="5.88948">
        <ele>1211.6</ele>
        <time>2016-01-17T17:23:32Z</time>
      </trkpt>
      <trkpt lat="45.32958" lon="5.88944">
        <ele>1208.6</ele>
        <time>2016-01-17T17:23:42Z</time>
      </trkpt>
      <trkpt lat="45.3295" lon="5.88938">
        <ele>1206.6</ele>
        <time>2016-01-17T17:24:01Z</time>
      </trkpt>
      <trkpt lat="45.32948" lon="5.88926">
        <ele>1208.8</ele>
        <time>2016-01-17T17:24:07Z</time>
      </trkpt>
      <trkpt lat="45.3294" lon="5.8893">
        <ele>1204.4</ele>
        <time>2016-01-17T17:24:19Z</time>
      </trkpt>
      <trkpt lat="45.32931" lon="5.88936">
        <ele>1199.7</ele>
        <time>2016-01-17T17:24:36Z</time>
      </trkpt>
      <trkpt lat="45.32925" lon="5.88926">
        <ele>1198.7</ele>
        <time>2016-01-17T17:24:48Z</time>
      </trkpt>
      <trkpt lat="45.3292" lon="5.88915">
        <ele>1198.9</ele>
        <time>2016-01-17T17:24:54Z</time>
      </trkpt>
      <trkpt lat="45.32911" lon="5.88916">
        <ele>1193.6</ele>
        <time>2016-01-17T17:25:02Z</time>
      </trkpt>
      <trkpt lat="45.32902" lon="5.88922">
        <ele>1187</ele>
        <time>2016-01-17T17:25:08Z</time>
      </trkpt>
      <trkpt lat="45.32893" lon="5.88919">
        <ele>1181.7</ele>
        <time>2016-01-17T17:25:15Z</time>
      </trkpt>
      <trkpt lat="45.32883" lon="5.88923">
        <ele>1175.1</ele>
        <time>2016-01-17T17:25:26Z</time>
      </trkpt>
      <trkpt lat="45.32872" lon="5.88921">
        <ele>1168.7</ele>
        <time>2016-01-17T17:25:34Z</time>
      </trkpt>
      <trkpt lat="45.32867" lon="5.88911">
        <ele>1166.5</ele>
        <time>2016-01-17T17:25:41Z</time>
      </trkpt>
      <trkpt lat="45.32858" lon="5.88903">
        <ele>1162.3</ele>
        <time>2016-01-17T17:26:11Z</time>
      </trkpt>
      <trkpt lat="45.3285" lon="5.88899">
        <ele>1157.6</ele>
        <time>2016-01-17T17:26:34Z</time>
      </trkpt>
      <trkpt lat="45.3284" lon="5.88901">
        <ele>1151</ele>
        <time>2016-01-17T17:26:39Z</time>
      </trkpt>
      <trkpt lat="45.32831" lon="5.88893">
        <ele>1147</ele>
        <time>2016-01-17T17:26:44Z</time>
      </trkpt>
      <trkpt lat="45.32825" lon="5.88883">
        <ele>1146</ele>
        <time>2016-01-17T17:26:51Z</time>
      </trkpt>
      <trkpt lat="45.32817" lon="5.88875">
        <ele>1143.7</ele>
        <time>2016-01-17T17:26:58Z</time>
      </trkpt>
      <trkpt lat="45.3281" lon="5.88863">
        <ele>1142.9</ele>
        <time>2016-01-17T17:27:07Z</time>
      </trkpt>
      <trkpt lat="45.32802" lon="5.88857">
        <ele>1140.6</ele>
        <time>2016-01-17T17:27:11Z</time>
      </trkpt>
      <trkpt lat="45.32796" lon="5.88847">
        <ele>1139.7</ele>
        <time>2016-01-17T17:27:15Z</time>
      </trkpt>
      <trkpt lat="45.32787" lon="5.88842">
        <ele>1137.2</ele>
        <time>2016-01-17T17:27:20Z</time>
      </trkpt>
      <trkpt lat="45.32779" lon="5.88834">
        <ele>1135.2</ele>
        <time>2016-01-17T17:27:26Z</time>
      </trkpt>
      <trkpt lat="45.32769" lon="5.88831">
        <ele>1132.5</ele>
        <time>2016-01-17T17:27:32Z</time>
      </trkpt>
      <trkpt lat="45.32762" lon="5.8882">
        <ele>1132.5</ele>
        <time>2016-01-17T17:27:39Z</time>
      </trkpt>
      <trkpt lat="45.32756" lon="5.88809">
        <ele>1132.9</ele>
        <time>2016-01-17T17:27:52Z</time>
      </trkpt>
      <trkpt lat="45.32746" lon="5.88804">
        <ele>1131.3</ele>
        <time>2016-01-17T17:28:13Z</time>
      </trkpt>
      <trkpt lat="45.32737" lon="5.88809">
        <ele>1128</ele>
        <time>2016-01-17T17:28:22Z</time>
      </trkpt>
      <trkpt lat="45.32725" lon="5.88805">
        <ele>1126.3</ele>
        <time>2016-01-17T17:28:27Z</time>
      </trkpt>
      <trkpt lat="45.32718" lon="5.88797">
        <ele>1126.3</ele>
        <time>2016-01-17T17:28:35Z</time>
      </trkpt>
      <trkpt lat="45.32716" lon="5.88783">
        <ele>1128.7</ele>
        <time>2016-01-17T17:28:45Z</time>
      </trkpt>
      <trkpt lat="45.32718" lon="5.88768">
        <ele>1132.3</ele>
        <time>2016-01-17T17:28:50Z</time>
      </trkpt>
      <trkpt lat="45.32717" lon="5.88754">
        <ele>1135.2</ele>
        <time>2016-01-17T17:28:55Z</time>
      </trkpt>
      <trkpt lat="45.32714" lon="5.88742">
        <ele>1136.3</ele>
        <time>2016-01-17T17:29:01Z</time>
      </trkpt>
      <trkpt lat="45.32708" lon="5.8873">
        <ele>1135.9</ele>
        <time>2016-01-17T17:29:08Z</time>
      </trkpt>
      <trkpt lat="45.327" lon="5.88723">
        <ele>1134.4</ele>
        <time>2016-01-17T17:29:14Z</time>
      </trkpt>
      <trkpt lat="45.32691" lon="5.8872">
        <ele>1132.1</ele>
        <time>2016-01-17T17:29:18Z</time>
      </trkpt>
      <trkpt lat="45.32682" lon="5.88717">
        <ele>1129.7</ele>
        <time>2016-01-17T17:29:25Z</time>
      </trkpt>
      <trkpt lat="45.32673" lon="5.88715">
        <ele>1126.9</ele>
        <time>2016-01-17T17:29:38Z</time>
      </trkpt>
      <trkpt lat="45.32664" lon="5.88718">
        <ele>1124.5</ele>
        <time>2016-01-17T17:29:48Z</time>
      </trkpt>
      <trkpt lat="45.32655" lon="5.88717">
        <ele>1123.6</ele>
        <time>2016-01-17T17:30:03Z</time>
      </trkpt>
      <trkpt lat="45.32648" lon="5.88708">
        <ele>1124.1</ele>
        <time>2016-01-17T17:30:28Z</time>
      </trkpt>
      <trkpt lat="45.32639" lon="5.88707">
        <ele>1123.5</ele>
        <time>2016-01-17T17:30:42Z</time>
      </trkpt>
      <trkpt lat="45.32629" lon="5.88706">
        <ele>1122.8</ele>
        <time>2016-01-17T17:30:56Z</time>
      </trkpt>
      <trkpt lat="45.3262" lon="5.88704">
        <ele>1122.5</ele>
        <time>2016-01-17T17:32:10Z</time>
      </trkpt>
      <trkpt lat="45.32624" lon="5.88716">
        <ele>1120.6</ele>
        <time>2016-01-17T17:33:22Z</time>
      </trkpt>
      <trkpt lat="45.32623" lon="5.8873">
        <ele>1118.2</ele>
        <time>2016-01-17T17:33:38Z</time>
      </trkpt>
      <trkpt lat="45.32616" lon="5.88739">
        <ele>1115.7</ele>
        <time>2016-01-17T17:33:52Z</time>
      </trkpt>
      <trkpt lat="45.32612" lon="5.8875">
        <ele>1112.9</ele>
        <time>2016-01-17T17:35:13Z</time>
      </trkpt>
      <trkpt lat="45.32607" lon="5.88762">
        <ele>1109.6</ele>
        <time>2016-01-17T17:35:41Z</time>
      </trkpt>
      <trkpt lat="45.32609" lon="5.88775">
        <ele>1107</ele>
        <time>2016-01-17T17:35:53Z</time>
      </trkpt>
      <trkpt lat="45.32611" lon="5.88788">
        <ele>1104.6</ele>
        <time>2016-01-17T17:35:58Z</time>
      </trkpt>
      <trkpt lat="45.32608" lon="5.888">
        <ele>1101.2</ele>
        <time>2016-01-17T17:36:02Z</time>
      </trkpt>
      <trkpt lat="45.32603" lon="5.88815">
        <ele>1096.9</ele>
        <time>2016-01-17T17:36:07Z</time>
      </trkpt>
      <trkpt lat="45.32602" lon="5.88828">
        <ele>1093.8</ele>
        <time>2016-01-17T17:36:13Z</time>
      </trkpt>
      <trkpt lat="45.326" lon="5.88841">
        <ele>1090.7</ele>
        <time>2016-01-17T17:36:22Z</time>
      </trkpt>
      <trkpt lat="45.32594" lon="5.8885">
        <ele>1087.3</ele>
        <time>2016-01-17T17:36:30Z</time>
      </trkpt>
      <trkpt lat="45.32592" lon="5.88863">
        <ele>1084.5</ele>
        <time>2016-01-17T17:36:43Z</time>
      </trkpt>
      <trkpt lat="45.32589" lon="5.88875">
        <ele>1081.5</ele>
        <time>2016-01-17T17:36:53Z</time>
      </trkpt>
      <trkpt lat="45.32587" lon="5.88891">
        <ele>1077.9</ele>
        <time>2016-01-17T17:36:59Z</time>
      </trkpt>
      <trkpt lat="45.32583" lon="5.88907">
        <ele>1074</ele>
        <time>2016-01-17T17:37:05Z</time>
      </trkpt>
      <trkpt lat="45.32582" lon="5.8892">
        <ele>1071.7</ele>
        <time>2016-01-17T17:37:11Z</time>
      </trkpt>
      <trkpt lat="45.32581" lon="5.88934">
        <ele>1069.3</ele>
        <time>2016-01-17T17:37:17Z</time>
      </trkpt>
      <trkpt lat="45.32575" lon="5.88949">
        <ele>1067.1</ele>
        <time>2016-01-17T17:37:20Z</time>
      </trkpt>
      <trkpt lat="45.32571" lon="5.88963">
        <ele>1064.8</ele>
        <time>2016-01-17T17:37:25Z</time>
      </trkpt>
      <trkpt lat="45.32567" lon="5.88975">
        <ele>1062.9</ele>
        <time>2016-01-17T17:37:29Z</time>
      </trkpt>
      <trkpt lat="45.32562" lon="5.88985">
        <ele>1061</ele>
        <time>2016-01-17T17:37:34Z</time>
      </trkpt>
      <trkpt lat="45.32555" lon="5.88994">
        <ele>1059.5</ele>
        <time>2016-01-17T17:37:40Z</time>
      </trkpt>
      <trkpt lat="45.32549" lon="5.89004">
        <ele>1057.6</ele>
        <time>2016-01-17T17:37:46Z</time>
      </trkpt>
      <trkpt lat="45.32543" lon="5.89015">
        <ele>1054.8</ele>
        <time>2016-01-17T17:37:53Z</time>
      </trkpt>
      <trkpt lat="45.32537" lon="5.89024">
        <ele>1052.6</ele>
        <time>2016-01-17T17:38:19Z</time>
      </trkpt>
      <trkpt lat="45.32536" lon="5.89037">
        <ele>1049.2</ele>
        <time>2016-01-17T17:40:03Z</time>
      </trkpt>
      <trkpt lat="45.3253" lon="5.8905">
        <ele>1045.7</ele>
        <time>2016-01-17T17:40:11Z</time>
      </trkpt>
      <trkpt lat="45.32527" lon="5.89062">
        <ele>1042.4</ele>
        <time>2016-01-17T17:40:18Z</time>
      </trkpt>
      <trkpt lat="45.32522" lon="5.89073">
        <ele>1039.3</ele>
        <time>2016-01-17T17:40:23Z</time>
      </trkpt>
      <trkpt lat="45.32517" lon="5.89084">
        <ele>1036</ele>
        <time>2016-01-17T17:40:28Z</time>
      </trkpt>
      <trkpt lat="45.32512" lon="5.89098">
        <ele>1032.5</ele>
        <time>2016-01-17T17:40:32Z</time>
      </trkpt>
      <trkpt lat="45.32505" lon="5.89108">
        <ele>1029.6</ele>
        <time>2016-01-17T17:40:37Z</time>
      </trkpt>
      <trkpt lat="45.32498" lon="5.89119">
        <ele>1027</ele>
        <time>2016-01-17T17:40:43Z</time>
      </trkpt>
      <trkpt lat="45.32489" lon="5.89125">
        <ele>1026.9</ele>
        <time>2016-01-17T17:40:48Z</time>
      </trkpt>
      <trkpt lat="45.3248" lon="5.89129">
        <ele>1027.8</ele>
        <time>2016-01-17T17:40:53Z</time>
      </trkpt>
      <trkpt lat="45.32469" lon="5.89134">
        <ele>1028.4</ele>
        <time>2016-01-17T17:41:00Z</time>
      </trkpt>
      <trkpt lat="45.32462" lon="5.8914">
        <ele>1028.3</ele>
        <time>2016-01-17T17:41:05Z</time>
      </trkpt>
      <trkpt lat="45.32454" lon="5.8915">
        <ele>1027.7</ele>
        <time>2016-01-17T17:41:10Z</time>
      </trkpt>
      <trkpt lat="45.32444" lon="5.89157">
        <ele>1028</ele>
        <time>2016-01-17T17:41:15Z</time>
      </trkpt>
      <trkpt lat="45.32436" lon="5.89166">
        <ele>1027.7</ele>
        <time>2016-01-17T17:41:20Z</time>
      </trkpt>
      <trkpt lat="45.32428" lon="5.89173">
        <ele>1028.1</ele>
        <time>2016-01-17T17:41:25Z</time>
      </trkpt>
      <trkpt lat="45.32419" lon="5.89178">
        <ele>1029</ele>
        <time>2016-01-17T17:41:31Z</time>
      </trkpt>
      <trkpt lat="45.32409" lon="5.8918">
        <ele>1030</ele>
        <time>2016-01-17T17:41:37Z</time>
      </trkpt>
      <trkpt lat="45.32398" lon="5.89177">
        <ele>1031.5</ele>
        <time>2016-01-17T17:41:43Z</time>
      </trkpt>
      <trkpt lat="45.32386" lon="5.89174">
        <ele>1033.4</ele>
        <time>2016-01-17T17:41:47Z</time>
      </trkpt>
      <trkpt lat="45.32366" lon="5.89173">
        <ele>1035.7</ele>
        <time>2016-01-17T17:41:51Z</time>
      </trkpt>
      <trkpt lat="45.32352" lon="5.89174">
        <ele>1037.2</ele>
        <time>2016-01-17T17:41:54Z</time>
      </trkpt>
      <trkpt lat="45.32341" lon="5.89173">
        <ele>1038.6</ele>
        <time>2016-01-17T17:41:57Z</time>
      </trkpt>
      <trkpt lat="45.32328" lon="5.89169">
        <ele>1039.4</ele>
        <time>2016-01-17T17:42:00Z</time>
      </trkpt>
      <trkpt lat="45.32319" lon="5.89163">
        <ele>1039.6</ele>
        <time>2016-01-17T17:42:03Z</time>
      </trkpt>
      <trkpt lat="45.32311" lon="5.89157">
        <ele>1040.1</ele>
        <time>2016-01-17T17:42:05Z</time>
      </trkpt>
      <trkpt lat="45.32302" lon="5.89151">
        <ele>1040.4</ele>
        <time>2016-01-17T17:42:08Z</time>
      </trkpt>
      <trkpt lat="45.32294" lon="5.89144">
        <ele>1041.2</ele>
        <time>2016-01-17T17:42:11Z</time>
      </trkpt>
      <trkpt lat="45.32287" lon="5.89134">
        <ele>1043.2</ele>
        <time>2016-01-17T17:42:14Z</time>
      </trkpt>
      <trkpt lat="45.3228" lon="5.89122">
        <ele>1045.8</ele>
        <time>2016-01-17T17:42:17Z</time>
      </trkpt>
      <trkpt lat="45.32274" lon="5.89106">
        <ele>1049.8</ele>
        <time>2016-01-17T17:42:20Z</time>
      </trkpt>
      <trkpt lat="45.32268" lon="5.89095">
        <ele>1052.4</ele>
        <time>2016-01-17T17:42:23Z</time>
      </trkpt>
      <trkpt lat="45.32261" lon="5.89084">
        <ele>1054.2</ele>
        <time>2016-01-17T17:42:26Z</time>
      </trkpt>
      <trkpt lat="45.32252" lon="5.89074">
        <ele>1055.3</ele>
        <time>2016-01-17T17:42:30Z</time>
      </trkpt>
      <trkpt lat="45.32242" lon="5.89068">
        <ele>1052.7</ele>
        <time>2016-01-17T17:42:35Z</time>
      </trkpt>
      <trkpt lat="45.32231" lon="5.89069">
        <ele>1047</ele>
        <time>2016-01-17T17:42:51Z</time>
      </trkpt>
      <trkpt lat="45.32221" lon="5.89072">
        <ele>1041.7</ele>
        <time>2016-01-17T17:42:55Z</time>
      </trkpt>
      <trkpt lat="45.32212" lon="5.89076">
        <ele>1036</ele>
        <time>2016-01-17T17:42:58Z</time>
      </trkpt>
      <trkpt lat="45.32204" lon="5.89088">
        <ele>1029.3</ele>
        <time>2016-01-17T17:43:02Z</time>
      </trkpt>
      <trkpt lat="45.32195" lon="5.89092">
        <ele>1024.1</ele>
        <time>2016-01-17T17:43:11Z</time>
      </trkpt>
      <trkpt lat="45.32189" lon="5.89103">
        <ele>1018.8</ele>
        <time>2016-01-17T17:43:16Z</time>
      </trkpt>
      <trkpt lat="45.32179" lon="5.89102">
        <ele>1014.6</ele>
        <time>2016-01-17T17:43:19Z</time>
      </trkpt>
      <trkpt lat="45.3217" lon="5.89101">
        <ele>1010.5</ele>
        <time>2016-01-17T17:43:21Z</time>
      </trkpt>
      <trkpt lat="45.32159" lon="5.89101">
        <ele>1007.1</ele>
        <time>2016-01-17T17:43:23Z</time>
      </trkpt>
      <trkpt lat="45.3215" lon="5.89101">
        <ele>1004.3</ele>
        <time>2016-01-17T17:43:25Z</time>
      </trkpt>
      <trkpt lat="45.3214" lon="5.89105">
        <ele>1000.4</ele>
        <time>2016-01-17T17:43:28Z</time>
      </trkpt>
      <trkpt lat="45.32128" lon="5.89106">
        <ele>997</ele>
        <time>2016-01-17T17:43:31Z</time>
      </trkpt>
      <trkpt lat="45.32116" lon="5.89109">
        <ele>992.8</ele>
        <time>2016-01-17T17:43:34Z</time>
      </trkpt>
      <trkpt lat="45.32103" lon="5.89109">
        <ele>989.1</ele>
        <time>2016-01-17T17:43:37Z</time>
      </trkpt>
      <trkpt lat="45.32091" lon="5.89111">
        <ele>985.1</ele>
        <time>2016-01-17T17:43:40Z</time>
      </trkpt>
      <trkpt lat="45.3208" lon="5.89114">
        <ele>981.6</ele>
        <time>2016-01-17T17:43:43Z</time>
      </trkpt>
      <trkpt lat="45.32069" lon="5.89118">
        <ele>978.9</ele>
        <time>2016-01-17T17:43:46Z</time>
      </trkpt>
      <trkpt lat="45.32059" lon="5.89119">
        <ele>977.2</ele>
        <time>2016-01-17T17:43:52Z</time>
      </trkpt>
      <trkpt lat="45.32053" lon="5.89109">
        <ele>978.2</ele>
        <time>2016-01-17T17:44:00Z</time>
      </trkpt>
      <trkpt lat="45.32045" lon="5.891">
        <ele>978.3</ele>
        <time>2016-01-17T17:44:05Z</time>
      </trkpt>
      <trkpt lat="45.32038" lon="5.89089">
        <ele>979.1</ele>
        <time>2016-01-17T17:44:10Z</time>
      </trkpt>
      <trkpt lat="45.32034" lon="5.89076">
        <ele>980.3</ele>
        <time>2016-01-17T17:44:16Z</time>
      </trkpt>
      <trkpt lat="45.32029" lon="5.89063">
        <ele>980.9</ele>
        <time>2016-01-17T17:44:20Z</time>
      </trkpt>
      <trkpt lat="45.32023" lon="5.89053">
        <ele>981.1</ele>
        <time>2016-01-17T17:44:22Z</time>
      </trkpt>
      <trkpt lat="45.32016" lon="5.89039">
        <ele>981.1</ele>
        <time>2016-01-17T17:44:24Z</time>
      </trkpt>
      <trkpt lat="45.3201" lon="5.89028">
        <ele>980.8</ele>
        <time>2016-01-17T17:44:26Z</time>
      </trkpt>
      <trkpt lat="45.31996" lon="5.89019">
        <ele>978.5</ele>
        <time>2016-01-17T17:44:28Z</time>
      </trkpt>
      <trkpt lat="45.31988" lon="5.89009">
        <ele>977.8</ele>
        <time>2016-01-17T17:44:30Z</time>
      </trkpt>
      <trkpt lat="45.31979" lon="5.89001">
        <ele>977</ele>
        <time>2016-01-17T17:44:32Z</time>
      </trkpt>
      <trkpt lat="45.31972" lon="5.88991">
        <ele>976.9</ele>
        <time>2016-01-17T17:44:35Z</time>
      </trkpt>
      <trkpt lat="45.31965" lon="5.88984">
        <ele>976.1</ele>
        <time>2016-01-17T17:44:38Z</time>
      </trkpt>
      <trkpt lat="45.31954" lon="5.88975">
        <ele>974.5</ele>
        <time>2016-01-17T17:44:41Z</time>
      </trkpt>
      <trkpt lat="45.31945" lon="5.88965">
        <ele>973.1</ele>
        <time>2016-01-17T17:44:44Z</time>
      </trkpt>
      <trkpt lat="45.31937" lon="5.88959">
        <ele>971.4</ele>
        <time>2016-01-17T17:44:46Z</time>
      </trkpt>
      <trkpt lat="45.31926" lon="5.88955">
        <ele>968.7</ele>
        <time>2016-01-17T17:44:48Z</time>
      </trkpt>
      <trkpt lat="45.31914" lon="5.88948">
        <ele>965.9</ele>
        <time>2016-01-17T17:44:50Z</time>
      </trkpt>
      <trkpt lat="45.31904" lon="5.88941">
        <ele>964.5</ele>
        <time>2016-01-17T17:44:52Z</time>
      </trkpt>
      <trkpt lat="45.31894" lon="5.88935">
        <ele>963.1</ele>
        <time>2016-01-17T17:44:54Z</time>
      </trkpt>
      <trkpt lat="45.31886" lon="5.88928">
        <ele>962.2</ele>
        <time>2016-01-17T17:44:56Z</time>
      </trkpt>
      <trkpt lat="45.31873" lon="5.88919">
        <ele>960.7</ele>
        <time>2016-01-17T17:44:59Z</time>
      </trkpt>
      <trkpt lat="45.31864" lon="5.88914">
        <ele>959.9</ele>
        <time>2016-01-17T17:45:01Z</time>
      </trkpt>
      <trkpt lat="45.31855" lon="5.8891">
        <ele>959.3</ele>
        <time>2016-01-17T17:45:03Z</time>
      </trkpt>
      <trkpt lat="45.31846" lon="5.88906">
        <ele>958.5</ele>
        <time>2016-01-17T17:45:05Z</time>
      </trkpt>
      <trkpt lat="45.31836" lon="5.88901">
        <ele>957.7</ele>
        <time>2016-01-17T17:45:07Z</time>
      </trkpt>
      <trkpt lat="45.31826" lon="5.88896">
        <ele>957.3</ele>
        <time>2016-01-17T17:45:09Z</time>
      </trkpt>
      <trkpt lat="45.31813" lon="5.88888">
        <ele>957</ele>
        <time>2016-01-17T17:45:12Z</time>
      </trkpt>
      <trkpt lat="45.31803" lon="5.88878">
        <ele>957</ele>
        <time>2016-01-17T17:45:15Z</time>
      </trkpt>
      <trkpt lat="45.31794" lon="5.88868">
        <ele>957.1</ele>
        <time>2016-01-17T17:45:18Z</time>
      </trkpt>
      <trkpt lat="45.31784" lon="5.88858">
        <ele>956.9</ele>
        <time>2016-01-17T17:45:21Z</time>
      </trkpt>
      <trkpt lat="45.31773" lon="5.88852">
        <ele>955.8</ele>
        <time>2016-01-17T17:45:24Z</time>
      </trkpt>
      <trkpt lat="45.31761" lon="5.8885">
        <ele>954.3</ele>
        <time>2016-01-17T17:45:27Z</time>
      </trkpt>
      <trkpt lat="45.31749" lon="5.88848">
        <ele>952.9</ele>
        <time>2016-01-17T17:45:30Z</time>
      </trkpt>
      <trkpt lat="45.31737" lon="5.88844">
        <ele>952.5</ele>
        <time>2016-01-17T17:45:33Z</time>
      </trkpt>
      <trkpt lat="45.31726" lon="5.88837">
        <ele>952.3</ele>
        <time>2016-01-17T17:45:36Z</time>
      </trkpt>
      <trkpt lat="45.31716" lon="5.88831">
        <ele>952.5</ele>
        <time>2016-01-17T17:45:39Z</time>
      </trkpt>
      <trkpt lat="45.31705" lon="5.88824">
        <ele>953.1</ele>
        <time>2016-01-17T17:45:42Z</time>
      </trkpt>
      <trkpt lat="45.31694" lon="5.88817">
        <ele>953.6</ele>
        <time>2016-01-17T17:45:45Z</time>
      </trkpt>
      <trkpt lat="45.31686" lon="5.88811">
        <ele>954.1</ele>
        <time>2016-01-17T17:45:47Z</time>
      </trkpt>
      <trkpt lat="45.31675" lon="5.88804">
        <ele>954.6</ele>
        <time>2016-01-17T17:45:50Z</time>
      </trkpt>
      <trkpt lat="45.31666" lon="5.88798">
        <ele>955</ele>
        <time>2016-01-17T17:45:52Z</time>
      </trkpt>
      <trkpt lat="45.31657" lon="5.88794">
        <ele>955.5</ele>
        <time>2016-01-17T17:45:54Z</time>
      </trkpt>
      <trkpt lat="45.31646" lon="5.88795">
        <ele>955.1</ele>
        <time>2016-01-17T17:45:56Z</time>
      </trkpt>
      <trkpt lat="45.31637" lon="5.88797">
        <ele>954.5</ele>
        <time>2016-01-17T17:45:58Z</time>
      </trkpt>
      <trkpt lat="45.31628" lon="5.88802">
        <ele>953.5</ele>
        <time>2016-01-17T17:46:00Z</time>
      </trkpt>
      <trkpt lat="45.31617" lon="5.88809">
        <ele>952.2</ele>
        <time>2016-01-17T17:46:03Z</time>
      </trkpt>
      <trkpt lat="45.31605" lon="5.88816">
        <ele>950.9</ele>
        <time>2016-01-17T17:46:06Z</time>
      </trkpt>
      <trkpt lat="45.31615" lon="5.88816">
        <ele>951.1</ele>
        <time>2016-05-22T17:45:03Z</time>
      </trkpt>
      <trkpt lat="45.31616" lon="5.88823">
        <ele>950.1</ele>
        <time>2016-05-22T17:45:04Z</time>
      </trkpt>
      <trkpt lat="45.31617" lon="5.88831">
        <ele>948.9</ele>
        <time>2016-05-22T17:45:05Z</time>
      </trkpt>
      <trkpt lat="45.31618" lon="5.8884">
        <ele>947.9</ele>
        <time>2016-05-22T17:45:06Z</time>
      </trkpt>
      <trkpt lat="45.31619" lon="5.88849">
        <ele>947.2</ele>
        <time>2016-05-22T17:45:07Z</time>
      </trkpt>
      <trkpt lat="45.3162" lon="5.88858">
        <ele>946.4</ele>
        <time>2016-05-22T17:45:08Z</time>
      </trkpt>
      <trkpt lat="45.31621" lon="5.88867">
        <ele>945.6</ele>
        <time>2016-05-22T17:45:09Z</time>
      </trkpt>
      <trkpt lat="45.31622" lon="5.88878">
        <ele>944.7</ele>
        <time>2016-05-22T17:45:10Z</time>
      </trkpt>
      <trkpt lat="45.31623" lon="5.8889">
        <ele>943.7</ele>
        <time>2016-05-22T17:45:11Z</time>
      </trkpt>
      <trkpt lat="45.31625" lon="5.88901">
        <ele>942.9</ele>
        <time>2016-05-22T17:45:12Z</time>
      </trkpt>
      <trkpt lat="45.31626" lon="5.8891">
        <ele>942.1</ele>
        <time>2016-05-22T17:45:13Z</time>
      </trkpt>
      <trkpt lat="45.31627" lon="5.88918">
        <ele>941.5</ele>
        <time>2016-05-22T17:45:14Z</time>
      </trkpt>
      <trkpt lat="45.31628" lon="5.88925">
        <ele>940.6</ele>
        <time>2016-05-22T17:45:15Z</time>
      </trkpt>
      <trkpt lat="45.31629" lon="5.88932">
        <ele>939.7</ele>
        <time>2016-05-22T17:45:16Z</time>
      </trkpt>
      <trkpt lat="45.31631" lon="5.8894">
        <ele>938.8</ele>
        <time>2016-05-22T17:45:17Z</time>
      </trkpt>
      <trkpt lat="45.31633" lon="5.88948">
        <ele>937.8</ele>
        <time>2016-05-22T17:45:18Z</time>
      </trkpt>
      <trkpt lat="45.31634" lon="5.88959">
        <ele>936.5</ele>
        <time>2016-05-22T17:45:19Z</time>
      </trkpt>
      <trkpt lat="45.31635" lon="5.8897">
        <ele>935.1</ele>
        <time>2016-05-22T17:45:20Z</time>
      </trkpt>
      <trkpt lat="45.31637" lon="5.88981">
        <ele>933.8</ele>
        <time>2016-05-22T17:45:21Z</time>
      </trkpt>
      <trkpt lat="45.31639" lon="5.88987">
        <ele>933</ele>
        <time>2016-05-22T17:45:22Z</time>
      </trkpt>
      <trkpt lat="45.31641" lon="5.88994">
        <ele>932.2</ele>
        <time>2016-05-22T17:45:23Z</time>
      </trkpt>
      <trkpt lat="45.31642" lon="5.88999">
        <ele>931.5</ele>
        <time>2016-05-22T17:45:24Z</time>
      </trkpt>
      <trkpt lat="45.31644" lon="5.89001">
        <ele>931.3</ele>
        <time>2016-05-22T17:45:25Z</time>
      </trkpt>
      <trkpt lat="45.31645" lon="5.89005">
        <ele>930.7</ele>
        <time>2016-05-22T17:45:26Z</time>
      </trkpt>
      <trkpt lat="45.31648" lon="5.89009">
        <ele>930.2</ele>
        <time>2016-05-22T17:45:27Z</time>
      </trkpt>
      <trkpt lat="45.31652" lon="5.89019">
        <ele>929</ele>
        <time>2016-05-22T17:45:28Z</time>
      </trkpt>
      <trkpt lat="45.31651" lon="5.89023">
        <ele>928.5</ele>
        <time>2016-05-22T17:45:29Z</time>
      </trkpt>
      <trkpt lat="45.3165" lon="5.89027">
        <ele>928</ele>
        <time>2016-05-22T17:45:30Z</time>
      </trkpt>
      <trkpt lat="45.31648" lon="5.89031">
        <ele>927.4</ele>
        <time>2016-05-22T17:45:31Z</time>
      </trkpt>
      <trkpt lat="45.31648" lon="5.89038">
        <ele>926.6</ele>
        <time>2016-05-22T17:45:32Z</time>
      </trkpt>
      <trkpt lat="45.31646" lon="5.89043">
        <ele>926</ele>
        <time>2016-05-22T17:45:33Z</time>
      </trkpt>
      <trkpt lat="45.31645" lon="5.8905">
        <ele>925.2</ele>
        <time>2016-05-22T17:45:34Z</time>
      </trkpt>
      <trkpt lat="45.31644" lon="5.89056">
        <ele>924.4</ele>
        <time>2016-05-22T17:45:35Z</time>
      </trkpt>
      <trkpt lat="45.31644" lon="5.89064">
        <ele>923.4</ele>
        <time>2016-05-22T17:45:36Z</time>
      </trkpt>
      <trkpt lat="45.31643" lon="5.89072">
        <ele>922.5</ele>
        <time>2016-05-22T17:45:37Z</time>
      </trkpt>
      <trkpt lat="45.31641" lon="5.89077">
        <ele>921.8</ele>
        <time>2016-05-22T17:45:38Z</time>
      </trkpt>
      <trkpt lat="45.31639" lon="5.89083">
        <ele>921.1</ele>
        <time>2016-05-22T17:45:39Z</time>
      </trkpt>
      <trkpt lat="45.31639" lon="5.8909">
        <ele>920.7</ele>
        <time>2016-05-22T17:45:40Z</time>
      </trkpt>
      <trkpt lat="45.31637" lon="5.89099">
        <ele>920.2</ele>
        <time>2016-05-22T17:45:41Z</time>
      </trkpt>
      <trkpt lat="45.31635" lon="5.89107">
        <ele>919.8</ele>
        <time>2016-05-22T17:45:42Z</time>
      </trkpt>
      <trkpt lat="45.31634" lon="5.89116">
        <ele>919.3</ele>
        <time>2016-05-22T17:45:43Z</time>
      </trkpt>
      <trkpt lat="45.31634" lon="5.89123">
        <ele>918.9</ele>
        <time>2016-05-22T17:45:44Z</time>
      </trkpt>
      <trkpt lat="45.31636" lon="5.8913">
        <ele>918.5</ele>
        <time>2016-05-22T17:45:45Z</time>
      </trkpt>
      <trkpt lat="45.31639" lon="5.89136">
        <ele>918.1</ele>
        <time>2016-05-22T17:45:46Z</time>
      </trkpt>
      <trkpt lat="45.31642" lon="5.8914">
        <ele>917.7</ele>
        <time>2016-05-22T17:45:47Z</time>
      </trkpt>
      <trkpt lat="45.31644" lon="5.89146">
        <ele>917.3</ele>
        <time>2016-05-22T17:45:48Z</time>
      </trkpt>
      <trkpt lat="45.31647" lon="5.89152">
        <ele>916.9</ele>
        <time>2016-05-22T17:45:49Z</time>
      </trkpt>
      <trkpt lat="45.31649" lon="5.89159">
        <ele>916.3</ele>
        <time>2016-05-22T17:45:50Z</time>
      </trkpt>
      <trkpt lat="45.31651" lon="5.89165">
        <ele>915.9</ele>
        <time>2016-05-22T17:45:51Z</time>
      </trkpt>
      <trkpt lat="45.31652" lon="5.89172">
        <ele>915.2</ele>
        <time>2016-05-22T17:45:52Z</time>
      </trkpt>
      <trkpt lat="45.31654" lon="5.89179">
        <ele>914.5</ele>
        <time>2016-05-22T17:45:53Z</time>
      </trkpt>
      <trkpt lat="45.31655" lon="5.89186">
        <ele>913.7</ele>
        <time>2016-05-22T17:45:54Z</time>
      </trkpt>
      <trkpt lat="45.31655" lon="5.89192">
        <ele>913</ele>
        <time>2016-05-22T17:45:55Z</time>
      </trkpt>
      <trkpt lat="45.31656" lon="5.89199">
        <ele>912.3</ele>
        <time>2016-05-22T17:45:56Z</time>
      </trkpt>
      <trkpt lat="45.31657" lon="5.89204">
        <ele>911.7</ele>
        <time>2016-05-22T17:45:57Z</time>
      </trkpt>
      <trkpt lat="45.31658" lon="5.8921">
        <ele>911</ele>
        <time>2016-05-22T17:45:58Z</time>
      </trkpt>
      <trkpt lat="45.3166" lon="5.89216">
        <ele>910.3</ele>
        <time>2016-05-22T17:45:59Z</time>
      </trkpt>
      <trkpt lat="45.31661" lon="5.89221">
        <ele>909.7</ele>
        <time>2016-05-22T17:46:00Z</time>
      </trkpt>
      <trkpt lat="45.31662" lon="5.89226">
        <ele>909</ele>
        <time>2016-05-22T17:46:01Z</time>
      </trkpt>
      <trkpt lat="45.31662" lon="5.89232">
        <ele>908.4</ele>
        <time>2016-05-22T17:46:02Z</time>
      </trkpt>
      <trkpt lat="45.3166" lon="5.89236">
        <ele>908.1</ele>
        <time>2016-05-22T17:46:03Z</time>
      </trkpt>
      <trkpt lat="45.31658" lon="5.89241">
        <ele>907.8</ele>
        <time>2016-05-22T17:46:04Z</time>
      </trkpt>
      <trkpt lat="45.31655" lon="5.89245">
        <ele>907.6</ele>
        <time>2016-05-22T17:46:05Z</time>
      </trkpt>
      <trkpt lat="45.31653" lon="5.89249">
        <ele>907.5</ele>
        <time>2016-05-22T17:46:06Z</time>
      </trkpt>
      <trkpt lat="45.3165" lon="5.89253">
        <ele>907.3</ele>
        <time>2016-05-22T17:46:07Z</time>
      </trkpt>
      <trkpt lat="45.31647" lon="5.89255">
        <ele>907.4</ele>
        <time>2016-05-22T17:46:08Z</time>
      </trkpt>
      <trkpt lat="45.31644" lon="5.89257">
        <ele>907.5</ele>
        <time>2016-05-22T17:46:09Z</time>
      </trkpt>
      <trkpt lat="45.31642" lon="5.89257">
        <ele>907.7</ele>
        <time>2016-05-22T17:46:10Z</time>
      </trkpt>
      <trkpt lat="45.31639" lon="5.89257">
        <ele>907.9</ele>
        <time>2016-05-22T17:46:11Z</time>
      </trkpt>
      <trkpt lat="45.31636" lon="5.89256">
        <ele>908.2</ele>
        <time>2016-05-22T17:46:12Z</time>
      </trkpt>
      <trkpt lat="45.31634" lon="5.89255">
        <ele>908.6</ele>
        <time>2016-05-22T17:46:13Z</time>
      </trkpt>
      <trkpt lat="45.31631" lon="5.89254">
        <ele>909.1</ele>
        <time>2016-05-22T17:46:14Z</time>
      </trkpt>
      <trkpt lat="45.31628" lon="5.89252">
        <ele>909.5</ele>
        <time>2016-05-22T17:46:15Z</time>
      </trkpt>
      <trkpt lat="45.31625" lon="5.89251">
        <ele>909.9</ele>
        <time>2016-05-22T17:46:16Z</time>
      </trkpt>
      <trkpt lat="45.31623" lon="5.89249">
        <ele>910.3</ele>
        <time>2016-05-22T17:46:17Z</time>
      </trkpt>
      <trkpt lat="45.31621" lon="5.89246">
        <ele>910.7</ele>
        <time>2016-05-22T17:46:18Z</time>
      </trkpt>
      <trkpt lat="45.31619" lon="5.89244">
        <ele>911.1</ele>
        <time>2016-05-22T17:46:19Z</time>
      </trkpt>
      <trkpt lat="45.31617" lon="5.89242">
        <ele>911.5</ele>
        <time>2016-05-22T17:46:20Z</time>
      </trkpt>
      <trkpt lat="45.31615" lon="5.89239">
        <ele>911.9</ele>
        <time>2016-05-22T17:46:21Z</time>
      </trkpt>
      <trkpt lat="45.31613" lon="5.89237">
        <ele>912.2</ele>
        <time>2016-05-22T17:46:22Z</time>
      </trkpt>
      <trkpt lat="45.31611" lon="5.89234">
        <ele>912.6</ele>
        <time>2016-05-22T17:46:23Z</time>
      </trkpt>
      <trkpt lat="45.31608" lon="5.89232">
        <ele>913</ele>
        <time>2016-05-22T17:46:24Z</time>
      </trkpt>
      <trkpt lat="45.31606" lon="5.89229">
        <ele>913.4</ele>
        <time>2016-05-22T17:46:25Z</time>
      </trkpt>
      <trkpt lat="45.31603" lon="5.89225">
        <ele>913.9</ele>
        <time>2016-05-22T17:46:26Z</time>
      </trkpt>
      <trkpt lat="45.316" lon="5.89222">
        <ele>914.4</ele>
        <time>2016-05-22T17:46:27Z</time>
      </trkpt>
      <trkpt lat="45.31597" lon="5.89217">
        <ele>914.9</ele>
        <time>2016-05-22T17:46:28Z</time>
      </trkpt>
      <trkpt lat="45.31593" lon="5.89214">
        <ele>915.5</ele>
        <time>2016-05-22T17:46:29Z</time>
      </trkpt>
      <trkpt lat="45.31589" lon="5.8921">
        <ele>916</ele>
        <time>2016-05-22T17:46:30Z</time>
      </trkpt>
      <trkpt lat="45.31586" lon="5.89206">
        <ele>916.5</ele>
        <time>2016-05-22T17:46:31Z</time>
      </trkpt>
      <trkpt lat="45.31582" lon="5.89202">
        <ele>916.9</ele>
        <time>2016-05-22T17:46:32Z</time>
      </trkpt>
      <trkpt lat="45.31579" lon="5.89198">
        <ele>917.3</ele>
        <time>2016-05-22T17:46:33Z</time>
      </trkpt>
      <trkpt lat="45.31576" lon="5.89194">
        <ele>917.7</ele>
        <time>2016-05-22T17:46:34Z</time>
      </trkpt>
      <trkpt lat="45.31573" lon="5.8919">
        <ele>918</ele>
        <time>2016-05-22T17:46:35Z</time>
      </trkpt>
      <trkpt lat="45.3157" lon="5.89186">
        <ele>918.2</ele>
        <time>2016-05-22T17:46:36Z</time>
      </trkpt>
      <trkpt lat="45.31567" lon="5.89182">
        <ele>918.5</ele>
        <time>2016-05-22T17:46:37Z</time>
      </trkpt>
      <trkpt lat="45.31563" lon="5.89178">
        <ele>918.7</ele>
        <time>2016-05-22T17:46:38Z</time>
      </trkpt>
      <trkpt lat="45.3156" lon="5.89174">
        <ele>918.8</ele>
        <time>2016-05-22T17:46:39Z</time>
      </trkpt>
      <trkpt lat="45.31557" lon="5.89171">
        <ele>918.9</ele>
        <time>2016-05-22T17:46:40Z</time>
      </trkpt>
      <trkpt lat="45.31554" lon="5.89167">
        <ele>919</ele>
        <time>2016-05-22T17:46:41Z</time>
      </trkpt>
      <trkpt lat="45.31551" lon="5.89163">
        <ele>919.1</ele>
        <time>2016-05-22T17:46:42Z</time>
      </trkpt>
      <trkpt lat="45.31548" lon="5.8916">
        <ele>919.2</ele>
        <time>2016-05-22T17:46:43Z</time>
      </trkpt>
      <trkpt lat="45.31545" lon="5.89156">
        <ele>919.3</ele>
        <time>2016-05-22T17:46:44Z</time>
      </trkpt>
      <trkpt lat="45.31543" lon="5.89153">
        <ele>919.3</ele>
        <time>2016-05-22T17:46:45Z</time>
      </trkpt>
      <trkpt lat="45.3154" lon="5.8915">
        <ele>919.4</ele>
        <time>2016-05-22T17:46:46Z</time>
      </trkpt>
      <trkpt lat="45.31537" lon="5.89147">
        <ele>919.5</ele>
        <time>2016-05-22T17:46:47Z</time>
      </trkpt>
      <trkpt lat="45.31535" lon="5.89144">
        <ele>919.6</ele>
        <time>2016-05-22T17:46:48Z</time>
      </trkpt>
      <trkpt lat="45.31532" lon="5.8914">
        <ele>919.6</ele>
        <time>2016-05-22T17:46:49Z</time>
      </trkpt>
      <trkpt lat="45.3153" lon="5.89137">
        <ele>919.7</ele>
        <time>2016-05-22T17:46:50Z</time>
      </trkpt>
      <trkpt lat="45.31527" lon="5.89135">
        <ele>919.8</ele>
        <time>2016-05-22T17:46:51Z</time>
      </trkpt>
      <trkpt lat="45.31524" lon="5.89132">
        <ele>919.8</ele>
        <time>2016-05-22T17:46:52Z</time>
      </trkpt>
      <trkpt lat="45.31522" lon="5.89129">
        <ele>919.9</ele>
        <time>2016-05-22T17:46:53Z</time>
      </trkpt>
      <trkpt lat="45.31519" lon="5.89126">
        <ele>920</ele>
        <time>2016-05-22T17:46:54Z</time>
      </trkpt>
      <trkpt lat="45.31517" lon="5.89123">
        <ele>920.1</ele>
        <time>2016-05-22T17:46:55Z</time>
      </trkpt>
      <trkpt lat="45.31514" lon="5.89121">
        <ele>920.1</ele>
        <time>2016-05-22T17:46:56Z</time>
      </trkpt>
      <trkpt lat="45.31511" lon="5.89118">
        <ele>920.2</ele>
        <time>2016-05-22T17:46:57Z</time>
      </trkpt>
      <trkpt lat="45.31508" lon="5.89116">
        <ele>920.2</ele>
        <time>2016-05-22T17:46:58Z</time>
      </trkpt>
      <trkpt lat="45.31505" lon="5.89114">
        <ele>920.3</ele>
        <time>2016-05-22T17:46:59Z</time>
      </trkpt>
      <trkpt lat="45.31503" lon="5.89111">
        <ele>920.4</ele>
        <time>2016-05-22T17:47:00Z</time>
      </trkpt>
      <trkpt lat="45.315" lon="5.89108">
        <ele>920.4</ele>
        <time>2016-05-22T17:47:01Z</time>
      </trkpt>
      <trkpt lat="45.31498" lon="5.89105">
        <ele>920.6</ele>
        <time>2016-05-22T17:47:02Z</time>
      </trkpt>
      <trkpt lat="45.31495" lon="5.89102">
        <ele>920.8</ele>
        <time>2016-05-22T17:47:03Z</time>
      </trkpt>
      <trkpt lat="45.31493" lon="5.89098">
        <ele>921</ele>
        <time>2016-05-22T17:47:04Z</time>
      </trkpt>
      <trkpt lat="45.31491" lon="5.89095">
        <ele>921.1</ele>
        <time>2016-05-22T17:47:05Z</time>
      </trkpt>
      <trkpt lat="45.31489" lon="5.89091">
        <ele>921.3</ele>
        <time>2016-05-22T17:47:06Z</time>
      </trkpt>
      <trkpt lat="45.31486" lon="5.89088">
        <ele>921.4</ele>
        <time>2016-05-22T17:47:07Z</time>
      </trkpt>
      <trkpt lat="45.31483" lon="5.89084">
        <ele>921.6</ele>
        <time>2016-05-22T17:47:08Z</time>
      </trkpt>
      <trkpt lat="45.3148" lon="5.89081">
        <ele>922</ele>
        <time>2016-05-22T17:47:09Z</time>
      </trkpt>
      <trkpt lat="45.31478" lon="5.89078">
        <ele>922.5</ele>
        <time>2016-05-22T17:47:10Z</time>
      </trkpt>
      <trkpt lat="45.31475" lon="5.89075">
        <ele>922.9</ele>
        <time>2016-05-22T17:47:11Z</time>
      </trkpt>
      <trkpt lat="45.31472" lon="5.89072">
        <ele>923.3</ele>
        <time>2016-05-22T17:47:12Z</time>
      </trkpt>
      <trkpt lat="45.31469" lon="5.89069">
        <ele>923.6</ele>
        <time>2016-05-22T17:47:13Z</time>
      </trkpt>
      <trkpt lat="45.31466" lon="5.89067">
        <ele>923.9</ele>
        <time>2016-05-22T17:47:14Z</time>
      </trkpt>
      <trkpt lat="45.31464" lon="5.89065">
        <ele>924.2</ele>
        <time>2016-05-22T17:47:15Z</time>
      </trkpt>
      <trkpt lat="45.31462" lon="5.89063">
        <ele>924.5</ele>
        <time>2016-05-22T17:47:16Z</time>
      </trkpt>
      <trkpt lat="45.31459" lon="5.89061">
        <ele>924.7</ele>
        <time>2016-05-22T17:47:17Z</time>
      </trkpt>
      <trkpt lat="45.31456" lon="5.89059">
        <ele>925</ele>
        <time>2016-05-22T17:47:18Z</time>
      </trkpt>
      <trkpt lat="45.31454" lon="5.89057">
        <ele>925.2</ele>
        <time>2016-05-22T17:47:19Z</time>
      </trkpt>
      <trkpt lat="45.31451" lon="5.89055">
        <ele>925.4</ele>
        <time>2016-05-22T17:47:20Z</time>
      </trkpt>
      <trkpt lat="45.31448" lon="5.89053">
        <ele>925.6</ele>
        <time>2016-05-22T17:47:21Z</time>
      </trkpt>
      <trkpt lat="45.31445" lon="5.89051">
        <ele>925.9</ele>
        <time>2016-05-22T17:47:22Z</time>
      </trkpt>
      <trkpt lat="45.31442" lon="5.89049">
        <ele>926.1</ele>
        <time>2016-05-22T17:47:23Z</time>
      </trkpt>
      <trkpt lat="45.31439" lon="5.89048">
        <ele>926.3</ele>
        <time>2016-05-22T17:47:24Z</time>
      </trkpt>
      <trkpt lat="45.31436" lon="5.89046">
        <ele>926.4</ele>
        <time>2016-05-22T17:47:25Z</time>
      </trkpt>
      <trkpt lat="45.31434" lon="5.89044">
        <ele>926.6</ele>
        <time>2016-05-22T17:47:26Z</time>
      </trkpt>
      <trkpt lat="45.31431" lon="5.89043">
        <ele>926.8</ele>
        <time>2016-05-22T17:47:27Z</time>
      </trkpt>
      <trkpt lat="45.31428" lon="5.89041">
        <ele>927</ele>
        <time>2016-05-22T17:47:28Z</time>
      </trkpt>
      <trkpt lat="45.31426" lon="5.8904">
        <ele>927.1</ele>
        <time>2016-05-22T17:47:29Z</time>
      </trkpt>
      <trkpt lat="45.31425" lon="5.89038">
        <ele>927.2</ele>
        <time>2016-05-22T17:47:30Z</time>
      </trkpt>
      <trkpt lat="45.31424" lon="5.89036">
        <ele>927.3</ele>
        <time>2016-05-22T17:47:31Z</time>
      </trkpt>
      <trkpt lat="45.31423" lon="5.89035">
        <ele>927.5</ele>
        <time>2016-05-22T17:47:32Z</time>
      </trkpt>
      <trkpt lat="45.31421" lon="5.89034">
        <ele>927.5</ele>
        <time>2016-05-22T17:47:33Z</time>
      </trkpt>
      <trkpt lat="45.31419" lon="5.89035">
        <ele>927.5</ele>
        <time>2016-05-22T17:47:34Z</time>
      </trkpt>
      <trkpt lat="45.31417" lon="5.89037">
        <ele>927.4</ele>
        <time>2016-05-22T17:47:35Z</time>
      </trkpt>
      <trkpt lat="45.31416" lon="5.89041">
        <ele>927.2</ele>
        <time>2016-05-22T17:47:36Z</time>
      </trkpt>
      <trkpt lat="45.31414" lon="5.89044">
        <ele>927</ele>
        <time>2016-05-22T17:47:37Z</time>
      </trkpt>
      <trkpt lat="45.31413" lon="5.89048">
        <ele>926.9</ele>
        <time>2016-05-22T17:47:38Z</time>
      </trkpt>
      <trkpt lat="45.31412" lon="5.8905">
        <ele>926.8</ele>
        <time>2016-05-22T17:47:39Z</time>
      </trkpt>
      <trkpt lat="45.3141" lon="5.89053">
        <ele>926.8</ele>
        <time>2016-05-22T17:47:40Z</time>
      </trkpt>
      <trkpt lat="45.31409" lon="5.89055">
        <ele>926.7</ele>
        <time>2016-05-22T17:47:41Z</time>
      </trkpt>
      <trkpt lat="45.31407" lon="5.89058">
        <ele>926.7</ele>
        <time>2016-05-22T17:47:42Z</time>
      </trkpt>
      <trkpt lat="45.31406" lon="5.8906">
        <ele>926.6</ele>
        <time>2016-05-22T17:47:43Z</time>
      </trkpt>
      <trkpt lat="45.31405" lon="5.89063">
        <ele>926.5</ele>
        <time>2016-05-22T17:47:44Z</time>
      </trkpt>
      <trkpt lat="45.31404" lon="5.89066">
        <ele>926.4</ele>
        <time>2016-05-22T17:47:45Z</time>
      </trkpt>
      <trkpt lat="45.31403" lon="5.89068">
        <ele>926.4</ele>
        <time>2016-05-22T17:47:46Z</time>
      </trkpt>
      <trkpt lat="45.31401" lon="5.89071">
        <ele>926.3</ele>
        <time>2016-05-22T17:47:47Z</time>
      </trkpt>
      <trkpt lat="45.314" lon="5.89073">
        <ele>926.3</ele>
        <time>2016-05-22T17:47:48Z</time>
      </trkpt>
      <trkpt lat="45.31399" lon="5.89076">
        <ele>926.2</ele>
        <time>2016-05-22T17:47:49Z</time>
      </trkpt>
      <trkpt lat="45.31398" lon="5.89078">
        <ele>926.1</ele>
        <time>2016-05-22T17:47:50Z</time>
      </trkpt>
      <trkpt lat="45.31397" lon="5.89081">
        <ele>926.1</ele>
        <time>2016-05-22T17:47:51Z</time>
      </trkpt>
      <trkpt lat="45.31397" lon="5.89083">
        <ele>926</ele>
        <time>2016-05-22T17:47:52Z</time>
      </trkpt>
      <trkpt lat="45.31396" lon="5.89086">
        <ele>926.1</ele>
        <time>2016-05-22T17:47:53Z</time>
      </trkpt>
      <trkpt lat="45.31395" lon="5.89089">
        <ele>926.3</ele>
        <time>2016-05-22T17:47:54Z</time>
      </trkpt>
      <trkpt lat="45.31394" lon="5.89092">
        <ele>926.4</ele>
        <time>2016-05-22T17:47:55Z</time>
      </trkpt>
      <trkpt lat="45.31394" lon="5.89096">
        <ele>926.6</ele>
        <time>2016-05-22T17:47:56Z</time>
      </trkpt>
      <trkpt lat="45.31393" lon="5.89099">
        <ele>926.8</ele>
        <time>2016-05-22T17:47:57Z</time>
      </trkpt>
      <trkpt lat="45.31392" lon="5.89103">
        <ele>926.9</ele>
        <time>2016-05-22T17:47:58Z</time>
      </trkpt>
      <trkpt lat="45.31392" lon="5.89105">
        <ele>927</ele>
        <time>2016-05-22T17:47:59Z</time>
      </trkpt>
      <trkpt lat="45.31392" lon="5.89108">
        <ele>927.1</ele>
        <time>2016-05-22T17:48:00Z</time>
      </trkpt>
      <trkpt lat="45.31392" lon="5.8911">
        <ele>927.2</ele>
        <time>2016-05-22T17:48:01Z</time>
      </trkpt>
      <trkpt lat="45.31391" lon="5.89113">
        <ele>927.4</ele>
        <time>2016-05-22T17:48:02Z</time>
      </trkpt>
      <trkpt lat="45.31391" lon="5.89116">
        <ele>927.5</ele>
        <time>2016-05-22T17:48:03Z</time>
      </trkpt>
      <trkpt lat="45.31391" lon="5.8912">
        <ele>927.7</ele>
        <time>2016-05-22T17:48:04Z</time>
      </trkpt>
      <trkpt lat="45.3139" lon="5.89124">
        <ele>927.8</ele>
        <time>2016-05-22T17:48:05Z</time>
      </trkpt>
      <trkpt lat="45.3139" lon="5.89128">
        <ele>928</ele>
        <time>2016-05-22T17:48:06Z</time>
      </trkpt>
      <trkpt lat="45.3139" lon="5.89132">
        <ele>928.1</ele>
        <time>2016-05-22T17:48:07Z</time>
      </trkpt>
      <trkpt lat="45.3139" lon="5.89135">
        <ele>928.2</ele>
        <time>2016-05-22T17:48:08Z</time>
      </trkpt>
      <trkpt lat="45.31389" lon="5.89139">
        <ele>928.4</ele>
        <time>2016-05-22T17:48:09Z</time>
      </trkpt>
      <trkpt lat="45.31389" lon="5.89143">
        <ele>928.6</ele>
        <time>2016-05-22T17:48:10Z</time>
      </trkpt>
      <trkpt lat="45.31388" lon="5.89147">
        <ele>928.8</ele>
        <time>2016-05-22T17:48:11Z</time>
      </trkpt>
      <trkpt lat="45.31387" lon="5.89151">
        <ele>928.9</ele>
        <time>2016-05-22T17:48:12Z</time>
      </trkpt>
      <trkpt lat="45.31387" lon="5.89155">
        <ele>929.1</ele>
        <time>2016-05-22T17:48:13Z</time>
      </trkpt>
      <trkpt lat="45.31386" lon="5.89158">
        <ele>929.3</ele>
        <time>2016-05-22T17:48:14Z</time>
      </trkpt>
      <trkpt lat="45.31385" lon="5.89161">
        <ele>929.4</ele>
        <time>2016-05-22T17:48:15Z</time>
      </trkpt>
      <trkpt lat="45.31384" lon="5.89164">
        <ele>929.6</ele>
        <time>2016-05-22T17:48:16Z</time>
      </trkpt>
      <trkpt lat="45.31384" lon="5.89168">
        <ele>929.8</ele>
        <time>2016-05-22T17:48:17Z</time>
      </trkpt>
      <trkpt lat="45.31383" lon="5.89171">
        <ele>930</ele>
        <time>2016-05-22T17:48:18Z</time>
      </trkpt>
      <trkpt lat="45.31383" lon="5.89174">
        <ele>930.2</ele>
        <time>2016-05-22T17:48:19Z</time>
      </trkpt>
      <trkpt lat="45.31383" lon="5.89178">
        <ele>930.5</ele>
        <time>2016-05-22T17:48:20Z</time>
      </trkpt>
      <trkpt lat="45.31383" lon="5.89181">
        <ele>930.7</ele>
        <time>2016-05-22T17:48:21Z</time>
      </trkpt>
      <trkpt lat="45.31383" lon="5.89184">
        <ele>930.8</ele>
        <time>2016-05-22T17:48:22Z</time>
      </trkpt>
      <trkpt lat="45.31383" lon="5.89187">
        <ele>931</ele>
        <time>2016-05-22T17:48:23Z</time>
      </trkpt>
      <trkpt lat="45.31383" lon="5.89191">
        <ele>931.2</ele>
        <time>2016-05-22T17:48:24Z</time>
      </trkpt>
      <trkpt lat="45.31383" lon="5.89194">
        <ele>931.4</ele>
        <time>2016-05-22T17:48:25Z</time>
      </trkpt>
      <trkpt lat="45.31383" lon="5.89197">
        <ele>931.6</ele>
        <time>2016-05-22T17:48:26Z</time>
      </trkpt>
      <trkpt lat="45.31384" lon="5.892">
        <ele>931.8</ele>
        <time>2016-05-22T17:48:27Z</time>
      </trkpt>
      <trkpt lat="45.31384" lon="5.89204">
        <ele>931.9</ele>
        <time>2016-05-22T17:48:28Z</time>
      </trkpt>
      <trkpt lat="45.31385" lon="5.89207">
        <ele>932.1</ele>
        <time>2016-05-22T17:48:29Z</time>
      </trkpt>
      <trkpt lat="45.31386" lon="5.8921">
        <ele>932.2</ele>
        <time>2016-05-22T17:48:30Z</time>
      </trkpt>
      <trkpt lat="45.31386" lon="5.89213">
        <ele>932.3</ele>
        <time>2016-05-22T17:48:31Z</time>
      </trkpt>
      <trkpt lat="45.31387" lon="5.89216">
        <ele>932.4</ele>
        <time>2016-05-22T17:48:32Z</time>
      </trkpt>
      <trkpt lat="45.31388" lon="5.89219">
        <ele>932.5</ele>
        <time>2016-05-22T17:48:33Z</time>
      </trkpt>
      <trkpt lat="45.31389" lon="5.89222">
        <ele>932.6</ele>
        <time>2016-05-22T17:48:34Z</time>
      </trkpt>
      <trkpt lat="45.3139" lon="5.89225">
        <ele>932.7</ele>
        <time>2016-05-22T17:48:35Z</time>
      </trkpt>
      <trkpt lat="45.31391" lon="5.89228">
        <ele>932.8</ele>
        <time>2016-05-22T17:48:36Z</time>
      </trkpt>
      <trkpt lat="45.31393" lon="5.89231">
        <ele>932.9</ele>
        <time>2016-05-22T17:48:37Z</time>
      </trkpt>
      <trkpt lat="45.31393" lon="5.89235">
        <ele>933</ele>
        <time>2016-05-22T17:48:38Z</time>
      </trkpt>
      <trkpt lat="45.31394" lon="5.89238">
        <ele>933.2</ele>
        <time>2016-05-22T17:48:39Z</time>
      </trkpt>
      <trkpt lat="45.31394" lon="5.89242">
        <ele>933.4</ele>
        <time>2016-05-22T17:48:40Z</time>
      </trkpt>
      <trkpt lat="45.31395" lon="5.89246">
        <ele>933.5</ele>
        <time>2016-05-22T17:48:41Z</time>
      </trkpt>
      <trkpt lat="45.31395" lon="5.89249">
        <ele>933.7</ele>
        <time>2016-05-22T17:48:42Z</time>
      </trkpt>
      <trkpt lat="45.31396" lon="5.89253">
        <ele>933.9</ele>
        <time>2016-05-22T17:48:43Z</time>
      </trkpt>
      <trkpt lat="45.31396" lon="5.89257">
        <ele>934.1</ele>
        <time>2016-05-22T17:48:44Z</time>
      </trkpt>
      <trkpt lat="45.31397" lon="5.8926">
        <ele>934.3</ele>
        <time>2016-05-22T17:48:45Z</time>
      </trkpt>
      <trkpt lat="45.31397" lon="5.89264">
        <ele>934.5</ele>
        <time>2016-05-22T17:48:46Z</time>
      </trkpt>
      <trkpt lat="45.31398" lon="5.89268">
        <ele>934.7</ele>
        <time>2016-05-22T17:48:47Z</time>
      </trkpt>
      <trkpt lat="45.31398" lon="5.89271">
        <ele>934.9</ele>
        <time>2016-05-22T17:48:48Z</time>
      </trkpt>
      <trkpt lat="45.31398" lon="5.89275">
        <ele>935.2</ele>
        <time>2016-05-22T17:48:49Z</time>
      </trkpt>
      <trkpt lat="45.31398" lon="5.89278">
        <ele>935.4</ele>
        <time>2016-05-22T17:48:50Z</time>
      </trkpt>
      <trkpt lat="45.31398" lon="5.89282">
        <ele>935.6</ele>
        <time>2016-05-22T17:48:51Z</time>
      </trkpt>
      <trkpt lat="45.31398" lon="5.89286">
        <ele>935.8</ele>
        <time>2016-05-22T17:48:52Z</time>
      </trkpt>
      <trkpt lat="45.31398" lon="5.89289">
        <ele>936.1</ele>
        <time>2016-05-22T17:48:53Z</time>
      </trkpt>
      <trkpt lat="45.31398" lon="5.89294">
        <ele>936.4</ele>
        <time>2016-05-22T17:48:54Z</time>
      </trkpt>
      <trkpt lat="45.31397" lon="5.89298">
        <ele>936.7</ele>
        <time>2016-05-22T17:48:55Z</time>
      </trkpt>
      <trkpt lat="45.31396" lon="5.89302">
        <ele>937.1</ele>
        <time>2016-05-22T17:48:56Z</time>
      </trkpt>
      <trkpt lat="45.31396" lon="5.89306">
        <ele>937.4</ele>
        <time>2016-05-22T17:48:57Z</time>
      </trkpt>
      <trkpt lat="45.31394" lon="5.8931">
        <ele>937.8</ele>
        <time>2016-05-22T17:48:58Z</time>
      </trkpt>
      <trkpt lat="45.31393" lon="5.89314">
        <ele>938.2</ele>
        <time>2016-05-22T17:48:59Z</time>
      </trkpt>
      <trkpt lat="45.31392" lon="5.89317">
        <ele>938.5</ele>
        <time>2016-05-22T17:49:00Z</time>
      </trkpt>
      <trkpt lat="45.31391" lon="5.89321">
        <ele>938.9</ele>
        <time>2016-05-22T17:49:01Z</time>
      </trkpt>
      <trkpt lat="45.31389" lon="5.89324">
        <ele>939.3</ele>
        <time>2016-05-22T17:49:02Z</time>
      </trkpt>
      <trkpt lat="45.31388" lon="5.89327">
        <ele>939.7</ele>
        <time>2016-05-22T17:49:03Z</time>
      </trkpt>
      <trkpt lat="45.31386" lon="5.89331">
        <ele>940.1</ele>
        <time>2016-05-22T17:49:04Z</time>
      </trkpt>
      <trkpt lat="45.31385" lon="5.89334">
        <ele>940.5</ele>
        <time>2016-05-22T17:49:05Z</time>
      </trkpt>
      <trkpt lat="45.31384" lon="5.89338">
        <ele>940.9</ele>
        <time>2016-05-22T17:49:06Z</time>
      </trkpt>
      <trkpt lat="45.31383" lon="5.89342">
        <ele>941.3</ele>
        <time>2016-05-22T17:49:07Z</time>
      </trkpt>
      <trkpt lat="45.31382" lon="5.89345">
        <ele>941.7</ele>
        <time>2016-05-22T17:49:08Z</time>
      </trkpt>
      <trkpt lat="45.31381" lon="5.89349">
        <ele>942.1</ele>
        <time>2016-05-22T17:49:09Z</time>
      </trkpt>
      <trkpt lat="45.3138" lon="5.89353">
        <ele>942.4</ele>
        <time>2016-05-22T17:49:10Z</time>
      </trkpt>
      <trkpt lat="45.31379" lon="5.89357">
        <ele>942.8</ele>
        <time>2016-05-22T17:49:11Z</time>
      </trkpt>
      <trkpt lat="45.31379" lon="5.89361">
        <ele>943.1</ele>
        <time>2016-05-22T17:49:12Z</time>
      </trkpt>
      <trkpt lat="45.31378" lon="5.89364">
        <ele>943.5</ele>
        <time>2016-05-22T17:49:13Z</time>
      </trkpt>
      <trkpt lat="45.31377" lon="5.89368">
        <ele>943.8</ele>
        <time>2016-05-22T17:49:14Z</time>
      </trkpt>
      <trkpt lat="45.31377" lon="5.89372">
        <ele>944.1</ele>
        <time>2016-05-22T17:49:15Z</time>
      </trkpt>
      <trkpt lat="45.31376" lon="5.89375">
        <ele>944.4</ele>
        <time>2016-05-22T17:49:16Z</time>
      </trkpt>
      <trkpt lat="45.31376" lon="5.89379">
        <ele>944.7</ele>
        <time>2016-05-22T17:49:17Z</time>
      </trkpt>
      <trkpt lat="45.31375" lon="5.89382">
        <ele>945</ele>
        <time>2016-05-22T17:49:18Z</time>
      </trkpt>
      <trkpt lat="45.31375" lon="5.89386">
        <ele>945.2</ele>
        <time>2016-05-22T17:49:19Z</time>
      </trkpt>
      <trkpt lat="45.31375" lon="5.89389">
        <ele>945.5</ele>
        <time>2016-05-22T17:49:20Z</time>
      </trkpt>
      <trkpt lat="45.31374" lon="5.89393">
        <ele>945.8</ele>
        <time>2016-05-22T17:49:21Z</time>
      </trkpt>
      <trkpt lat="45.31373" lon="5.89397">
        <ele>946.1</ele>
        <time>2016-05-22T17:49:22Z</time>
      </trkpt>
      <trkpt lat="45.31373" lon="5.89401">
        <ele>946.4</ele>
        <time>2016-05-22T17:49:23Z</time>
      </trkpt>
      <trkpt lat="45.31372" lon="5.89405">
        <ele>946.8</ele>
        <time>2016-05-22T17:49:24Z</time>
      </trkpt>
      <trkpt lat="45.31372" lon="5.8941">
        <ele>947.1</ele>
        <time>2016-05-22T17:49:25Z</time>
      </trkpt>
      <trkpt lat="45.31372" lon="5.89414">
        <ele>947.4</ele>
        <time>2016-05-22T17:49:26Z</time>
      </trkpt>
      <trkpt lat="45.31372" lon="5.89419">
        <ele>947.8</ele>
        <time>2016-05-22T17:49:27Z</time>
      </trkpt>
      <trkpt lat="45.31371" lon="5.89424">
        <ele>948.1</ele>
        <time>2016-05-22T17:49:28Z</time>
      </trkpt>
      <trkpt lat="45.31371" lon="5.89428">
        <ele>948.5</ele>
        <time>2016-05-22T17:49:29Z</time>
      </trkpt>
      <trkpt lat="45.3137" lon="5.89432">
        <ele>948.8</ele>
        <time>2016-05-22T17:49:30Z</time>
      </trkpt>
      <trkpt lat="45.3137" lon="5.89436">
        <ele>949.1</ele>
        <time>2016-05-22T17:49:31Z</time>
      </trkpt>
      <trkpt lat="45.3137" lon="5.8944">
        <ele>949.4</ele>
        <time>2016-05-22T17:49:32Z</time>
      </trkpt>
      <trkpt lat="45.3137" lon="5.89444">
        <ele>949.7</ele>
        <time>2016-05-22T17:49:33Z</time>
      </trkpt>
      <trkpt lat="45.31369" lon="5.89448">
        <ele>950</ele>
        <time>2016-05-22T17:49:34Z</time>
      </trkpt>
      <trkpt lat="45.31369" lon="5.89451">
        <ele>950.3</ele>
        <time>2016-05-22T17:49:35Z</time>
      </trkpt>
      <trkpt lat="45.31369" lon="5.89455">
        <ele>950.5</ele>
        <time>2016-05-22T17:49:36Z</time>
      </trkpt>
      <trkpt lat="45.31368" lon="5.89458">
        <ele>950.8</ele>
        <time>2016-05-22T17:49:37Z</time>
      </trkpt>
      <trkpt lat="45.31368" lon="5.89461">
        <ele>951</ele>
        <time>2016-05-22T17:49:38Z</time>
      </trkpt>
      <trkpt lat="45.31368" lon="5.89464">
        <ele>951.2</ele>
        <time>2016-05-22T17:49:39Z</time>
      </trkpt>
      <trkpt lat="45.31368" lon="5.89466">
        <ele>951.4</ele>
        <time>2016-05-22T17:49:40Z</time>
      </trkpt>
      <trkpt lat="45.31368" lon="5.89469">
        <ele>951.7</ele>
        <time>2016-05-22T17:49:41Z</time>
      </trkpt>
      <trkpt lat="45.31368" lon="5.89472">
        <ele>951.9</ele>
        <time>2016-05-22T17:49:42Z</time>
      </trkpt>
      <trkpt lat="45.31368" lon="5.89475">
        <ele>952.1</ele>
        <time>2016-05-22T17:49:43Z</time>
      </trkpt>
      <trkpt lat="45.31367" lon="5.89477">
        <ele>952.3</ele>
        <time>2016-05-22T17:49:44Z</time>
      </trkpt>
      <trkpt lat="45.31367" lon="5.8948">
        <ele>952.5</ele>
        <time>2016-05-22T17:49:45Z</time>
      </trkpt>
      <trkpt lat="45.31367" lon="5.89483">
        <ele>952.7</ele>
        <time>2016-05-22T17:49:46Z</time>
      </trkpt>
      <trkpt lat="45.31367" lon="5.89486">
        <ele>952.9</ele>
        <time>2016-05-22T17:49:47Z</time>
      </trkpt>
      <trkpt lat="45.31367" lon="5.8949">
        <ele>953.2</ele>
        <time>2016-05-22T17:49:48Z</time>
      </trkpt>
      <trkpt lat="45.31366" lon="5.89493">
        <ele>953.4</ele>
        <time>2016-05-22T17:49:49Z</time>
      </trkpt>
      <trkpt lat="45.31365" lon="5.89496">
        <ele>953.6</ele>
        <time>2016-05-22T17:49:50Z</time>
      </trkpt>
      <trkpt lat="45.31364" lon="5.89499">
        <ele>953.9</ele>
        <time>2016-05-22T17:49:51Z</time>
      </trkpt>
      <trkpt lat="45.31364" lon="5.89502">
        <ele>954</ele>
        <time>2016-05-22T17:49:52Z</time>
      </trkpt>
      <trkpt lat="45.31363" lon="5.89505">
        <ele>954</ele>
        <time>2016-05-22T17:49:53Z</time>
      </trkpt>
      <trkpt lat="45.31363" lon="5.89509">
        <ele>954</ele>
        <time>2016-05-22T17:49:54Z</time>
      </trkpt>
      <trkpt lat="45.31362" lon="5.89512">
        <ele>954</ele>
        <time>2016-05-22T17:49:55Z</time>
      </trkpt>
      <trkpt lat="45.31361" lon="5.89515">
        <ele>953.9</ele>
        <time>2016-05-22T17:49:56Z</time>
      </trkpt>
      <trkpt lat="45.3136" lon="5.89518">
        <ele>953.9</ele>
        <time>2016-05-22T17:49:57Z</time>
      </trkpt>
      <trkpt lat="45.31359" lon="5.8952">
        <ele>953.9</ele>
        <time>2016-05-22T17:49:58Z</time>
      </trkpt>
      <trkpt lat="45.31358" lon="5.89523">
        <ele>953.9</ele>
        <time>2016-05-22T17:49:59Z</time>
      </trkpt>
      <trkpt lat="45.31357" lon="5.89526">
        <ele>953.8</ele>
        <time>2016-05-22T17:50:00Z</time>
      </trkpt>
      <trkpt lat="45.31356" lon="5.8953">
        <ele>953.8</ele>
        <time>2016-05-22T17:50:01Z</time>
      </trkpt>
      <trkpt lat="45.31355" lon="5.89533">
        <ele>953.7</ele>
        <time>2016-05-22T17:50:02Z</time>
      </trkpt>
      <trkpt lat="45.31354" lon="5.89536">
        <ele>953.7</ele>
        <time>2016-05-22T17:50:03Z</time>
      </trkpt>
      <trkpt lat="45.31352" lon="5.8954">
        <ele>953.6</ele>
        <time>2016-05-22T17:50:04Z</time>
      </trkpt>
      <trkpt lat="45.31351" lon="5.89543">
        <ele>953.5</ele>
        <time>2016-05-22T17:50:05Z</time>
      </trkpt>
      <trkpt lat="45.3135" lon="5.89546">
        <ele>953.4</ele>
        <time>2016-05-22T17:50:06Z</time>
      </trkpt>
      <trkpt lat="45.31348" lon="5.89549">
        <ele>953.4</ele>
        <time>2016-05-22T17:50:07Z</time>
      </trkpt>
      <trkpt lat="45.31347" lon="5.89551">
        <ele>953.3</ele>
        <time>2016-05-22T17:50:08Z</time>
      </trkpt>
      <trkpt lat="45.31346" lon="5.89553">
        <ele>953.2</ele>
        <time>2016-05-22T17:50:09Z</time>
      </trkpt>
      <trkpt lat="45.31344" lon="5.89556">
        <ele>953.1</ele>
        <time>2016-05-22T17:50:10Z</time>
      </trkpt>
      <trkpt lat="45.31343" lon="5.89558">
        <ele>953</ele>
        <time>2016-05-22T17:50:11Z</time>
      </trkpt>
      <trkpt lat="45.31342" lon="5.89559">
        <ele>952.9</ele>
        <time>2016-05-22T17:50:12Z</time>
      </trkpt>
      <trkpt lat="45.31341" lon="5.89561">
        <ele>952.9</ele>
        <time>2016-05-22T17:50:13Z</time>
      </trkpt>
      <trkpt lat="45.3134" lon="5.89563">
        <ele>952.8</ele>
        <time>2016-05-22T17:50:14Z</time>
      </trkpt>
      <trkpt lat="45.31341" lon="5.89565">
        <ele>952.8</ele>
        <time>2016-05-22T17:50:15Z</time>
      </trkpt>
      <trkpt lat="45.31342" lon="5.89568">
        <ele>952.8</ele>
        <time>2016-05-22T17:50:16Z</time>
      </trkpt>
      <trkpt lat="45.31343" lon="5.89571">
        <ele>952.8</ele>
        <time>2016-05-22T17:50:17Z</time>
      </trkpt>
      <trkpt lat="45.31343" lon="5.89575">
        <ele>952.8</ele>
        <time>2016-05-22T17:50:18Z</time>
      </trkpt>
      <trkpt lat="45.31343" lon="5.8958">
        <ele>952.6</ele>
        <time>2016-05-22T17:50:19Z</time>
      </trkpt>
      <trkpt lat="45.31342" lon="5.89583">
        <ele>952.5</ele>
        <time>2016-05-22T17:50:20Z</time>
      </trkpt>
      <trkpt lat="45.3134" lon="5.89586">
        <ele>952.3</ele>
        <time>2016-05-22T17:50:21Z</time>
      </trkpt>
      <trkpt lat="45.31338" lon="5.89589">
        <ele>952.1</ele>
        <time>2016-05-22T17:50:22Z</time>
      </trkpt>
      <trkpt lat="45.31336" lon="5.89591">
        <ele>951.9</ele>
        <time>2016-05-22T17:50:23Z</time>
      </trkpt>
      <trkpt lat="45.31334" lon="5.89594">
        <ele>951.7</ele>
        <time>2016-05-22T17:50:24Z</time>
      </trkpt>
      <trkpt lat="45.31331" lon="5.89596">
        <ele>951.7</ele>
        <time>2016-05-22T17:50:25Z</time>
      </trkpt>
      <trkpt lat="45.31328" lon="5.89598">
        <ele>951.9</ele>
        <time>2016-05-22T17:50:26Z</time>
      </trkpt>
      <trkpt lat="45.31325" lon="5.896">
        <ele>952.1</ele>
        <time>2016-05-22T17:50:27Z</time>
      </trkpt>
      <trkpt lat="45.31322" lon="5.89602">
        <ele>952.3</ele>
        <time>2016-05-22T17:50:28Z</time>
      </trkpt>
      <trkpt lat="45.31319" lon="5.89603">
        <ele>952.5</ele>
        <time>2016-05-22T17:50:29Z</time>
      </trkpt>
      <trkpt lat="45.31316" lon="5.89605">
        <ele>952.7</ele>
        <time>2016-05-22T17:50:30Z</time>
      </trkpt>
      <trkpt lat="45.31313" lon="5.89607">
        <ele>952.9</ele>
        <time>2016-05-22T17:50:31Z</time>
      </trkpt>
      <trkpt lat="45.3131" lon="5.89609">
        <ele>953</ele>
        <time>2016-05-22T17:50:32Z</time>
      </trkpt>
      <trkpt lat="45.31308" lon="5.89611">
        <ele>953.2</ele>
        <time>2016-05-22T17:50:33Z</time>
      </trkpt>
      <trkpt lat="45.31306" lon="5.89613">
        <ele>953.3</ele>
        <time>2016-05-22T17:50:34Z</time>
      </trkpt>
      <trkpt lat="45.31303" lon="5.89615">
        <ele>953.4</ele>
        <time>2016-05-22T17:50:35Z</time>
      </trkpt>
      <trkpt lat="45.31301" lon="5.89617">
        <ele>953.5</ele>
        <time>2016-05-22T17:50:36Z</time>
      </trkpt>
      <trkpt lat="45.31299" lon="5.8962">
        <ele>953.6</ele>
        <time>2016-05-22T17:50:37Z</time>
      </trkpt>
      <trkpt lat="45.31297" lon="5.89622">
        <ele>953.7</ele>
        <time>2016-05-22T17:50:38Z</time>
      </trkpt>
      <trkpt lat="45.31295" lon="5.89624">
        <ele>953.8</ele>
        <time>2016-05-22T17:50:39Z</time>
      </trkpt>
      <trkpt lat="45.31293" lon="5.89625">
        <ele>953.9</ele>
        <time>2016-05-22T17:50:40Z</time>
      </trkpt>
      <trkpt lat="45.31291" lon="5.89628">
        <ele>953.9</ele>
        <time>2016-05-22T17:50:41Z</time>
      </trkpt>
      <trkpt lat="45.31289" lon="5.8963">
        <ele>954</ele>
        <time>2016-05-22T17:50:42Z</time>
      </trkpt>
      <trkpt lat="45.31287" lon="5.89633">
        <ele>954.1</ele>
        <time>2016-05-22T17:50:43Z</time>
      </trkpt>
      <trkpt lat="45.31285" lon="5.89634">
        <ele>954.2</ele>
        <time>2016-05-22T17:50:44Z</time>
      </trkpt>
      <trkpt lat="45.31283" lon="5.89636">
        <ele>954.4</ele>
        <time>2016-05-22T17:50:45Z</time>
      </trkpt>
      <trkpt lat="45.31281" lon="5.89637">
        <ele>954.5</ele>
        <time>2016-05-22T17:50:46Z</time>
      </trkpt>
      <trkpt lat="45.31279" lon="5.89639">
        <ele>954.6</ele>
        <time>2016-05-22T17:50:47Z</time>
      </trkpt>
      <trkpt lat="45.31277" lon="5.89641">
        <ele>954.7</ele>
        <time>2016-05-22T17:50:48Z</time>
      </trkpt>
      <trkpt lat="45.31274" lon="5.89643">
        <ele>954.8</ele>
        <time>2016-05-22T17:50:49Z</time>
      </trkpt>
      <trkpt lat="45.31272" lon="5.89645">
        <ele>954.9</ele>
        <time>2016-05-22T17:50:50Z</time>
      </trkpt>
      <trkpt lat="45.3127" lon="5.89647">
        <ele>955</ele>
        <time>2016-05-22T17:50:51Z</time>
      </trkpt>
      <trkpt lat="45.31268" lon="5.89649">
        <ele>955.2</ele>
        <time>2016-05-22T17:50:52Z</time>
      </trkpt>
      <trkpt lat="45.31265" lon="5.89651">
        <ele>955.3</ele>
        <time>2016-05-22T17:50:53Z</time>
      </trkpt>
      <trkpt lat="45.31262" lon="5.89652">
        <ele>955.6</ele>
        <time>2016-05-22T17:50:54Z</time>
      </trkpt>
      <trkpt lat="45.31259" lon="5.89652">
        <ele>955.8</ele>
        <time>2016-05-22T17:50:55Z</time>
      </trkpt>
      <trkpt lat="45.31256" lon="5.89653">
        <ele>956</ele>
        <time>2016-05-22T17:50:56Z</time>
      </trkpt>
      <trkpt lat="45.31254" lon="5.89655">
        <ele>956.1</ele>
        <time>2016-05-22T17:50:57Z</time>
      </trkpt>
      <trkpt lat="45.31252" lon="5.89657">
        <ele>956.2</ele>
        <time>2016-05-22T17:50:58Z</time>
      </trkpt>
      <trkpt lat="45.31249" lon="5.8966">
        <ele>956.3</ele>
        <time>2016-05-22T17:50:59Z</time>
      </trkpt>
      <trkpt lat="45.31247" lon="5.89662">
        <ele>956.4</ele>
        <time>2016-05-22T17:51:00Z</time>
      </trkpt>
      <trkpt lat="45.31245" lon="5.89664">
        <ele>956.4</ele>
        <time>2016-05-22T17:51:01Z</time>
      </trkpt>
      <trkpt lat="45.31242" lon="5.89665">
        <ele>956.5</ele>
        <time>2016-05-22T17:51:02Z</time>
      </trkpt>
      <trkpt lat="45.3124" lon="5.89667">
        <ele>956.6</ele>
        <time>2016-05-22T17:51:03Z</time>
      </trkpt>
      <trkpt lat="45.31237" lon="5.89668">
        <ele>956.7</ele>
        <time>2016-05-22T17:51:04Z</time>
      </trkpt>
      <trkpt lat="45.31235" lon="5.8967">
        <ele>956.9</ele>
        <time>2016-05-22T17:51:05Z</time>
      </trkpt>
      <trkpt lat="45.31233" lon="5.89671">
        <ele>957</ele>
        <time>2016-05-22T17:51:06Z</time>
      </trkpt>
      <trkpt lat="45.31231" lon="5.89672">
        <ele>957.1</ele>
        <time>2016-05-22T17:51:07Z</time>
      </trkpt>
      <trkpt lat="45.31228" lon="5.89674">
        <ele>957.2</ele>
        <time>2016-05-22T17:51:08Z</time>
      </trkpt>
      <trkpt lat="45.31226" lon="5.89675">
        <ele>957.4</ele>
        <time>2016-05-22T17:51:09Z</time>
      </trkpt>
      <trkpt lat="45.31223" lon="5.89676">
        <ele>957.5</ele>
        <time>2016-05-22T17:51:10Z</time>
      </trkpt>
      <trkpt lat="45.31221" lon="5.89677">
        <ele>957.6</ele>
        <time>2016-05-22T17:51:11Z</time>
      </trkpt>
      <trkpt lat="45.31218" lon="5.89679">
        <ele>957.8</ele>
        <time>2016-05-22T17:51:12Z</time>
      </trkpt>
      <trkpt lat="45.31215" lon="5.8968">
        <ele>957.9</ele>
        <time>2016-05-22T17:51:13Z</time>
      </trkpt>
      <trkpt lat="45.31212" lon="5.89681">
        <ele>958</ele>
        <time>2016-05-22T17:51:14Z</time>
      </trkpt>
      <trkpt lat="45.31209" lon="5.89683">
        <ele>958.2</ele>
        <time>2016-05-22T17:51:15Z</time>
      </trkpt>
      <trkpt lat="45.31207" lon="5.89684">
        <ele>958.3</ele>
        <time>2016-05-22T17:51:16Z</time>
      </trkpt>
      <trkpt lat="45.31204" lon="5.89685">
        <ele>958.4</ele>
        <time>2016-05-22T17:51:17Z</time>
      </trkpt>
      <trkpt lat="45.31202" lon="5.89686">
        <ele>958.5</ele>
        <time>2016-05-22T17:51:18Z</time>
      </trkpt>
      <trkpt lat="45.312" lon="5.89687">
        <ele>958.6</ele>
        <time>2016-05-22T17:51:19Z</time>
      </trkpt>
      <trkpt lat="45.31197" lon="5.89688">
        <ele>958.7</ele>
        <time>2016-05-22T17:51:20Z</time>
      </trkpt>
      <trkpt lat="45.31194" lon="5.8969">
        <ele>958.8</ele>
        <time>2016-05-22T17:51:21Z</time>
      </trkpt>
      <trkpt lat="45.31191" lon="5.89691">
        <ele>958.9</ele>
        <time>2016-05-22T17:51:22Z</time>
      </trkpt>
      <trkpt lat="45.31188" lon="5.89692">
        <ele>959.1</ele>
        <time>2016-05-22T17:51:23Z</time>
      </trkpt>
      <trkpt lat="45.31184" lon="5.89692">
        <ele>959.2</ele>
        <time>2016-05-22T17:51:24Z</time>
      </trkpt>
      <trkpt lat="45.3118" lon="5.89693">
        <ele>959.4</ele>
        <time>2016-05-22T17:51:25Z</time>
      </trkpt>
      <trkpt lat="45.31175" lon="5.89692">
        <ele>959.7</ele>
        <time>2016-05-22T17:51:26Z</time>
      </trkpt>
      <trkpt lat="45.31171" lon="5.8969">
        <ele>960</ele>
        <time>2016-05-22T17:51:27Z</time>
      </trkpt>
      <trkpt lat="45.31166" lon="5.89688">
        <ele>960.3</ele>
        <time>2016-05-22T17:51:28Z</time>
      </trkpt>
      <trkpt lat="45.31162" lon="5.89686">
        <ele>960.4</ele>
        <time>2016-05-22T17:51:29Z</time>
      </trkpt>
      <trkpt lat="45.31157" lon="5.89683">
        <ele>960.6</ele>
        <time>2016-05-22T17:51:30Z</time>
      </trkpt>
      <trkpt lat="45.31153" lon="5.89679">
        <ele>960.8</ele>
        <time>2016-05-22T17:51:31Z</time>
      </trkpt>
      <trkpt lat="45.31148" lon="5.89675">
        <ele>961</ele>
        <time>2016-05-22T17:51:32Z</time>
      </trkpt>
      <trkpt lat="45.31144" lon="5.8967">
        <ele>961.2</ele>
        <time>2016-05-22T17:51:33Z</time>
      </trkpt>
      <trkpt lat="45.31139" lon="5.89665">
        <ele>961.5</ele>
        <time>2016-05-22T17:51:34Z</time>
      </trkpt>
      <trkpt lat="45.31134" lon="5.8966">
        <ele>962</ele>
        <time>2016-05-22T17:51:35Z</time>
      </trkpt>
      <trkpt lat="45.3113" lon="5.89654">
        <ele>962.4</ele>
        <time>2016-05-22T17:51:36Z</time>
      </trkpt>
      <trkpt lat="45.31125" lon="5.89649">
        <ele>963</ele>
        <time>2016-05-22T17:51:37Z</time>
      </trkpt>
      <trkpt lat="45.31121" lon="5.89643">
        <ele>963.4</ele>
        <time>2016-05-22T17:51:38Z</time>
      </trkpt>
      <trkpt lat="45.31118" lon="5.89638">
        <ele>963.9</ele>
        <time>2016-05-22T17:51:39Z</time>
      </trkpt>
      <trkpt lat="45.31116" lon="5.89633">
        <ele>964.4</ele>
        <time>2016-05-22T17:51:40Z</time>
      </trkpt>
      <trkpt lat="45.31114" lon="5.89628">
        <ele>964.7</ele>
        <time>2016-05-22T17:51:41Z</time>
      </trkpt>
      <trkpt lat="45.31114" lon="5.89624">
        <ele>965.1</ele>
        <time>2016-05-22T17:51:42Z</time>
      </trkpt>
      <trkpt lat="45.31112" lon="5.89621">
        <ele>965.3</ele>
        <time>2016-05-22T17:51:43Z</time>
      </trkpt>
      <trkpt lat="45.31111" lon="5.89618">
        <ele>965.6</ele>
        <time>2016-05-22T17:51:44Z</time>
      </trkpt>
      <trkpt lat="45.3111" lon="5.89616">
        <ele>965.8</ele>
        <time>2016-05-22T17:51:45Z</time>
      </trkpt>
      <trkpt lat="45.31109" lon="5.89613">
        <ele>966</ele>
        <time>2016-05-22T17:51:46Z</time>
      </trkpt>
      <trkpt lat="45.31108" lon="5.89611">
        <ele>966.3</ele>
        <time>2016-05-22T17:51:47Z</time>
      </trkpt>
      <trkpt lat="45.31107" lon="5.89608">
        <ele>966.5</ele>
        <time>2016-05-22T17:51:48Z</time>
      </trkpt>
      <trkpt lat="45.31105" lon="5.89606">
        <ele>966.7</ele>
        <time>2016-05-22T17:51:49Z</time>
      </trkpt>
      <trkpt lat="45.31103" lon="5.89604">
        <ele>966.9</ele>
        <time>2016-05-22T17:51:50Z</time>
      </trkpt>
      <trkpt lat="45.31102" lon="5.89602">
        <ele>967.1</ele>
        <time>2016-05-22T17:51:51Z</time>
      </trkpt>
      <trkpt lat="45.311" lon="5.896">
        <ele>967.3</ele>
        <time>2016-05-22T17:51:52Z</time>
      </trkpt>
      <trkpt lat="45.31098" lon="5.89598">
        <ele>967.5</ele>
        <time>2016-05-22T17:51:53Z</time>
      </trkpt>
      <trkpt lat="45.31097" lon="5.89596">
        <ele>967.7</ele>
        <time>2016-05-22T17:51:54Z</time>
      </trkpt>
      <trkpt lat="45.31095" lon="5.89594">
        <ele>967.9</ele>
        <time>2016-05-22T17:51:55Z</time>
      </trkpt>
      <trkpt lat="45.31094" lon="5.89591">
        <ele>968.2</ele>
        <time>2016-05-22T17:51:56Z</time>
      </trkpt>
      <trkpt lat="45.31092" lon="5.89588">
        <ele>968.5</ele>
        <time>2016-05-22T17:51:57Z</time>
      </trkpt>
      <trkpt lat="45.31091" lon="5.89584">
        <ele>968.8</ele>
        <time>2016-05-22T17:51:58Z</time>
      </trkpt>
      <trkpt lat="45.3109" lon="5.89581">
        <ele>968.9</ele>
        <time>2016-05-22T17:51:59Z</time>
      </trkpt>
      <trkpt lat="45.31089" lon="5.89578">
        <ele>969</ele>
        <time>2016-05-22T17:52:00Z</time>
      </trkpt>
      <trkpt lat="45.31089" lon="5.89574">
        <ele>969</ele>
        <time>2016-05-22T17:52:01Z</time>
      </trkpt>
      <trkpt lat="45.31088" lon="5.89571">
        <ele>969.1</ele>
        <time>2016-05-22T17:52:02Z</time>
      </trkpt>
      <trkpt lat="45.31088" lon="5.89568">
        <ele>969.1</ele>
        <time>2016-05-22T17:52:03Z</time>
      </trkpt>
      <trkpt lat="45.31088" lon="5.89565">
        <ele>969.1</ele>
        <time>2016-05-22T17:52:04Z</time>
      </trkpt>
      <trkpt lat="45.31088" lon="5.89563">
        <ele>969.2</ele>
        <time>2016-05-22T17:52:05Z</time>
      </trkpt>
      <trkpt lat="45.31088" lon="5.8956">
        <ele>969.2</ele>
        <time>2016-05-22T17:52:06Z</time>
      </trkpt>
      <trkpt lat="45.31088" lon="5.89557">
        <ele>969.3</ele>
        <time>2016-05-22T17:52:07Z</time>
      </trkpt>
      <trkpt lat="45.31089" lon="5.89553">
        <ele>969.3</ele>
        <time>2016-05-22T17:52:08Z</time>
      </trkpt>
      <trkpt lat="45.31089" lon="5.8955">
        <ele>969.4</ele>
        <time>2016-05-22T17:52:09Z</time>
      </trkpt>
      <trkpt lat="45.31089" lon="5.89546">
        <ele>969.4</ele>
        <time>2016-05-22T17:52:10Z</time>
      </trkpt>
      <trkpt lat="45.3109" lon="5.89543">
        <ele>969.5</ele>
        <time>2016-05-22T17:52:11Z</time>
      </trkpt>
      <trkpt lat="45.3109" lon="5.89539">
        <ele>969.5</ele>
        <time>2016-05-22T17:52:12Z</time>
      </trkpt>
      <trkpt lat="45.3109" lon="5.89536">
        <ele>969.6</ele>
        <time>2016-05-22T17:52:13Z</time>
      </trkpt>
      <trkpt lat="45.3109" lon="5.89532">
        <ele>969.6</ele>
        <time>2016-05-22T17:52:14Z</time>
      </trkpt>
      <trkpt lat="45.31091" lon="5.89528">
        <ele>969.7</ele>
        <time>2016-05-22T17:52:15Z</time>
      </trkpt>
      <trkpt lat="45.31091" lon="5.89525">
        <ele>969.7</ele>
        <time>2016-05-22T17:52:16Z</time>
      </trkpt>
      <trkpt lat="45.31091" lon="5.89522">
        <ele>969.8</ele>
        <time>2016-05-22T17:52:17Z</time>
      </trkpt>
      <trkpt lat="45.31091" lon="5.89518">
        <ele>969.8</ele>
        <time>2016-05-22T17:52:18Z</time>
      </trkpt>
      <trkpt lat="45.31091" lon="5.89515">
        <ele>969.9</ele>
        <time>2016-05-22T17:52:19Z</time>
      </trkpt>
      <trkpt lat="45.31092" lon="5.89513">
        <ele>969.9</ele>
        <time>2016-05-22T17:52:20Z</time>
      </trkpt>
      <trkpt lat="45.31092" lon="5.89511">
        <ele>969.9</ele>
        <time>2016-05-22T17:52:21Z</time>
      </trkpt>
      <trkpt lat="45.31093" lon="5.89509">
        <ele>970</ele>
        <time>2016-05-22T17:52:22Z</time>
      </trkpt>
      <trkpt lat="45.31094" lon="5.89506">
        <ele>970</ele>
        <time>2016-05-22T17:52:23Z</time>
      </trkpt>
      <trkpt lat="45.31094" lon="5.89503">
        <ele>970.1</ele>
        <time>2016-05-22T17:52:24Z</time>
      </trkpt>
      <trkpt lat="45.31094" lon="5.895">
        <ele>970.1</ele>
        <time>2016-05-22T17:52:25Z</time>
      </trkpt>
      <trkpt lat="45.31095" lon="5.89497">
        <ele>970</ele>
        <time>2016-05-22T17:52:26Z</time>
      </trkpt>
      <trkpt lat="45.31095" lon="5.89493">
        <ele>969.9</ele>
        <time>2016-05-22T17:52:27Z</time>
      </trkpt>
      <trkpt lat="45.31094" lon="5.89489">
        <ele>969.7</ele>
        <time>2016-05-22T17:52:28Z</time>
      </trkpt>
      <trkpt lat="45.31094" lon="5.89486">
        <ele>969.6</ele>
        <time>2016-05-22T17:52:29Z</time>
      </trkpt>
      <trkpt lat="45.31094" lon="5.89483">
        <ele>969.5</ele>
        <time>2016-05-22T17:52:30Z</time>
      </trkpt>
      <trkpt lat="45.31094" lon="5.89479">
        <ele>969.3</ele>
        <time>2016-05-22T17:52:31Z</time>
      </trkpt>
      <trkpt lat="45.31094" lon="5.89476">
        <ele>969.2</ele>
        <time>2016-05-22T17:52:32Z</time>
      </trkpt>
      <trkpt lat="45.31094" lon="5.89474">
        <ele>969.1</ele>
        <time>2016-05-22T17:52:33Z</time>
      </trkpt>
      <trkpt lat="45.31095" lon="5.89471">
        <ele>969</ele>
        <time>2016-05-22T17:52:34Z</time>
      </trkpt>
      <trkpt lat="45.31095" lon="5.89469">
        <ele>969</ele>
        <time>2016-05-22T17:52:35Z</time>
      </trkpt>
      <trkpt lat="45.31096" lon="5.89467">
        <ele>968.9</ele>
        <time>2016-05-22T17:52:36Z</time>
      </trkpt>
      <trkpt lat="45.31096" lon="5.89464">
        <ele>968.8</ele>
        <time>2016-05-22T17:52:37Z</time>
      </trkpt>
      <trkpt lat="45.31095" lon="5.89462">
        <ele>968.7</ele>
        <time>2016-05-22T17:52:38Z</time>
      </trkpt>
      <trkpt lat="45.31095" lon="5.8946">
        <ele>968.6</ele>
        <time>2016-05-22T17:52:39Z</time>
      </trkpt>
      <trkpt lat="45.31095" lon="5.89458">
        <ele>968.5</ele>
        <time>2016-05-22T17:52:40Z</time>
      </trkpt>
      <trkpt lat="45.31094" lon="5.89456">
        <ele>968.4</ele>
        <time>2016-05-22T17:52:41Z</time>
      </trkpt>
      <trkpt lat="45.31094" lon="5.89454">
        <ele>968.4</ele>
        <time>2016-05-22T17:52:42Z</time>
      </trkpt>
      <trkpt lat="45.31094" lon="5.89451">
        <ele>968.3</ele>
        <time>2016-05-22T17:52:43Z</time>
      </trkpt>
      <trkpt lat="45.31094" lon="5.89449">
        <ele>968.2</ele>
        <time>2016-05-22T17:52:44Z</time>
      </trkpt>
      <trkpt lat="45.31094" lon="5.89447">
        <ele>968.1</ele>
        <time>2016-05-22T17:52:45Z</time>
      </trkpt>
      <trkpt lat="45.31094" lon="5.89446">
        <ele>968.1</ele>
        <time>2016-05-22T17:52:46Z</time>
      </trkpt>
      <trkpt lat="45.31095" lon="5.89446">
        <ele>968.1</ele>
        <time>2016-05-22T17:52:47Z</time>
      </trkpt>
      <trkpt lat="45.31094" lon="5.89446">
        <ele>968.1</ele>
        <time>2016-05-22T17:52:48Z</time>
      </trkpt>
      <trkpt lat="45.31095" lon="5.89446">
        <ele>968.1</ele>
        <time>2016-05-22T17:52:49Z</time>
      </trkpt>
      <trkpt lat="45.31094" lon="5.89446">
        <ele>968.1</ele>
        <time>2016-05-22T17:52:50Z</time>
      </trkpt>
      <trkpt lat="45.31094" lon="5.89445">
        <ele>968.1</ele>
        <time>2016-05-22T17:52:51Z</time>
      </trkpt>
      <trkpt lat="45.31094" lon="5.89445">
        <ele>968</ele>
        <time>2016-05-22T17:52:52Z</time>
      </trkpt>
      <trkpt lat="45.31094" lon="5.89443">
        <ele>968</ele>
        <time>2016-05-22T17:52:53Z</time>
      </trkpt>
      <trkpt lat="45.31093" lon="5.8944">
        <ele>967.9</ele>
        <time>2016-05-22T17:52:54Z</time>
      </trkpt>
      <trkpt lat="45.31093" lon="5.89437">
        <ele>967.7</ele>
        <time>2016-05-22T17:52:55Z</time>
      </trkpt>
      <trkpt lat="45.31093" lon="5.89432">
        <ele>967.6</ele>
        <time>2016-05-22T17:52:56Z</time>
      </trkpt>
      <trkpt lat="45.31093" lon="5.89427">
        <ele>967.4</ele>
        <time>2016-05-22T17:52:57Z</time>
      </trkpt>
      <trkpt lat="45.31093" lon="5.89422">
        <ele>967.2</ele>
        <time>2016-05-22T17:52:58Z</time>
      </trkpt>
      <trkpt lat="45.31094" lon="5.89417">
        <ele>967</ele>
        <time>2016-05-22T17:52:59Z</time>
      </trkpt>
      <trkpt lat="45.31095" lon="5.89413">
        <ele>966.8</ele>
        <time>2016-05-22T17:53:00Z</time>
      </trkpt>
      <trkpt lat="45.31096" lon="5.89408">
        <ele>966.5</ele>
        <time>2016-05-22T17:53:01Z</time>
      </trkpt>
      <trkpt lat="45.31097" lon="5.89402">
        <ele>966.3</ele>
        <time>2016-05-22T17:53:02Z</time>
      </trkpt>
      <trkpt lat="45.31098" lon="5.89396">
        <ele>966</ele>
        <time>2016-05-22T17:53:03Z</time>
      </trkpt>
      <trkpt lat="45.31098" lon="5.89389">
        <ele>965.7</ele>
        <time>2016-05-22T17:53:04Z</time>
      </trkpt>
      <trkpt lat="45.31098" lon="5.89382">
        <ele>965.3</ele>
        <time>2016-05-22T17:53:05Z</time>
      </trkpt>
      <trkpt lat="45.31097" lon="5.89374">
        <ele>964.9</ele>
        <time>2016-05-22T17:53:06Z</time>
      </trkpt>
      <trkpt lat="45.31098" lon="5.89367">
        <ele>964.6</ele>
        <time>2016-05-22T17:53:07Z</time>
      </trkpt>
      <trkpt lat="45.31098" lon="5.89361">
        <ele>964.3</ele>
        <time>2016-05-22T17:53:08Z</time>
      </trkpt>
      <trkpt lat="45.31098" lon="5.89353">
        <ele>963.9</ele>
        <time>2016-05-22T17:53:09Z</time>
      </trkpt>
      <trkpt lat="45.31097" lon="5.89346">
        <ele>963.6</ele>
        <time>2016-05-22T17:53:10Z</time>
      </trkpt>
      <trkpt lat="45.31097" lon="5.89337">
        <ele>963.1</ele>
        <time>2016-05-22T17:53:11Z</time>
      </trkpt>
      <trkpt lat="45.31096" lon="5.89329">
        <ele>963</ele>
        <time>2016-05-22T17:53:12Z</time>
      </trkpt>
      <trkpt lat="45.31095" lon="5.8932">
        <ele>963.1</ele>
        <time>2016-05-22T17:53:13Z</time>
      </trkpt>
      <trkpt lat="45.31094" lon="5.8931">
        <ele>963.2</ele>
        <time>2016-05-22T17:53:14Z</time>
      </trkpt>
      <trkpt lat="45.31093" lon="5.89299">
        <ele>963.3</ele>
        <time>2016-05-22T17:53:15Z</time>
      </trkpt>
      <trkpt lat="45.31093" lon="5.89288">
        <ele>963.4</ele>
        <time>2016-05-22T17:53:16Z</time>
      </trkpt>
      <trkpt lat="45.31092" lon="5.89277">
        <ele>963.5</ele>
        <time>2016-05-22T17:53:17Z</time>
      </trkpt>
      <trkpt lat="45.31093" lon="5.89265">
        <ele>963.6</ele>
        <time>2016-05-22T17:53:18Z</time>
      </trkpt>
      <trkpt lat="45.31095" lon="5.89255">
        <ele>963.7</ele>
        <time>2016-05-22T17:53:19Z</time>
      </trkpt>
      <trkpt lat="45.31098" lon="5.89244">
        <ele>963.5</ele>
        <time>2016-05-22T17:53:20Z</time>
      </trkpt>
      <trkpt lat="45.31103" lon="5.89235">
        <ele>963.1</ele>
        <time>2016-05-22T17:53:21Z</time>
      </trkpt>
      <trkpt lat="45.31108" lon="5.89227">
        <ele>962.7</ele>
        <time>2016-05-22T17:53:22Z</time>
      </trkpt>
      <trkpt lat="45.31111" lon="5.89221">
        <ele>962.3</ele>
        <time>2016-05-22T17:53:23Z</time>
      </trkpt>
      <trkpt lat="45.31114" lon="5.89216">
        <ele>961.9</ele>
        <time>2016-05-22T17:53:24Z</time>
      </trkpt>
      <trkpt lat="45.31116" lon="5.89212">
        <ele>961.6</ele>
        <time>2016-05-22T17:53:25Z</time>
      </trkpt>
      <trkpt lat="45.31118" lon="5.89208">
        <ele>961.3</ele>
        <time>2016-05-22T17:53:26Z</time>
      </trkpt>
      <trkpt lat="45.31119" lon="5.89205">
        <ele>961</ele>
        <time>2016-05-22T17:53:27Z</time>
      </trkpt>
      <trkpt lat="45.31119" lon="5.89202">
        <ele>960.9</ele>
        <time>2016-05-22T17:53:28Z</time>
      </trkpt>
      <trkpt lat="45.31118" lon="5.89196">
        <ele>960.7</ele>
        <time>2016-05-22T17:53:29Z</time>
      </trkpt>
      <trkpt lat="45.31117" lon="5.8919">
        <ele>960.5</ele>
        <time>2016-05-22T17:53:30Z</time>
      </trkpt>
      <trkpt lat="45.31116" lon="5.89185">
        <ele>960.5</ele>
        <time>2016-05-22T17:53:31Z</time>
      </trkpt>
      <trkpt lat="45.31115" lon="5.8918">
        <ele>960.4</ele>
        <time>2016-05-22T17:53:32Z</time>
      </trkpt>
      <trkpt lat="45.31113" lon="5.89176">
        <ele>960.4</ele>
        <time>2016-05-22T17:53:33Z</time>
      </trkpt>
      <trkpt lat="45.31112" lon="5.89172">
        <ele>960.4</ele>
        <time>2016-05-22T17:53:34Z</time>
      </trkpt>
      <trkpt lat="45.31111" lon="5.89166">
        <ele>960.3</ele>
        <time>2016-05-22T17:53:35Z</time>
      </trkpt>
      <trkpt lat="45.31111" lon="5.89161">
        <ele>960.1</ele>
        <time>2016-05-22T17:53:36Z</time>
      </trkpt>
      <trkpt lat="45.31111" lon="5.89156">
        <ele>959.9</ele>
        <time>2016-05-22T17:53:37Z</time>
      </trkpt>
      <trkpt lat="45.31111" lon="5.8915">
        <ele>959.7</ele>
        <time>2016-05-22T17:53:38Z</time>
      </trkpt>
      <trkpt lat="45.31112" lon="5.89146">
        <ele>959.4</ele>
        <time>2016-05-22T17:53:39Z</time>
      </trkpt>
      <trkpt lat="45.31112" lon="5.89141">
        <ele>959.2</ele>
        <time>2016-05-22T17:53:40Z</time>
      </trkpt>
      <trkpt lat="45.31113" lon="5.89137">
        <ele>959</ele>
        <time>2016-05-22T17:53:41Z</time>
      </trkpt>
      <trkpt lat="45.31114" lon="5.89133">
        <ele>958.7</ele>
        <time>2016-05-22T17:53:42Z</time>
      </trkpt>
      <trkpt lat="45.31114" lon="5.8913">
        <ele>958.5</ele>
        <time>2016-05-22T17:53:43Z</time>
      </trkpt>
      <trkpt lat="45.31115" lon="5.89126">
        <ele>958.2</ele>
        <time>2016-05-22T17:53:44Z</time>
      </trkpt>
      <trkpt lat="45.31117" lon="5.89123">
        <ele>957.9</ele>
        <time>2016-05-22T17:53:45Z</time>
      </trkpt>
      <trkpt lat="45.31118" lon="5.89119">
        <ele>957.6</ele>
        <time>2016-05-22T17:53:46Z</time>
      </trkpt>
      <trkpt lat="45.3112" lon="5.89115">
        <ele>957.2</ele>
        <time>2016-05-22T17:53:47Z</time>
      </trkpt>
      <trkpt lat="45.3112" lon="5.89112">
        <ele>956.9</ele>
        <time>2016-05-22T17:53:48Z</time>
      </trkpt>
      <trkpt lat="45.31121" lon="5.89108">
        <ele>956.7</ele>
        <time>2016-05-22T17:53:49Z</time>
      </trkpt>
      <trkpt lat="45.3112" lon="5.89104">
        <ele>956.7</ele>
        <time>2016-05-22T17:53:50Z</time>
      </trkpt>
      <trkpt lat="45.31118" lon="5.89101">
        <ele>956.8</ele>
        <time>2016-05-22T17:53:51Z</time>
      </trkpt>
      <trkpt lat="45.31117" lon="5.89098">
        <ele>957</ele>
        <time>2016-05-22T17:53:52Z</time>
      </trkpt>
      <trkpt lat="45.31115" lon="5.89095">
        <ele>957.1</ele>
        <time>2016-05-22T17:53:53Z</time>
      </trkpt>
      <trkpt lat="45.31114" lon="5.89091">
        <ele>957.1</ele>
        <time>2016-05-22T17:53:54Z</time>
      </trkpt>
      <trkpt lat="45.31113" lon="5.89085">
        <ele>957.1</ele>
        <time>2016-05-22T17:53:55Z</time>
      </trkpt>
      <trkpt lat="45.31112" lon="5.8908">
        <ele>956.9</ele>
        <time>2016-05-22T17:53:56Z</time>
      </trkpt>
      <trkpt lat="45.31111" lon="5.89074">
        <ele>956.8</ele>
        <time>2016-05-22T17:53:57Z</time>
      </trkpt>
      <trkpt lat="45.31109" lon="5.89069">
        <ele>956.7</ele>
        <time>2016-05-22T17:53:58Z</time>
      </trkpt>
      <trkpt lat="45.31108" lon="5.89064">
        <ele>956.5</ele>
        <time>2016-05-22T17:53:59Z</time>
      </trkpt>
      <trkpt lat="45.31107" lon="5.89059">
        <ele>956.4</ele>
        <time>2016-05-22T17:54:00Z</time>
      </trkpt>
      <trkpt lat="45.31106" lon="5.89055">
        <ele>956.2</ele>
        <time>2016-05-22T17:54:01Z</time>
      </trkpt>
      <trkpt lat="45.31105" lon="5.89051">
        <ele>956.1</ele>
        <time>2016-05-22T17:54:02Z</time>
      </trkpt>
      <trkpt lat="45.31103" lon="5.89047">
        <ele>956.1</ele>
        <time>2016-05-22T17:54:03Z</time>
      </trkpt>
      <trkpt lat="45.31103" lon="5.89044">
        <ele>955.9</ele>
        <time>2016-05-22T17:54:04Z</time>
      </trkpt>
      <trkpt lat="45.31102" lon="5.8904">
        <ele>955.7</ele>
        <time>2016-05-22T17:54:05Z</time>
      </trkpt>
      <trkpt lat="45.31101" lon="5.89036">
        <ele>955.6</ele>
        <time>2016-05-22T17:54:06Z</time>
      </trkpt>
      <trkpt lat="45.311" lon="5.89031">
        <ele>955.4</ele>
        <time>2016-05-22T17:54:07Z</time>
      </trkpt>
      <trkpt lat="45.31098" lon="5.89028">
        <ele>955.3</ele>
        <time>2016-05-22T17:54:08Z</time>
      </trkpt>
      <trkpt lat="45.31097" lon="5.89024">
        <ele>955.2</ele>
        <time>2016-05-22T17:54:09Z</time>
      </trkpt>
      <trkpt lat="45.31095" lon="5.89019">
        <ele>955.1</ele>
        <time>2016-05-22T17:54:10Z</time>
      </trkpt>
      <trkpt lat="45.31093" lon="5.89014">
        <ele>955</ele>
        <time>2016-05-22T17:54:11Z</time>
      </trkpt>
      <trkpt lat="45.31092" lon="5.8901">
        <ele>954.9</ele>
        <time>2016-05-22T17:54:12Z</time>
      </trkpt>
      <trkpt lat="45.3109" lon="5.89007">
        <ele>954.8</ele>
        <time>2016-05-22T17:54:13Z</time>
      </trkpt>
      <trkpt lat="45.31088" lon="5.89003">
        <ele>954.7</ele>
        <time>2016-05-22T17:54:14Z</time>
      </trkpt>
      <trkpt lat="45.31086" lon="5.88999">
        <ele>954.7</ele>
        <time>2016-05-22T17:54:15Z</time>
      </trkpt>
      <trkpt lat="45.31087" lon="5.88997">
        <ele>954.6</ele>
        <time>2016-05-22T17:54:16Z</time>
      </trkpt>
      <trkpt lat="45.31085" lon="5.88994">
        <ele>954.7</ele>
        <time>2016-05-22T17:54:17Z</time>
      </trkpt>
      <trkpt lat="45.31084" lon="5.88991">
        <ele>954.8</ele>
        <time>2016-05-22T17:54:18Z</time>
      </trkpt>
      <trkpt lat="45.31083" lon="5.88988">
        <ele>955</ele>
        <time>2016-05-22T17:54:19Z</time>
      </trkpt>
      <trkpt lat="45.31081" lon="5.88986">
        <ele>955.2</ele>
        <time>2016-05-22T17:54:20Z</time>
      </trkpt>
      <trkpt lat="45.31079" lon="5.88983">
        <ele>955.4</ele>
        <time>2016-05-22T17:54:21Z</time>
      </trkpt>
      <trkpt lat="45.31077" lon="5.88981">
        <ele>955.7</ele>
        <time>2016-05-22T17:54:22Z</time>
      </trkpt>
      <trkpt lat="45.31075" lon="5.88978">
        <ele>956</ele>
        <time>2016-05-22T17:54:23Z</time>
      </trkpt>
      <trkpt lat="45.31073" lon="5.88976">
        <ele>956.2</ele>
        <time>2016-05-22T17:54:24Z</time>
      </trkpt>
      <trkpt lat="45.31071" lon="5.88973">
        <ele>956.4</ele>
        <time>2016-05-22T17:54:25Z</time>
      </trkpt>
      <trkpt lat="45.3107" lon="5.88971">
        <ele>956.7</ele>
        <time>2016-05-22T17:54:26Z</time>
      </trkpt>
      <trkpt lat="45.31068" lon="5.88969">
        <ele>956.9</ele>
        <time>2016-05-22T17:54:27Z</time>
      </trkpt>
      <trkpt lat="45.31067" lon="5.88967">
        <ele>957</ele>
        <time>2016-05-22T17:54:28Z</time>
      </trkpt>
      <trkpt lat="45.31066" lon="5.88965">
        <ele>957.2</ele>
        <time>2016-05-22T17:54:29Z</time>
      </trkpt>
      <trkpt lat="45.31065" lon="5.88963">
        <ele>957.3</ele>
        <time>2016-05-22T17:54:30Z</time>
      </trkpt>
      <trkpt lat="45.31063" lon="5.88961">
        <ele>957.5</ele>
        <time>2016-05-22T17:54:31Z</time>
      </trkpt>
      <trkpt lat="45.31062" lon="5.88958">
        <ele>957.7</ele>
        <time>2016-05-22T17:54:32Z</time>
      </trkpt>
      <trkpt lat="45.31061" lon="5.88955">
        <ele>957.9</ele>
        <time>2016-05-22T17:54:33Z</time>
      </trkpt>
      <trkpt lat="45.31059" lon="5.88952">
        <ele>958.1</ele>
        <time>2016-05-22T17:54:34Z</time>
      </trkpt>
      <trkpt lat="45.31057" lon="5.88948">
        <ele>958.3</ele>
        <time>2016-05-22T17:54:35Z</time>
      </trkpt>
      <trkpt lat="45.31056" lon="5.88943">
        <ele>958.5</ele>
        <time>2016-05-22T17:54:36Z</time>
      </trkpt>
      <trkpt lat="45.31054" lon="5.88939">
        <ele>958.8</ele>
        <time>2016-05-22T17:54:37Z</time>
      </trkpt>
      <trkpt lat="45.31052" lon="5.88934">
        <ele>959</ele>
        <time>2016-05-22T17:54:38Z</time>
      </trkpt>
      <trkpt lat="45.31051" lon="5.88929">
        <ele>959.1</ele>
        <time>2016-05-22T17:54:39Z</time>
      </trkpt>
      <trkpt lat="45.3105" lon="5.88925">
        <ele>959.2</ele>
        <time>2016-05-22T17:54:40Z</time>
      </trkpt>
      <trkpt lat="45.3105" lon="5.88921">
        <ele>959.3</ele>
        <time>2016-05-22T17:54:41Z</time>
      </trkpt>
      <trkpt lat="45.31049" lon="5.88918">
        <ele>959.3</ele>
        <time>2016-05-22T17:54:42Z</time>
      </trkpt>
      <trkpt lat="45.3105" lon="5.88917">
        <ele>959.2</ele>
        <time>2016-05-22T17:54:43Z</time>
      </trkpt>
      <trkpt lat="45.3105" lon="5.88916">
        <ele>959.2</ele>
        <time>2016-05-22T17:54:44Z</time>
      </trkpt>
      <trkpt lat="45.3105" lon="5.88915">
        <ele>959.2</ele>
        <time>2016-05-22T17:54:45Z</time>
      </trkpt>
      <trkpt lat="45.3105" lon="5.88916">
        <ele>959.1</ele>
        <time>2016-05-22T17:54:46Z</time>
      </trkpt>
      <trkpt lat="45.31045" lon="5.88891">
        <ele>959.1</ele>
        <time>2016-05-22T17:55:57Z</time>
      </trkpt>
      <trkpt lat="45.31044" lon="5.88888">
        <ele>959</ele>
        <time>2016-05-22T17:55:58Z</time>
      </trkpt>
      <trkpt lat="45.31044" lon="5.88884">
        <ele>959</ele>
        <time>2016-05-22T17:55:59Z</time>
      </trkpt>
      <trkpt lat="45.31044" lon="5.88881">
        <ele>958.9</ele>
        <time>2016-05-22T17:56:00Z</time>
      </trkpt>
      <trkpt lat="45.31043" lon="5.88878">
        <ele>958.9</ele>
        <time>2016-05-22T17:56:01Z</time>
      </trkpt>
      <trkpt lat="45.31042" lon="5.88875">
        <ele>958.9</ele>
        <time>2016-05-22T17:56:02Z</time>
      </trkpt>
      <trkpt lat="45.31041" lon="5.88872">
        <ele>958.9</ele>
        <time>2016-05-22T17:56:03Z</time>
      </trkpt>
      <trkpt lat="45.31041" lon="5.88868">
        <ele>958.9</ele>
        <time>2016-05-22T17:56:04Z</time>
      </trkpt>
      <trkpt lat="45.3104" lon="5.88865">
        <ele>958.9</ele>
        <time>2016-05-22T17:56:05Z</time>
      </trkpt>
      <trkpt lat="45.31039" lon="5.88861">
        <ele>958.9</ele>
        <time>2016-05-22T17:56:06Z</time>
      </trkpt>
      <trkpt lat="45.31037" lon="5.88858">
        <ele>959</ele>
        <time>2016-05-22T17:56:07Z</time>
      </trkpt>
      <trkpt lat="45.31035" lon="5.88856">
        <ele>959.1</ele>
        <time>2016-05-22T17:56:08Z</time>
      </trkpt>
      <trkpt lat="45.31035" lon="5.88852">
        <ele>959.1</ele>
        <time>2016-05-22T17:56:09Z</time>
      </trkpt>
      <trkpt lat="45.31035" lon="5.88849">
        <ele>959</ele>
        <time>2016-05-22T17:56:10Z</time>
      </trkpt>
      <trkpt lat="45.31033" lon="5.88845">
        <ele>959.1</ele>
        <time>2016-05-22T17:56:11Z</time>
      </trkpt>
      <trkpt lat="45.31031" lon="5.88841">
        <ele>959.2</ele>
        <time>2016-05-22T17:56:12Z</time>
      </trkpt>
      <trkpt lat="45.3103" lon="5.88837">
        <ele>959.2</ele>
        <time>2016-05-22T17:56:13Z</time>
      </trkpt>
      <trkpt lat="45.31028" lon="5.88833">
        <ele>959.3</ele>
        <time>2016-05-22T17:56:14Z</time>
      </trkpt>
      <trkpt lat="45.31027" lon="5.8883">
        <ele>959.6</ele>
        <time>2016-05-22T17:56:15Z</time>
      </trkpt>
      <trkpt lat="45.31025" lon="5.88826">
        <ele>959.9</ele>
        <time>2016-05-22T17:56:16Z</time>
      </trkpt>
      <trkpt lat="45.31024" lon="5.88822">
        <ele>960.1</ele>
        <time>2016-05-22T17:56:17Z</time>
      </trkpt>
      <trkpt lat="45.31022" lon="5.88819">
        <ele>960.4</ele>
        <time>2016-05-22T17:56:18Z</time>
      </trkpt>
      <trkpt lat="45.31021" lon="5.88816">
        <ele>960.6</ele>
        <time>2016-05-22T17:56:19Z</time>
      </trkpt>
      <trkpt lat="45.31019" lon="5.88813">
        <ele>960.9</ele>
        <time>2016-05-22T17:56:20Z</time>
      </trkpt>
      <trkpt lat="45.31018" lon="5.88812">
        <ele>961</ele>
        <time>2016-05-22T17:56:21Z</time>
      </trkpt>
      <trkpt lat="45.31018" lon="5.88811">
        <ele>961.1</ele>
        <time>2016-05-22T17:56:22Z</time>
      </trkpt>
      <trkpt lat="45.31017" lon="5.8881">
        <ele>961.1</ele>
        <time>2016-05-22T17:56:23Z</time>
      </trkpt>
      <trkpt lat="45.31017" lon="5.88809">
        <ele>961.2</ele>
        <time>2016-05-22T17:56:24Z</time>
      </trkpt>
      <trkpt lat="45.31017" lon="5.88808">
        <ele>961.2</ele>
        <time>2016-05-22T17:56:25Z</time>
      </trkpt>
      <trkpt lat="45.31017" lon="5.88808">
        <ele>961.2</ele>
        <time>2016-05-22T17:56:26Z</time>
      </trkpt>
      <trkpt lat="45.31016" lon="5.88808">
        <ele>961.3</ele>
        <time>2016-05-22T17:56:27Z</time>
      </trkpt>
      <trkpt lat="45.31015" lon="5.88807">
        <ele>961.4</ele>
        <time>2016-05-22T17:56:28Z</time>
      </trkpt>
      <trkpt lat="45.31014" lon="5.88806">
        <ele>961.5</ele>
        <time>2016-05-22T17:56:29Z</time>
      </trkpt>
      <trkpt lat="45.31013" lon="5.88804">
        <ele>961.7</ele>
        <time>2016-05-22T17:56:30Z</time>
      </trkpt>
      <trkpt lat="45.31011" lon="5.88802">
        <ele>961.9</ele>
        <time>2016-05-22T17:56:31Z</time>
      </trkpt>
      <trkpt lat="45.31009" lon="5.88799">
        <ele>962.1</ele>
        <time>2016-05-22T17:56:32Z</time>
      </trkpt>
      <trkpt lat="45.31007" lon="5.88797">
        <ele>962.3</ele>
        <time>2016-05-22T17:56:33Z</time>
      </trkpt>
      <trkpt lat="45.31005" lon="5.88796">
        <ele>962.5</ele>
        <time>2016-05-22T17:56:34Z</time>
      </trkpt>
      <trkpt lat="45.31002" lon="5.88794">
        <ele>962.8</ele>
        <time>2016-05-22T17:56:35Z</time>
      </trkpt>
      <trkpt lat="45.31" lon="5.88792">
        <ele>963</ele>
        <time>2016-05-22T17:56:36Z</time>
      </trkpt>
      <trkpt lat="45.30997" lon="5.8879">
        <ele>963.2</ele>
        <time>2016-05-22T17:56:37Z</time>
      </trkpt>
      <trkpt lat="45.30994" lon="5.88787">
        <ele>963.4</ele>
        <time>2016-05-22T17:56:38Z</time>
      </trkpt>
      <trkpt lat="45.30992" lon="5.88783">
        <ele>963.5</ele>
        <time>2016-05-22T17:56:39Z</time>
      </trkpt>
      <trkpt lat="45.3099" lon="5.88779">
        <ele>963.7</ele>
        <time>2016-05-22T17:56:40Z</time>
      </trkpt>
      <trkpt lat="45.30988" lon="5.88776">
        <ele>963.8</ele>
        <time>2016-05-22T17:56:41Z</time>
      </trkpt>
      <trkpt lat="45.30986" lon="5.88772">
        <ele>963.9</ele>
        <time>2016-05-22T17:56:42Z</time>
      </trkpt>
      <trkpt lat="45.30984" lon="5.88767">
        <ele>964</ele>
        <time>2016-05-22T17:56:43Z</time>
      </trkpt>
      <trkpt lat="45.30983" lon="5.88762">
        <ele>964</ele>
        <time>2016-05-22T17:56:44Z</time>
      </trkpt>
      <trkpt lat="45.30982" lon="5.88758">
        <ele>964.1</ele>
        <time>2016-05-22T17:56:45Z</time>
      </trkpt>
      <trkpt lat="45.30981" lon="5.88755">
        <ele>964.1</ele>
        <time>2016-05-22T17:56:46Z</time>
      </trkpt>
      <trkpt lat="45.30981" lon="5.88753">
        <ele>964.1</ele>
        <time>2016-05-22T17:56:47Z</time>
      </trkpt>
      <trkpt lat="45.3098" lon="5.88748">
        <ele>964.4</ele>
        <time>2016-05-22T17:56:48Z</time>
      </trkpt>
      <trkpt lat="45.30978" lon="5.88744">
        <ele>964.9</ele>
        <time>2016-05-22T17:56:49Z</time>
      </trkpt>
      <trkpt lat="45.30977" lon="5.88741">
        <ele>965.3</ele>
        <time>2016-05-22T17:56:50Z</time>
      </trkpt>
      <trkpt lat="45.30972" lon="5.88722">
        <ele>967.4</ele>
        <time>2016-05-22T17:56:51Z</time>
      </trkpt>
      <trkpt lat="45.30967" lon="5.88705">
        <ele>969.1</ele>
        <time>2016-05-22T17:56:52Z</time>
      </trkpt>
      <trkpt lat="45.30962" lon="5.88688">
        <ele>970.7</ele>
        <time>2016-05-22T17:57:47Z</time>
      </trkpt>
      <trkpt lat="45.30967" lon="5.88675">
        <ele>971.9</ele>
        <time>2016-01-17T17:49:32Z</time>
      </trkpt>
      <trkpt lat="45.30958" lon="5.88666">
        <ele>972.6</ele>
        <time>2016-01-17T17:49:35Z</time>
      </trkpt>
      <trkpt lat="45.30951" lon="5.88655">
        <ele>973.8</ele>
        <time>2016-01-17T17:49:38Z</time>
      </trkpt>
      <trkpt lat="45.30944" lon="5.88644">
        <ele>975</ele>
        <time>2016-01-17T17:49:41Z</time>
      </trkpt>
      <trkpt lat="45.30939" lon="5.88631">
        <ele>976.1</ele>
        <time>2016-01-17T17:49:44Z</time>
      </trkpt>
      <trkpt lat="45.30932" lon="5.88617">
        <ele>977.5</ele>
        <time>2016-01-17T17:49:48Z</time>
      </trkpt>
      <trkpt lat="45.30927" lon="5.88605">
        <ele>978.4</ele>
        <time>2016-01-17T17:49:51Z</time>
      </trkpt>
      <trkpt lat="45.30922" lon="5.8859">
        <ele>979.6</ele>
        <time>2016-01-17T17:49:55Z</time>
      </trkpt>
      <trkpt lat="45.30917" lon="5.88576">
        <ele>981.5</ele>
        <time>2016-01-17T17:49:59Z</time>
      </trkpt>
      <trkpt lat="45.30913" lon="5.88561">
        <ele>983.9</ele>
        <time>2016-01-17T17:50:03Z</time>
      </trkpt>
      <trkpt lat="45.30907" lon="5.8855">
        <ele>985.2</ele>
        <time>2016-01-17T17:50:06Z</time>
      </trkpt>
      <trkpt lat="45.30901" lon="5.8854">
        <ele>986.4</ele>
        <time>2016-01-17T17:50:09Z</time>
      </trkpt>
      <trkpt lat="45.30897" lon="5.88526">
        <ele>988</ele>
        <time>2016-01-17T17:50:13Z</time>
      </trkpt>
      <trkpt lat="45.3089" lon="5.88512">
        <ele>989.4</ele>
        <time>2016-01-17T17:50:17Z</time>
      </trkpt>
      <trkpt lat="45.30885" lon="5.88499">
        <ele>990.4</ele>
        <time>2016-01-17T17:50:21Z</time>
      </trkpt>
      <trkpt lat="45.30878" lon="5.88485">
        <ele>991</ele>
        <time>2016-01-17T17:50:25Z</time>
      </trkpt>
      <trkpt lat="45.30872" lon="5.88471">
        <ele>991.7</ele>
        <time>2016-01-17T17:50:29Z</time>
      </trkpt>
      <trkpt lat="45.30866" lon="5.88458">
        <ele>992</ele>
        <time>2016-01-17T17:50:33Z</time>
      </trkpt>
      <trkpt lat="45.30862" lon="5.88443">
        <ele>993.1</ele>
        <time>2016-01-17T17:50:37Z</time>
      </trkpt>
      <trkpt lat="45.30858" lon="5.8843">
        <ele>993.8</ele>
        <time>2016-01-17T17:50:40Z</time>
      </trkpt>
      <trkpt lat="45.3085" lon="5.88418">
        <ele>993.5</ele>
        <time>2016-01-17T17:50:43Z</time>
      </trkpt>
      <trkpt lat="45.30844" lon="5.88404">
        <ele>994.1</ele>
        <time>2016-01-17T17:50:47Z</time>
      </trkpt>
      <trkpt lat="45.30837" lon="5.8839">
        <ele>994.4</ele>
        <time>2016-01-17T17:50:51Z</time>
      </trkpt>
      <trkpt lat="45.30832" lon="5.88375">
        <ele>995.2</ele>
        <time>2016-01-17T17:50:55Z</time>
      </trkpt>
      <trkpt lat="45.30829" lon="5.88359">
        <ele>996.8</ele>
        <time>2016-01-17T17:50:59Z</time>
      </trkpt>
      <trkpt lat="45.30828" lon="5.88343">
        <ele>998.7</ele>
        <time>2016-01-17T17:51:03Z</time>
      </trkpt>
      <trkpt lat="45.30824" lon="5.88331">
        <ele>999.6</ele>
        <time>2016-01-17T17:51:06Z</time>
      </trkpt>
      <trkpt lat="45.30817" lon="5.88318">
        <ele>1000</ele>
        <time>2016-01-17T17:51:10Z</time>
      </trkpt>
      <trkpt lat="45.30809" lon="5.88308">
        <ele>999.6</ele>
        <time>2016-01-17T17:51:14Z</time>
      </trkpt>
      <trkpt lat="45.30803" lon="5.88297">
        <ele>999.7</ele>
        <time>2016-01-17T17:51:17Z</time>
      </trkpt>
      <trkpt lat="45.30799" lon="5.88286">
        <ele>1000.1</ele>
        <time>2016-01-17T17:51:20Z</time>
      </trkpt>
      <trkpt lat="45.30795" lon="5.88274">
        <ele>1000.5</ele>
        <time>2016-01-17T17:51:23Z</time>
      </trkpt>
      <trkpt lat="45.30791" lon="5.88257">
        <ele>1001.6</ele>
        <time>2016-01-17T17:51:27Z</time>
      </trkpt>
      <trkpt lat="45.3079" lon="5.88243">
        <ele>1002.9</ele>
        <time>2016-01-17T17:51:30Z</time>
      </trkpt>
      <trkpt lat="45.30787" lon="5.88228">
        <ele>1004.2</ele>
        <time>2016-01-17T17:51:33Z</time>
      </trkpt>
      <trkpt lat="45.30784" lon="5.88213">
        <ele>1005.2</ele>
        <time>2016-01-17T17:51:36Z</time>
      </trkpt>
      <trkpt lat="45.30776" lon="5.88198">
        <ele>1005.3</ele>
        <time>2016-01-17T17:51:39Z</time>
      </trkpt>
      <trkpt lat="45.3077" lon="5.88182">
        <ele>1006.1</ele>
        <time>2016-01-17T17:51:42Z</time>
      </trkpt>
      <trkpt lat="45.30764" lon="5.88167">
        <ele>1007.1</ele>
        <time>2016-01-17T17:51:45Z</time>
      </trkpt>
      <trkpt lat="45.30759" lon="5.88152">
        <ele>1008.9</ele>
        <time>2016-01-17T17:51:48Z</time>
      </trkpt>
      <trkpt lat="45.30752" lon="5.88137">
        <ele>1010.1</ele>
        <time>2016-01-17T17:51:51Z</time>
      </trkpt>
      <trkpt lat="45.30744" lon="5.88125">
        <ele>1010.9</ele>
        <time>2016-01-17T17:51:54Z</time>
      </trkpt>
      <trkpt lat="45.30738" lon="5.88115">
        <ele>1011.6</ele>
        <time>2016-01-17T17:51:57Z</time>
      </trkpt>
      <trkpt lat="45.30728" lon="5.88108">
        <ele>1011</ele>
        <time>2016-01-17T17:52:00Z</time>
      </trkpt>
      <trkpt lat="45.30718" lon="5.881">
        <ele>1010.5</ele>
        <time>2016-01-17T17:52:03Z</time>
      </trkpt>
      <trkpt lat="45.30707" lon="5.8809">
        <ele>1010.5</ele>
        <time>2016-01-17T17:52:06Z</time>
      </trkpt>
      <trkpt lat="45.30699" lon="5.88078">
        <ele>1011.7</ele>
        <time>2016-01-17T17:52:09Z</time>
      </trkpt>
      <trkpt lat="45.30691" lon="5.88067">
        <ele>1012.6</ele>
        <time>2016-01-17T17:52:12Z</time>
      </trkpt>
      <trkpt lat="45.30683" lon="5.88056">
        <ele>1013.8</ele>
        <time>2016-01-17T17:52:15Z</time>
      </trkpt>
      <trkpt lat="45.30676" lon="5.88046">
        <ele>1014.1</ele>
        <time>2016-01-17T17:52:18Z</time>
      </trkpt>
      <trkpt lat="45.30669" lon="5.88038">
        <ele>1013.9</ele>
        <time>2016-01-17T17:52:21Z</time>
      </trkpt>
      <trkpt lat="45.30661" lon="5.8803">
        <ele>1013.9</ele>
        <time>2016-01-17T17:52:24Z</time>
      </trkpt>
      <trkpt lat="45.30654" lon="5.8802">
        <ele>1014.3</ele>
        <time>2016-01-17T17:52:27Z</time>
      </trkpt>
      <trkpt lat="45.30647" lon="5.88011">
        <ele>1014.8</ele>
        <time>2016-01-17T17:52:30Z</time>
      </trkpt>
      <trkpt lat="45.3064" lon="5.88003">
        <ele>1015</ele>
        <time>2016-01-17T17:52:33Z</time>
      </trkpt>
      <trkpt lat="45.30631" lon="5.87993">
        <ele>1015.5</ele>
        <time>2016-01-17T17:52:37Z</time>
      </trkpt>
      <trkpt lat="45.30621" lon="5.87985">
        <ele>1015.2</ele>
        <time>2016-01-17T17:52:41Z</time>
      </trkpt>
      <trkpt lat="45.30612" lon="5.87981">
        <ele>1014.1</ele>
        <time>2016-01-17T17:52:44Z</time>
      </trkpt>
      <trkpt lat="45.30603" lon="5.87979">
        <ele>1012.3</ele>
        <time>2016-01-17T17:52:47Z</time>
      </trkpt>
      <trkpt lat="45.30593" lon="5.87978">
        <ele>1010.2</ele>
        <time>2016-01-17T17:52:50Z</time>
      </trkpt>
      <trkpt lat="45.30583" lon="5.87977">
        <ele>1008.2</ele>
        <time>2016-01-17T17:52:53Z</time>
      </trkpt>
      <trkpt lat="45.30574" lon="5.87975">
        <ele>1007.6</ele>
        <time>2016-01-17T17:52:56Z</time>
      </trkpt>
      <trkpt lat="45.30562" lon="5.87974">
        <ele>1006.8</ele>
        <time>2016-01-17T17:53:00Z</time>
      </trkpt>
      <trkpt lat="45.30551" lon="5.87975">
        <ele>1005.5</ele>
        <time>2016-01-17T17:53:04Z</time>
      </trkpt>
      <trkpt lat="45.30542" lon="5.87978">
        <ele>1003.9</ele>
        <time>2016-01-17T17:53:08Z</time>
      </trkpt>
      <trkpt lat="45.30533" lon="5.87983">
        <ele>1002.2</ele>
        <time>2016-01-17T17:53:12Z</time>
      </trkpt>
      <trkpt lat="45.30523" lon="5.87988">
        <ele>1000.4</ele>
        <time>2016-01-17T17:53:16Z</time>
      </trkpt>
      <trkpt lat="45.30515" lon="5.87993">
        <ele>998.6</ele>
        <time>2016-01-17T17:53:20Z</time>
      </trkpt>
      <trkpt lat="45.30506" lon="5.87998">
        <ele>997</ele>
        <time>2016-01-17T17:53:24Z</time>
      </trkpt>
      <trkpt lat="45.30496" lon="5.88002">
        <ele>995.9</ele>
        <time>2016-01-17T17:53:28Z</time>
      </trkpt>
      <trkpt lat="45.30485" lon="5.88005">
        <ele>996</ele>
        <time>2016-01-17T17:53:32Z</time>
      </trkpt>
      <trkpt lat="45.30476" lon="5.88004">
        <ele>996.6</ele>
        <time>2016-01-17T17:53:36Z</time>
      </trkpt>
      <trkpt lat="45.30467" lon="5.88001">
        <ele>997.5</ele>
        <time>2016-01-17T17:53:40Z</time>
      </trkpt>
      <trkpt lat="45.30456" lon="5.87997">
        <ele>998.7</ele>
        <time>2016-01-17T17:53:44Z</time>
      </trkpt>
      <trkpt lat="45.30446" lon="5.87993">
        <ele>1000.1</ele>
        <time>2016-01-17T17:53:48Z</time>
      </trkpt>
      <trkpt lat="45.30437" lon="5.87988">
        <ele>1001.4</ele>
        <time>2016-01-17T17:53:52Z</time>
      </trkpt>
      <trkpt lat="45.30429" lon="5.87983">
        <ele>1002.9</ele>
        <time>2016-01-17T17:53:56Z</time>
      </trkpt>
      <trkpt lat="45.30418" lon="5.87977">
        <ele>1004.6</ele>
        <time>2016-01-17T17:54:01Z</time>
      </trkpt>
      <trkpt lat="45.3041" lon="5.87971">
        <ele>1006.3</ele>
        <time>2016-01-17T17:54:05Z</time>
      </trkpt>
      <trkpt lat="45.30402" lon="5.87965">
        <ele>1007.8</ele>
        <time>2016-01-17T17:54:09Z</time>
      </trkpt>
      <trkpt lat="45.30394" lon="5.87959">
        <ele>1009.3</ele>
        <time>2016-01-17T17:54:13Z</time>
      </trkpt>
      <trkpt lat="45.30386" lon="5.87953">
        <ele>1010.7</ele>
        <time>2016-01-17T17:54:17Z</time>
      </trkpt>
      <trkpt lat="45.30378" lon="5.87946">
        <ele>1012.3</ele>
        <time>2016-01-17T17:54:21Z</time>
      </trkpt>
      <trkpt lat="45.3037" lon="5.87938">
        <ele>1013.9</ele>
        <time>2016-01-17T17:54:25Z</time>
      </trkpt>
      <trkpt lat="45.30363" lon="5.87928">
        <ele>1015.7</ele>
        <time>2016-01-17T17:54:29Z</time>
      </trkpt>
      <trkpt lat="45.30356" lon="5.8792">
        <ele>1017.3</ele>
        <time>2016-01-17T17:54:33Z</time>
      </trkpt>
      <trkpt lat="45.30349" lon="5.8791">
        <ele>1019.1</ele>
        <time>2016-01-17T17:54:37Z</time>
      </trkpt>
      <trkpt lat="45.30343" lon="5.87898">
        <ele>1021.1</ele>
        <time>2016-01-17T17:54:42Z</time>
      </trkpt>
      <trkpt lat="45.30337" lon="5.87888">
        <ele>1022.6</ele>
        <time>2016-01-17T17:54:46Z</time>
      </trkpt>
      <trkpt lat="45.30332" lon="5.87878">
        <ele>1024.1</ele>
        <time>2016-01-17T17:54:50Z</time>
      </trkpt>
      <trkpt lat="45.30325" lon="5.87866">
        <ele>1025.3</ele>
        <time>2016-01-17T17:54:55Z</time>
      </trkpt>
      <trkpt lat="45.3032" lon="5.87854">
        <ele>1026.8</ele>
        <time>2016-01-17T17:55:00Z</time>
      </trkpt>
      <trkpt lat="45.30315" lon="5.87841">
        <ele>1028.2</ele>
        <time>2016-01-17T17:55:05Z</time>
      </trkpt>
      <trkpt lat="45.3031" lon="5.87828">
        <ele>1029.6</ele>
        <time>2016-01-17T17:55:10Z</time>
      </trkpt>
      <trkpt lat="45.30304" lon="5.87815">
        <ele>1030.9</ele>
        <time>2016-01-17T17:55:15Z</time>
      </trkpt>
      <trkpt lat="45.30299" lon="5.87801">
        <ele>1032.1</ele>
        <time>2016-01-17T17:55:20Z</time>
      </trkpt>
      <trkpt lat="45.30294" lon="5.87788">
        <ele>1033.2</ele>
        <time>2016-01-17T17:55:25Z</time>
      </trkpt>
      <trkpt lat="45.30289" lon="5.87774">
        <ele>1034.1</ele>
        <time>2016-01-17T17:55:30Z</time>
      </trkpt>
      <trkpt lat="45.30284" lon="5.87762">
        <ele>1034.8</ele>
        <time>2016-01-17T17:55:34Z</time>
      </trkpt>
      <trkpt lat="45.3028" lon="5.87751">
        <ele>1035.3</ele>
        <time>2016-01-17T17:55:38Z</time>
      </trkpt>
      <trkpt lat="45.30276" lon="5.8774">
        <ele>1035.6</ele>
        <time>2016-01-17T17:55:42Z</time>
      </trkpt>
      <trkpt lat="45.30271" lon="5.87728">
        <ele>1035.9</ele>
        <time>2016-01-17T17:55:46Z</time>
      </trkpt>
      <trkpt lat="45.30266" lon="5.87717">
        <ele>1036.1</ele>
        <time>2016-01-17T17:55:50Z</time>
      </trkpt>
      <trkpt lat="45.30261" lon="5.87703">
        <ele>1036.5</ele>
        <time>2016-01-17T17:55:55Z</time>
      </trkpt>
      <trkpt lat="45.30258" lon="5.87689">
        <ele>1037.2</ele>
        <time>2016-01-17T17:55:59Z</time>
      </trkpt>
      <trkpt lat="45.30253" lon="5.87676">
        <ele>1037.6</ele>
        <time>2016-01-17T17:56:04Z</time>
      </trkpt>
      <trkpt lat="45.30246" lon="5.87665">
        <ele>1037.7</ele>
        <time>2016-01-17T17:56:08Z</time>
      </trkpt>
      <trkpt lat="45.30241" lon="5.87653">
        <ele>1038.1</ele>
        <time>2016-01-17T17:56:12Z</time>
      </trkpt>
      <trkpt lat="45.30235" lon="5.87643">
        <ele>1038.2</ele>
        <time>2016-01-17T17:56:16Z</time>
      </trkpt>
      <trkpt lat="45.30231" lon="5.8763">
        <ele>1038.8</ele>
        <time>2016-01-17T17:56:20Z</time>
      </trkpt>
      <trkpt lat="45.30227" lon="5.87614">
        <ele>1039.9</ele>
        <time>2016-01-17T17:56:26Z</time>
      </trkpt>
      <trkpt lat="45.30224" lon="5.876">
        <ele>1040.9</ele>
        <time>2016-01-17T17:56:30Z</time>
      </trkpt>
      <trkpt lat="45.30221" lon="5.87584">
        <ele>1042.2</ele>
        <time>2016-01-17T17:56:34Z</time>
      </trkpt>
      <trkpt lat="45.30215" lon="5.8757">
        <ele>1042.5</ele>
        <time>2016-01-17T17:56:37Z</time>
      </trkpt>
      <trkpt lat="45.30213" lon="5.87558">
        <ele>1043</ele>
        <time>2016-01-17T17:56:40Z</time>
      </trkpt>
      <trkpt lat="45.3021" lon="5.87542">
        <ele>1043.6</ele>
        <time>2016-01-17T17:56:44Z</time>
      </trkpt>
      <trkpt lat="45.30203" lon="5.87529">
        <ele>1043.9</ele>
        <time>2016-01-17T17:56:47Z</time>
      </trkpt>
      <trkpt lat="45.30199" lon="5.87517">
        <ele>1044.3</ele>
        <time>2016-01-17T17:56:50Z</time>
      </trkpt>
      <trkpt lat="45.30196" lon="5.87505">
        <ele>1044.8</ele>
        <time>2016-01-17T17:56:53Z</time>
      </trkpt>
      <trkpt lat="45.30193" lon="5.87491">
        <ele>1045</ele>
        <time>2016-01-17T17:56:56Z</time>
      </trkpt>
      <trkpt lat="45.30189" lon="5.87476">
        <ele>1045</ele>
        <time>2016-01-17T17:57:00Z</time>
      </trkpt>
      <trkpt lat="45.30184" lon="5.87462">
        <ele>1044.6</ele>
        <time>2016-01-17T17:57:04Z</time>
      </trkpt>
      <trkpt lat="45.30179" lon="5.87451">
        <ele>1044.2</ele>
        <time>2016-01-17T17:57:07Z</time>
      </trkpt>
      <trkpt lat="45.30174" lon="5.87436">
        <ele>1043.9</ele>
        <time>2016-01-17T17:57:11Z</time>
      </trkpt>
      <trkpt lat="45.30171" lon="5.87422">
        <ele>1043.5</ele>
        <time>2016-01-17T17:57:15Z</time>
      </trkpt>
      <trkpt lat="45.30167" lon="5.87408">
        <ele>1043.1</ele>
        <time>2016-01-17T17:57:19Z</time>
      </trkpt>
      <trkpt lat="45.30161" lon="5.87394">
        <ele>1042.5</ele>
        <time>2016-01-17T17:57:23Z</time>
      </trkpt>
      <trkpt lat="45.3016" lon="5.87379">
        <ele>1042.5</ele>
        <time>2016-01-17T17:57:28Z</time>
      </trkpt>
      <trkpt lat="45.30164" lon="5.87366">
        <ele>1043.3</ele>
        <time>2016-01-17T17:57:33Z</time>
      </trkpt>
      <trkpt lat="45.30164" lon="5.87352">
        <ele>1043.5</ele>
        <time>2016-01-17T17:57:40Z</time>
      </trkpt>
      <trkpt lat="45.30157" lon="5.8736">
        <ele>1042.5</ele>
        <time>2016-01-17T18:07:16Z</time>
      </trkpt>
      <trkpt lat="45.30162" lon="5.87349">
        <ele>1043.3</ele>
        <time>2016-01-17T14:58:06Z</time>
      </trkpt>
    </trkseg>
  </trk>
</gpx>